<?xml version="1.0" encoding="UTF-8" standalone="no" ?>
<gpx xmlns="http://www.topografix.com/GPX/1/1" xmlns:xsi="http://www.w3.org/2001/XMLSchema-instance" xsi:schemaLocation="http://www.topografix.com/GPX/1/1 http://www.topografix.com/GPX/1/1/gpx.xsd" version="1.1" creator="VisuGPX - https://www.visugpx.com">
  <metadata>
    <name>la 6000D 2011</name>
    <desc><![CDATA[La 6000D de 2011]]></desc>
  </metadata>
  <trk>
    <name><![CDATA[Running 7/30/11 7:00 am]]></name>
    <trkseg>
      <trkpt lat="45.55572" lon="6.65064">
        <ele>678</ele>
        <time>2011-07-30T08:00:22Z</time>
      </trkpt>
      <trkpt lat="45.55578" lon="6.65073">
        <ele>678.1</ele>
        <time>2011-07-30T08:00:33Z</time>
      </trkpt>
      <trkpt lat="45.55583" lon="6.65086">
        <ele>678.2</ele>
        <time>2011-07-30T08:00:36Z</time>
      </trkpt>
      <trkpt lat="45.55586" lon="6.65101">
        <ele>678.3</ele>
        <time>2011-07-30T08:00:39Z</time>
      </trkpt>
      <trkpt lat="45.55589" lon="6.65113">
        <ele>678.4</ele>
        <time>2011-07-30T08:00:42Z</time>
      </trkpt>
      <trkpt lat="45.55593" lon="6.65127">
        <ele>678.5</ele>
        <time>2011-07-30T08:00:46Z</time>
      </trkpt>
      <trkpt lat="45.55595" lon="6.65142">
        <ele>678.5</ele>
        <time>2011-07-30T08:00:50Z</time>
      </trkpt>
      <trkpt lat="45.55598" lon="6.65157">
        <ele>678.5</ele>
        <time>2011-07-30T08:00:54Z</time>
      </trkpt>
      <trkpt lat="45.556" lon="6.65172">
        <ele>679.1</ele>
        <time>2011-07-30T08:00:58Z</time>
      </trkpt>
      <trkpt lat="45.55606" lon="6.65186">
        <ele>679.7</ele>
        <time>2011-07-30T08:01:02Z</time>
      </trkpt>
      <trkpt lat="45.55612" lon="6.65199">
        <ele>680.4</ele>
        <time>2011-07-30T08:01:06Z</time>
      </trkpt>
      <trkpt lat="45.55616" lon="6.65212">
        <ele>681</ele>
        <time>2011-07-30T08:01:10Z</time>
      </trkpt>
      <trkpt lat="45.55622" lon="6.65225">
        <ele>681.5</ele>
        <time>2011-07-30T08:01:14Z</time>
      </trkpt>
      <trkpt lat="45.5563" lon="6.65236">
        <ele>682.1</ele>
        <time>2011-07-30T08:01:19Z</time>
      </trkpt>
      <trkpt lat="45.55638" lon="6.65247">
        <ele>682.5</ele>
        <time>2011-07-30T08:01:22Z</time>
      </trkpt>
      <trkpt lat="45.55645" lon="6.65258">
        <ele>682.8</ele>
        <time>2011-07-30T08:01:26Z</time>
      </trkpt>
      <trkpt lat="45.55652" lon="6.65269">
        <ele>683.2</ele>
        <time>2011-07-30T08:01:30Z</time>
      </trkpt>
      <trkpt lat="45.5566" lon="6.65279">
        <ele>683.5</ele>
        <time>2011-07-30T08:01:34Z</time>
      </trkpt>
      <trkpt lat="45.55668" lon="6.65289">
        <ele>684.1</ele>
        <time>2011-07-30T08:01:38Z</time>
      </trkpt>
      <trkpt lat="45.55677" lon="6.653">
        <ele>684.1</ele>
        <time>2011-07-30T08:01:43Z</time>
      </trkpt>
      <trkpt lat="45.55685" lon="6.6531">
        <ele>684.1</ele>
        <time>2011-07-30T08:01:47Z</time>
      </trkpt>
      <trkpt lat="45.55692" lon="6.65322">
        <ele>684.1</ele>
        <time>2011-07-30T08:01:50Z</time>
      </trkpt>
      <trkpt lat="45.557" lon="6.65333">
        <ele>683.8</ele>
        <time>2011-07-30T08:01:55Z</time>
      </trkpt>
      <trkpt lat="45.55706" lon="6.65342">
        <ele>683.5</ele>
        <time>2011-07-30T08:01:58Z</time>
      </trkpt>
      <trkpt lat="45.55712" lon="6.65353">
        <ele>683.3</ele>
        <time>2011-07-30T08:02:00Z</time>
      </trkpt>
      <trkpt lat="45.55717" lon="6.65364">
        <ele>683.2</ele>
        <time>2011-07-30T08:02:03Z</time>
      </trkpt>
      <trkpt lat="45.55723" lon="6.65378">
        <ele>683.1</ele>
        <time>2011-07-30T08:02:08Z</time>
      </trkpt>
      <trkpt lat="45.55728" lon="6.65393">
        <ele>682.9</ele>
        <time>2011-07-30T08:02:12Z</time>
      </trkpt>
      <trkpt lat="45.55732" lon="6.65407">
        <ele>682.7</ele>
        <time>2011-07-30T08:02:15Z</time>
      </trkpt>
      <trkpt lat="45.55736" lon="6.65422">
        <ele>682.5</ele>
        <time>2011-07-30T08:02:20Z</time>
      </trkpt>
      <trkpt lat="45.55741" lon="6.65437">
        <ele>682.2</ele>
        <time>2011-07-30T08:02:24Z</time>
      </trkpt>
      <trkpt lat="45.55745" lon="6.65451">
        <ele>681.8</ele>
        <time>2011-07-30T08:02:27Z</time>
      </trkpt>
      <trkpt lat="45.55749" lon="6.65465">
        <ele>681.5</ele>
        <time>2011-07-30T08:02:31Z</time>
      </trkpt>
      <trkpt lat="45.55749" lon="6.65479">
        <ele>681.6</ele>
        <time>2011-07-30T08:02:34Z</time>
      </trkpt>
      <trkpt lat="45.55748" lon="6.65495">
        <ele>681.8</ele>
        <time>2011-07-30T08:02:38Z</time>
      </trkpt>
      <trkpt lat="45.55748" lon="6.65512">
        <ele>682</ele>
        <time>2011-07-30T08:02:43Z</time>
      </trkpt>
      <trkpt lat="45.55748" lon="6.65528">
        <ele>682.2</ele>
        <time>2011-07-30T08:02:47Z</time>
      </trkpt>
      <trkpt lat="45.55746" lon="6.65543">
        <ele>682.4</ele>
        <time>2011-07-30T08:02:50Z</time>
      </trkpt>
      <trkpt lat="45.55744" lon="6.65555">
        <ele>683.3</ele>
        <time>2011-07-30T08:02:54Z</time>
      </trkpt>
      <trkpt lat="45.55741" lon="6.65569">
        <ele>684.2</ele>
        <time>2011-07-30T08:02:58Z</time>
      </trkpt>
      <trkpt lat="45.55736" lon="6.65585">
        <ele>683.4</ele>
        <time>2011-07-30T08:03:01Z</time>
      </trkpt>
      <trkpt lat="45.55731" lon="6.65598">
        <ele>682.5</ele>
        <time>2011-07-30T08:03:05Z</time>
      </trkpt>
      <trkpt lat="45.55727" lon="6.65612">
        <ele>681.7</ele>
        <time>2011-07-30T08:03:08Z</time>
      </trkpt>
      <trkpt lat="45.55723" lon="6.65627">
        <ele>680.9</ele>
        <time>2011-07-30T08:03:12Z</time>
      </trkpt>
      <trkpt lat="45.55716" lon="6.6564">
        <ele>679.8</ele>
        <time>2011-07-30T08:03:17Z</time>
      </trkpt>
      <trkpt lat="45.55709" lon="6.65649">
        <ele>678.7</ele>
        <time>2011-07-30T08:03:20Z</time>
      </trkpt>
      <trkpt lat="45.55701" lon="6.65656">
        <ele>677.6</ele>
        <time>2011-07-30T08:03:22Z</time>
      </trkpt>
      <trkpt lat="45.55692" lon="6.65663">
        <ele>676.5</ele>
        <time>2011-07-30T08:03:25Z</time>
      </trkpt>
      <trkpt lat="45.55683" lon="6.6567">
        <ele>676.2</ele>
        <time>2011-07-30T08:03:29Z</time>
      </trkpt>
      <trkpt lat="45.55676" lon="6.65681">
        <ele>675.2</ele>
        <time>2011-07-30T08:03:31Z</time>
      </trkpt>
      <trkpt lat="45.55672" lon="6.65694">
        <ele>674.2</ele>
        <time>2011-07-30T08:03:34Z</time>
      </trkpt>
      <trkpt lat="45.55669" lon="6.65707">
        <ele>674.9</ele>
        <time>2011-07-30T08:03:38Z</time>
      </trkpt>
      <trkpt lat="45.55666" lon="6.6572">
        <ele>675.6</ele>
        <time>2011-07-30T08:03:41Z</time>
      </trkpt>
      <trkpt lat="45.55664" lon="6.65734">
        <ele>676.2</ele>
        <time>2011-07-30T08:03:43Z</time>
      </trkpt>
      <trkpt lat="45.55662" lon="6.65749">
        <ele>676.7</ele>
        <time>2011-07-30T08:03:48Z</time>
      </trkpt>
      <trkpt lat="45.55661" lon="6.65766">
        <ele>677.3</ele>
        <time>2011-07-30T08:03:52Z</time>
      </trkpt>
      <trkpt lat="45.55659" lon="6.6578">
        <ele>677.8</ele>
        <time>2011-07-30T08:03:54Z</time>
      </trkpt>
      <trkpt lat="45.55662" lon="6.65794">
        <ele>678.4</ele>
        <time>2011-07-30T08:04:00Z</time>
      </trkpt>
      <trkpt lat="45.55663" lon="6.6581">
        <ele>678.9</ele>
        <time>2011-07-30T08:04:04Z</time>
      </trkpt>
      <trkpt lat="45.55663" lon="6.65827">
        <ele>678.6</ele>
        <time>2011-07-30T08:04:08Z</time>
      </trkpt>
      <trkpt lat="45.55663" lon="6.6584">
        <ele>678.4</ele>
        <time>2011-07-30T08:04:12Z</time>
      </trkpt>
      <trkpt lat="45.55664" lon="6.65855">
        <ele>678.1</ele>
        <time>2011-07-30T08:04:15Z</time>
      </trkpt>
      <trkpt lat="45.55663" lon="6.6587">
        <ele>677.8</ele>
        <time>2011-07-30T08:04:18Z</time>
      </trkpt>
      <trkpt lat="45.55664" lon="6.65883">
        <ele>677.5</ele>
        <time>2011-07-30T08:04:21Z</time>
      </trkpt>
      <trkpt lat="45.55666" lon="6.65899">
        <ele>677.1</ele>
        <time>2011-07-30T08:04:25Z</time>
      </trkpt>
      <trkpt lat="45.55667" lon="6.65913">
        <ele>676.6</ele>
        <time>2011-07-30T08:04:28Z</time>
      </trkpt>
      <trkpt lat="45.55666" lon="6.6593">
        <ele>676.2</ele>
        <time>2011-07-30T08:04:33Z</time>
      </trkpt>
      <trkpt lat="45.55666" lon="6.65945">
        <ele>675.7</ele>
        <time>2011-07-30T08:04:37Z</time>
      </trkpt>
      <trkpt lat="45.55665" lon="6.65962">
        <ele>674.2</ele>
        <time>2011-07-30T08:04:40Z</time>
      </trkpt>
      <trkpt lat="45.55659" lon="6.65975">
        <ele>672.6</ele>
        <time>2011-07-30T08:04:43Z</time>
      </trkpt>
      <trkpt lat="45.5565" lon="6.65985">
        <ele>671.2</ele>
        <time>2011-07-30T08:04:46Z</time>
      </trkpt>
      <trkpt lat="45.55642" lon="6.65992">
        <ele>669.7</ele>
        <time>2011-07-30T08:04:49Z</time>
      </trkpt>
      <trkpt lat="45.55632" lon="6.66001">
        <ele>668.3</ele>
        <time>2011-07-30T08:04:52Z</time>
      </trkpt>
      <trkpt lat="45.55621" lon="6.6601">
        <ele>666.8</ele>
        <time>2011-07-30T08:04:55Z</time>
      </trkpt>
      <trkpt lat="45.55612" lon="6.66017">
        <ele>665.4</ele>
        <time>2011-07-30T08:04:58Z</time>
      </trkpt>
      <trkpt lat="45.55604" lon="6.66026">
        <ele>664.3</ele>
        <time>2011-07-30T08:05:02Z</time>
      </trkpt>
      <trkpt lat="45.55598" lon="6.66036">
        <ele>663.2</ele>
        <time>2011-07-30T08:05:05Z</time>
      </trkpt>
      <trkpt lat="45.55593" lon="6.66048">
        <ele>662.1</ele>
        <time>2011-07-30T08:05:08Z</time>
      </trkpt>
      <trkpt lat="45.55589" lon="6.66063">
        <ele>661</ele>
        <time>2011-07-30T08:05:12Z</time>
      </trkpt>
      <trkpt lat="45.55585" lon="6.66075">
        <ele>661.1</ele>
        <time>2011-07-30T08:05:15Z</time>
      </trkpt>
      <trkpt lat="45.5558" lon="6.66088">
        <ele>661.7</ele>
        <time>2011-07-30T08:05:18Z</time>
      </trkpt>
      <trkpt lat="45.55575" lon="6.66102">
        <ele>662.4</ele>
        <time>2011-07-30T08:05:22Z</time>
      </trkpt>
      <trkpt lat="45.55569" lon="6.66115">
        <ele>663</ele>
        <time>2011-07-30T08:05:27Z</time>
      </trkpt>
      <trkpt lat="45.55562" lon="6.66127">
        <ele>663.6</ele>
        <time>2011-07-30T08:05:30Z</time>
      </trkpt>
      <trkpt lat="45.55553" lon="6.66136">
        <ele>664.3</ele>
        <time>2011-07-30T08:05:34Z</time>
      </trkpt>
      <trkpt lat="45.55542" lon="6.66133">
        <ele>664.7</ele>
        <time>2011-07-30T08:05:40Z</time>
      </trkpt>
      <trkpt lat="45.55529" lon="6.66139">
        <ele>665.2</ele>
        <time>2011-07-30T08:05:43Z</time>
      </trkpt>
      <trkpt lat="45.5552" lon="6.66145">
        <ele>665.6</ele>
        <time>2011-07-30T08:05:45Z</time>
      </trkpt>
      <trkpt lat="45.55509" lon="6.66146">
        <ele>666.1</ele>
        <time>2011-07-30T08:05:48Z</time>
      </trkpt>
      <trkpt lat="45.555" lon="6.6614">
        <ele>666.5</ele>
        <time>2011-07-30T08:05:52Z</time>
      </trkpt>
      <trkpt lat="45.55494" lon="6.6613">
        <ele>666.9</ele>
        <time>2011-07-30T08:05:57Z</time>
      </trkpt>
      <trkpt lat="45.55489" lon="6.66117">
        <ele>666.5</ele>
        <time>2011-07-30T08:06:01Z</time>
      </trkpt>
      <trkpt lat="45.55488" lon="6.66103">
        <ele>666</ele>
        <time>2011-07-30T08:06:04Z</time>
      </trkpt>
      <trkpt lat="45.55489" lon="6.6609">
        <ele>665.5</ele>
        <time>2011-07-30T08:06:09Z</time>
      </trkpt>
      <trkpt lat="45.55491" lon="6.66075">
        <ele>665.1</ele>
        <time>2011-07-30T08:06:13Z</time>
      </trkpt>
      <trkpt lat="45.55492" lon="6.66062">
        <ele>664.6</ele>
        <time>2011-07-30T08:06:15Z</time>
      </trkpt>
      <trkpt lat="45.55492" lon="6.66048">
        <ele>664.4</ele>
        <time>2011-07-30T08:06:19Z</time>
      </trkpt>
      <trkpt lat="45.55491" lon="6.66034">
        <ele>664</ele>
        <time>2011-07-30T08:06:22Z</time>
      </trkpt>
      <trkpt lat="45.55489" lon="6.6602">
        <ele>663.6</ele>
        <time>2011-07-30T08:06:24Z</time>
      </trkpt>
      <trkpt lat="45.55486" lon="6.66008">
        <ele>663.3</ele>
        <time>2011-07-30T08:06:28Z</time>
      </trkpt>
      <trkpt lat="45.55483" lon="6.65996">
        <ele>662.9</ele>
        <time>2011-07-30T08:06:31Z</time>
      </trkpt>
      <trkpt lat="45.55479" lon="6.65981">
        <ele>663.3</ele>
        <time>2011-07-30T08:06:34Z</time>
      </trkpt>
      <trkpt lat="45.55474" lon="6.65965">
        <ele>663.9</ele>
        <time>2011-07-30T08:06:39Z</time>
      </trkpt>
      <trkpt lat="45.55471" lon="6.6595">
        <ele>664.5</ele>
        <time>2011-07-30T08:06:43Z</time>
      </trkpt>
      <trkpt lat="45.55468" lon="6.65937">
        <ele>665</ele>
        <time>2011-07-30T08:06:45Z</time>
      </trkpt>
      <trkpt lat="45.55464" lon="6.65924">
        <ele>665.5</ele>
        <time>2011-07-30T08:06:49Z</time>
      </trkpt>
      <trkpt lat="45.55462" lon="6.65911">
        <ele>666.1</ele>
        <time>2011-07-30T08:06:52Z</time>
      </trkpt>
      <trkpt lat="45.5546" lon="6.65899">
        <ele>666.6</ele>
        <time>2011-07-30T08:06:54Z</time>
      </trkpt>
      <trkpt lat="45.55456" lon="6.65884">
        <ele>667.3</ele>
        <time>2011-07-30T08:06:59Z</time>
      </trkpt>
      <trkpt lat="45.55454" lon="6.65869">
        <ele>667.8</ele>
        <time>2011-07-30T08:07:03Z</time>
      </trkpt>
      <trkpt lat="45.55452" lon="6.65854">
        <ele>668.4</ele>
        <time>2011-07-30T08:07:06Z</time>
      </trkpt>
      <trkpt lat="45.55451" lon="6.65838">
        <ele>668.9</ele>
        <time>2011-07-30T08:07:10Z</time>
      </trkpt>
      <trkpt lat="45.5545" lon="6.65823">
        <ele>668.7</ele>
        <time>2011-07-30T08:07:13Z</time>
      </trkpt>
      <trkpt lat="45.5545" lon="6.65809">
        <ele>668.5</ele>
        <time>2011-07-30T08:07:17Z</time>
      </trkpt>
      <trkpt lat="45.55448" lon="6.65796">
        <ele>668.5</ele>
        <time>2011-07-30T08:07:19Z</time>
      </trkpt>
      <trkpt lat="45.55446" lon="6.65783">
        <ele>668.4</ele>
        <time>2011-07-30T08:07:22Z</time>
      </trkpt>
      <trkpt lat="45.55444" lon="6.65767">
        <ele>667.9</ele>
        <time>2011-07-30T08:07:26Z</time>
      </trkpt>
      <trkpt lat="45.55441" lon="6.65752">
        <ele>667.5</ele>
        <time>2011-07-30T08:07:30Z</time>
      </trkpt>
      <trkpt lat="45.55436" lon="6.65739">
        <ele>667</ele>
        <time>2011-07-30T08:07:34Z</time>
      </trkpt>
      <trkpt lat="45.55429" lon="6.65729">
        <ele>666.5</ele>
        <time>2011-07-30T08:07:38Z</time>
      </trkpt>
      <trkpt lat="45.5542" lon="6.65722">
        <ele>666.2</ele>
        <time>2011-07-30T08:07:43Z</time>
      </trkpt>
      <trkpt lat="45.55411" lon="6.65719">
        <ele>666.5</ele>
        <time>2011-07-30T08:07:48Z</time>
      </trkpt>
      <trkpt lat="45.55402" lon="6.65716">
        <ele>666.7</ele>
        <time>2011-07-30T08:07:51Z</time>
      </trkpt>
      <trkpt lat="45.55392" lon="6.65708">
        <ele>667</ele>
        <time>2011-07-30T08:07:56Z</time>
      </trkpt>
      <trkpt lat="45.55384" lon="6.65698">
        <ele>667.3</ele>
        <time>2011-07-30T08:08:00Z</time>
      </trkpt>
      <trkpt lat="45.55378" lon="6.65689">
        <ele>667.5</ele>
        <time>2011-07-30T08:08:03Z</time>
      </trkpt>
      <trkpt lat="45.55371" lon="6.65677">
        <ele>667.2</ele>
        <time>2011-07-30T08:08:07Z</time>
      </trkpt>
      <trkpt lat="45.55363" lon="6.65667">
        <ele>667.2</ele>
        <time>2011-07-30T08:08:11Z</time>
      </trkpt>
      <trkpt lat="45.55356" lon="6.65656">
        <ele>667.2</ele>
        <time>2011-07-30T08:08:15Z</time>
      </trkpt>
      <trkpt lat="45.55347" lon="6.65643">
        <ele>667.2</ele>
        <time>2011-07-30T08:08:19Z</time>
      </trkpt>
      <trkpt lat="45.55339" lon="6.65633">
        <ele>667.2</ele>
        <time>2011-07-30T08:08:23Z</time>
      </trkpt>
      <trkpt lat="45.55332" lon="6.65625">
        <ele>667.2</ele>
        <time>2011-07-30T08:08:26Z</time>
      </trkpt>
      <trkpt lat="45.55323" lon="6.65614">
        <ele>667</ele>
        <time>2011-07-30T08:08:30Z</time>
      </trkpt>
      <trkpt lat="45.55314" lon="6.65603">
        <ele>666.8</ele>
        <time>2011-07-30T08:08:34Z</time>
      </trkpt>
      <trkpt lat="45.55306" lon="6.65595">
        <ele>666.5</ele>
        <time>2011-07-30T08:08:38Z</time>
      </trkpt>
      <trkpt lat="45.553" lon="6.65586">
        <ele>666.1</ele>
        <time>2011-07-30T08:08:42Z</time>
      </trkpt>
      <trkpt lat="45.55294" lon="6.65576">
        <ele>665.7</ele>
        <time>2011-07-30T08:08:44Z</time>
      </trkpt>
      <trkpt lat="45.55287" lon="6.65562">
        <ele>666</ele>
        <time>2011-07-30T08:08:48Z</time>
      </trkpt>
      <trkpt lat="45.55282" lon="6.65551">
        <ele>666.3</ele>
        <time>2011-07-30T08:08:52Z</time>
      </trkpt>
      <trkpt lat="45.55277" lon="6.65539">
        <ele>666.5</ele>
        <time>2011-07-30T08:08:54Z</time>
      </trkpt>
      <trkpt lat="45.55273" lon="6.65525">
        <ele>666.8</ele>
        <time>2011-07-30T08:08:57Z</time>
      </trkpt>
      <trkpt lat="45.5527" lon="6.65512">
        <ele>667.1</ele>
        <time>2011-07-30T08:09:00Z</time>
      </trkpt>
      <trkpt lat="45.55265" lon="6.65497">
        <ele>667.4</ele>
        <time>2011-07-30T08:09:04Z</time>
      </trkpt>
      <trkpt lat="45.55262" lon="6.65485">
        <ele>667.2</ele>
        <time>2011-07-30T08:09:07Z</time>
      </trkpt>
      <trkpt lat="45.55258" lon="6.6547">
        <ele>667</ele>
        <time>2011-07-30T08:09:12Z</time>
      </trkpt>
      <trkpt lat="45.55253" lon="6.65456">
        <ele>667</ele>
        <time>2011-07-30T08:09:15Z</time>
      </trkpt>
      <trkpt lat="45.55248" lon="6.65444">
        <ele>667</ele>
        <time>2011-07-30T08:09:19Z</time>
      </trkpt>
      <trkpt lat="45.55241" lon="6.65434">
        <ele>667.6</ele>
        <time>2011-07-30T08:09:23Z</time>
      </trkpt>
      <trkpt lat="45.55233" lon="6.65423">
        <ele>667.5</ele>
        <time>2011-07-30T08:09:27Z</time>
      </trkpt>
      <trkpt lat="45.55226" lon="6.65413">
        <ele>667.5</ele>
        <time>2011-07-30T08:09:30Z</time>
      </trkpt>
      <trkpt lat="45.55219" lon="6.65403">
        <ele>667.4</ele>
        <time>2011-07-30T08:09:34Z</time>
      </trkpt>
      <trkpt lat="45.55213" lon="6.65392">
        <ele>667.3</ele>
        <time>2011-07-30T08:09:36Z</time>
      </trkpt>
      <trkpt lat="45.55205" lon="6.65379">
        <ele>667.2</ele>
        <time>2011-07-30T08:09:40Z</time>
      </trkpt>
      <trkpt lat="45.55199" lon="6.65365">
        <ele>667.1</ele>
        <time>2011-07-30T08:09:45Z</time>
      </trkpt>
      <trkpt lat="45.55194" lon="6.65354">
        <ele>666.8</ele>
        <time>2011-07-30T08:09:48Z</time>
      </trkpt>
      <trkpt lat="45.55187" lon="6.6534">
        <ele>666.5</ele>
        <time>2011-07-30T08:09:51Z</time>
      </trkpt>
      <trkpt lat="45.55182" lon="6.65328">
        <ele>666.3</ele>
        <time>2011-07-30T08:09:54Z</time>
      </trkpt>
      <trkpt lat="45.55177" lon="6.65315">
        <ele>666</ele>
        <time>2011-07-30T08:09:57Z</time>
      </trkpt>
      <trkpt lat="45.55172" lon="6.65302">
        <ele>665.1</ele>
        <time>2011-07-30T08:10:00Z</time>
      </trkpt>
      <trkpt lat="45.55166" lon="6.65288">
        <ele>664.6</ele>
        <time>2011-07-30T08:10:05Z</time>
      </trkpt>
      <trkpt lat="45.5516" lon="6.65275">
        <ele>664.2</ele>
        <time>2011-07-30T08:10:08Z</time>
      </trkpt>
      <trkpt lat="45.55156" lon="6.65261">
        <ele>663.7</ele>
        <time>2011-07-30T08:10:12Z</time>
      </trkpt>
      <trkpt lat="45.55151" lon="6.65247">
        <ele>663.3</ele>
        <time>2011-07-30T08:10:17Z</time>
      </trkpt>
      <trkpt lat="45.55147" lon="6.6523">
        <ele>662.8</ele>
        <time>2011-07-30T08:10:20Z</time>
      </trkpt>
      <trkpt lat="45.55147" lon="6.65214">
        <ele>664.5</ele>
        <time>2011-07-30T08:10:24Z</time>
      </trkpt>
      <trkpt lat="45.55147" lon="6.65199">
        <ele>666.3</ele>
        <time>2011-07-30T08:10:29Z</time>
      </trkpt>
      <trkpt lat="45.55146" lon="6.65183">
        <ele>667.1</ele>
        <time>2011-07-30T08:10:32Z</time>
      </trkpt>
      <trkpt lat="45.55139" lon="6.65169">
        <ele>667.9</ele>
        <time>2011-07-30T08:10:36Z</time>
      </trkpt>
      <trkpt lat="45.55131" lon="6.65158">
        <ele>668.7</ele>
        <time>2011-07-30T08:10:40Z</time>
      </trkpt>
      <trkpt lat="45.55123" lon="6.65149">
        <ele>669.5</ele>
        <time>2011-07-30T08:10:44Z</time>
      </trkpt>
      <trkpt lat="45.55116" lon="6.65139">
        <ele>670.6</ele>
        <time>2011-07-30T08:10:48Z</time>
      </trkpt>
      <trkpt lat="45.5511" lon="6.65126">
        <ele>671.7</ele>
        <time>2011-07-30T08:10:52Z</time>
      </trkpt>
      <trkpt lat="45.55104" lon="6.65112">
        <ele>671.9</ele>
        <time>2011-07-30T08:10:56Z</time>
      </trkpt>
      <trkpt lat="45.55102" lon="6.65097">
        <ele>672.1</ele>
        <time>2011-07-30T08:11:00Z</time>
      </trkpt>
      <trkpt lat="45.55098" lon="6.65083">
        <ele>672.3</ele>
        <time>2011-07-30T08:11:04Z</time>
      </trkpt>
      <trkpt lat="45.55096" lon="6.65068">
        <ele>670.4</ele>
        <time>2011-07-30T08:11:09Z</time>
      </trkpt>
      <trkpt lat="45.55093" lon="6.65052">
        <ele>668.5</ele>
        <time>2011-07-30T08:11:13Z</time>
      </trkpt>
      <trkpt lat="45.55091" lon="6.65035">
        <ele>667.5</ele>
        <time>2011-07-30T08:11:16Z</time>
      </trkpt>
      <trkpt lat="45.55089" lon="6.65019">
        <ele>665.4</ele>
        <time>2011-07-30T08:11:20Z</time>
      </trkpt>
      <trkpt lat="45.55083" lon="6.65001">
        <ele>663.2</ele>
        <time>2011-07-30T08:11:25Z</time>
      </trkpt>
      <trkpt lat="45.55076" lon="6.64989">
        <ele>663.2</ele>
        <time>2011-07-30T08:11:29Z</time>
      </trkpt>
      <trkpt lat="45.55067" lon="6.64979">
        <ele>663.2</ele>
        <time>2011-07-30T08:11:34Z</time>
      </trkpt>
      <trkpt lat="45.55058" lon="6.64968">
        <ele>663.2</ele>
        <time>2011-07-30T08:11:37Z</time>
      </trkpt>
      <trkpt lat="45.55053" lon="6.64958">
        <ele>664.1</ele>
        <time>2011-07-30T08:11:41Z</time>
      </trkpt>
      <trkpt lat="45.55048" lon="6.64947">
        <ele>664.4</ele>
        <time>2011-07-30T08:11:44Z</time>
      </trkpt>
      <trkpt lat="45.55044" lon="6.64934">
        <ele>664.6</ele>
        <time>2011-07-30T08:11:46Z</time>
      </trkpt>
      <trkpt lat="45.5504" lon="6.64922">
        <ele>664.9</ele>
        <time>2011-07-30T08:11:49Z</time>
      </trkpt>
      <trkpt lat="45.55035" lon="6.6491">
        <ele>665.2</ele>
        <time>2011-07-30T08:11:53Z</time>
      </trkpt>
      <trkpt lat="45.55031" lon="6.64894">
        <ele>665.5</ele>
        <time>2011-07-30T08:11:56Z</time>
      </trkpt>
      <trkpt lat="45.55026" lon="6.64883">
        <ele>667</ele>
        <time>2011-07-30T08:11:59Z</time>
      </trkpt>
      <trkpt lat="45.55022" lon="6.6487">
        <ele>668.5</ele>
        <time>2011-07-30T08:12:02Z</time>
      </trkpt>
      <trkpt lat="45.55017" lon="6.64858">
        <ele>667.9</ele>
        <time>2011-07-30T08:12:06Z</time>
      </trkpt>
      <trkpt lat="45.55012" lon="6.64843">
        <ele>667.3</ele>
        <time>2011-07-30T08:12:09Z</time>
      </trkpt>
      <trkpt lat="45.55008" lon="6.64828">
        <ele>666.6</ele>
        <time>2011-07-30T08:12:14Z</time>
      </trkpt>
      <trkpt lat="45.55004" lon="6.64813">
        <ele>666</ele>
        <time>2011-07-30T08:12:18Z</time>
      </trkpt>
      <trkpt lat="45.55001" lon="6.64798">
        <ele>666</ele>
        <time>2011-07-30T08:12:21Z</time>
      </trkpt>
      <trkpt lat="45.54999" lon="6.64783">
        <ele>665.7</ele>
        <time>2011-07-30T08:12:26Z</time>
      </trkpt>
      <trkpt lat="45.54997" lon="6.64769">
        <ele>665.5</ele>
        <time>2011-07-30T08:12:29Z</time>
      </trkpt>
      <trkpt lat="45.54993" lon="6.64755">
        <ele>665.2</ele>
        <time>2011-07-30T08:12:34Z</time>
      </trkpt>
      <trkpt lat="45.5499" lon="6.64739">
        <ele>664.9</ele>
        <time>2011-07-30T08:12:37Z</time>
      </trkpt>
      <trkpt lat="45.54986" lon="6.64724">
        <ele>664.6</ele>
        <time>2011-07-30T08:12:41Z</time>
      </trkpt>
      <trkpt lat="45.54985" lon="6.6471">
        <ele>664.4</ele>
        <time>2011-07-30T08:12:46Z</time>
      </trkpt>
      <trkpt lat="45.54983" lon="6.64697">
        <ele>663.9</ele>
        <time>2011-07-30T08:12:49Z</time>
      </trkpt>
      <trkpt lat="45.54979" lon="6.64684">
        <ele>663.5</ele>
        <time>2011-07-30T08:12:53Z</time>
      </trkpt>
      <trkpt lat="45.54977" lon="6.64669">
        <ele>663</ele>
        <time>2011-07-30T08:12:58Z</time>
      </trkpt>
      <trkpt lat="45.54977" lon="6.64654">
        <ele>662.5</ele>
        <time>2011-07-30T08:13:01Z</time>
      </trkpt>
      <trkpt lat="45.54978" lon="6.64638">
        <ele>662.1</ele>
        <time>2011-07-30T08:13:06Z</time>
      </trkpt>
      <trkpt lat="45.54979" lon="6.64624">
        <ele>661.9</ele>
        <time>2011-07-30T08:13:08Z</time>
      </trkpt>
      <trkpt lat="45.54979" lon="6.6461">
        <ele>661.6</ele>
        <time>2011-07-30T08:13:11Z</time>
      </trkpt>
      <trkpt lat="45.54979" lon="6.64597">
        <ele>661.4</ele>
        <time>2011-07-30T08:13:15Z</time>
      </trkpt>
      <trkpt lat="45.54978" lon="6.64583">
        <ele>661.1</ele>
        <time>2011-07-30T08:13:17Z</time>
      </trkpt>
      <trkpt lat="45.54976" lon="6.64569">
        <ele>660.8</ele>
        <time>2011-07-30T08:13:20Z</time>
      </trkpt>
      <trkpt lat="45.54975" lon="6.64556">
        <ele>660.5</ele>
        <time>2011-07-30T08:13:24Z</time>
      </trkpt>
      <trkpt lat="45.54974" lon="6.64543">
        <ele>660.5</ele>
        <time>2011-07-30T08:13:27Z</time>
      </trkpt>
      <trkpt lat="45.54974" lon="6.64529">
        <ele>660.4</ele>
        <time>2011-07-30T08:13:29Z</time>
      </trkpt>
      <trkpt lat="45.54973" lon="6.64513">
        <ele>660.3</ele>
        <time>2011-07-30T08:13:33Z</time>
      </trkpt>
      <trkpt lat="45.54971" lon="6.64498">
        <ele>660.2</ele>
        <time>2011-07-30T08:13:37Z</time>
      </trkpt>
      <trkpt lat="45.5497" lon="6.64483">
        <ele>660.1</ele>
        <time>2011-07-30T08:13:41Z</time>
      </trkpt>
      <trkpt lat="45.54971" lon="6.64468">
        <ele>660</ele>
        <time>2011-07-30T08:13:46Z</time>
      </trkpt>
      <trkpt lat="45.54975" lon="6.64456">
        <ele>660</ele>
        <time>2011-07-30T08:13:50Z</time>
      </trkpt>
      <trkpt lat="45.54978" lon="6.64442">
        <ele>659.5</ele>
        <time>2011-07-30T08:13:53Z</time>
      </trkpt>
      <trkpt lat="45.54975" lon="6.64426">
        <ele>658.9</ele>
        <time>2011-07-30T08:13:57Z</time>
      </trkpt>
      <trkpt lat="45.54972" lon="6.64411">
        <ele>661.5</ele>
        <time>2011-07-30T08:14:00Z</time>
      </trkpt>
      <trkpt lat="45.54969" lon="6.64398">
        <ele>664</ele>
        <time>2011-07-30T08:14:03Z</time>
      </trkpt>
      <trkpt lat="45.54967" lon="6.64384">
        <ele>666.5</ele>
        <time>2011-07-30T08:14:08Z</time>
      </trkpt>
      <trkpt lat="45.54966" lon="6.64371">
        <ele>669.1</ele>
        <time>2011-07-30T08:14:11Z</time>
      </trkpt>
      <trkpt lat="45.54964" lon="6.64358">
        <ele>671.4</ele>
        <time>2011-07-30T08:14:15Z</time>
      </trkpt>
      <trkpt lat="45.54962" lon="6.64342">
        <ele>673.6</ele>
        <time>2011-07-30T08:14:20Z</time>
      </trkpt>
      <trkpt lat="45.5496" lon="6.64329">
        <ele>673.3</ele>
        <time>2011-07-30T08:14:22Z</time>
      </trkpt>
      <trkpt lat="45.54959" lon="6.64314">
        <ele>672.9</ele>
        <time>2011-07-30T08:14:27Z</time>
      </trkpt>
      <trkpt lat="45.54959" lon="6.64298">
        <ele>672.5</ele>
        <time>2011-07-30T08:14:31Z</time>
      </trkpt>
      <trkpt lat="45.54961" lon="6.64282">
        <ele>675.5</ele>
        <time>2011-07-30T08:14:35Z</time>
      </trkpt>
      <trkpt lat="45.54963" lon="6.64268">
        <ele>678.4</ele>
        <time>2011-07-30T08:14:38Z</time>
      </trkpt>
      <trkpt lat="45.54966" lon="6.64254">
        <ele>678.2</ele>
        <time>2011-07-30T08:14:42Z</time>
      </trkpt>
      <trkpt lat="45.54966" lon="6.64241">
        <ele>678</ele>
        <time>2011-07-30T08:14:47Z</time>
      </trkpt>
      <trkpt lat="45.54965" lon="6.64225">
        <ele>677.8</ele>
        <time>2011-07-30T08:14:50Z</time>
      </trkpt>
      <trkpt lat="45.54963" lon="6.64212">
        <ele>677.6</ele>
        <time>2011-07-30T08:14:53Z</time>
      </trkpt>
      <trkpt lat="45.54961" lon="6.64198">
        <ele>678</ele>
        <time>2011-07-30T08:14:57Z</time>
      </trkpt>
      <trkpt lat="45.5496" lon="6.64184">
        <ele>678.4</ele>
        <time>2011-07-30T08:14:59Z</time>
      </trkpt>
      <trkpt lat="45.54958" lon="6.6417">
        <ele>681.4</ele>
        <time>2011-07-30T08:15:02Z</time>
      </trkpt>
      <trkpt lat="45.54958" lon="6.64154">
        <ele>681.3</ele>
        <time>2011-07-30T08:15:07Z</time>
      </trkpt>
      <trkpt lat="45.54954" lon="6.6414">
        <ele>681.2</ele>
        <time>2011-07-30T08:15:11Z</time>
      </trkpt>
      <trkpt lat="45.54955" lon="6.64112">
        <ele>678.4</ele>
        <time>2011-07-30T08:15:19Z</time>
      </trkpt>
      <trkpt lat="45.54957" lon="6.641">
        <ele>675.9</ele>
        <time>2011-07-30T08:15:22Z</time>
      </trkpt>
      <trkpt lat="45.54961" lon="6.64087">
        <ele>673.5</ele>
        <time>2011-07-30T08:15:25Z</time>
      </trkpt>
      <trkpt lat="45.54967" lon="6.64074">
        <ele>671</ele>
        <time>2011-07-30T08:15:28Z</time>
      </trkpt>
      <trkpt lat="45.54974" lon="6.64063">
        <ele>668.5</ele>
        <time>2011-07-30T08:15:31Z</time>
      </trkpt>
      <trkpt lat="45.5498" lon="6.64054">
        <ele>666.1</ele>
        <time>2011-07-30T08:15:33Z</time>
      </trkpt>
      <trkpt lat="45.54989" lon="6.64045">
        <ele>663.4</ele>
        <time>2011-07-30T08:15:38Z</time>
      </trkpt>
      <trkpt lat="45.54995" lon="6.64033">
        <ele>660.9</ele>
        <time>2011-07-30T08:15:42Z</time>
      </trkpt>
      <trkpt lat="45.54997" lon="6.6402">
        <ele>658.5</ele>
        <time>2011-07-30T08:15:49Z</time>
      </trkpt>
      <trkpt lat="45.54997" lon="6.64006">
        <ele>659.1</ele>
        <time>2011-07-30T08:15:53Z</time>
      </trkpt>
      <trkpt lat="45.54995" lon="6.63991">
        <ele>659.7</ele>
        <time>2011-07-30T08:15:59Z</time>
      </trkpt>
      <trkpt lat="45.54992" lon="6.63975">
        <ele>660.4</ele>
        <time>2011-07-30T08:16:03Z</time>
      </trkpt>
      <trkpt lat="45.54991" lon="6.63958">
        <ele>660.6</ele>
        <time>2011-07-30T08:16:07Z</time>
      </trkpt>
      <trkpt lat="45.54988" lon="6.63942">
        <ele>660.4</ele>
        <time>2011-07-30T08:16:10Z</time>
      </trkpt>
      <trkpt lat="45.54985" lon="6.63929">
        <ele>660.1</ele>
        <time>2011-07-30T08:16:13Z</time>
      </trkpt>
      <trkpt lat="45.54982" lon="6.63914">
        <ele>659.8</ele>
        <time>2011-07-30T08:16:18Z</time>
      </trkpt>
      <trkpt lat="45.54979" lon="6.63899">
        <ele>662.7</ele>
        <time>2011-07-30T08:16:22Z</time>
      </trkpt>
      <trkpt lat="45.54976" lon="6.63886">
        <ele>665.6</ele>
        <time>2011-07-30T08:16:24Z</time>
      </trkpt>
      <trkpt lat="45.54973" lon="6.63874">
        <ele>667</ele>
        <time>2011-07-30T08:16:28Z</time>
      </trkpt>
      <trkpt lat="45.54972" lon="6.6386">
        <ele>668.4</ele>
        <time>2011-07-30T08:16:31Z</time>
      </trkpt>
      <trkpt lat="45.54969" lon="6.63844">
        <ele>669.7</ele>
        <time>2011-07-30T08:16:33Z</time>
      </trkpt>
      <trkpt lat="45.54964" lon="6.63828">
        <ele>671.1</ele>
        <time>2011-07-30T08:16:37Z</time>
      </trkpt>
      <trkpt lat="45.54958" lon="6.63815">
        <ele>672.5</ele>
        <time>2011-07-30T08:16:39Z</time>
      </trkpt>
      <trkpt lat="45.54952" lon="6.63804">
        <ele>673.8</ele>
        <time>2011-07-30T08:16:42Z</time>
      </trkpt>
      <trkpt lat="45.54946" lon="6.6379">
        <ele>675.7</ele>
        <time>2011-07-30T08:16:47Z</time>
      </trkpt>
      <trkpt lat="45.54938" lon="6.63778">
        <ele>675.8</ele>
        <time>2011-07-30T08:16:51Z</time>
      </trkpt>
      <trkpt lat="45.54932" lon="6.63766">
        <ele>675.9</ele>
        <time>2011-07-30T08:16:54Z</time>
      </trkpt>
      <trkpt lat="45.54926" lon="6.63751">
        <ele>672.8</ele>
        <time>2011-07-30T08:16:59Z</time>
      </trkpt>
      <trkpt lat="45.5492" lon="6.63739">
        <ele>669.7</ele>
        <time>2011-07-30T08:17:02Z</time>
      </trkpt>
      <trkpt lat="45.54915" lon="6.63726">
        <ele>667.9</ele>
        <time>2011-07-30T08:17:04Z</time>
      </trkpt>
      <trkpt lat="45.54905" lon="6.63707">
        <ele>669.8</ele>
        <time>2011-07-30T08:17:10Z</time>
      </trkpt>
      <trkpt lat="45.54899" lon="6.63696">
        <ele>671.7</ele>
        <time>2011-07-30T08:17:16Z</time>
      </trkpt>
      <trkpt lat="45.54892" lon="6.63684">
        <ele>671.4</ele>
        <time>2011-07-30T08:17:20Z</time>
      </trkpt>
      <trkpt lat="45.54885" lon="6.63674">
        <ele>671</ele>
        <time>2011-07-30T08:17:24Z</time>
      </trkpt>
      <trkpt lat="45.54879" lon="6.63661">
        <ele>670.6</ele>
        <time>2011-07-30T08:17:29Z</time>
      </trkpt>
      <trkpt lat="45.54869" lon="6.63641">
        <ele>670.3</ele>
        <time>2011-07-30T08:17:34Z</time>
      </trkpt>
      <trkpt lat="45.54864" lon="6.6363">
        <ele>671.7</ele>
        <time>2011-07-30T08:17:38Z</time>
      </trkpt>
      <trkpt lat="45.54858" lon="6.63619">
        <ele>673.2</ele>
        <time>2011-07-30T08:17:40Z</time>
      </trkpt>
      <trkpt lat="45.54853" lon="6.63607">
        <ele>673.8</ele>
        <time>2011-07-30T08:17:43Z</time>
      </trkpt>
      <trkpt lat="45.54848" lon="6.63595">
        <ele>674.5</ele>
        <time>2011-07-30T08:17:47Z</time>
      </trkpt>
      <trkpt lat="45.54843" lon="6.63584">
        <ele>675.1</ele>
        <time>2011-07-30T08:17:50Z</time>
      </trkpt>
      <trkpt lat="45.54839" lon="6.63571">
        <ele>672</ele>
        <time>2011-07-30T08:17:52Z</time>
      </trkpt>
      <trkpt lat="45.54838" lon="6.63555">
        <ele>668.9</ele>
        <time>2011-07-30T08:17:57Z</time>
      </trkpt>
      <trkpt lat="45.5484" lon="6.6354">
        <ele>668.1</ele>
        <time>2011-07-30T08:18:00Z</time>
      </trkpt>
      <trkpt lat="45.54844" lon="6.63525">
        <ele>666.6</ele>
        <time>2011-07-30T08:18:04Z</time>
      </trkpt>
      <trkpt lat="45.54849" lon="6.63511">
        <ele>665.2</ele>
        <time>2011-07-30T08:18:08Z</time>
      </trkpt>
      <trkpt lat="45.54852" lon="6.63496">
        <ele>663.7</ele>
        <time>2011-07-30T08:18:10Z</time>
      </trkpt>
      <trkpt lat="45.54851" lon="6.63481">
        <ele>662.3</ele>
        <time>2011-07-30T08:18:13Z</time>
      </trkpt>
      <trkpt lat="45.54848" lon="6.63467">
        <ele>660.8</ele>
        <time>2011-07-30T08:18:17Z</time>
      </trkpt>
      <trkpt lat="45.54843" lon="6.63456">
        <ele>660.2</ele>
        <time>2011-07-30T08:18:20Z</time>
      </trkpt>
      <trkpt lat="45.54835" lon="6.63444">
        <ele>659.5</ele>
        <time>2011-07-30T08:18:23Z</time>
      </trkpt>
      <trkpt lat="45.54828" lon="6.63432">
        <ele>659.6</ele>
        <time>2011-07-30T08:18:28Z</time>
      </trkpt>
      <trkpt lat="45.5482" lon="6.63421">
        <ele>659.7</ele>
        <time>2011-07-30T08:18:32Z</time>
      </trkpt>
      <trkpt lat="45.54813" lon="6.6341">
        <ele>659.8</ele>
        <time>2011-07-30T08:18:36Z</time>
      </trkpt>
      <trkpt lat="45.54805" lon="6.63398">
        <ele>659.9</ele>
        <time>2011-07-30T08:18:40Z</time>
      </trkpt>
      <trkpt lat="45.54797" lon="6.63387">
        <ele>660.6</ele>
        <time>2011-07-30T08:18:43Z</time>
      </trkpt>
      <trkpt lat="45.5479" lon="6.63375">
        <ele>661.4</ele>
        <time>2011-07-30T08:18:48Z</time>
      </trkpt>
      <trkpt lat="45.54781" lon="6.63364">
        <ele>662.1</ele>
        <time>2011-07-30T08:18:52Z</time>
      </trkpt>
      <trkpt lat="45.54772" lon="6.63355">
        <ele>662.8</ele>
        <time>2011-07-30T08:18:56Z</time>
      </trkpt>
      <trkpt lat="45.54764" lon="6.63346">
        <ele>663.5</ele>
        <time>2011-07-30T08:18:59Z</time>
      </trkpt>
      <trkpt lat="45.54758" lon="6.63336">
        <ele>664.3</ele>
        <time>2011-07-30T08:19:03Z</time>
      </trkpt>
      <trkpt lat="45.5475" lon="6.63326">
        <ele>666.1</ele>
        <time>2011-07-30T08:19:08Z</time>
      </trkpt>
      <trkpt lat="45.54742" lon="6.6332">
        <ele>667.2</ele>
        <time>2011-07-30T08:19:11Z</time>
      </trkpt>
      <trkpt lat="45.54731" lon="6.63315">
        <ele>668.3</ele>
        <time>2011-07-30T08:19:17Z</time>
      </trkpt>
      <trkpt lat="45.54722" lon="6.63311">
        <ele>669.4</ele>
        <time>2011-07-30T08:19:22Z</time>
      </trkpt>
      <trkpt lat="45.54713" lon="6.63304">
        <ele>670.5</ele>
        <time>2011-07-30T08:19:27Z</time>
      </trkpt>
      <trkpt lat="45.54703" lon="6.63297">
        <ele>671.5</ele>
        <time>2011-07-30T08:19:32Z</time>
      </trkpt>
      <trkpt lat="45.54692" lon="6.63292">
        <ele>672.6</ele>
        <time>2011-07-30T08:19:37Z</time>
      </trkpt>
      <trkpt lat="45.54682" lon="6.63288">
        <ele>673.7</ele>
        <time>2011-07-30T08:19:41Z</time>
      </trkpt>
      <trkpt lat="45.54673" lon="6.63282">
        <ele>674.8</ele>
        <time>2011-07-30T08:19:47Z</time>
      </trkpt>
      <trkpt lat="45.54666" lon="6.63273">
        <ele>674.5</ele>
        <time>2011-07-30T08:19:52Z</time>
      </trkpt>
      <trkpt lat="45.54658" lon="6.63258">
        <ele>678.9</ele>
        <time>2011-07-30T08:19:57Z</time>
      </trkpt>
      <trkpt lat="45.54652" lon="6.63247">
        <ele>682.3</ele>
        <time>2011-07-30T08:20:02Z</time>
      </trkpt>
      <trkpt lat="45.54646" lon="6.63236">
        <ele>685.6</ele>
        <time>2011-07-30T08:20:08Z</time>
      </trkpt>
      <trkpt lat="45.54641" lon="6.63225">
        <ele>689</ele>
        <time>2011-07-30T08:20:14Z</time>
      </trkpt>
      <trkpt lat="45.54635" lon="6.63215">
        <ele>692.4</ele>
        <time>2011-07-30T08:20:21Z</time>
      </trkpt>
      <trkpt lat="45.54628" lon="6.63202">
        <ele>695.7</ele>
        <time>2011-07-30T08:20:25Z</time>
      </trkpt>
      <trkpt lat="45.54624" lon="6.63189">
        <ele>698.5</ele>
        <time>2011-07-30T08:20:31Z</time>
      </trkpt>
      <trkpt lat="45.54621" lon="6.63174">
        <ele>701.4</ele>
        <time>2011-07-30T08:20:35Z</time>
      </trkpt>
      <trkpt lat="45.54622" lon="6.6316">
        <ele>704.2</ele>
        <time>2011-07-30T08:20:42Z</time>
      </trkpt>
      <trkpt lat="45.5462" lon="6.63145">
        <ele>707</ele>
        <time>2011-07-30T08:20:49Z</time>
      </trkpt>
      <trkpt lat="45.54616" lon="6.63133">
        <ele>711.3</ele>
        <time>2011-07-30T08:20:53Z</time>
      </trkpt>
      <trkpt lat="45.54613" lon="6.63118">
        <ele>709.5</ele>
        <time>2011-07-30T08:20:56Z</time>
      </trkpt>
      <trkpt lat="45.5461" lon="6.63106">
        <ele>707.6</ele>
        <time>2011-07-30T08:21:00Z</time>
      </trkpt>
      <trkpt lat="45.54607" lon="6.63089">
        <ele>705.8</ele>
        <time>2011-07-30T08:21:07Z</time>
      </trkpt>
      <trkpt lat="45.54604" lon="6.63076">
        <ele>704</ele>
        <time>2011-07-30T08:21:13Z</time>
      </trkpt>
      <trkpt lat="45.54601" lon="6.63062">
        <ele>702.2</ele>
        <time>2011-07-30T08:21:20Z</time>
      </trkpt>
      <trkpt lat="45.54598" lon="6.63049">
        <ele>700.4</ele>
        <time>2011-07-30T08:21:26Z</time>
      </trkpt>
      <trkpt lat="45.54595" lon="6.63035">
        <ele>699.1</ele>
        <time>2011-07-30T08:21:31Z</time>
      </trkpt>
      <trkpt lat="45.54591" lon="6.63022">
        <ele>697.5</ele>
        <time>2011-07-30T08:21:36Z</time>
      </trkpt>
      <trkpt lat="45.54587" lon="6.6301">
        <ele>695.8</ele>
        <time>2011-07-30T08:21:43Z</time>
      </trkpt>
      <trkpt lat="45.54583" lon="6.62997">
        <ele>694.2</ele>
        <time>2011-07-30T08:21:51Z</time>
      </trkpt>
      <trkpt lat="45.54579" lon="6.62985">
        <ele>692.5</ele>
        <time>2011-07-30T08:21:58Z</time>
      </trkpt>
      <trkpt lat="45.54577" lon="6.62972">
        <ele>692.2</ele>
        <time>2011-07-30T08:22:02Z</time>
      </trkpt>
      <trkpt lat="45.54574" lon="6.62958">
        <ele>691.8</ele>
        <time>2011-07-30T08:22:09Z</time>
      </trkpt>
      <trkpt lat="45.54571" lon="6.62939">
        <ele>689.6</ele>
        <time>2011-07-30T08:22:14Z</time>
      </trkpt>
      <trkpt lat="45.54568" lon="6.62925">
        <ele>695.1</ele>
        <time>2011-07-30T08:22:19Z</time>
      </trkpt>
      <trkpt lat="45.54564" lon="6.62912">
        <ele>700.5</ele>
        <time>2011-07-30T08:22:23Z</time>
      </trkpt>
      <trkpt lat="45.54559" lon="6.629">
        <ele>706</ele>
        <time>2011-07-30T08:22:28Z</time>
      </trkpt>
      <trkpt lat="45.54554" lon="6.62887">
        <ele>711.5</ele>
        <time>2011-07-30T08:22:32Z</time>
      </trkpt>
      <trkpt lat="45.5455" lon="6.62873">
        <ele>717.3</ele>
        <time>2011-07-30T08:22:38Z</time>
      </trkpt>
      <trkpt lat="45.54544" lon="6.62863">
        <ele>723.1</ele>
        <time>2011-07-30T08:22:45Z</time>
      </trkpt>
      <trkpt lat="45.54539" lon="6.62852">
        <ele>726.3</ele>
        <time>2011-07-30T08:23:01Z</time>
      </trkpt>
      <trkpt lat="45.54533" lon="6.62841">
        <ele>729.5</ele>
        <time>2011-07-30T08:23:09Z</time>
      </trkpt>
      <trkpt lat="45.54529" lon="6.62827">
        <ele>732.6</ele>
        <time>2011-07-30T08:23:17Z</time>
      </trkpt>
      <trkpt lat="45.54524" lon="6.62816">
        <ele>735.8</ele>
        <time>2011-07-30T08:23:21Z</time>
      </trkpt>
      <trkpt lat="45.54518" lon="6.62804">
        <ele>740.8</ele>
        <time>2011-07-30T08:23:26Z</time>
      </trkpt>
      <trkpt lat="45.54512" lon="6.62792">
        <ele>738.2</ele>
        <time>2011-07-30T08:23:33Z</time>
      </trkpt>
      <trkpt lat="45.54509" lon="6.62778">
        <ele>733.6</ele>
        <time>2011-07-30T08:23:39Z</time>
      </trkpt>
      <trkpt lat="45.54505" lon="6.62764">
        <ele>729.1</ele>
        <time>2011-07-30T08:23:45Z</time>
      </trkpt>
      <trkpt lat="45.54502" lon="6.62752">
        <ele>724.5</ele>
        <time>2011-07-30T08:23:49Z</time>
      </trkpt>
      <trkpt lat="45.54499" lon="6.62737">
        <ele>720</ele>
        <time>2011-07-30T08:23:56Z</time>
      </trkpt>
      <trkpt lat="45.54495" lon="6.62724">
        <ele>715.5</ele>
        <time>2011-07-30T08:24:00Z</time>
      </trkpt>
      <trkpt lat="45.5449" lon="6.6271">
        <ele>713.5</ele>
        <time>2011-07-30T08:24:06Z</time>
      </trkpt>
      <trkpt lat="45.54487" lon="6.62696">
        <ele>711.6</ele>
        <time>2011-07-30T08:24:10Z</time>
      </trkpt>
      <trkpt lat="45.54483" lon="6.62683">
        <ele>714.4</ele>
        <time>2011-07-30T08:24:15Z</time>
      </trkpt>
      <trkpt lat="45.54478" lon="6.62672">
        <ele>717.1</ele>
        <time>2011-07-30T08:24:19Z</time>
      </trkpt>
      <trkpt lat="45.54472" lon="6.6266">
        <ele>719.8</ele>
        <time>2011-07-30T08:24:26Z</time>
      </trkpt>
      <trkpt lat="45.54468" lon="6.62647">
        <ele>722.5</ele>
        <time>2011-07-30T08:24:32Z</time>
      </trkpt>
      <trkpt lat="45.54465" lon="6.62634">
        <ele>727.2</ele>
        <time>2011-07-30T08:24:38Z</time>
      </trkpt>
      <trkpt lat="45.54462" lon="6.62619">
        <ele>729.7</ele>
        <time>2011-07-30T08:24:42Z</time>
      </trkpt>
      <trkpt lat="45.54446" lon="6.62588">
        <ele>732.3</ele>
        <time>2011-07-30T08:24:54Z</time>
      </trkpt>
      <trkpt lat="45.54442" lon="6.62574">
        <ele>734.8</ele>
        <time>2011-07-30T08:25:00Z</time>
      </trkpt>
      <trkpt lat="45.54437" lon="6.62561">
        <ele>737.4</ele>
        <time>2011-07-30T08:25:04Z</time>
      </trkpt>
      <trkpt lat="45.54432" lon="6.62548">
        <ele>739.9</ele>
        <time>2011-07-30T08:25:10Z</time>
      </trkpt>
      <trkpt lat="45.54428" lon="6.62535">
        <ele>742.5</ele>
        <time>2011-07-30T08:25:17Z</time>
      </trkpt>
      <trkpt lat="45.54425" lon="6.62521">
        <ele>740.4</ele>
        <time>2011-07-30T08:25:23Z</time>
      </trkpt>
      <trkpt lat="45.54421" lon="6.62509">
        <ele>737.1</ele>
        <time>2011-07-30T08:25:31Z</time>
      </trkpt>
      <trkpt lat="45.54415" lon="6.62498">
        <ele>733.8</ele>
        <time>2011-07-30T08:25:37Z</time>
      </trkpt>
      <trkpt lat="45.54409" lon="6.62488">
        <ele>730.5</ele>
        <time>2011-07-30T08:25:45Z</time>
      </trkpt>
      <trkpt lat="45.54403" lon="6.62476">
        <ele>727.3</ele>
        <time>2011-07-30T08:25:53Z</time>
      </trkpt>
      <trkpt lat="45.54398" lon="6.62463">
        <ele>726.1</ele>
        <time>2011-07-30T08:25:59Z</time>
      </trkpt>
      <trkpt lat="45.54396" lon="6.62449">
        <ele>729.9</ele>
        <time>2011-07-30T08:26:04Z</time>
      </trkpt>
      <trkpt lat="45.54393" lon="6.62435">
        <ele>733.7</ele>
        <time>2011-07-30T08:26:11Z</time>
      </trkpt>
      <trkpt lat="45.5439" lon="6.62422">
        <ele>737.5</ele>
        <time>2011-07-30T08:26:17Z</time>
      </trkpt>
      <trkpt lat="45.54385" lon="6.6241">
        <ele>741.4</ele>
        <time>2011-07-30T08:26:26Z</time>
      </trkpt>
      <trkpt lat="45.5438" lon="6.62399">
        <ele>745.2</ele>
        <time>2011-07-30T08:26:33Z</time>
      </trkpt>
      <trkpt lat="45.54368" lon="6.62375">
        <ele>749</ele>
        <time>2011-07-30T08:26:45Z</time>
      </trkpt>
      <trkpt lat="45.54363" lon="6.62364">
        <ele>754</ele>
        <time>2011-07-30T08:26:49Z</time>
      </trkpt>
      <trkpt lat="45.54359" lon="6.62352">
        <ele>757.3</ele>
        <time>2011-07-30T08:26:55Z</time>
      </trkpt>
      <trkpt lat="45.54355" lon="6.6234">
        <ele>760.5</ele>
        <time>2011-07-30T08:26:58Z</time>
      </trkpt>
      <trkpt lat="45.54351" lon="6.62327">
        <ele>763.8</ele>
        <time>2011-07-30T08:27:04Z</time>
      </trkpt>
      <trkpt lat="45.54346" lon="6.62316">
        <ele>767.1</ele>
        <time>2011-07-30T08:27:08Z</time>
      </trkpt>
      <trkpt lat="45.54342" lon="6.62303">
        <ele>765.4</ele>
        <time>2011-07-30T08:27:15Z</time>
      </trkpt>
      <trkpt lat="45.54338" lon="6.62291">
        <ele>763.6</ele>
        <time>2011-07-30T08:27:19Z</time>
      </trkpt>
      <trkpt lat="45.54334" lon="6.62279">
        <ele>761.9</ele>
        <time>2011-07-30T08:27:25Z</time>
      </trkpt>
      <trkpt lat="45.5433" lon="6.62267">
        <ele>758.7</ele>
        <time>2011-07-30T08:27:30Z</time>
      </trkpt>
      <trkpt lat="45.54325" lon="6.62255">
        <ele>755.5</ele>
        <time>2011-07-30T08:27:37Z</time>
      </trkpt>
      <trkpt lat="45.54321" lon="6.62242">
        <ele>752.4</ele>
        <time>2011-07-30T08:27:44Z</time>
      </trkpt>
      <trkpt lat="45.54315" lon="6.6223">
        <ele>749.2</ele>
        <time>2011-07-30T08:27:50Z</time>
      </trkpt>
      <trkpt lat="45.54309" lon="6.62217">
        <ele>754.2</ele>
        <time>2011-07-30T08:27:55Z</time>
      </trkpt>
      <trkpt lat="45.54304" lon="6.62206">
        <ele>759.2</ele>
        <time>2011-07-30T08:28:00Z</time>
      </trkpt>
      <trkpt lat="45.543" lon="6.62194">
        <ele>761.5</ele>
        <time>2011-07-30T08:28:05Z</time>
      </trkpt>
      <trkpt lat="45.54298" lon="6.62172">
        <ele>763.9</ele>
        <time>2011-07-30T08:28:13Z</time>
      </trkpt>
      <trkpt lat="45.54296" lon="6.62159">
        <ele>766.3</ele>
        <time>2011-07-30T08:28:19Z</time>
      </trkpt>
      <trkpt lat="45.54291" lon="6.62146">
        <ele>768.6</ele>
        <time>2011-07-30T08:28:27Z</time>
      </trkpt>
      <trkpt lat="45.54287" lon="6.62134">
        <ele>771</ele>
        <time>2011-07-30T08:28:35Z</time>
      </trkpt>
      <trkpt lat="45.54282" lon="6.62122">
        <ele>774.8</ele>
        <time>2011-07-30T08:28:42Z</time>
      </trkpt>
      <trkpt lat="45.54277" lon="6.62111">
        <ele>778.6</ele>
        <time>2011-07-30T08:28:49Z</time>
      </trkpt>
      <trkpt lat="45.54269" lon="6.62101">
        <ele>780.4</ele>
        <time>2011-07-30T08:28:57Z</time>
      </trkpt>
      <trkpt lat="45.54263" lon="6.62091">
        <ele>782.1</ele>
        <time>2011-07-30T08:29:01Z</time>
      </trkpt>
      <trkpt lat="45.54256" lon="6.62081">
        <ele>777.4</ele>
        <time>2011-07-30T08:29:05Z</time>
      </trkpt>
      <trkpt lat="45.54249" lon="6.62071">
        <ele>772.6</ele>
        <time>2011-07-30T08:29:11Z</time>
      </trkpt>
      <trkpt lat="45.54242" lon="6.6206">
        <ele>770.5</ele>
        <time>2011-07-30T08:29:15Z</time>
      </trkpt>
      <trkpt lat="45.54236" lon="6.6205">
        <ele>774.1</ele>
        <time>2011-07-30T08:29:20Z</time>
      </trkpt>
      <trkpt lat="45.54232" lon="6.62036">
        <ele>777.6</ele>
        <time>2011-07-30T08:29:26Z</time>
      </trkpt>
      <trkpt lat="45.54228" lon="6.62024">
        <ele>781.2</ele>
        <time>2011-07-30T08:29:34Z</time>
      </trkpt>
      <trkpt lat="45.54222" lon="6.62013">
        <ele>782.8</ele>
        <time>2011-07-30T08:29:43Z</time>
      </trkpt>
      <trkpt lat="45.54215" lon="6.62004">
        <ele>784.5</ele>
        <time>2011-07-30T08:29:51Z</time>
      </trkpt>
      <trkpt lat="45.54208" lon="6.61995">
        <ele>786.1</ele>
        <time>2011-07-30T08:30:01Z</time>
      </trkpt>
      <trkpt lat="45.54203" lon="6.61982">
        <ele>789.8</ele>
        <time>2011-07-30T08:30:08Z</time>
      </trkpt>
      <trkpt lat="45.54199" lon="6.6197">
        <ele>793.5</ele>
        <time>2011-07-30T08:30:15Z</time>
      </trkpt>
      <trkpt lat="45.54195" lon="6.61956">
        <ele>797.3</ele>
        <time>2011-07-30T08:30:21Z</time>
      </trkpt>
      <trkpt lat="45.5419" lon="6.61945">
        <ele>801</ele>
        <time>2011-07-30T08:30:26Z</time>
      </trkpt>
      <trkpt lat="45.54184" lon="6.61935">
        <ele>802.7</ele>
        <time>2011-07-30T08:30:34Z</time>
      </trkpt>
      <trkpt lat="45.54175" lon="6.61927">
        <ele>798.8</ele>
        <time>2011-07-30T08:30:44Z</time>
      </trkpt>
      <trkpt lat="45.54169" lon="6.61917">
        <ele>794.9</ele>
        <time>2011-07-30T08:30:53Z</time>
      </trkpt>
      <trkpt lat="45.54162" lon="6.61907">
        <ele>791</ele>
        <time>2011-07-30T08:31:00Z</time>
      </trkpt>
      <trkpt lat="45.54158" lon="6.61895">
        <ele>789</ele>
        <time>2011-07-30T08:31:09Z</time>
      </trkpt>
      <trkpt lat="45.54155" lon="6.61882">
        <ele>787</ele>
        <time>2011-07-30T08:31:17Z</time>
      </trkpt>
      <trkpt lat="45.54152" lon="6.61869">
        <ele>785</ele>
        <time>2011-07-30T08:31:23Z</time>
      </trkpt>
      <trkpt lat="45.54144" lon="6.61858">
        <ele>783</ele>
        <time>2011-07-30T08:31:29Z</time>
      </trkpt>
      <trkpt lat="45.54138" lon="6.61847">
        <ele>783</ele>
        <time>2011-07-30T08:31:31Z</time>
      </trkpt>
      <trkpt lat="45.54133" lon="6.61834">
        <ele>783</ele>
        <time>2011-07-30T08:31:36Z</time>
      </trkpt>
      <trkpt lat="45.54135" lon="6.61848">
        <ele>783</ele>
        <time>2011-07-30T08:31:53Z</time>
      </trkpt>
      <trkpt lat="45.54137" lon="6.61861">
        <ele>785</ele>
        <time>2011-07-30T08:31:59Z</time>
      </trkpt>
      <trkpt lat="45.54143" lon="6.61878">
        <ele>787</ele>
        <time>2011-07-30T08:32:05Z</time>
      </trkpt>
      <trkpt lat="45.54148" lon="6.61888">
        <ele>789</ele>
        <time>2011-07-30T08:32:11Z</time>
      </trkpt>
      <trkpt lat="45.54153" lon="6.619">
        <ele>795.7</ele>
        <time>2011-07-30T08:32:15Z</time>
      </trkpt>
      <trkpt lat="45.54159" lon="6.61911">
        <ele>800.3</ele>
        <time>2011-07-30T08:32:20Z</time>
      </trkpt>
      <trkpt lat="45.54151" lon="6.61917">
        <ele>804.8</ele>
        <time>2011-07-30T08:32:42Z</time>
      </trkpt>
      <trkpt lat="45.54142" lon="6.61911">
        <ele>809.4</ele>
        <time>2011-07-30T08:32:48Z</time>
      </trkpt>
      <trkpt lat="45.54135" lon="6.61902">
        <ele>813.9</ele>
        <time>2011-07-30T08:32:57Z</time>
      </trkpt>
      <trkpt lat="45.54128" lon="6.61891">
        <ele>816.5</ele>
        <time>2011-07-30T08:33:05Z</time>
      </trkpt>
      <trkpt lat="45.54122" lon="6.61881">
        <ele>819</ele>
        <time>2011-07-30T08:33:13Z</time>
      </trkpt>
      <trkpt lat="45.54118" lon="6.61868">
        <ele>821.5</ele>
        <time>2011-07-30T08:33:21Z</time>
      </trkpt>
      <trkpt lat="45.54114" lon="6.61856">
        <ele>824.1</ele>
        <time>2011-07-30T08:33:30Z</time>
      </trkpt>
      <trkpt lat="45.54107" lon="6.61846">
        <ele>825.5</ele>
        <time>2011-07-30T08:33:37Z</time>
      </trkpt>
      <trkpt lat="45.54101" lon="6.61838">
        <ele>827</ele>
        <time>2011-07-30T08:33:41Z</time>
      </trkpt>
      <trkpt lat="45.54093" lon="6.61827">
        <ele>823.7</ele>
        <time>2011-07-30T08:33:47Z</time>
      </trkpt>
      <trkpt lat="45.54085" lon="6.61818">
        <ele>822.6</ele>
        <time>2011-07-30T08:33:50Z</time>
      </trkpt>
      <trkpt lat="45.54079" lon="6.61808">
        <ele>821.5</ele>
        <time>2011-07-30T08:33:57Z</time>
      </trkpt>
      <trkpt lat="45.54074" lon="6.61795">
        <ele>820.5</ele>
        <time>2011-07-30T08:34:02Z</time>
      </trkpt>
      <trkpt lat="45.5407" lon="6.61782">
        <ele>818.7</ele>
        <time>2011-07-30T08:34:08Z</time>
      </trkpt>
      <trkpt lat="45.54064" lon="6.61768">
        <ele>817</ele>
        <time>2011-07-30T08:34:15Z</time>
      </trkpt>
      <trkpt lat="45.5406" lon="6.61753">
        <ele>818.5</ele>
        <time>2011-07-30T08:34:19Z</time>
      </trkpt>
      <trkpt lat="45.54057" lon="6.6174">
        <ele>819.9</ele>
        <time>2011-07-30T08:34:24Z</time>
      </trkpt>
      <trkpt lat="45.54054" lon="6.61727">
        <ele>821.4</ele>
        <time>2011-07-30T08:34:28Z</time>
      </trkpt>
      <trkpt lat="45.54051" lon="6.61713">
        <ele>823.9</ele>
        <time>2011-07-30T08:34:32Z</time>
      </trkpt>
      <trkpt lat="45.54048" lon="6.61699">
        <ele>826.5</ele>
        <time>2011-07-30T08:34:39Z</time>
      </trkpt>
      <trkpt lat="45.54046" lon="6.61685">
        <ele>829</ele>
        <time>2011-07-30T08:34:47Z</time>
      </trkpt>
      <trkpt lat="45.54042" lon="6.61673">
        <ele>830.9</ele>
        <time>2011-07-30T08:34:55Z</time>
      </trkpt>
      <trkpt lat="45.54036" lon="6.61661">
        <ele>832.8</ele>
        <time>2011-07-30T08:35:02Z</time>
      </trkpt>
      <trkpt lat="45.54031" lon="6.61649">
        <ele>834.7</ele>
        <time>2011-07-30T08:35:08Z</time>
      </trkpt>
      <trkpt lat="45.54025" lon="6.61639">
        <ele>837.3</ele>
        <time>2011-07-30T08:35:12Z</time>
      </trkpt>
      <trkpt lat="45.54018" lon="6.61628">
        <ele>839.8</ele>
        <time>2011-07-30T08:35:19Z</time>
      </trkpt>
      <trkpt lat="45.54012" lon="6.61618">
        <ele>839.2</ele>
        <time>2011-07-30T08:35:24Z</time>
      </trkpt>
      <trkpt lat="45.54004" lon="6.61609">
        <ele>840.4</ele>
        <time>2011-07-30T08:35:32Z</time>
      </trkpt>
      <trkpt lat="45.53995" lon="6.61603">
        <ele>841.5</ele>
        <time>2011-07-30T08:35:38Z</time>
      </trkpt>
      <trkpt lat="45.53986" lon="6.61598">
        <ele>842.7</ele>
        <time>2011-07-30T08:35:43Z</time>
      </trkpt>
      <trkpt lat="45.53978" lon="6.61594">
        <ele>843.9</ele>
        <time>2011-07-30T08:35:50Z</time>
      </trkpt>
      <trkpt lat="45.53968" lon="6.61588">
        <ele>845.1</ele>
        <time>2011-07-30T08:35:56Z</time>
      </trkpt>
      <trkpt lat="45.53959" lon="6.61583">
        <ele>844.7</ele>
        <time>2011-07-30T08:36:01Z</time>
      </trkpt>
      <trkpt lat="45.53949" lon="6.61573">
        <ele>844.4</ele>
        <time>2011-07-30T08:36:08Z</time>
      </trkpt>
      <trkpt lat="45.5394" lon="6.61565">
        <ele>844</ele>
        <time>2011-07-30T08:36:12Z</time>
      </trkpt>
      <trkpt lat="45.53933" lon="6.61556">
        <ele>843.6</ele>
        <time>2011-07-30T08:36:15Z</time>
      </trkpt>
      <trkpt lat="45.53925" lon="6.61548">
        <ele>843.3</ele>
        <time>2011-07-30T08:36:20Z</time>
      </trkpt>
      <trkpt lat="45.53917" lon="6.6154">
        <ele>845.5</ele>
        <time>2011-07-30T08:36:23Z</time>
      </trkpt>
      <trkpt lat="45.53909" lon="6.61531">
        <ele>845.8</ele>
        <time>2011-07-30T08:36:28Z</time>
      </trkpt>
      <trkpt lat="45.53899" lon="6.61526">
        <ele>846.2</ele>
        <time>2011-07-30T08:36:33Z</time>
      </trkpt>
      <trkpt lat="45.53888" lon="6.61527">
        <ele>846.5</ele>
        <time>2011-07-30T08:36:39Z</time>
      </trkpt>
      <trkpt lat="45.53878" lon="6.61526">
        <ele>846.9</ele>
        <time>2011-07-30T08:36:43Z</time>
      </trkpt>
      <trkpt lat="45.53869" lon="6.61523">
        <ele>847.3</ele>
        <time>2011-07-30T08:36:49Z</time>
      </trkpt>
      <trkpt lat="45.53861" lon="6.61514">
        <ele>849.8</ele>
        <time>2011-07-30T08:36:54Z</time>
      </trkpt>
      <trkpt lat="45.53855" lon="6.61502">
        <ele>852.4</ele>
        <time>2011-07-30T08:37:01Z</time>
      </trkpt>
      <trkpt lat="45.53851" lon="6.61491">
        <ele>854.9</ele>
        <time>2011-07-30T08:37:11Z</time>
      </trkpt>
      <trkpt lat="45.53846" lon="6.6148">
        <ele>857.5</ele>
        <time>2011-07-30T08:37:18Z</time>
      </trkpt>
      <trkpt lat="45.53838" lon="6.61471">
        <ele>860</ele>
        <time>2011-07-30T08:37:27Z</time>
      </trkpt>
      <trkpt lat="45.53829" lon="6.61465">
        <ele>860</ele>
        <time>2011-07-30T08:37:36Z</time>
      </trkpt>
      <trkpt lat="45.53826" lon="6.61477">
        <ele>860</ele>
        <time>2011-07-30T08:37:53Z</time>
      </trkpt>
      <trkpt lat="45.53822" lon="6.6149">
        <ele>863.2</ele>
        <time>2011-07-30T08:38:19Z</time>
      </trkpt>
      <trkpt lat="45.5382" lon="6.61502">
        <ele>866.4</ele>
        <time>2011-07-30T08:38:31Z</time>
      </trkpt>
      <trkpt lat="45.53815" lon="6.61514">
        <ele>869.5</ele>
        <time>2011-07-30T08:38:46Z</time>
      </trkpt>
      <trkpt lat="45.53822" lon="6.61524">
        <ele>872.7</ele>
        <time>2011-07-30T08:38:50Z</time>
      </trkpt>
      <trkpt lat="45.53826" lon="6.61536">
        <ele>874.2</ele>
        <time>2011-07-30T08:38:57Z</time>
      </trkpt>
      <trkpt lat="45.5383" lon="6.61548">
        <ele>875.6</ele>
        <time>2011-07-30T08:39:09Z</time>
      </trkpt>
      <trkpt lat="45.53843" lon="6.61567">
        <ele>877.1</ele>
        <time>2011-07-30T08:39:23Z</time>
      </trkpt>
      <trkpt lat="45.53849" lon="6.61579">
        <ele>878.5</ele>
        <time>2011-07-30T08:39:34Z</time>
      </trkpt>
      <trkpt lat="45.53871" lon="6.61603">
        <ele>880</ele>
        <time>2011-07-30T08:39:54Z</time>
      </trkpt>
      <trkpt lat="45.5388" lon="6.6164">
        <ele>885.4</ele>
        <time>2011-07-30T08:40:20Z</time>
      </trkpt>
      <trkpt lat="45.53885" lon="6.61659">
        <ele>890.7</ele>
        <time>2011-07-30T08:40:31Z</time>
      </trkpt>
      <trkpt lat="45.53886" lon="6.61672">
        <ele>892.9</ele>
        <time>2011-07-30T08:40:41Z</time>
      </trkpt>
      <trkpt lat="45.53885" lon="6.61685">
        <ele>895.1</ele>
        <time>2011-07-30T08:40:50Z</time>
      </trkpt>
      <trkpt lat="45.53876" lon="6.617">
        <ele>897.3</ele>
        <time>2011-07-30T08:41:14Z</time>
      </trkpt>
      <trkpt lat="45.53868" lon="6.61707">
        <ele>899.5</ele>
        <time>2011-07-30T08:41:31Z</time>
      </trkpt>
      <trkpt lat="45.53871" lon="6.6172">
        <ele>903.4</ele>
        <time>2011-07-30T08:41:53Z</time>
      </trkpt>
      <trkpt lat="45.53866" lon="6.61708">
        <ele>907.3</ele>
        <time>2011-07-30T08:42:11Z</time>
      </trkpt>
      <trkpt lat="45.53847" lon="6.61695">
        <ele>915.9</ele>
        <time>2011-07-30T08:42:27Z</time>
      </trkpt>
      <trkpt lat="45.5384" lon="6.61685">
        <ele>924.5</ele>
        <time>2011-07-30T08:42:35Z</time>
      </trkpt>
      <trkpt lat="45.53832" lon="6.61676">
        <ele>933.2</ele>
        <time>2011-07-30T08:42:42Z</time>
      </trkpt>
      <trkpt lat="45.53826" lon="6.61665">
        <ele>937.9</ele>
        <time>2011-07-30T08:42:49Z</time>
      </trkpt>
      <trkpt lat="45.53817" lon="6.61661">
        <ele>942.6</ele>
        <time>2011-07-30T08:43:11Z</time>
      </trkpt>
      <trkpt lat="45.5379" lon="6.61656">
        <ele>947.4</ele>
        <time>2011-07-30T08:43:28Z</time>
      </trkpt>
      <trkpt lat="45.53776" lon="6.61648">
        <ele>952.1</ele>
        <time>2011-07-30T08:43:34Z</time>
      </trkpt>
      <trkpt lat="45.53768" lon="6.61643">
        <ele>956.8</ele>
        <time>2011-07-30T08:43:40Z</time>
      </trkpt>
      <trkpt lat="45.53762" lon="6.61655">
        <ele>961.5</ele>
        <time>2011-07-30T08:43:58Z</time>
      </trkpt>
      <trkpt lat="45.53765" lon="6.61668">
        <ele>966.3</ele>
        <time>2011-07-30T08:44:12Z</time>
      </trkpt>
      <trkpt lat="45.53757" lon="6.61676">
        <ele>974.4</ele>
        <time>2011-07-30T08:44:22Z</time>
      </trkpt>
      <trkpt lat="45.53748" lon="6.61672">
        <ele>977.7</ele>
        <time>2011-07-30T08:44:30Z</time>
      </trkpt>
      <trkpt lat="45.53736" lon="6.61672">
        <ele>981.1</ele>
        <time>2011-07-30T08:44:51Z</time>
      </trkpt>
      <trkpt lat="45.53725" lon="6.61668">
        <ele>986.8</ele>
        <time>2011-07-30T08:45:06Z</time>
      </trkpt>
      <trkpt lat="45.53715" lon="6.6167">
        <ele>990.2</ele>
        <time>2011-07-30T08:45:23Z</time>
      </trkpt>
      <trkpt lat="45.53706" lon="6.61674">
        <ele>993.5</ele>
        <time>2011-07-30T08:45:31Z</time>
      </trkpt>
      <trkpt lat="45.53678" lon="6.61668">
        <ele>996.9</ele>
        <time>2011-07-30T08:45:54Z</time>
      </trkpt>
      <trkpt lat="45.53654" lon="6.61651">
        <ele>1000.3</ele>
        <time>2011-07-30T08:46:12Z</time>
      </trkpt>
      <trkpt lat="45.53627" lon="6.61647">
        <ele>1000.3</ele>
        <time>2011-07-30T08:46:48Z</time>
      </trkpt>
      <trkpt lat="45.53653" lon="6.61659">
        <ele>1006.4</ele>
        <time>2011-07-30T08:47:17Z</time>
      </trkpt>
      <trkpt lat="45.5366" lon="6.61668">
        <ele>1012.5</ele>
        <time>2011-07-30T08:47:25Z</time>
      </trkpt>
      <trkpt lat="45.53681" lon="6.61693">
        <ele>1015.2</ele>
        <time>2011-07-30T08:47:43Z</time>
      </trkpt>
      <trkpt lat="45.53707" lon="6.61691">
        <ele>1017.5</ele>
        <time>2011-07-30T08:48:06Z</time>
      </trkpt>
      <trkpt lat="45.53726" lon="6.61721">
        <ele>1019.9</ele>
        <time>2011-07-30T08:48:20Z</time>
      </trkpt>
      <trkpt lat="45.53703" lon="6.61745">
        <ele>1022.8</ele>
        <time>2011-07-30T08:48:52Z</time>
      </trkpt>
      <trkpt lat="45.53693" lon="6.61748">
        <ele>1025.5</ele>
        <time>2011-07-30T08:48:57Z</time>
      </trkpt>
      <trkpt lat="45.53707" lon="6.61781">
        <ele>1028.3</ele>
        <time>2011-07-30T08:49:35Z</time>
      </trkpt>
      <trkpt lat="45.53717" lon="6.61819">
        <ele>1033.5</ele>
        <time>2011-07-30T08:50:06Z</time>
      </trkpt>
      <trkpt lat="45.53728" lon="6.61832">
        <ele>1038.8</ele>
        <time>2011-07-30T08:50:13Z</time>
      </trkpt>
      <trkpt lat="45.53702" lon="6.61815">
        <ele>1047.6</ele>
        <time>2011-07-30T08:50:37Z</time>
      </trkpt>
      <trkpt lat="45.53675" lon="6.61801">
        <ele>1050.4</ele>
        <time>2011-07-30T08:50:46Z</time>
      </trkpt>
      <trkpt lat="45.53655" lon="6.61798">
        <ele>1053.1</ele>
        <time>2011-07-30T08:50:59Z</time>
      </trkpt>
      <trkpt lat="45.53669" lon="6.61834">
        <ele>1058.6</ele>
        <time>2011-07-30T08:51:25Z</time>
      </trkpt>
      <trkpt lat="45.53707" lon="6.61875">
        <ele>1064.5</ele>
        <time>2011-07-30T08:51:33Z</time>
      </trkpt>
      <trkpt lat="45.53733" lon="6.6189">
        <ele>1073.4</ele>
        <time>2011-07-30T08:51:54Z</time>
      </trkpt>
      <trkpt lat="45.53743" lon="6.61929">
        <ele>1079.3</ele>
        <time>2011-07-30T08:52:53Z</time>
      </trkpt>
      <trkpt lat="45.53747" lon="6.61947">
        <ele>1090.2</ele>
        <time>2011-07-30T08:53:05Z</time>
      </trkpt>
      <trkpt lat="45.53733" lon="6.61985">
        <ele>1101.1</ele>
        <time>2011-07-30T08:53:59Z</time>
      </trkpt>
      <trkpt lat="45.53727" lon="6.62034">
        <ele>1109.5</ele>
        <time>2011-07-30T08:54:26Z</time>
      </trkpt>
      <trkpt lat="45.53724" lon="6.62074">
        <ele>1122.5</ele>
        <time>2011-07-30T08:55:00Z</time>
      </trkpt>
      <trkpt lat="45.53751" lon="6.62127">
        <ele>1135.3</ele>
        <time>2011-07-30T08:55:40Z</time>
      </trkpt>
      <trkpt lat="45.53745" lon="6.62139">
        <ele>1148.1</ele>
        <time>2011-07-30T08:56:12Z</time>
      </trkpt>
      <trkpt lat="45.53732" lon="6.62175">
        <ele>1159.9</ele>
        <time>2011-07-30T08:56:33Z</time>
      </trkpt>
      <trkpt lat="45.53714" lon="6.62205">
        <ele>1168.9</ele>
        <time>2011-07-30T08:56:50Z</time>
      </trkpt>
      <trkpt lat="45.53689" lon="6.62232">
        <ele>1177.9</ele>
        <time>2011-07-30T08:57:31Z</time>
      </trkpt>
      <trkpt lat="45.53683" lon="6.62244">
        <ele>1184</ele>
        <time>2011-07-30T08:57:38Z</time>
      </trkpt>
      <trkpt lat="45.53661" lon="6.62276">
        <ele>1189.3</ele>
        <time>2011-07-30T08:58:09Z</time>
      </trkpt>
      <trkpt lat="45.53647" lon="6.6231">
        <ele>1192.1</ele>
        <time>2011-07-30T08:58:41Z</time>
      </trkpt>
      <trkpt lat="45.53657" lon="6.62343">
        <ele>1194.9</ele>
        <time>2011-07-30T08:58:58Z</time>
      </trkpt>
      <trkpt lat="45.53663" lon="6.62354">
        <ele>1197.7</ele>
        <time>2011-07-30T08:59:05Z</time>
      </trkpt>
      <trkpt lat="45.53672" lon="6.6237">
        <ele>1195.5</ele>
        <time>2011-07-30T08:59:14Z</time>
      </trkpt>
      <trkpt lat="45.53678" lon="6.6238">
        <ele>1193.2</ele>
        <time>2011-07-30T08:59:21Z</time>
      </trkpt>
      <trkpt lat="45.5368" lon="6.6242">
        <ele>1190.5</ele>
        <time>2011-07-30T08:59:32Z</time>
      </trkpt>
      <trkpt lat="45.5368" lon="6.62436">
        <ele>1188.7</ele>
        <time>2011-07-30T08:59:36Z</time>
      </trkpt>
      <trkpt lat="45.53681" lon="6.62449">
        <ele>1187</ele>
        <time>2011-07-30T08:59:43Z</time>
      </trkpt>
      <trkpt lat="45.53687" lon="6.62487">
        <ele>1185.3</ele>
        <time>2011-07-30T09:00:15Z</time>
      </trkpt>
      <trkpt lat="45.53702" lon="6.62519">
        <ele>1183.5</ele>
        <time>2011-07-30T09:00:39Z</time>
      </trkpt>
      <trkpt lat="45.53692" lon="6.62555">
        <ele>1182.5</ele>
        <time>2011-07-30T09:01:03Z</time>
      </trkpt>
      <trkpt lat="45.53684" lon="6.62593">
        <ele>1181.5</ele>
        <time>2011-07-30T09:01:22Z</time>
      </trkpt>
      <trkpt lat="45.53682" lon="6.62606">
        <ele>1180.5</ele>
        <time>2011-07-30T09:01:29Z</time>
      </trkpt>
      <trkpt lat="45.53676" lon="6.62618">
        <ele>1179.5</ele>
        <time>2011-07-30T09:01:36Z</time>
      </trkpt>
      <trkpt lat="45.5367" lon="6.62629">
        <ele>1179.2</ele>
        <time>2011-07-30T09:01:43Z</time>
      </trkpt>
      <trkpt lat="45.53651" lon="6.62658">
        <ele>1178.9</ele>
        <time>2011-07-30T09:02:06Z</time>
      </trkpt>
      <trkpt lat="45.53643" lon="6.62665">
        <ele>1179.1</ele>
        <time>2011-07-30T09:02:21Z</time>
      </trkpt>
      <trkpt lat="45.53641" lon="6.62651">
        <ele>1179.3</ele>
        <time>2011-07-30T09:02:31Z</time>
      </trkpt>
      <trkpt lat="45.53633" lon="6.62643">
        <ele>1179.5</ele>
        <time>2011-07-30T09:02:41Z</time>
      </trkpt>
      <trkpt lat="45.53624" lon="6.62647">
        <ele>1179.6</ele>
        <time>2011-07-30T09:02:49Z</time>
      </trkpt>
      <trkpt lat="45.5362" lon="6.62658">
        <ele>1181</ele>
        <time>2011-07-30T09:02:55Z</time>
      </trkpt>
      <trkpt lat="45.53618" lon="6.62673">
        <ele>1182.4</ele>
        <time>2011-07-30T09:03:03Z</time>
      </trkpt>
      <trkpt lat="45.5362" lon="6.62689">
        <ele>1182.4</ele>
        <time>2011-07-30T09:03:14Z</time>
      </trkpt>
      <trkpt lat="45.53622" lon="6.62702">
        <ele>1182.4</ele>
        <time>2011-07-30T09:03:23Z</time>
      </trkpt>
      <trkpt lat="45.53619" lon="6.62715">
        <ele>1182.5</ele>
        <time>2011-07-30T09:03:28Z</time>
      </trkpt>
      <trkpt lat="45.53611" lon="6.62724">
        <ele>1182.5</ele>
        <time>2011-07-30T09:03:36Z</time>
      </trkpt>
      <trkpt lat="45.53603" lon="6.62732">
        <ele>1182.4</ele>
        <time>2011-07-30T09:03:42Z</time>
      </trkpt>
      <trkpt lat="45.53633" lon="6.62722">
        <ele>1182.3</ele>
        <time>2011-07-30T09:03:51Z</time>
      </trkpt>
      <trkpt lat="45.53681" lon="6.6271">
        <ele>1182.2</ele>
        <time>2011-07-30T09:03:54Z</time>
      </trkpt>
      <trkpt lat="45.53726" lon="6.62702">
        <ele>1182.1</ele>
        <time>2011-07-30T09:03:56Z</time>
      </trkpt>
      <trkpt lat="45.53757" lon="6.62693">
        <ele>1182</ele>
        <time>2011-07-30T09:03:58Z</time>
      </trkpt>
      <trkpt lat="45.53782" lon="6.62676">
        <ele>1180.8</ele>
        <time>2011-07-30T09:04:03Z</time>
      </trkpt>
      <trkpt lat="45.53773" lon="6.62674">
        <ele>1179.6</ele>
        <time>2011-07-30T09:04:15Z</time>
      </trkpt>
      <trkpt lat="45.53765" lon="6.62682">
        <ele>1179.8</ele>
        <time>2011-07-30T09:04:18Z</time>
      </trkpt>
      <trkpt lat="45.53754" lon="6.62689">
        <ele>1180</ele>
        <time>2011-07-30T09:04:22Z</time>
      </trkpt>
      <trkpt lat="45.53747" lon="6.62698">
        <ele>1180</ele>
        <time>2011-07-30T09:04:27Z</time>
      </trkpt>
      <trkpt lat="45.53739" lon="6.6271">
        <ele>1180</ele>
        <time>2011-07-30T09:04:30Z</time>
      </trkpt>
      <trkpt lat="45.53732" lon="6.62719">
        <ele>1180</ele>
        <time>2011-07-30T09:04:35Z</time>
      </trkpt>
      <trkpt lat="45.53725" lon="6.6273">
        <ele>1180</ele>
        <time>2011-07-30T09:04:38Z</time>
      </trkpt>
      <trkpt lat="45.53723" lon="6.62744">
        <ele>1179.6</ele>
        <time>2011-07-30T09:04:42Z</time>
      </trkpt>
      <trkpt lat="45.53725" lon="6.62757">
        <ele>1179.7</ele>
        <time>2011-07-30T09:04:47Z</time>
      </trkpt>
      <trkpt lat="45.53728" lon="6.62772">
        <ele>1179.8</ele>
        <time>2011-07-30T09:04:53Z</time>
      </trkpt>
      <trkpt lat="45.53731" lon="6.62785">
        <ele>1179.9</ele>
        <time>2011-07-30T09:04:57Z</time>
      </trkpt>
      <trkpt lat="45.53724" lon="6.62796">
        <ele>1180</ele>
        <time>2011-07-30T09:05:01Z</time>
      </trkpt>
      <trkpt lat="45.53716" lon="6.62804">
        <ele>1180.1</ele>
        <time>2011-07-30T09:05:08Z</time>
      </trkpt>
      <trkpt lat="45.53708" lon="6.62812">
        <ele>1180.2</ele>
        <time>2011-07-30T09:05:14Z</time>
      </trkpt>
      <trkpt lat="45.537" lon="6.62821">
        <ele>1180.3</ele>
        <time>2011-07-30T09:05:20Z</time>
      </trkpt>
      <trkpt lat="45.5369" lon="6.62825">
        <ele>1180.4</ele>
        <time>2011-07-30T09:05:28Z</time>
      </trkpt>
      <trkpt lat="45.53681" lon="6.62821">
        <ele>1180.5</ele>
        <time>2011-07-30T09:05:36Z</time>
      </trkpt>
      <trkpt lat="45.53672" lon="6.62815">
        <ele>1180.5</ele>
        <time>2011-07-30T09:05:42Z</time>
      </trkpt>
      <trkpt lat="45.53663" lon="6.62814">
        <ele>1181</ele>
        <time>2011-07-30T09:05:50Z</time>
      </trkpt>
      <trkpt lat="45.53653" lon="6.62818">
        <ele>1181</ele>
        <time>2011-07-30T09:05:59Z</time>
      </trkpt>
      <trkpt lat="45.53644" lon="6.62823">
        <ele>1181.8</ele>
        <time>2011-07-30T09:06:11Z</time>
      </trkpt>
      <trkpt lat="45.53644" lon="6.62837">
        <ele>1182.6</ele>
        <time>2011-07-30T09:06:20Z</time>
      </trkpt>
      <trkpt lat="45.53646" lon="6.6285">
        <ele>1183.5</ele>
        <time>2011-07-30T09:06:30Z</time>
      </trkpt>
      <trkpt lat="45.53647" lon="6.62863">
        <ele>1184.3</ele>
        <time>2011-07-30T09:06:38Z</time>
      </trkpt>
      <trkpt lat="45.53646" lon="6.62877">
        <ele>1185.1</ele>
        <time>2011-07-30T09:06:46Z</time>
      </trkpt>
      <trkpt lat="45.53646" lon="6.62891">
        <ele>1185.9</ele>
        <time>2011-07-30T09:06:56Z</time>
      </trkpt>
      <trkpt lat="45.53646" lon="6.62905">
        <ele>1187.9</ele>
        <time>2011-07-30T09:07:06Z</time>
      </trkpt>
      <trkpt lat="45.53648" lon="6.6292">
        <ele>1189.9</ele>
        <time>2011-07-30T09:07:14Z</time>
      </trkpt>
      <trkpt lat="45.53651" lon="6.62933">
        <ele>1191.9</ele>
        <time>2011-07-30T09:07:20Z</time>
      </trkpt>
      <trkpt lat="45.53655" lon="6.62947">
        <ele>1193.9</ele>
        <time>2011-07-30T09:07:27Z</time>
      </trkpt>
      <trkpt lat="45.53657" lon="6.6296">
        <ele>1195.9</ele>
        <time>2011-07-30T09:07:35Z</time>
      </trkpt>
      <trkpt lat="45.53661" lon="6.62974">
        <ele>1197.1</ele>
        <time>2011-07-30T09:07:45Z</time>
      </trkpt>
      <trkpt lat="45.53661" lon="6.62987">
        <ele>1199.6</ele>
        <time>2011-07-30T09:07:50Z</time>
      </trkpt>
      <trkpt lat="45.53661" lon="6.63">
        <ele>1202.2</ele>
        <time>2011-07-30T09:07:58Z</time>
      </trkpt>
      <trkpt lat="45.53664" lon="6.63013">
        <ele>1204.7</ele>
        <time>2011-07-30T09:08:04Z</time>
      </trkpt>
      <trkpt lat="45.53664" lon="6.63027">
        <ele>1207.3</ele>
        <time>2011-07-30T09:08:12Z</time>
      </trkpt>
      <trkpt lat="45.53666" lon="6.6304">
        <ele>1209.8</ele>
        <time>2011-07-30T09:08:19Z</time>
      </trkpt>
      <trkpt lat="45.5367" lon="6.63053">
        <ele>1211.2</ele>
        <time>2011-07-30T09:08:29Z</time>
      </trkpt>
      <trkpt lat="45.53676" lon="6.63063">
        <ele>1212.5</ele>
        <time>2011-07-30T09:08:37Z</time>
      </trkpt>
      <trkpt lat="45.53679" lon="6.63076">
        <ele>1215.3</ele>
        <time>2011-07-30T09:08:46Z</time>
      </trkpt>
      <trkpt lat="45.53683" lon="6.63089">
        <ele>1218</ele>
        <time>2011-07-30T09:08:55Z</time>
      </trkpt>
      <trkpt lat="45.53686" lon="6.63102">
        <ele>1220.7</ele>
        <time>2011-07-30T09:09:03Z</time>
      </trkpt>
      <trkpt lat="45.5369" lon="6.63114">
        <ele>1223.5</ele>
        <time>2011-07-30T09:09:09Z</time>
      </trkpt>
      <trkpt lat="45.53692" lon="6.63127">
        <ele>1224.8</ele>
        <time>2011-07-30T09:09:17Z</time>
      </trkpt>
      <trkpt lat="45.53691" lon="6.63141">
        <ele>1226.2</ele>
        <time>2011-07-30T09:09:25Z</time>
      </trkpt>
      <trkpt lat="45.53694" lon="6.63154">
        <ele>1228.6</ele>
        <time>2011-07-30T09:09:36Z</time>
      </trkpt>
      <trkpt lat="45.53694" lon="6.63167">
        <ele>1231.1</ele>
        <time>2011-07-30T09:09:43Z</time>
      </trkpt>
      <trkpt lat="45.53691" lon="6.63181">
        <ele>1233.5</ele>
        <time>2011-07-30T09:09:49Z</time>
      </trkpt>
      <trkpt lat="45.53692" lon="6.63194">
        <ele>1236</ele>
        <time>2011-07-30T09:09:59Z</time>
      </trkpt>
      <trkpt lat="45.53694" lon="6.63208">
        <ele>1238.5</ele>
        <time>2011-07-30T09:10:06Z</time>
      </trkpt>
      <trkpt lat="45.53697" lon="6.63222">
        <ele>1239.5</ele>
        <time>2011-07-30T09:10:12Z</time>
      </trkpt>
      <trkpt lat="45.53704" lon="6.63232">
        <ele>1241.3</ele>
        <time>2011-07-30T09:10:18Z</time>
      </trkpt>
      <trkpt lat="45.5371" lon="6.63243">
        <ele>1239.7</ele>
        <time>2011-07-30T09:10:27Z</time>
      </trkpt>
      <trkpt lat="45.53711" lon="6.63257">
        <ele>1238.2</ele>
        <time>2011-07-30T09:10:34Z</time>
      </trkpt>
      <trkpt lat="45.53707" lon="6.6327">
        <ele>1236.6</ele>
        <time>2011-07-30T09:10:41Z</time>
      </trkpt>
      <trkpt lat="45.53706" lon="6.63283">
        <ele>1238.4</ele>
        <time>2011-07-30T09:10:49Z</time>
      </trkpt>
      <trkpt lat="45.53711" lon="6.63301">
        <ele>1239</ele>
        <time>2011-07-30T09:10:56Z</time>
      </trkpt>
      <trkpt lat="45.53716" lon="6.63313">
        <ele>1239.6</ele>
        <time>2011-07-30T09:11:04Z</time>
      </trkpt>
      <trkpt lat="45.53717" lon="6.63327">
        <ele>1239.6</ele>
        <time>2011-07-30T09:11:12Z</time>
      </trkpt>
      <trkpt lat="45.53712" lon="6.63338">
        <ele>1239.6</ele>
        <time>2011-07-30T09:11:20Z</time>
      </trkpt>
      <trkpt lat="45.53709" lon="6.63326">
        <ele>1239.6</ele>
        <time>2011-07-30T09:11:33Z</time>
      </trkpt>
      <trkpt lat="45.53707" lon="6.63313">
        <ele>1239.6</ele>
        <time>2011-07-30T09:11:42Z</time>
      </trkpt>
      <trkpt lat="45.53704" lon="6.63301">
        <ele>1239</ele>
        <time>2011-07-30T09:11:49Z</time>
      </trkpt>
      <trkpt lat="45.53702" lon="6.63287">
        <ele>1241.6</ele>
        <time>2011-07-30T09:11:57Z</time>
      </trkpt>
      <trkpt lat="45.53699" lon="6.63274">
        <ele>1244.3</ele>
        <time>2011-07-30T09:12:06Z</time>
      </trkpt>
      <trkpt lat="45.53695" lon="6.63263">
        <ele>1246.9</ele>
        <time>2011-07-30T09:12:12Z</time>
      </trkpt>
      <trkpt lat="45.53689" lon="6.63253">
        <ele>1246.3</ele>
        <time>2011-07-30T09:12:22Z</time>
      </trkpt>
      <trkpt lat="45.53681" lon="6.63243">
        <ele>1245.6</ele>
        <time>2011-07-30T09:12:30Z</time>
      </trkpt>
      <trkpt lat="45.53672" lon="6.63236">
        <ele>1245</ele>
        <time>2011-07-30T09:12:37Z</time>
      </trkpt>
      <trkpt lat="45.53665" lon="6.63228">
        <ele>1245</ele>
        <time>2011-07-30T09:12:44Z</time>
      </trkpt>
      <trkpt lat="45.53656" lon="6.63222">
        <ele>1245</ele>
        <time>2011-07-30T09:12:51Z</time>
      </trkpt>
      <trkpt lat="45.53647" lon="6.63217">
        <ele>1245</ele>
        <time>2011-07-30T09:13:00Z</time>
      </trkpt>
      <trkpt lat="45.5364" lon="6.63227">
        <ele>1247.5</ele>
        <time>2011-07-30T09:13:14Z</time>
      </trkpt>
      <trkpt lat="45.53636" lon="6.6324">
        <ele>1251.1</ele>
        <time>2011-07-30T09:13:23Z</time>
      </trkpt>
      <trkpt lat="45.53633" lon="6.63252">
        <ele>1254.7</ele>
        <time>2011-07-30T09:13:35Z</time>
      </trkpt>
      <trkpt lat="45.53632" lon="6.63266">
        <ele>1258.4</ele>
        <time>2011-07-30T09:13:49Z</time>
      </trkpt>
      <trkpt lat="45.5363" lon="6.63279">
        <ele>1262</ele>
        <time>2011-07-30T09:14:00Z</time>
      </trkpt>
      <trkpt lat="45.53626" lon="6.63292">
        <ele>1265.6</ele>
        <time>2011-07-30T09:14:12Z</time>
      </trkpt>
      <trkpt lat="45.53622" lon="6.63305">
        <ele>1269.3</ele>
        <time>2011-07-30T09:14:21Z</time>
      </trkpt>
      <trkpt lat="45.53616" lon="6.63316">
        <ele>1272.9</ele>
        <time>2011-07-30T09:14:32Z</time>
      </trkpt>
      <trkpt lat="45.53612" lon="6.63328">
        <ele>1277.6</ele>
        <time>2011-07-30T09:14:43Z</time>
      </trkpt>
      <trkpt lat="45.53609" lon="6.63341">
        <ele>1282.4</ele>
        <time>2011-07-30T09:14:58Z</time>
      </trkpt>
      <trkpt lat="45.53608" lon="6.63355">
        <ele>1287.1</ele>
        <time>2011-07-30T09:15:05Z</time>
      </trkpt>
      <trkpt lat="45.53605" lon="6.63367">
        <ele>1289.4</ele>
        <time>2011-07-30T09:15:15Z</time>
      </trkpt>
      <trkpt lat="45.536" lon="6.63379">
        <ele>1290.5</ele>
        <time>2011-07-30T09:15:27Z</time>
      </trkpt>
      <trkpt lat="45.53598" lon="6.63392">
        <ele>1291.5</ele>
        <time>2011-07-30T09:15:39Z</time>
      </trkpt>
      <trkpt lat="45.53599" lon="6.63405">
        <ele>1293.9</ele>
        <time>2011-07-30T09:15:50Z</time>
      </trkpt>
      <trkpt lat="45.53598" lon="6.63419">
        <ele>1296.3</ele>
        <time>2011-07-30T09:15:59Z</time>
      </trkpt>
      <trkpt lat="45.53598" lon="6.63433">
        <ele>1298.6</ele>
        <time>2011-07-30T09:16:08Z</time>
      </trkpt>
      <trkpt lat="45.53596" lon="6.63447">
        <ele>1301</ele>
        <time>2011-07-30T09:16:16Z</time>
      </trkpt>
      <trkpt lat="45.53598" lon="6.63461">
        <ele>1303.4</ele>
        <time>2011-07-30T09:16:23Z</time>
      </trkpt>
      <trkpt lat="45.53601" lon="6.63473">
        <ele>1304.6</ele>
        <time>2011-07-30T09:16:33Z</time>
      </trkpt>
      <trkpt lat="45.53605" lon="6.63486">
        <ele>1306.5</ele>
        <time>2011-07-30T09:16:42Z</time>
      </trkpt>
      <trkpt lat="45.53607" lon="6.63499">
        <ele>1305.4</ele>
        <time>2011-07-30T09:16:51Z</time>
      </trkpt>
      <trkpt lat="45.53612" lon="6.63511">
        <ele>1304.3</ele>
        <time>2011-07-30T09:17:00Z</time>
      </trkpt>
      <trkpt lat="45.53615" lon="6.63525">
        <ele>1303.2</ele>
        <time>2011-07-30T09:17:12Z</time>
      </trkpt>
      <trkpt lat="45.53621" lon="6.63537">
        <ele>1302.1</ele>
        <time>2011-07-30T09:17:19Z</time>
      </trkpt>
      <trkpt lat="45.53625" lon="6.63549">
        <ele>1299.7</ele>
        <time>2011-07-30T09:17:25Z</time>
      </trkpt>
      <trkpt lat="45.53629" lon="6.63564">
        <ele>1297.8</ele>
        <time>2011-07-30T09:17:31Z</time>
      </trkpt>
      <trkpt lat="45.53633" lon="6.63579">
        <ele>1295.9</ele>
        <time>2011-07-30T09:17:34Z</time>
      </trkpt>
      <trkpt lat="45.53634" lon="6.63593">
        <ele>1294</ele>
        <time>2011-07-30T09:17:37Z</time>
      </trkpt>
      <trkpt lat="45.53638" lon="6.63607">
        <ele>1292.1</ele>
        <time>2011-07-30T09:17:43Z</time>
      </trkpt>
      <trkpt lat="45.5364" lon="6.63619">
        <ele>1290.2</ele>
        <time>2011-07-30T09:17:47Z</time>
      </trkpt>
      <trkpt lat="45.53643" lon="6.63633">
        <ele>1287.7</ele>
        <time>2011-07-30T09:17:53Z</time>
      </trkpt>
      <trkpt lat="45.53642" lon="6.63649">
        <ele>1288.2</ele>
        <time>2011-07-30T09:17:56Z</time>
      </trkpt>
      <trkpt lat="45.53642" lon="6.63664">
        <ele>1289.2</ele>
        <time>2011-07-30T09:18:00Z</time>
      </trkpt>
      <trkpt lat="45.53643" lon="6.63677">
        <ele>1290.2</ele>
        <time>2011-07-30T09:18:06Z</time>
      </trkpt>
      <trkpt lat="45.53645" lon="6.63691">
        <ele>1291.2</ele>
        <time>2011-07-30T09:18:18Z</time>
      </trkpt>
      <trkpt lat="45.53644" lon="6.63707">
        <ele>1292.2</ele>
        <time>2011-07-30T09:18:26Z</time>
      </trkpt>
      <trkpt lat="45.53646" lon="6.63721">
        <ele>1292.7</ele>
        <time>2011-07-30T09:18:35Z</time>
      </trkpt>
      <trkpt lat="45.53651" lon="6.63735">
        <ele>1293.9</ele>
        <time>2011-07-30T09:18:41Z</time>
      </trkpt>
      <trkpt lat="45.53651" lon="6.63749">
        <ele>1295.1</ele>
        <time>2011-07-30T09:18:46Z</time>
      </trkpt>
      <trkpt lat="45.53652" lon="6.63764">
        <ele>1296.3</ele>
        <time>2011-07-30T09:18:52Z</time>
      </trkpt>
      <trkpt lat="45.53654" lon="6.63779">
        <ele>1297.5</ele>
        <time>2011-07-30T09:18:57Z</time>
      </trkpt>
      <trkpt lat="45.53655" lon="6.63791">
        <ele>1298.6</ele>
        <time>2011-07-30T09:19:02Z</time>
      </trkpt>
      <trkpt lat="45.53656" lon="6.63805">
        <ele>1299.8</ele>
        <time>2011-07-30T09:19:07Z</time>
      </trkpt>
      <trkpt lat="45.53655" lon="6.6382">
        <ele>1300.4</ele>
        <time>2011-07-30T09:19:12Z</time>
      </trkpt>
      <trkpt lat="45.53654" lon="6.63833">
        <ele>1300.9</ele>
        <time>2011-07-30T09:19:17Z</time>
      </trkpt>
      <trkpt lat="45.53654" lon="6.63848">
        <ele>1301.5</ele>
        <time>2011-07-30T09:19:22Z</time>
      </trkpt>
      <trkpt lat="45.53654" lon="6.63862">
        <ele>1302</ele>
        <time>2011-07-30T09:19:27Z</time>
      </trkpt>
      <trkpt lat="45.53653" lon="6.63875">
        <ele>1302.5</ele>
        <time>2011-07-30T09:19:33Z</time>
      </trkpt>
      <trkpt lat="45.53654" lon="6.6389">
        <ele>1302.5</ele>
        <time>2011-07-30T09:19:37Z</time>
      </trkpt>
      <trkpt lat="45.53655" lon="6.63906">
        <ele>1302.4</ele>
        <time>2011-07-30T09:19:41Z</time>
      </trkpt>
      <trkpt lat="45.53653" lon="6.6392">
        <ele>1305.4</ele>
        <time>2011-07-30T09:19:45Z</time>
      </trkpt>
      <trkpt lat="45.53649" lon="6.63932">
        <ele>1308.3</ele>
        <time>2011-07-30T09:19:52Z</time>
      </trkpt>
      <trkpt lat="45.53641" lon="6.63925">
        <ele>1311.2</ele>
        <time>2011-07-30T09:20:10Z</time>
      </trkpt>
      <trkpt lat="45.53636" lon="6.63912">
        <ele>1314.1</ele>
        <time>2011-07-30T09:20:19Z</time>
      </trkpt>
      <trkpt lat="45.53632" lon="6.639">
        <ele>1317.1</ele>
        <time>2011-07-30T09:20:28Z</time>
      </trkpt>
      <trkpt lat="45.53628" lon="6.63888">
        <ele>1320.1</ele>
        <time>2011-07-30T09:20:40Z</time>
      </trkpt>
      <trkpt lat="45.53624" lon="6.63876">
        <ele>1323.1</ele>
        <time>2011-07-30T09:20:51Z</time>
      </trkpt>
      <trkpt lat="45.53618" lon="6.63864">
        <ele>1325.8</ele>
        <time>2011-07-30T09:20:59Z</time>
      </trkpt>
      <trkpt lat="45.53614" lon="6.63853">
        <ele>1328.5</ele>
        <time>2011-07-30T09:21:07Z</time>
      </trkpt>
      <trkpt lat="45.53611" lon="6.63839">
        <ele>1331.3</ele>
        <time>2011-07-30T09:21:13Z</time>
      </trkpt>
      <trkpt lat="45.53608" lon="6.63827">
        <ele>1334</ele>
        <time>2011-07-30T09:21:22Z</time>
      </trkpt>
      <trkpt lat="45.53606" lon="6.63814">
        <ele>1333.6</ele>
        <time>2011-07-30T09:21:30Z</time>
      </trkpt>
      <trkpt lat="45.53604" lon="6.63801">
        <ele>1333.4</ele>
        <time>2011-07-30T09:21:39Z</time>
      </trkpt>
      <trkpt lat="45.536" lon="6.63788">
        <ele>1333.1</ele>
        <time>2011-07-30T09:21:44Z</time>
      </trkpt>
      <trkpt lat="45.53596" lon="6.63776">
        <ele>1331.9</ele>
        <time>2011-07-30T09:21:47Z</time>
      </trkpt>
      <trkpt lat="45.53591" lon="6.63764">
        <ele>1330.7</ele>
        <time>2011-07-30T09:21:49Z</time>
      </trkpt>
      <trkpt lat="45.53587" lon="6.63751">
        <ele>1329.5</ele>
        <time>2011-07-30T09:21:54Z</time>
      </trkpt>
      <trkpt lat="45.53584" lon="6.63737">
        <ele>1328.4</ele>
        <time>2011-07-30T09:21:58Z</time>
      </trkpt>
      <trkpt lat="45.53581" lon="6.63723">
        <ele>1327.5</ele>
        <time>2011-07-30T09:22:05Z</time>
      </trkpt>
      <trkpt lat="45.53579" lon="6.63709">
        <ele>1326.5</ele>
        <time>2011-07-30T09:22:09Z</time>
      </trkpt>
      <trkpt lat="45.53575" lon="6.63694">
        <ele>1325.6</ele>
        <time>2011-07-30T09:22:15Z</time>
      </trkpt>
      <trkpt lat="45.53572" lon="6.63681">
        <ele>1324.3</ele>
        <time>2011-07-30T09:22:18Z</time>
      </trkpt>
      <trkpt lat="45.53569" lon="6.63666">
        <ele>1325.6</ele>
        <time>2011-07-30T09:22:24Z</time>
      </trkpt>
      <trkpt lat="45.53564" lon="6.63653">
        <ele>1327</ele>
        <time>2011-07-30T09:22:28Z</time>
      </trkpt>
      <trkpt lat="45.53559" lon="6.63642">
        <ele>1328.4</ele>
        <time>2011-07-30T09:22:36Z</time>
      </trkpt>
      <trkpt lat="45.53553" lon="6.6363">
        <ele>1330.6</ele>
        <time>2011-07-30T09:22:42Z</time>
      </trkpt>
      <trkpt lat="45.53549" lon="6.63619">
        <ele>1332.9</ele>
        <time>2011-07-30T09:22:49Z</time>
      </trkpt>
      <trkpt lat="45.53545" lon="6.63607">
        <ele>1335.2</ele>
        <time>2011-07-30T09:22:56Z</time>
      </trkpt>
      <trkpt lat="45.53539" lon="6.63597">
        <ele>1337.5</ele>
        <time>2011-07-30T09:23:02Z</time>
      </trkpt>
      <trkpt lat="45.53535" lon="6.6361">
        <ele>1339.7</ele>
        <time>2011-07-30T09:23:11Z</time>
      </trkpt>
      <trkpt lat="45.5353" lon="6.63621">
        <ele>1342</ele>
        <time>2011-07-30T09:23:19Z</time>
      </trkpt>
      <trkpt lat="45.53523" lon="6.63612">
        <ele>1344.3</ele>
        <time>2011-07-30T09:23:29Z</time>
      </trkpt>
      <trkpt lat="45.53517" lon="6.63602">
        <ele>1347</ele>
        <time>2011-07-30T09:23:35Z</time>
      </trkpt>
      <trkpt lat="45.53512" lon="6.63591">
        <ele>1347</ele>
        <time>2011-07-30T09:23:43Z</time>
      </trkpt>
      <trkpt lat="45.53504" lon="6.63584">
        <ele>1347</ele>
        <time>2011-07-30T09:23:51Z</time>
      </trkpt>
      <trkpt lat="45.53496" lon="6.63577">
        <ele>1347.2</ele>
        <time>2011-07-30T09:24:00Z</time>
      </trkpt>
      <trkpt lat="45.53494" lon="6.6359">
        <ele>1347.4</ele>
        <time>2011-07-30T09:24:15Z</time>
      </trkpt>
      <trkpt lat="45.53502" lon="6.63601">
        <ele>1347.5</ele>
        <time>2011-07-30T09:24:21Z</time>
      </trkpt>
      <trkpt lat="45.53511" lon="6.63608">
        <ele>1347.7</ele>
        <time>2011-07-30T09:24:26Z</time>
      </trkpt>
      <trkpt lat="45.53514" lon="6.63623">
        <ele>1347.9</ele>
        <time>2011-07-30T09:24:31Z</time>
      </trkpt>
      <trkpt lat="45.53516" lon="6.63637">
        <ele>1348.1</ele>
        <time>2011-07-30T09:24:34Z</time>
      </trkpt>
      <trkpt lat="45.53515" lon="6.63652">
        <ele>1348.3</ele>
        <time>2011-07-30T09:24:40Z</time>
      </trkpt>
      <trkpt lat="45.5351" lon="6.63664">
        <ele>1348.5</ele>
        <time>2011-07-30T09:24:47Z</time>
      </trkpt>
      <trkpt lat="45.53506" lon="6.63676">
        <ele>1349.2</ele>
        <time>2011-07-30T09:24:54Z</time>
      </trkpt>
      <trkpt lat="45.53501" lon="6.63687">
        <ele>1349.9</ele>
        <time>2011-07-30T09:25:00Z</time>
      </trkpt>
      <trkpt lat="45.53495" lon="6.63699">
        <ele>1351.8</ele>
        <time>2011-07-30T09:25:06Z</time>
      </trkpt>
      <trkpt lat="45.53489" lon="6.6371">
        <ele>1353.5</ele>
        <time>2011-07-30T09:25:14Z</time>
      </trkpt>
      <trkpt lat="45.53484" lon="6.63721">
        <ele>1355.3</ele>
        <time>2011-07-30T09:25:24Z</time>
      </trkpt>
      <trkpt lat="45.53478" lon="6.63731">
        <ele>1357</ele>
        <time>2011-07-30T09:25:30Z</time>
      </trkpt>
      <trkpt lat="45.5347" lon="6.6374">
        <ele>1358.7</ele>
        <time>2011-07-30T09:25:38Z</time>
      </trkpt>
      <trkpt lat="45.53464" lon="6.63751">
        <ele>1360.5</ele>
        <time>2011-07-30T09:25:48Z</time>
      </trkpt>
      <trkpt lat="45.53457" lon="6.6376">
        <ele>1362.9</ele>
        <time>2011-07-30T09:25:56Z</time>
      </trkpt>
      <trkpt lat="45.5345" lon="6.6377">
        <ele>1365.4</ele>
        <time>2011-07-30T09:26:05Z</time>
      </trkpt>
      <trkpt lat="45.53444" lon="6.63781">
        <ele>1367.8</ele>
        <time>2011-07-30T09:26:15Z</time>
      </trkpt>
      <trkpt lat="45.53437" lon="6.63789">
        <ele>1369.7</ele>
        <time>2011-07-30T09:26:25Z</time>
      </trkpt>
      <trkpt lat="45.53429" lon="6.63798">
        <ele>1371.6</ele>
        <time>2011-07-30T09:26:35Z</time>
      </trkpt>
      <trkpt lat="45.53422" lon="6.63806">
        <ele>1372.4</ele>
        <time>2011-07-30T09:26:41Z</time>
      </trkpt>
      <trkpt lat="45.53414" lon="6.63813">
        <ele>1373.1</ele>
        <time>2011-07-30T09:26:53Z</time>
      </trkpt>
      <trkpt lat="45.53407" lon="6.63823">
        <ele>1375.7</ele>
        <time>2011-07-30T09:27:02Z</time>
      </trkpt>
      <trkpt lat="45.53399" lon="6.63828">
        <ele>1378.4</ele>
        <time>2011-07-30T09:27:14Z</time>
      </trkpt>
      <trkpt lat="45.53391" lon="6.63837">
        <ele>1381</ele>
        <time>2011-07-30T09:27:26Z</time>
      </trkpt>
      <trkpt lat="45.53385" lon="6.63847">
        <ele>1383.6</ele>
        <time>2011-07-30T09:27:35Z</time>
      </trkpt>
      <trkpt lat="45.53378" lon="6.63856">
        <ele>1385.5</ele>
        <time>2011-07-30T09:27:47Z</time>
      </trkpt>
      <trkpt lat="45.53371" lon="6.63865">
        <ele>1387.5</ele>
        <time>2011-07-30T09:27:58Z</time>
      </trkpt>
      <trkpt lat="45.53367" lon="6.63878">
        <ele>1389.4</ele>
        <time>2011-07-30T09:28:05Z</time>
      </trkpt>
      <trkpt lat="45.53361" lon="6.6389">
        <ele>1391.3</ele>
        <time>2011-07-30T09:28:15Z</time>
      </trkpt>
      <trkpt lat="45.53355" lon="6.63902">
        <ele>1393.2</ele>
        <time>2011-07-30T09:28:22Z</time>
      </trkpt>
      <trkpt lat="45.53348" lon="6.6391">
        <ele>1395.2</ele>
        <time>2011-07-30T09:28:30Z</time>
      </trkpt>
      <trkpt lat="45.53342" lon="6.63921">
        <ele>1397.2</ele>
        <time>2011-07-30T09:28:39Z</time>
      </trkpt>
      <trkpt lat="45.53336" lon="6.63932">
        <ele>1397.3</ele>
        <time>2011-07-30T09:28:47Z</time>
      </trkpt>
      <trkpt lat="45.53332" lon="6.63945">
        <ele>1397.4</ele>
        <time>2011-07-30T09:28:55Z</time>
      </trkpt>
      <trkpt lat="45.53327" lon="6.63958">
        <ele>1397.5</ele>
        <time>2011-07-30T09:29:03Z</time>
      </trkpt>
      <trkpt lat="45.53323" lon="6.63969">
        <ele>1397.5</ele>
        <time>2011-07-30T09:29:14Z</time>
      </trkpt>
      <trkpt lat="45.53317" lon="6.6398">
        <ele>1399.8</ele>
        <time>2011-07-30T09:29:24Z</time>
      </trkpt>
      <trkpt lat="45.53313" lon="6.63992">
        <ele>1402.3</ele>
        <time>2011-07-30T09:29:31Z</time>
      </trkpt>
      <trkpt lat="45.53308" lon="6.64004">
        <ele>1404.7</ele>
        <time>2011-07-30T09:29:36Z</time>
      </trkpt>
      <trkpt lat="45.53302" lon="6.64015">
        <ele>1407.2</ele>
        <time>2011-07-30T09:29:46Z</time>
      </trkpt>
      <trkpt lat="45.53295" lon="6.64026">
        <ele>1409.6</ele>
        <time>2011-07-30T09:29:57Z</time>
      </trkpt>
      <trkpt lat="45.53291" lon="6.64038">
        <ele>1412</ele>
        <time>2011-07-30T09:30:05Z</time>
      </trkpt>
      <trkpt lat="45.5329" lon="6.6405">
        <ele>1414.4</ele>
        <time>2011-07-30T09:30:13Z</time>
      </trkpt>
      <trkpt lat="45.5329" lon="6.64066">
        <ele>1416.7</ele>
        <time>2011-07-30T09:30:17Z</time>
      </trkpt>
      <trkpt lat="45.5329" lon="6.64079">
        <ele>1419.4</ele>
        <time>2011-07-30T09:30:23Z</time>
      </trkpt>
      <trkpt lat="45.5329" lon="6.64094">
        <ele>1422</ele>
        <time>2011-07-30T09:30:30Z</time>
      </trkpt>
      <trkpt lat="45.53289" lon="6.64107">
        <ele>1424.6</ele>
        <time>2011-07-30T09:30:35Z</time>
      </trkpt>
      <trkpt lat="45.53287" lon="6.6412">
        <ele>1425.1</ele>
        <time>2011-07-30T09:30:39Z</time>
      </trkpt>
      <trkpt lat="45.53284" lon="6.64132">
        <ele>1425.4</ele>
        <time>2011-07-30T09:30:45Z</time>
      </trkpt>
      <trkpt lat="45.5328" lon="6.64148">
        <ele>1425.4</ele>
        <time>2011-07-30T09:30:50Z</time>
      </trkpt>
      <trkpt lat="45.53276" lon="6.6416">
        <ele>1425.4</ele>
        <time>2011-07-30T09:30:55Z</time>
      </trkpt>
      <trkpt lat="45.53271" lon="6.64173">
        <ele>1425.4</ele>
        <time>2011-07-30T09:31:00Z</time>
      </trkpt>
      <trkpt lat="45.53267" lon="6.64187">
        <ele>1425.4</ele>
        <time>2011-07-30T09:31:05Z</time>
      </trkpt>
      <trkpt lat="45.53264" lon="6.64201">
        <ele>1425.4</ele>
        <time>2011-07-30T09:31:09Z</time>
      </trkpt>
      <trkpt lat="45.53266" lon="6.64215">
        <ele>1425.4</ele>
        <time>2011-07-30T09:31:17Z</time>
      </trkpt>
      <trkpt lat="45.53265" lon="6.64231">
        <ele>1424.2</ele>
        <time>2011-07-30T09:31:21Z</time>
      </trkpt>
      <trkpt lat="45.53263" lon="6.64248">
        <ele>1423</ele>
        <time>2011-07-30T09:31:25Z</time>
      </trkpt>
      <trkpt lat="45.53261" lon="6.64263">
        <ele>1421.8</ele>
        <time>2011-07-30T09:31:29Z</time>
      </trkpt>
      <trkpt lat="45.53258" lon="6.64277">
        <ele>1420.6</ele>
        <time>2011-07-30T09:31:36Z</time>
      </trkpt>
      <trkpt lat="45.53255" lon="6.6429">
        <ele>1419.5</ele>
        <time>2011-07-30T09:31:45Z</time>
      </trkpt>
      <trkpt lat="45.53248" lon="6.643">
        <ele>1418.5</ele>
        <time>2011-07-30T09:31:54Z</time>
      </trkpt>
      <trkpt lat="45.53241" lon="6.64308">
        <ele>1420.9</ele>
        <time>2011-07-30T09:32:03Z</time>
      </trkpt>
      <trkpt lat="45.53234" lon="6.64318">
        <ele>1423.3</ele>
        <time>2011-07-30T09:32:11Z</time>
      </trkpt>
      <trkpt lat="45.53226" lon="6.64326">
        <ele>1425.6</ele>
        <time>2011-07-30T09:32:19Z</time>
      </trkpt>
      <trkpt lat="45.53219" lon="6.64334">
        <ele>1427.4</ele>
        <time>2011-07-30T09:32:27Z</time>
      </trkpt>
      <trkpt lat="45.53212" lon="6.64344">
        <ele>1429.1</ele>
        <time>2011-07-30T09:32:36Z</time>
      </trkpt>
      <trkpt lat="45.53204" lon="6.6435">
        <ele>1431.7</ele>
        <time>2011-07-30T09:32:44Z</time>
      </trkpt>
      <trkpt lat="45.53198" lon="6.64362">
        <ele>1434.4</ele>
        <time>2011-07-30T09:32:53Z</time>
      </trkpt>
      <trkpt lat="45.53196" lon="6.64375">
        <ele>1437</ele>
        <time>2011-07-30T09:32:58Z</time>
      </trkpt>
      <trkpt lat="45.53192" lon="6.64394">
        <ele>1439.6</ele>
        <time>2011-07-30T09:33:06Z</time>
      </trkpt>
      <trkpt lat="45.53187" lon="6.64406">
        <ele>1440.8</ele>
        <time>2011-07-30T09:33:14Z</time>
      </trkpt>
      <trkpt lat="45.53181" lon="6.64418">
        <ele>1442</ele>
        <time>2011-07-30T09:33:19Z</time>
      </trkpt>
      <trkpt lat="45.53175" lon="6.6443">
        <ele>1439.9</ele>
        <time>2011-07-30T09:33:27Z</time>
      </trkpt>
      <trkpt lat="45.53169" lon="6.6444">
        <ele>1437.8</ele>
        <time>2011-07-30T09:33:33Z</time>
      </trkpt>
      <trkpt lat="45.53165" lon="6.64452">
        <ele>1438.8</ele>
        <time>2011-07-30T09:33:40Z</time>
      </trkpt>
      <trkpt lat="45.53159" lon="6.64464">
        <ele>1440.5</ele>
        <time>2011-07-30T09:33:49Z</time>
      </trkpt>
      <trkpt lat="45.53152" lon="6.64475">
        <ele>1442.1</ele>
        <time>2011-07-30T09:33:57Z</time>
      </trkpt>
      <trkpt lat="45.53145" lon="6.64482">
        <ele>1443.7</ele>
        <time>2011-07-30T09:34:04Z</time>
      </trkpt>
      <trkpt lat="45.53136" lon="6.64489">
        <ele>1445.4</ele>
        <time>2011-07-30T09:34:12Z</time>
      </trkpt>
      <trkpt lat="45.53128" lon="6.64495">
        <ele>1447</ele>
        <time>2011-07-30T09:34:20Z</time>
      </trkpt>
      <trkpt lat="45.5312" lon="6.64503">
        <ele>1448.6</ele>
        <time>2011-07-30T09:34:27Z</time>
      </trkpt>
      <trkpt lat="45.53112" lon="6.6451">
        <ele>1450.8</ele>
        <time>2011-07-30T09:34:33Z</time>
      </trkpt>
      <trkpt lat="45.53104" lon="6.64515">
        <ele>1453</ele>
        <time>2011-07-30T09:34:40Z</time>
      </trkpt>
      <trkpt lat="45.53094" lon="6.64519">
        <ele>1455.2</ele>
        <time>2011-07-30T09:34:49Z</time>
      </trkpt>
      <trkpt lat="45.53086" lon="6.64525">
        <ele>1457.4</ele>
        <time>2011-07-30T09:34:59Z</time>
      </trkpt>
      <trkpt lat="45.53081" lon="6.64537">
        <ele>1456.5</ele>
        <time>2011-07-30T09:35:08Z</time>
      </trkpt>
      <trkpt lat="45.5308" lon="6.64551">
        <ele>1455.5</ele>
        <time>2011-07-30T09:35:13Z</time>
      </trkpt>
      <trkpt lat="45.53078" lon="6.64565">
        <ele>1454.1</ele>
        <time>2011-07-30T09:35:20Z</time>
      </trkpt>
      <trkpt lat="45.53074" lon="6.64578">
        <ele>1452.6</ele>
        <time>2011-07-30T09:35:24Z</time>
      </trkpt>
      <trkpt lat="45.5307" lon="6.64591">
        <ele>1451.2</ele>
        <time>2011-07-30T09:35:32Z</time>
      </trkpt>
      <trkpt lat="45.53066" lon="6.64604">
        <ele>1449.7</ele>
        <time>2011-07-30T09:35:39Z</time>
      </trkpt>
      <trkpt lat="45.53058" lon="6.64613">
        <ele>1448.3</ele>
        <time>2011-07-30T09:35:47Z</time>
      </trkpt>
      <trkpt lat="45.53056" lon="6.64626">
        <ele>1447.7</ele>
        <time>2011-07-30T09:35:53Z</time>
      </trkpt>
      <trkpt lat="45.53054" lon="6.64639">
        <ele>1450.6</ele>
        <time>2011-07-30T09:35:57Z</time>
      </trkpt>
      <trkpt lat="45.53052" lon="6.64654">
        <ele>1453.5</ele>
        <time>2011-07-30T09:36:02Z</time>
      </trkpt>
      <trkpt lat="45.53053" lon="6.64669">
        <ele>1455.7</ele>
        <time>2011-07-30T09:36:08Z</time>
      </trkpt>
      <trkpt lat="45.53051" lon="6.64684">
        <ele>1457.9</ele>
        <time>2011-07-30T09:36:12Z</time>
      </trkpt>
      <trkpt lat="45.53048" lon="6.64696">
        <ele>1460.1</ele>
        <time>2011-07-30T09:36:19Z</time>
      </trkpt>
      <trkpt lat="45.53041" lon="6.64708">
        <ele>1462.8</ele>
        <time>2011-07-30T09:36:26Z</time>
      </trkpt>
      <trkpt lat="45.53034" lon="6.64718">
        <ele>1465.5</ele>
        <time>2011-07-30T09:36:30Z</time>
      </trkpt>
      <trkpt lat="45.53029" lon="6.64729">
        <ele>1468.3</ele>
        <time>2011-07-30T09:36:36Z</time>
      </trkpt>
      <trkpt lat="45.53024" lon="6.64745">
        <ele>1470.2</ele>
        <time>2011-07-30T09:36:41Z</time>
      </trkpt>
      <trkpt lat="45.53021" lon="6.64758">
        <ele>1472.1</ele>
        <time>2011-07-30T09:36:47Z</time>
      </trkpt>
      <trkpt lat="45.53019" lon="6.64774">
        <ele>1474</ele>
        <time>2011-07-30T09:36:52Z</time>
      </trkpt>
      <trkpt lat="45.53016" lon="6.64787">
        <ele>1472.5</ele>
        <time>2011-07-30T09:36:56Z</time>
      </trkpt>
      <trkpt lat="45.53014" lon="6.648">
        <ele>1470.9</ele>
        <time>2011-07-30T09:37:01Z</time>
      </trkpt>
      <trkpt lat="45.53012" lon="6.64815">
        <ele>1468.8</ele>
        <time>2011-07-30T09:37:07Z</time>
      </trkpt>
      <trkpt lat="45.53009" lon="6.64829">
        <ele>1466.7</ele>
        <time>2011-07-30T09:37:10Z</time>
      </trkpt>
      <trkpt lat="45.53007" lon="6.64849">
        <ele>1464.6</ele>
        <time>2011-07-30T09:37:18Z</time>
      </trkpt>
      <trkpt lat="45.53004" lon="6.64864">
        <ele>1462.5</ele>
        <time>2011-07-30T09:37:23Z</time>
      </trkpt>
      <trkpt lat="45.53" lon="6.64876">
        <ele>1460.5</ele>
        <time>2011-07-30T09:37:28Z</time>
      </trkpt>
      <trkpt lat="45.52995" lon="6.64889">
        <ele>1461.3</ele>
        <time>2011-07-30T09:37:31Z</time>
      </trkpt>
      <trkpt lat="45.52988" lon="6.649">
        <ele>1462.9</ele>
        <time>2011-07-30T09:37:36Z</time>
      </trkpt>
      <trkpt lat="45.52982" lon="6.64911">
        <ele>1464.5</ele>
        <time>2011-07-30T09:37:40Z</time>
      </trkpt>
      <trkpt lat="45.52973" lon="6.64919">
        <ele>1466.2</ele>
        <time>2011-07-30T09:37:46Z</time>
      </trkpt>
      <trkpt lat="45.52965" lon="6.64923">
        <ele>1467.8</ele>
        <time>2011-07-30T09:37:52Z</time>
      </trkpt>
      <trkpt lat="45.52955" lon="6.64927">
        <ele>1468.2</ele>
        <time>2011-07-30T09:37:59Z</time>
      </trkpt>
      <trkpt lat="45.52946" lon="6.64935">
        <ele>1469.8</ele>
        <time>2011-07-30T09:38:03Z</time>
      </trkpt>
      <trkpt lat="45.52938" lon="6.64944">
        <ele>1471.5</ele>
        <time>2011-07-30T09:38:08Z</time>
      </trkpt>
      <trkpt lat="45.52931" lon="6.64954">
        <ele>1473.1</ele>
        <time>2011-07-30T09:38:11Z</time>
      </trkpt>
      <trkpt lat="45.52926" lon="6.64966">
        <ele>1474.7</ele>
        <time>2011-07-30T09:38:15Z</time>
      </trkpt>
      <trkpt lat="45.52926" lon="6.6498">
        <ele>1476.4</ele>
        <time>2011-07-30T09:38:23Z</time>
      </trkpt>
      <trkpt lat="45.5293" lon="6.64994">
        <ele>1475.1</ele>
        <time>2011-07-30T09:38:30Z</time>
      </trkpt>
      <trkpt lat="45.52935" lon="6.65008">
        <ele>1473.8</ele>
        <time>2011-07-30T09:38:35Z</time>
      </trkpt>
      <trkpt lat="45.52939" lon="6.65022">
        <ele>1472.5</ele>
        <time>2011-07-30T09:38:41Z</time>
      </trkpt>
      <trkpt lat="45.52943" lon="6.65035">
        <ele>1471.3</ele>
        <time>2011-07-30T09:38:48Z</time>
      </trkpt>
      <trkpt lat="45.52949" lon="6.65045">
        <ele>1470</ele>
        <time>2011-07-30T09:38:54Z</time>
      </trkpt>
      <trkpt lat="45.52947" lon="6.65059">
        <ele>1470</ele>
        <time>2011-07-30T09:39:04Z</time>
      </trkpt>
      <trkpt lat="45.52942" lon="6.6507">
        <ele>1470</ele>
        <time>2011-07-30T09:39:10Z</time>
      </trkpt>
      <trkpt lat="45.52934" lon="6.6508">
        <ele>1470</ele>
        <time>2011-07-30T09:39:15Z</time>
      </trkpt>
      <trkpt lat="45.52926" lon="6.65089">
        <ele>1468.8</ele>
        <time>2011-07-30T09:39:22Z</time>
      </trkpt>
      <trkpt lat="45.52919" lon="6.65098">
        <ele>1467.6</ele>
        <time>2011-07-30T09:39:27Z</time>
      </trkpt>
      <trkpt lat="45.52912" lon="6.65107">
        <ele>1470</ele>
        <time>2011-07-30T09:39:34Z</time>
      </trkpt>
      <trkpt lat="45.52904" lon="6.65116">
        <ele>1472.4</ele>
        <time>2011-07-30T09:39:40Z</time>
      </trkpt>
      <trkpt lat="45.52897" lon="6.65125">
        <ele>1474.7</ele>
        <time>2011-07-30T09:39:45Z</time>
      </trkpt>
      <trkpt lat="45.52888" lon="6.65134">
        <ele>1477.1</ele>
        <time>2011-07-30T09:39:51Z</time>
      </trkpt>
      <trkpt lat="45.52879" lon="6.65144">
        <ele>1475.9</ele>
        <time>2011-07-30T09:39:56Z</time>
      </trkpt>
      <trkpt lat="45.52873" lon="6.65155">
        <ele>1475.5</ele>
        <time>2011-07-30T09:40:01Z</time>
      </trkpt>
      <trkpt lat="45.52871" lon="6.65172">
        <ele>1475.2</ele>
        <time>2011-07-30T09:40:07Z</time>
      </trkpt>
      <trkpt lat="45.52872" lon="6.65184">
        <ele>1474.8</ele>
        <time>2011-07-30T09:40:15Z</time>
      </trkpt>
      <trkpt lat="45.52875" lon="6.65198">
        <ele>1474.5</ele>
        <time>2011-07-30T09:40:24Z</time>
      </trkpt>
      <trkpt lat="45.52876" lon="6.65213">
        <ele>1475.3</ele>
        <time>2011-07-30T09:40:30Z</time>
      </trkpt>
      <trkpt lat="45.52879" lon="6.65227">
        <ele>1476.1</ele>
        <time>2011-07-30T09:40:38Z</time>
      </trkpt>
      <trkpt lat="45.52881" lon="6.6524">
        <ele>1474.8</ele>
        <time>2011-07-30T09:40:46Z</time>
      </trkpt>
      <trkpt lat="45.52882" lon="6.65254">
        <ele>1473.5</ele>
        <time>2011-07-30T09:40:55Z</time>
      </trkpt>
      <trkpt lat="45.52889" lon="6.65264">
        <ele>1472.3</ele>
        <time>2011-07-30T09:41:03Z</time>
      </trkpt>
      <trkpt lat="45.52888" lon="6.65278">
        <ele>1471</ele>
        <time>2011-07-30T09:41:11Z</time>
      </trkpt>
      <trkpt lat="45.52889" lon="6.65291">
        <ele>1473.3</ele>
        <time>2011-07-30T09:41:20Z</time>
      </trkpt>
      <trkpt lat="45.52885" lon="6.65304">
        <ele>1474.7</ele>
        <time>2011-07-30T09:41:27Z</time>
      </trkpt>
      <trkpt lat="45.52885" lon="6.65318">
        <ele>1476.2</ele>
        <time>2011-07-30T09:41:34Z</time>
      </trkpt>
      <trkpt lat="45.52895" lon="6.65321">
        <ele>1477.6</ele>
        <time>2011-07-30T09:41:39Z</time>
      </trkpt>
      <trkpt lat="45.52905" lon="6.6532">
        <ele>1479.1</ele>
        <time>2011-07-30T09:41:41Z</time>
      </trkpt>
      <trkpt lat="45.52914" lon="6.65322">
        <ele>1480.5</ele>
        <time>2011-07-30T09:41:46Z</time>
      </trkpt>
      <trkpt lat="45.52909" lon="6.65333">
        <ele>1483</ele>
        <time>2011-07-30T09:42:01Z</time>
      </trkpt>
      <trkpt lat="45.529" lon="6.65337">
        <ele>1484</ele>
        <time>2011-07-30T09:42:14Z</time>
      </trkpt>
      <trkpt lat="45.52891" lon="6.65338">
        <ele>1485</ele>
        <time>2011-07-30T09:42:25Z</time>
      </trkpt>
      <trkpt lat="45.52885" lon="6.65349">
        <ele>1486</ele>
        <time>2011-07-30T09:42:34Z</time>
      </trkpt>
      <trkpt lat="45.5289" lon="6.65362">
        <ele>1487</ele>
        <time>2011-07-30T09:42:43Z</time>
      </trkpt>
      <trkpt lat="45.52893" lon="6.6538">
        <ele>1488</ele>
        <time>2011-07-30T09:42:57Z</time>
      </trkpt>
      <trkpt lat="45.52888" lon="6.65391">
        <ele>1491.5</ele>
        <time>2011-07-30T09:43:04Z</time>
      </trkpt>
      <trkpt lat="45.5289" lon="6.65406">
        <ele>1495.1</ele>
        <time>2011-07-30T09:43:14Z</time>
      </trkpt>
      <trkpt lat="45.5289" lon="6.6542">
        <ele>1498.8</ele>
        <time>2011-07-30T09:43:20Z</time>
      </trkpt>
      <trkpt lat="45.52885" lon="6.65431">
        <ele>1502.5</ele>
        <time>2011-07-30T09:43:29Z</time>
      </trkpt>
      <trkpt lat="45.52877" lon="6.65439">
        <ele>1506.3</ele>
        <time>2011-07-30T09:43:36Z</time>
      </trkpt>
      <trkpt lat="45.52871" lon="6.65449">
        <ele>1509</ele>
        <time>2011-07-30T09:43:43Z</time>
      </trkpt>
      <trkpt lat="45.52866" lon="6.65461">
        <ele>1511.7</ele>
        <time>2011-07-30T09:43:51Z</time>
      </trkpt>
      <trkpt lat="45.52862" lon="6.65473">
        <ele>1514.5</ele>
        <time>2011-07-30T09:44:00Z</time>
      </trkpt>
      <trkpt lat="45.52855" lon="6.65482">
        <ele>1517.2</ele>
        <time>2011-07-30T09:44:10Z</time>
      </trkpt>
      <trkpt lat="45.52847" lon="6.65491">
        <ele>1520</ele>
        <time>2011-07-30T09:44:19Z</time>
      </trkpt>
      <trkpt lat="45.52845" lon="6.65504">
        <ele>1522.8</ele>
        <time>2011-07-30T09:44:27Z</time>
      </trkpt>
      <trkpt lat="45.5284" lon="6.65514">
        <ele>1523.1</ele>
        <time>2011-07-30T09:44:37Z</time>
      </trkpt>
      <trkpt lat="45.52836" lon="6.65527">
        <ele>1523.4</ele>
        <time>2011-07-30T09:44:45Z</time>
      </trkpt>
      <trkpt lat="45.52834" lon="6.6554">
        <ele>1523.6</ele>
        <time>2011-07-30T09:44:52Z</time>
      </trkpt>
      <trkpt lat="45.52827" lon="6.65574">
        <ele>1523.9</ele>
        <time>2011-07-30T09:45:05Z</time>
      </trkpt>
      <trkpt lat="45.52824" lon="6.65589">
        <ele>1524.2</ele>
        <time>2011-07-30T09:45:08Z</time>
      </trkpt>
      <trkpt lat="45.52823" lon="6.65604">
        <ele>1524.5</ele>
        <time>2011-07-30T09:45:14Z</time>
      </trkpt>
      <trkpt lat="45.52818" lon="6.65615">
        <ele>1524.7</ele>
        <time>2011-07-30T09:45:24Z</time>
      </trkpt>
      <trkpt lat="45.5282" lon="6.65628">
        <ele>1525</ele>
        <time>2011-07-30T09:45:36Z</time>
      </trkpt>
      <trkpt lat="45.52818" lon="6.65641">
        <ele>1525.3</ele>
        <time>2011-07-30T09:45:48Z</time>
      </trkpt>
      <trkpt lat="45.52816" lon="6.65655">
        <ele>1525.5</ele>
        <time>2011-07-30T09:46:00Z</time>
      </trkpt>
      <trkpt lat="45.52811" lon="6.65668">
        <ele>1526</ele>
        <time>2011-07-30T09:46:09Z</time>
      </trkpt>
      <trkpt lat="45.52807" lon="6.6568">
        <ele>1526.5</ele>
        <time>2011-07-30T09:46:14Z</time>
      </trkpt>
      <trkpt lat="45.52804" lon="6.65693">
        <ele>1530.5</ele>
        <time>2011-07-30T09:46:22Z</time>
      </trkpt>
      <trkpt lat="45.52802" lon="6.65706">
        <ele>1534.4</ele>
        <time>2011-07-30T09:46:28Z</time>
      </trkpt>
      <trkpt lat="45.52798" lon="6.65719">
        <ele>1538.2</ele>
        <time>2011-07-30T09:46:34Z</time>
      </trkpt>
      <trkpt lat="45.52794" lon="6.65732">
        <ele>1542</ele>
        <time>2011-07-30T09:46:44Z</time>
      </trkpt>
      <trkpt lat="45.52794" lon="6.65745">
        <ele>1545.5</ele>
        <time>2011-07-30T09:46:58Z</time>
      </trkpt>
      <trkpt lat="45.52791" lon="6.65759">
        <ele>1548.9</ele>
        <time>2011-07-30T09:47:05Z</time>
      </trkpt>
      <trkpt lat="45.52789" lon="6.65772">
        <ele>1552.4</ele>
        <time>2011-07-30T09:47:12Z</time>
      </trkpt>
      <trkpt lat="45.52789" lon="6.65786">
        <ele>1555.8</ele>
        <time>2011-07-30T09:47:21Z</time>
      </trkpt>
      <trkpt lat="45.52788" lon="6.65799">
        <ele>1559.3</ele>
        <time>2011-07-30T09:47:33Z</time>
      </trkpt>
      <trkpt lat="45.52781" lon="6.65807">
        <ele>1562.4</ele>
        <time>2011-07-30T09:47:42Z</time>
      </trkpt>
      <trkpt lat="45.52774" lon="6.65816">
        <ele>1565.5</ele>
        <time>2011-07-30T09:47:52Z</time>
      </trkpt>
      <trkpt lat="45.52767" lon="6.65823">
        <ele>1565.1</ele>
        <time>2011-07-30T09:48:01Z</time>
      </trkpt>
      <trkpt lat="45.52758" lon="6.65826">
        <ele>1564.7</ele>
        <time>2011-07-30T09:48:08Z</time>
      </trkpt>
      <trkpt lat="45.52749" lon="6.65832">
        <ele>1564.4</ele>
        <time>2011-07-30T09:48:16Z</time>
      </trkpt>
      <trkpt lat="45.52742" lon="6.65839">
        <ele>1566.8</ele>
        <time>2011-07-30T09:48:23Z</time>
      </trkpt>
      <trkpt lat="45.52734" lon="6.65846">
        <ele>1569.6</ele>
        <time>2011-07-30T09:48:30Z</time>
      </trkpt>
      <trkpt lat="45.52724" lon="6.65861">
        <ele>1572.5</ele>
        <time>2011-07-30T09:48:41Z</time>
      </trkpt>
      <trkpt lat="45.52719" lon="6.65871">
        <ele>1575.3</ele>
        <time>2011-07-30T09:48:48Z</time>
      </trkpt>
      <trkpt lat="45.52713" lon="6.65881">
        <ele>1578.1</ele>
        <time>2011-07-30T09:48:57Z</time>
      </trkpt>
      <trkpt lat="45.52706" lon="6.65891">
        <ele>1580.9</ele>
        <time>2011-07-30T09:49:07Z</time>
      </trkpt>
      <trkpt lat="45.527" lon="6.65902">
        <ele>1582.5</ele>
        <time>2011-07-30T09:49:17Z</time>
      </trkpt>
      <trkpt lat="45.52694" lon="6.65912">
        <ele>1584.2</ele>
        <time>2011-07-30T09:49:26Z</time>
      </trkpt>
      <trkpt lat="45.52689" lon="6.65924">
        <ele>1585.8</ele>
        <time>2011-07-30T09:49:36Z</time>
      </trkpt>
      <trkpt lat="45.52683" lon="6.65934">
        <ele>1587.5</ele>
        <time>2011-07-30T09:49:44Z</time>
      </trkpt>
      <trkpt lat="45.52681" lon="6.65948">
        <ele>1589.1</ele>
        <time>2011-07-30T09:49:51Z</time>
      </trkpt>
      <trkpt lat="45.5267" lon="6.65969">
        <ele>1587.9</ele>
        <time>2011-07-30T09:50:08Z</time>
      </trkpt>
      <trkpt lat="45.52662" lon="6.65976">
        <ele>1586.7</ele>
        <time>2011-07-30T09:50:15Z</time>
      </trkpt>
      <trkpt lat="45.52656" lon="6.65986">
        <ele>1590.2</ele>
        <time>2011-07-30T09:50:26Z</time>
      </trkpt>
      <trkpt lat="45.52649" lon="6.65995">
        <ele>1592.1</ele>
        <time>2011-07-30T09:50:34Z</time>
      </trkpt>
      <trkpt lat="45.5264" lon="6.66002">
        <ele>1594</ele>
        <time>2011-07-30T09:50:44Z</time>
      </trkpt>
      <trkpt lat="45.52635" lon="6.66013">
        <ele>1595.9</ele>
        <time>2011-07-30T09:50:52Z</time>
      </trkpt>
      <trkpt lat="45.52629" lon="6.66041">
        <ele>1599</ele>
        <time>2011-07-30T09:51:04Z</time>
      </trkpt>
      <trkpt lat="45.52621" lon="6.6605">
        <ele>1602.1</ele>
        <time>2011-07-30T09:51:13Z</time>
      </trkpt>
      <trkpt lat="45.52615" lon="6.66061">
        <ele>1605.2</ele>
        <time>2011-07-30T09:51:20Z</time>
      </trkpt>
      <trkpt lat="45.52609" lon="6.66071">
        <ele>1608.3</ele>
        <time>2011-07-30T09:51:30Z</time>
      </trkpt>
      <trkpt lat="45.52605" lon="6.66083">
        <ele>1611.4</ele>
        <time>2011-07-30T09:51:40Z</time>
      </trkpt>
      <trkpt lat="45.52606" lon="6.66097">
        <ele>1613.5</ele>
        <time>2011-07-30T09:51:45Z</time>
      </trkpt>
      <trkpt lat="45.52601" lon="6.66109">
        <ele>1615.7</ele>
        <time>2011-07-30T09:51:54Z</time>
      </trkpt>
      <trkpt lat="45.52594" lon="6.66118">
        <ele>1613.3</ele>
        <time>2011-07-30T09:52:04Z</time>
      </trkpt>
      <trkpt lat="45.52585" lon="6.66122">
        <ele>1612.4</ele>
        <time>2011-07-30T09:52:10Z</time>
      </trkpt>
      <trkpt lat="45.52576" lon="6.66128">
        <ele>1611.5</ele>
        <time>2011-07-30T09:52:18Z</time>
      </trkpt>
      <trkpt lat="45.52572" lon="6.66143">
        <ele>1610.5</ele>
        <time>2011-07-30T09:52:28Z</time>
      </trkpt>
      <trkpt lat="45.52572" lon="6.66156">
        <ele>1613.7</ele>
        <time>2011-07-30T09:52:37Z</time>
      </trkpt>
      <trkpt lat="45.52568" lon="6.66169">
        <ele>1615.8</ele>
        <time>2011-07-30T09:52:42Z</time>
      </trkpt>
      <trkpt lat="45.52566" lon="6.66183">
        <ele>1617.9</ele>
        <time>2011-07-30T09:52:51Z</time>
      </trkpt>
      <trkpt lat="45.52558" lon="6.66191">
        <ele>1620</ele>
        <time>2011-07-30T09:53:00Z</time>
      </trkpt>
      <trkpt lat="45.52551" lon="6.66197">
        <ele>1622.1</ele>
        <time>2011-07-30T09:53:08Z</time>
      </trkpt>
      <trkpt lat="45.52545" lon="6.66208">
        <ele>1625.1</ele>
        <time>2011-07-30T09:53:14Z</time>
      </trkpt>
      <trkpt lat="45.5254" lon="6.6622">
        <ele>1628.1</ele>
        <time>2011-07-30T09:53:23Z</time>
      </trkpt>
      <trkpt lat="45.52532" lon="6.66238">
        <ele>1629.9</ele>
        <time>2011-07-30T09:53:37Z</time>
      </trkpt>
      <trkpt lat="45.52527" lon="6.6625">
        <ele>1631.7</ele>
        <time>2011-07-30T09:53:43Z</time>
      </trkpt>
      <trkpt lat="45.52524" lon="6.66263">
        <ele>1633.5</ele>
        <time>2011-07-30T09:53:50Z</time>
      </trkpt>
      <trkpt lat="45.52521" lon="6.66277">
        <ele>1635.4</ele>
        <time>2011-07-30T09:53:55Z</time>
      </trkpt>
      <trkpt lat="45.52516" lon="6.66288">
        <ele>1633.1</ele>
        <time>2011-07-30T09:54:06Z</time>
      </trkpt>
      <trkpt lat="45.52509" lon="6.66297">
        <ele>1631.9</ele>
        <time>2011-07-30T09:54:18Z</time>
      </trkpt>
      <trkpt lat="45.52501" lon="6.66305">
        <ele>1630.7</ele>
        <time>2011-07-30T09:54:29Z</time>
      </trkpt>
      <trkpt lat="45.52492" lon="6.6631">
        <ele>1631.7</ele>
        <time>2011-07-30T09:54:37Z</time>
      </trkpt>
      <trkpt lat="45.52483" lon="6.66316">
        <ele>1632.7</ele>
        <time>2011-07-30T09:54:49Z</time>
      </trkpt>
      <trkpt lat="45.5248" lon="6.6633">
        <ele>1633.7</ele>
        <time>2011-07-30T09:54:57Z</time>
      </trkpt>
      <trkpt lat="45.52481" lon="6.66344">
        <ele>1634.7</ele>
        <time>2011-07-30T09:55:05Z</time>
      </trkpt>
      <trkpt lat="45.52473" lon="6.66351">
        <ele>1636.9</ele>
        <time>2011-07-30T09:55:11Z</time>
      </trkpt>
      <trkpt lat="45.52464" lon="6.66354">
        <ele>1639.1</ele>
        <time>2011-07-30T09:55:16Z</time>
      </trkpt>
      <trkpt lat="45.52459" lon="6.66365">
        <ele>1641.3</ele>
        <time>2011-07-30T09:55:24Z</time>
      </trkpt>
      <trkpt lat="45.52452" lon="6.66372">
        <ele>1643.5</ele>
        <time>2011-07-30T09:55:35Z</time>
      </trkpt>
      <trkpt lat="45.52442" lon="6.66371">
        <ele>1645.6</ele>
        <time>2011-07-30T09:55:45Z</time>
      </trkpt>
      <trkpt lat="45.52433" lon="6.66373">
        <ele>1647.8</ele>
        <time>2011-07-30T09:55:52Z</time>
      </trkpt>
      <trkpt lat="45.52423" lon="6.6637">
        <ele>1651.6</ele>
        <time>2011-07-30T09:56:01Z</time>
      </trkpt>
      <trkpt lat="45.52412" lon="6.6636">
        <ele>1653.3</ele>
        <time>2011-07-30T09:56:17Z</time>
      </trkpt>
      <trkpt lat="45.52403" lon="6.66358">
        <ele>1654.9</ele>
        <time>2011-07-30T09:56:24Z</time>
      </trkpt>
      <trkpt lat="45.52393" lon="6.66352">
        <ele>1656.5</ele>
        <time>2011-07-30T09:56:27Z</time>
      </trkpt>
      <trkpt lat="45.52383" lon="6.66347">
        <ele>1658.2</ele>
        <time>2011-07-30T09:56:33Z</time>
      </trkpt>
      <trkpt lat="45.52367" lon="6.66344">
        <ele>1659.8</ele>
        <time>2011-07-30T09:56:46Z</time>
      </trkpt>
      <trkpt lat="45.52357" lon="6.66349">
        <ele>1661.5</ele>
        <time>2011-07-30T09:56:58Z</time>
      </trkpt>
      <trkpt lat="45.52348" lon="6.66354">
        <ele>1663.1</ele>
        <time>2011-07-30T09:57:18Z</time>
      </trkpt>
      <trkpt lat="45.5234" lon="6.66344">
        <ele>1667.3</ele>
        <time>2011-07-30T09:57:31Z</time>
      </trkpt>
      <trkpt lat="45.52331" lon="6.66343">
        <ele>1671.5</ele>
        <time>2011-07-30T09:57:45Z</time>
      </trkpt>
      <trkpt lat="45.52321" lon="6.66354">
        <ele>1675.6</ele>
        <time>2011-07-30T09:57:55Z</time>
      </trkpt>
      <trkpt lat="45.52316" lon="6.66365">
        <ele>1678.2</ele>
        <time>2011-07-30T09:57:59Z</time>
      </trkpt>
      <trkpt lat="45.52303" lon="6.66379">
        <ele>1680.7</ele>
        <time>2011-07-30T09:58:06Z</time>
      </trkpt>
      <trkpt lat="45.52292" lon="6.66379">
        <ele>1683.3</ele>
        <time>2011-07-30T09:58:13Z</time>
      </trkpt>
      <trkpt lat="45.52282" lon="6.66375">
        <ele>1685.8</ele>
        <time>2011-07-30T09:58:17Z</time>
      </trkpt>
      <trkpt lat="45.52272" lon="6.66369">
        <ele>1688.4</ele>
        <time>2011-07-30T09:58:23Z</time>
      </trkpt>
      <trkpt lat="45.52264" lon="6.66365">
        <ele>1690.9</ele>
        <time>2011-07-30T09:58:29Z</time>
      </trkpt>
      <trkpt lat="45.52255" lon="6.66358">
        <ele>1694.9</ele>
        <time>2011-07-30T09:58:39Z</time>
      </trkpt>
      <trkpt lat="45.52245" lon="6.66364">
        <ele>1698.9</ele>
        <time>2011-07-30T09:58:50Z</time>
      </trkpt>
      <trkpt lat="45.52236" lon="6.66368">
        <ele>1700.4</ele>
        <time>2011-07-30T09:58:58Z</time>
      </trkpt>
      <trkpt lat="45.52228" lon="6.66363">
        <ele>1701.8</ele>
        <time>2011-07-30T09:59:10Z</time>
      </trkpt>
      <trkpt lat="45.52219" lon="6.66363">
        <ele>1703.3</ele>
        <time>2011-07-30T09:59:27Z</time>
      </trkpt>
      <trkpt lat="45.5221" lon="6.66359">
        <ele>1704.7</ele>
        <time>2011-07-30T09:59:46Z</time>
      </trkpt>
      <trkpt lat="45.52201" lon="6.66354">
        <ele>1706.2</ele>
        <time>2011-07-30T10:00:01Z</time>
      </trkpt>
      <trkpt lat="45.52179" lon="6.66344">
        <ele>1707.6</ele>
        <time>2011-07-30T10:00:30Z</time>
      </trkpt>
      <trkpt lat="45.5217" lon="6.6634">
        <ele>1709.1</ele>
        <time>2011-07-30T10:00:38Z</time>
      </trkpt>
      <trkpt lat="45.5216" lon="6.66336">
        <ele>1710.5</ele>
        <time>2011-07-30T10:00:42Z</time>
      </trkpt>
      <trkpt lat="45.5215" lon="6.66334">
        <ele>1713.2</ele>
        <time>2011-07-30T10:00:49Z</time>
      </trkpt>
      <trkpt lat="45.52141" lon="6.66331">
        <ele>1714.4</ele>
        <time>2011-07-30T10:00:57Z</time>
      </trkpt>
      <trkpt lat="45.52131" lon="6.66335">
        <ele>1715.5</ele>
        <time>2011-07-30T10:01:05Z</time>
      </trkpt>
      <trkpt lat="45.52136" lon="6.6635">
        <ele>1716.7</ele>
        <time>2011-07-30T10:01:31Z</time>
      </trkpt>
      <trkpt lat="45.5213" lon="6.6636">
        <ele>1717.9</ele>
        <time>2011-07-30T10:01:39Z</time>
      </trkpt>
      <trkpt lat="45.52121" lon="6.66364">
        <ele>1719.1</ele>
        <time>2011-07-30T10:01:53Z</time>
      </trkpt>
      <trkpt lat="45.52113" lon="6.66358">
        <ele>1720.3</ele>
        <time>2011-07-30T10:02:03Z</time>
      </trkpt>
      <trkpt lat="45.52105" lon="6.6635">
        <ele>1721.5</ele>
        <time>2011-07-30T10:02:15Z</time>
      </trkpt>
      <trkpt lat="45.52096" lon="6.66347">
        <ele>1722.6</ele>
        <time>2011-07-30T10:02:22Z</time>
      </trkpt>
      <trkpt lat="45.52087" lon="6.66344">
        <ele>1725</ele>
        <time>2011-07-30T10:02:34Z</time>
      </trkpt>
      <trkpt lat="45.52077" lon="6.66342">
        <ele>1727.4</ele>
        <time>2011-07-30T10:02:45Z</time>
      </trkpt>
      <trkpt lat="45.52068" lon="6.66342">
        <ele>1728.5</ele>
        <time>2011-07-30T10:02:54Z</time>
      </trkpt>
      <trkpt lat="45.52059" lon="6.66344">
        <ele>1729.7</ele>
        <time>2011-07-30T10:03:03Z</time>
      </trkpt>
      <trkpt lat="45.5205" lon="6.66343">
        <ele>1730.9</ele>
        <time>2011-07-30T10:03:16Z</time>
      </trkpt>
      <trkpt lat="45.52043" lon="6.66333">
        <ele>1732.1</ele>
        <time>2011-07-30T10:03:26Z</time>
      </trkpt>
      <trkpt lat="45.52036" lon="6.66324">
        <ele>1735.5</ele>
        <time>2011-07-30T10:03:38Z</time>
      </trkpt>
      <trkpt lat="45.52028" lon="6.66316">
        <ele>1738.8</ele>
        <time>2011-07-30T10:03:45Z</time>
      </trkpt>
      <trkpt lat="45.5202" lon="6.6631">
        <ele>1742.2</ele>
        <time>2011-07-30T10:03:55Z</time>
      </trkpt>
      <trkpt lat="45.52012" lon="6.66306">
        <ele>1745.5</ele>
        <time>2011-07-30T10:04:03Z</time>
      </trkpt>
      <trkpt lat="45.52002" lon="6.66301">
        <ele>1748.7</ele>
        <time>2011-07-30T10:04:09Z</time>
      </trkpt>
      <trkpt lat="45.51993" lon="6.66294">
        <ele>1750.7</ele>
        <time>2011-07-30T10:04:18Z</time>
      </trkpt>
      <trkpt lat="45.51986" lon="6.66286">
        <ele>1752.7</ele>
        <time>2011-07-30T10:04:30Z</time>
      </trkpt>
      <trkpt lat="45.51979" lon="6.66276">
        <ele>1754.7</ele>
        <time>2011-07-30T10:04:44Z</time>
      </trkpt>
      <trkpt lat="45.5197" lon="6.66271">
        <ele>1756.7</ele>
        <time>2011-07-30T10:04:51Z</time>
      </trkpt>
      <trkpt lat="45.51961" lon="6.66267">
        <ele>1758.7</ele>
        <time>2011-07-30T10:05:06Z</time>
      </trkpt>
      <trkpt lat="45.51949" lon="6.66263">
        <ele>1760.7</ele>
        <time>2011-07-30T10:05:26Z</time>
      </trkpt>
      <trkpt lat="45.51939" lon="6.66264">
        <ele>1760.5</ele>
        <time>2011-07-30T10:05:34Z</time>
      </trkpt>
      <trkpt lat="45.5193" lon="6.66263">
        <ele>1760.4</ele>
        <time>2011-07-30T10:05:45Z</time>
      </trkpt>
      <trkpt lat="45.5192" lon="6.66264">
        <ele>1762.2</ele>
        <time>2011-07-30T10:05:56Z</time>
      </trkpt>
      <trkpt lat="45.51911" lon="6.66262">
        <ele>1764</ele>
        <time>2011-07-30T10:06:08Z</time>
      </trkpt>
      <trkpt lat="45.51901" lon="6.66263">
        <ele>1766</ele>
        <time>2011-07-30T10:06:21Z</time>
      </trkpt>
      <trkpt lat="45.51881" lon="6.66237">
        <ele>1768</ele>
        <time>2011-07-30T10:07:03Z</time>
      </trkpt>
      <trkpt lat="45.51877" lon="6.66222">
        <ele>1770</ele>
        <time>2011-07-30T10:07:15Z</time>
      </trkpt>
      <trkpt lat="45.51871" lon="6.66211">
        <ele>1772</ele>
        <time>2011-07-30T10:07:21Z</time>
      </trkpt>
      <trkpt lat="45.51865" lon="6.66199">
        <ele>1774.7</ele>
        <time>2011-07-30T10:07:29Z</time>
      </trkpt>
      <trkpt lat="45.51864" lon="6.66184">
        <ele>1777.5</ele>
        <time>2011-07-30T10:07:35Z</time>
      </trkpt>
      <trkpt lat="45.51859" lon="6.66172">
        <ele>1780.2</ele>
        <time>2011-07-30T10:07:45Z</time>
      </trkpt>
      <trkpt lat="45.51846" lon="6.66141">
        <ele>1782.9</ele>
        <time>2011-07-30T10:08:05Z</time>
      </trkpt>
      <trkpt lat="45.51838" lon="6.66133">
        <ele>1785.6</ele>
        <time>2011-07-30T10:08:14Z</time>
      </trkpt>
      <trkpt lat="45.51818" lon="6.66106">
        <ele>1786.4</ele>
        <time>2011-07-30T10:08:38Z</time>
      </trkpt>
      <trkpt lat="45.51811" lon="6.66099">
        <ele>1787.1</ele>
        <time>2011-07-30T10:08:48Z</time>
      </trkpt>
      <trkpt lat="45.51788" lon="6.66076">
        <ele>1788.3</ele>
        <time>2011-07-30T10:09:17Z</time>
      </trkpt>
      <trkpt lat="45.51761" lon="6.66076">
        <ele>1789.5</ele>
        <time>2011-07-30T10:09:40Z</time>
      </trkpt>
      <trkpt lat="45.51734" lon="6.66064">
        <ele>1790.6</ele>
        <time>2011-07-30T10:10:07Z</time>
      </trkpt>
      <trkpt lat="45.51724" lon="6.66072">
        <ele>1792.9</ele>
        <time>2011-07-30T10:10:11Z</time>
      </trkpt>
      <trkpt lat="45.51717" lon="6.66062">
        <ele>1794.5</ele>
        <time>2011-07-30T10:10:21Z</time>
      </trkpt>
      <trkpt lat="45.51714" lon="6.66049">
        <ele>1796</ele>
        <time>2011-07-30T10:10:33Z</time>
      </trkpt>
      <trkpt lat="45.51714" lon="6.66033">
        <ele>1797.5</ele>
        <time>2011-07-30T10:10:43Z</time>
      </trkpt>
      <trkpt lat="45.51712" lon="6.66019">
        <ele>1799.1</ele>
        <time>2011-07-30T10:10:50Z</time>
      </trkpt>
      <trkpt lat="45.51705" lon="6.66011">
        <ele>1800.9</ele>
        <time>2011-07-30T10:10:57Z</time>
      </trkpt>
      <trkpt lat="45.51697" lon="6.66003">
        <ele>1802.7</ele>
        <time>2011-07-30T10:11:05Z</time>
      </trkpt>
      <trkpt lat="45.5169" lon="6.65995">
        <ele>1804.5</ele>
        <time>2011-07-30T10:11:13Z</time>
      </trkpt>
      <trkpt lat="45.51683" lon="6.65986">
        <ele>1805.9</ele>
        <time>2011-07-30T10:11:20Z</time>
      </trkpt>
      <trkpt lat="45.51676" lon="6.65979">
        <ele>1807.3</ele>
        <time>2011-07-30T10:11:27Z</time>
      </trkpt>
      <trkpt lat="45.51671" lon="6.65967">
        <ele>1808.6</ele>
        <time>2011-07-30T10:11:37Z</time>
      </trkpt>
      <trkpt lat="45.51666" lon="6.65957">
        <ele>1810.3</ele>
        <time>2011-07-30T10:11:46Z</time>
      </trkpt>
      <trkpt lat="45.51658" lon="6.65948">
        <ele>1811.9</ele>
        <time>2011-07-30T10:11:58Z</time>
      </trkpt>
      <trkpt lat="45.51649" lon="6.65944">
        <ele>1813.5</ele>
        <time>2011-07-30T10:12:08Z</time>
      </trkpt>
      <trkpt lat="45.51641" lon="6.65938">
        <ele>1815.2</ele>
        <time>2011-07-30T10:12:16Z</time>
      </trkpt>
      <trkpt lat="45.51631" lon="6.6594">
        <ele>1817.5</ele>
        <time>2011-07-30T10:12:25Z</time>
      </trkpt>
      <trkpt lat="45.51622" lon="6.65943">
        <ele>1819.5</ele>
        <time>2011-07-30T10:12:32Z</time>
      </trkpt>
      <trkpt lat="45.51614" lon="6.65951">
        <ele>1821.5</ele>
        <time>2011-07-30T10:12:41Z</time>
      </trkpt>
      <trkpt lat="45.51607" lon="6.65959">
        <ele>1823.5</ele>
        <time>2011-07-30T10:12:52Z</time>
      </trkpt>
      <trkpt lat="45.51599" lon="6.65966">
        <ele>1825.5</ele>
        <time>2011-07-30T10:13:08Z</time>
      </trkpt>
      <trkpt lat="45.5159" lon="6.6597">
        <ele>1827.5</ele>
        <time>2011-07-30T10:13:19Z</time>
      </trkpt>
      <trkpt lat="45.51583" lon="6.65979">
        <ele>1830.9</ele>
        <time>2011-07-30T10:13:32Z</time>
      </trkpt>
      <trkpt lat="45.51589" lon="6.65989">
        <ele>1833</ele>
        <time>2011-07-30T10:13:57Z</time>
      </trkpt>
      <trkpt lat="45.51586" lon="6.66004">
        <ele>1835.1</ele>
        <time>2011-07-30T10:14:18Z</time>
      </trkpt>
      <trkpt lat="45.51584" lon="6.66038">
        <ele>1837.2</ele>
        <time>2011-07-30T10:14:44Z</time>
      </trkpt>
      <trkpt lat="45.51591" lon="6.66047">
        <ele>1840.9</ele>
        <time>2011-07-30T10:15:10Z</time>
      </trkpt>
      <trkpt lat="45.51575" lon="6.6608">
        <ele>1844</ele>
        <time>2011-07-30T10:15:26Z</time>
      </trkpt>
      <trkpt lat="45.51573" lon="6.66096">
        <ele>1847.1</ele>
        <time>2011-07-30T10:15:48Z</time>
      </trkpt>
      <trkpt lat="45.51573" lon="6.66109">
        <ele>1850.2</ele>
        <time>2011-07-30T10:15:56Z</time>
      </trkpt>
      <trkpt lat="45.51577" lon="6.66124">
        <ele>1853.3</ele>
        <time>2011-07-30T10:16:05Z</time>
      </trkpt>
      <trkpt lat="45.51581" lon="6.66135">
        <ele>1856.4</ele>
        <time>2011-07-30T10:16:18Z</time>
      </trkpt>
      <trkpt lat="45.51584" lon="6.66147">
        <ele>1859.5</ele>
        <time>2011-07-30T10:16:30Z</time>
      </trkpt>
      <trkpt lat="45.51582" lon="6.66161">
        <ele>1863.1</ele>
        <time>2011-07-30T10:16:41Z</time>
      </trkpt>
      <trkpt lat="45.51585" lon="6.66174">
        <ele>1866.7</ele>
        <time>2011-07-30T10:16:47Z</time>
      </trkpt>
      <trkpt lat="45.5159" lon="6.66184">
        <ele>1870.4</ele>
        <time>2011-07-30T10:16:58Z</time>
      </trkpt>
      <trkpt lat="45.51598" lon="6.66193">
        <ele>1874</ele>
        <time>2011-07-30T10:17:15Z</time>
      </trkpt>
      <trkpt lat="45.51605" lon="6.66202">
        <ele>1876</ele>
        <time>2011-07-30T10:17:32Z</time>
      </trkpt>
      <trkpt lat="45.51604" lon="6.66216">
        <ele>1878</ele>
        <time>2011-07-30T10:17:36Z</time>
      </trkpt>
      <trkpt lat="45.51596" lon="6.66229">
        <ele>1880</ele>
        <time>2011-07-30T10:17:52Z</time>
      </trkpt>
      <trkpt lat="45.51604" lon="6.66237">
        <ele>1882</ele>
        <time>2011-07-30T10:18:11Z</time>
      </trkpt>
      <trkpt lat="45.51612" lon="6.66243">
        <ele>1885.9</ele>
        <time>2011-07-30T10:18:21Z</time>
      </trkpt>
      <trkpt lat="45.51613" lon="6.66256">
        <ele>1887.5</ele>
        <time>2011-07-30T10:18:28Z</time>
      </trkpt>
      <trkpt lat="45.51616" lon="6.6627">
        <ele>1889</ele>
        <time>2011-07-30T10:18:36Z</time>
      </trkpt>
      <trkpt lat="45.5162" lon="6.66282">
        <ele>1888.5</ele>
        <time>2011-07-30T10:18:42Z</time>
      </trkpt>
      <trkpt lat="45.51624" lon="6.66295">
        <ele>1888.1</ele>
        <time>2011-07-30T10:18:51Z</time>
      </trkpt>
      <trkpt lat="45.51628" lon="6.66308">
        <ele>1887.6</ele>
        <time>2011-07-30T10:18:59Z</time>
      </trkpt>
      <trkpt lat="45.5163" lon="6.66321">
        <ele>1888.4</ele>
        <time>2011-07-30T10:19:05Z</time>
      </trkpt>
      <trkpt lat="45.51632" lon="6.66335">
        <ele>1889.1</ele>
        <time>2011-07-30T10:19:14Z</time>
      </trkpt>
      <trkpt lat="45.51635" lon="6.66348">
        <ele>1889.8</ele>
        <time>2011-07-30T10:19:24Z</time>
      </trkpt>
      <trkpt lat="45.51633" lon="6.66361">
        <ele>1890.5</ele>
        <time>2011-07-30T10:19:33Z</time>
      </trkpt>
      <trkpt lat="45.51633" lon="6.66375">
        <ele>1891.3</ele>
        <time>2011-07-30T10:19:41Z</time>
      </trkpt>
      <trkpt lat="45.51636" lon="6.66388">
        <ele>1890.1</ele>
        <time>2011-07-30T10:19:49Z</time>
      </trkpt>
      <trkpt lat="45.51641" lon="6.664">
        <ele>1892.4</ele>
        <time>2011-07-30T10:19:59Z</time>
      </trkpt>
      <trkpt lat="45.51643" lon="6.66413">
        <ele>1894.6</ele>
        <time>2011-07-30T10:20:07Z</time>
      </trkpt>
      <trkpt lat="45.5164" lon="6.66427">
        <ele>1896.9</ele>
        <time>2011-07-30T10:20:19Z</time>
      </trkpt>
      <trkpt lat="45.51638" lon="6.6644">
        <ele>1899.2</ele>
        <time>2011-07-30T10:20:26Z</time>
      </trkpt>
      <trkpt lat="45.51635" lon="6.66453">
        <ele>1901.5</ele>
        <time>2011-07-30T10:20:34Z</time>
      </trkpt>
      <trkpt lat="45.51633" lon="6.66467">
        <ele>1902.5</ele>
        <time>2011-07-30T10:20:43Z</time>
      </trkpt>
      <trkpt lat="45.51632" lon="6.6648">
        <ele>1904</ele>
        <time>2011-07-30T10:20:52Z</time>
      </trkpt>
      <trkpt lat="45.51634" lon="6.66494">
        <ele>1905.5</ele>
        <time>2011-07-30T10:21:02Z</time>
      </trkpt>
      <trkpt lat="45.51637" lon="6.66506">
        <ele>1906.9</ele>
        <time>2011-07-30T10:21:17Z</time>
      </trkpt>
      <trkpt lat="45.51637" lon="6.6652">
        <ele>1911.6</ele>
        <time>2011-07-30T10:21:28Z</time>
      </trkpt>
      <trkpt lat="45.51639" lon="6.66532">
        <ele>1916.4</ele>
        <time>2011-07-30T10:21:38Z</time>
      </trkpt>
      <trkpt lat="45.51635" lon="6.66544">
        <ele>1920</ele>
        <time>2011-07-30T10:21:46Z</time>
      </trkpt>
      <trkpt lat="45.5163" lon="6.66555">
        <ele>1923.6</ele>
        <time>2011-07-30T10:21:57Z</time>
      </trkpt>
      <trkpt lat="45.5163" lon="6.66568">
        <ele>1927.3</ele>
        <time>2011-07-30T10:22:06Z</time>
      </trkpt>
      <trkpt lat="45.51628" lon="6.66581">
        <ele>1930.9</ele>
        <time>2011-07-30T10:22:15Z</time>
      </trkpt>
      <trkpt lat="45.51626" lon="6.66593">
        <ele>1934.8</ele>
        <time>2011-07-30T10:22:24Z</time>
      </trkpt>
      <trkpt lat="45.51619" lon="6.66603">
        <ele>1938.7</ele>
        <time>2011-07-30T10:22:37Z</time>
      </trkpt>
      <trkpt lat="45.51611" lon="6.6661">
        <ele>1942.3</ele>
        <time>2011-07-30T10:22:59Z</time>
      </trkpt>
      <trkpt lat="45.51603" lon="6.66617">
        <ele>1945.8</ele>
        <time>2011-07-30T10:23:14Z</time>
      </trkpt>
      <trkpt lat="45.51594" lon="6.66623">
        <ele>1949.4</ele>
        <time>2011-07-30T10:23:28Z</time>
      </trkpt>
      <trkpt lat="45.51587" lon="6.6663">
        <ele>1949.6</ele>
        <time>2011-07-30T10:23:44Z</time>
      </trkpt>
      <trkpt lat="45.51578" lon="6.66641">
        <ele>1949.9</ele>
        <time>2011-07-30T10:24:05Z</time>
      </trkpt>
      <trkpt lat="45.51568" lon="6.66647">
        <ele>1950.2</ele>
        <time>2011-07-30T10:24:19Z</time>
      </trkpt>
      <trkpt lat="45.51569" lon="6.66662">
        <ele>1954.5</ele>
        <time>2011-07-30T10:24:32Z</time>
      </trkpt>
      <trkpt lat="45.51564" lon="6.66672">
        <ele>1958.6</ele>
        <time>2011-07-30T10:24:52Z</time>
      </trkpt>
      <trkpt lat="45.51559" lon="6.66683">
        <ele>1962.8</ele>
        <time>2011-07-30T10:25:11Z</time>
      </trkpt>
      <trkpt lat="45.51555" lon="6.66695">
        <ele>1966.7</ele>
        <time>2011-07-30T10:25:27Z</time>
      </trkpt>
      <trkpt lat="45.51547" lon="6.66703">
        <ele>1970.6</ele>
        <time>2011-07-30T10:25:50Z</time>
      </trkpt>
      <trkpt lat="45.51541" lon="6.66714">
        <ele>1974.5</ele>
        <time>2011-07-30T10:26:09Z</time>
      </trkpt>
      <trkpt lat="45.51537" lon="6.66725">
        <ele>1978.5</ele>
        <time>2011-07-30T10:26:28Z</time>
      </trkpt>
      <trkpt lat="45.51532" lon="6.66736">
        <ele>1982.4</ele>
        <time>2011-07-30T10:26:42Z</time>
      </trkpt>
      <trkpt lat="45.51527" lon="6.66747">
        <ele>1986.3</ele>
        <time>2011-07-30T10:27:01Z</time>
      </trkpt>
      <trkpt lat="45.51525" lon="6.66762">
        <ele>1990.2</ele>
        <time>2011-07-30T10:27:24Z</time>
      </trkpt>
      <trkpt lat="45.51517" lon="6.66768">
        <ele>1994.1</ele>
        <time>2011-07-30T10:27:42Z</time>
      </trkpt>
      <trkpt lat="45.51508" lon="6.66766">
        <ele>1994</ele>
        <time>2011-07-30T10:27:57Z</time>
      </trkpt>
      <trkpt lat="45.51498" lon="6.66768">
        <ele>1994.1</ele>
        <time>2011-07-30T10:28:15Z</time>
      </trkpt>
      <trkpt lat="45.51491" lon="6.6676">
        <ele>1996.9</ele>
        <time>2011-07-30T10:28:36Z</time>
      </trkpt>
      <trkpt lat="45.51485" lon="6.6675">
        <ele>1999.7</ele>
        <time>2011-07-30T10:28:52Z</time>
      </trkpt>
      <trkpt lat="45.51479" lon="6.66739">
        <ele>2002.5</ele>
        <time>2011-07-30T10:29:03Z</time>
      </trkpt>
      <trkpt lat="45.51472" lon="6.6673">
        <ele>2005.4</ele>
        <time>2011-07-30T10:29:17Z</time>
      </trkpt>
      <trkpt lat="45.51466" lon="6.6672">
        <ele>2008.2</ele>
        <time>2011-07-30T10:29:31Z</time>
      </trkpt>
      <trkpt lat="45.51459" lon="6.6671">
        <ele>2011</ele>
        <time>2011-07-30T10:29:43Z</time>
      </trkpt>
      <trkpt lat="45.51455" lon="6.66699">
        <ele>2013.8</ele>
        <time>2011-07-30T10:29:55Z</time>
      </trkpt>
      <trkpt lat="45.5145" lon="6.66687">
        <ele>2016.6</ele>
        <time>2011-07-30T10:30:11Z</time>
      </trkpt>
      <trkpt lat="45.51443" lon="6.66679">
        <ele>2019.5</ele>
        <time>2011-07-30T10:30:25Z</time>
      </trkpt>
      <trkpt lat="45.51436" lon="6.6667">
        <ele>2022.5</ele>
        <time>2011-07-30T10:30:43Z</time>
      </trkpt>
      <trkpt lat="45.5143" lon="6.6666">
        <ele>2025.5</ele>
        <time>2011-07-30T10:30:55Z</time>
      </trkpt>
      <trkpt lat="45.51423" lon="6.6665">
        <ele>2025.8</ele>
        <time>2011-07-30T10:31:09Z</time>
      </trkpt>
      <trkpt lat="45.51417" lon="6.66641">
        <ele>2026.1</ele>
        <time>2011-07-30T10:31:22Z</time>
      </trkpt>
      <trkpt lat="45.51411" lon="6.6663">
        <ele>2026.4</ele>
        <time>2011-07-30T10:31:40Z</time>
      </trkpt>
      <trkpt lat="45.51404" lon="6.66621">
        <ele>2028.7</ele>
        <time>2011-07-30T10:31:54Z</time>
      </trkpt>
      <trkpt lat="45.51398" lon="6.66611">
        <ele>2031.1</ele>
        <time>2011-07-30T10:32:03Z</time>
      </trkpt>
      <trkpt lat="45.51392" lon="6.66601">
        <ele>2033.5</ele>
        <time>2011-07-30T10:32:15Z</time>
      </trkpt>
      <trkpt lat="45.51384" lon="6.66594">
        <ele>2035.8</ele>
        <time>2011-07-30T10:32:25Z</time>
      </trkpt>
      <trkpt lat="45.51377" lon="6.66586">
        <ele>2038.8</ele>
        <time>2011-07-30T10:32:37Z</time>
      </trkpt>
      <trkpt lat="45.51369" lon="6.66577">
        <ele>2041.8</ele>
        <time>2011-07-30T10:32:47Z</time>
      </trkpt>
      <trkpt lat="45.51363" lon="6.66568">
        <ele>2044.5</ele>
        <time>2011-07-30T10:32:59Z</time>
      </trkpt>
      <trkpt lat="45.51359" lon="6.66556">
        <ele>2047.3</ele>
        <time>2011-07-30T10:33:10Z</time>
      </trkpt>
      <trkpt lat="45.51354" lon="6.66544">
        <ele>2050</ele>
        <time>2011-07-30T10:33:22Z</time>
      </trkpt>
      <trkpt lat="45.51347" lon="6.66535">
        <ele>2052.7</ele>
        <time>2011-07-30T10:33:34Z</time>
      </trkpt>
      <trkpt lat="45.51341" lon="6.66524">
        <ele>2055.5</ele>
        <time>2011-07-30T10:33:45Z</time>
      </trkpt>
      <trkpt lat="45.51335" lon="6.66514">
        <ele>2056.1</ele>
        <time>2011-07-30T10:33:56Z</time>
      </trkpt>
      <trkpt lat="45.51329" lon="6.66504">
        <ele>2058.5</ele>
        <time>2011-07-30T10:34:07Z</time>
      </trkpt>
      <trkpt lat="45.51322" lon="6.66496">
        <ele>2061</ele>
        <time>2011-07-30T10:34:21Z</time>
      </trkpt>
      <trkpt lat="45.51315" lon="6.66485">
        <ele>2063.5</ele>
        <time>2011-07-30T10:34:37Z</time>
      </trkpt>
      <trkpt lat="45.51306" lon="6.6648">
        <ele>2064.9</ele>
        <time>2011-07-30T10:34:49Z</time>
      </trkpt>
      <trkpt lat="45.51298" lon="6.66474">
        <ele>2066.4</ele>
        <time>2011-07-30T10:34:58Z</time>
      </trkpt>
      <trkpt lat="45.51288" lon="6.66471">
        <ele>2067.8</ele>
        <time>2011-07-30T10:35:12Z</time>
      </trkpt>
      <trkpt lat="45.51279" lon="6.66469">
        <ele>2069.3</ele>
        <time>2011-07-30T10:35:23Z</time>
      </trkpt>
      <trkpt lat="45.51271" lon="6.66463">
        <ele>2070.7</ele>
        <time>2011-07-30T10:35:35Z</time>
      </trkpt>
      <trkpt lat="45.51262" lon="6.66457">
        <ele>2072.2</ele>
        <time>2011-07-30T10:35:46Z</time>
      </trkpt>
      <trkpt lat="45.51253" lon="6.66451">
        <ele>2075.5</ele>
        <time>2011-07-30T10:36:00Z</time>
      </trkpt>
      <trkpt lat="45.51244" lon="6.66447">
        <ele>2078.9</ele>
        <time>2011-07-30T10:36:11Z</time>
      </trkpt>
      <trkpt lat="45.51235" lon="6.66441">
        <ele>2080.5</ele>
        <time>2011-07-30T10:36:21Z</time>
      </trkpt>
      <trkpt lat="45.51226" lon="6.6644">
        <ele>2082</ele>
        <time>2011-07-30T10:36:31Z</time>
      </trkpt>
      <trkpt lat="45.51217" lon="6.66439">
        <ele>2083.5</ele>
        <time>2011-07-30T10:36:39Z</time>
      </trkpt>
      <trkpt lat="45.51208" lon="6.66441">
        <ele>2085.5</ele>
        <time>2011-07-30T10:36:52Z</time>
      </trkpt>
      <trkpt lat="45.51198" lon="6.66443">
        <ele>2087.4</ele>
        <time>2011-07-30T10:37:05Z</time>
      </trkpt>
      <trkpt lat="45.51189" lon="6.6644">
        <ele>2089.3</ele>
        <time>2011-07-30T10:37:20Z</time>
      </trkpt>
      <trkpt lat="45.5118" lon="6.66436">
        <ele>2091</ele>
        <time>2011-07-30T10:37:33Z</time>
      </trkpt>
      <trkpt lat="45.51171" lon="6.66438">
        <ele>2092.7</ele>
        <time>2011-07-30T10:37:44Z</time>
      </trkpt>
      <trkpt lat="45.51162" lon="6.66442">
        <ele>2096.1</ele>
        <time>2011-07-30T10:37:55Z</time>
      </trkpt>
      <trkpt lat="45.51153" lon="6.66447">
        <ele>2097.5</ele>
        <time>2011-07-30T10:38:05Z</time>
      </trkpt>
      <trkpt lat="45.51147" lon="6.66458">
        <ele>2099</ele>
        <time>2011-07-30T10:38:16Z</time>
      </trkpt>
      <trkpt lat="45.5114" lon="6.66467">
        <ele>2100.5</ele>
        <time>2011-07-30T10:38:25Z</time>
      </trkpt>
      <trkpt lat="45.51131" lon="6.66474">
        <ele>2101.9</ele>
        <time>2011-07-30T10:38:33Z</time>
      </trkpt>
      <trkpt lat="45.51123" lon="6.66478">
        <ele>2103.4</ele>
        <time>2011-07-30T10:38:42Z</time>
      </trkpt>
      <trkpt lat="45.51113" lon="6.66482">
        <ele>2104.8</ele>
        <time>2011-07-30T10:38:51Z</time>
      </trkpt>
      <trkpt lat="45.51104" lon="6.66487">
        <ele>2106.3</ele>
        <time>2011-07-30T10:38:59Z</time>
      </trkpt>
      <trkpt lat="45.51095" lon="6.66491">
        <ele>2107.7</ele>
        <time>2011-07-30T10:39:07Z</time>
      </trkpt>
      <trkpt lat="45.51085" lon="6.66497">
        <ele>2108.3</ele>
        <time>2011-07-30T10:39:12Z</time>
      </trkpt>
      <trkpt lat="45.51077" lon="6.66506">
        <ele>2108.8</ele>
        <time>2011-07-30T10:39:17Z</time>
      </trkpt>
      <trkpt lat="45.5107" lon="6.66514">
        <ele>2108.5</ele>
        <time>2011-07-30T10:39:22Z</time>
      </trkpt>
      <trkpt lat="45.51064" lon="6.66524">
        <ele>2108.3</ele>
        <time>2011-07-30T10:39:27Z</time>
      </trkpt>
      <trkpt lat="45.51059" lon="6.66535">
        <ele>2108</ele>
        <time>2011-07-30T10:39:32Z</time>
      </trkpt>
      <trkpt lat="45.51053" lon="6.66547">
        <ele>2107.7</ele>
        <time>2011-07-30T10:39:38Z</time>
      </trkpt>
      <trkpt lat="45.51047" lon="6.66558">
        <ele>2107.5</ele>
        <time>2011-07-30T10:39:45Z</time>
      </trkpt>
      <trkpt lat="45.51042" lon="6.6657">
        <ele>2107.2</ele>
        <time>2011-07-30T10:39:49Z</time>
      </trkpt>
      <trkpt lat="45.51038" lon="6.66582">
        <ele>2105.5</ele>
        <time>2011-07-30T10:39:54Z</time>
      </trkpt>
      <trkpt lat="45.51033" lon="6.66593">
        <ele>2103.7</ele>
        <time>2011-07-30T10:39:59Z</time>
      </trkpt>
      <trkpt lat="45.51025" lon="6.66602">
        <ele>2102</ele>
        <time>2011-07-30T10:40:04Z</time>
      </trkpt>
      <trkpt lat="45.51017" lon="6.66612">
        <ele>2101.4</ele>
        <time>2011-07-30T10:40:09Z</time>
      </trkpt>
      <trkpt lat="45.51008" lon="6.6662">
        <ele>2100.7</ele>
        <time>2011-07-30T10:40:15Z</time>
      </trkpt>
      <trkpt lat="45.50998" lon="6.66627">
        <ele>2099.6</ele>
        <time>2011-07-30T10:40:19Z</time>
      </trkpt>
      <trkpt lat="45.5099" lon="6.66633">
        <ele>2098.5</ele>
        <time>2011-07-30T10:40:24Z</time>
      </trkpt>
      <trkpt lat="45.50981" lon="6.6664">
        <ele>2097.5</ele>
        <time>2011-07-30T10:40:28Z</time>
      </trkpt>
      <trkpt lat="45.50973" lon="6.66644">
        <ele>2096.4</ele>
        <time>2011-07-30T10:40:31Z</time>
      </trkpt>
      <trkpt lat="45.50965" lon="6.66653">
        <ele>2095.3</ele>
        <time>2011-07-30T10:40:36Z</time>
      </trkpt>
      <trkpt lat="45.50958" lon="6.66665">
        <ele>2094.2</ele>
        <time>2011-07-30T10:40:42Z</time>
      </trkpt>
      <trkpt lat="45.50948" lon="6.66674">
        <ele>2094.5</ele>
        <time>2011-07-30T10:40:47Z</time>
      </trkpt>
      <trkpt lat="45.50941" lon="6.66681">
        <ele>2094.9</ele>
        <time>2011-07-30T10:40:51Z</time>
      </trkpt>
      <trkpt lat="45.50932" lon="6.66687">
        <ele>2095.3</ele>
        <time>2011-07-30T10:40:55Z</time>
      </trkpt>
      <trkpt lat="45.50922" lon="6.66691">
        <ele>2095.6</ele>
        <time>2011-07-30T10:40:58Z</time>
      </trkpt>
      <trkpt lat="45.50913" lon="6.66696">
        <ele>2095.1</ele>
        <time>2011-07-30T10:41:02Z</time>
      </trkpt>
      <trkpt lat="45.50903" lon="6.667">
        <ele>2094.2</ele>
        <time>2011-07-30T10:41:06Z</time>
      </trkpt>
      <trkpt lat="45.50895" lon="6.66706">
        <ele>2093.3</ele>
        <time>2011-07-30T10:41:11Z</time>
      </trkpt>
      <trkpt lat="45.50887" lon="6.66713">
        <ele>2092.4</ele>
        <time>2011-07-30T10:41:15Z</time>
      </trkpt>
      <trkpt lat="45.50877" lon="6.6672">
        <ele>2091.5</ele>
        <time>2011-07-30T10:41:18Z</time>
      </trkpt>
      <trkpt lat="45.50868" lon="6.6673">
        <ele>2090.5</ele>
        <time>2011-07-30T10:41:23Z</time>
      </trkpt>
      <trkpt lat="45.50862" lon="6.66744">
        <ele>2088.9</ele>
        <time>2011-07-30T10:41:26Z</time>
      </trkpt>
      <trkpt lat="45.50858" lon="6.66757">
        <ele>2087.3</ele>
        <time>2011-07-30T10:41:30Z</time>
      </trkpt>
      <trkpt lat="45.50855" lon="6.6677">
        <ele>2085.6</ele>
        <time>2011-07-30T10:41:32Z</time>
      </trkpt>
      <trkpt lat="45.50849" lon="6.66784">
        <ele>2084</ele>
        <time>2011-07-30T10:41:36Z</time>
      </trkpt>
      <trkpt lat="45.50841" lon="6.66793">
        <ele>2082.4</ele>
        <time>2011-07-30T10:41:42Z</time>
      </trkpt>
      <trkpt lat="45.50838" lon="6.66805">
        <ele>2081.6</ele>
        <time>2011-07-30T10:41:45Z</time>
      </trkpt>
      <trkpt lat="45.5083" lon="6.66815">
        <ele>2080.9</ele>
        <time>2011-07-30T10:41:50Z</time>
      </trkpt>
      <trkpt lat="45.50821" lon="6.66818">
        <ele>2080.8</ele>
        <time>2011-07-30T10:41:55Z</time>
      </trkpt>
      <trkpt lat="45.50813" lon="6.66825">
        <ele>2080.7</ele>
        <time>2011-07-30T10:42:01Z</time>
      </trkpt>
      <trkpt lat="45.50806" lon="6.66834">
        <ele>2078.9</ele>
        <time>2011-07-30T10:42:04Z</time>
      </trkpt>
      <trkpt lat="45.508" lon="6.66843">
        <ele>2077.1</ele>
        <time>2011-07-30T10:42:09Z</time>
      </trkpt>
      <trkpt lat="45.50795" lon="6.66855">
        <ele>2076</ele>
        <time>2011-07-30T10:42:13Z</time>
      </trkpt>
      <trkpt lat="45.50792" lon="6.66868">
        <ele>2074.9</ele>
        <time>2011-07-30T10:42:17Z</time>
      </trkpt>
      <trkpt lat="45.5079" lon="6.66882">
        <ele>2073.8</ele>
        <time>2011-07-30T10:42:21Z</time>
      </trkpt>
      <trkpt lat="45.50786" lon="6.66897">
        <ele>2072.7</ele>
        <time>2011-07-30T10:42:25Z</time>
      </trkpt>
      <trkpt lat="45.50783" lon="6.66909">
        <ele>2071.6</ele>
        <time>2011-07-30T10:42:30Z</time>
      </trkpt>
      <trkpt lat="45.50778" lon="6.66922">
        <ele>2070.5</ele>
        <time>2011-07-30T10:42:34Z</time>
      </trkpt>
      <trkpt lat="45.50771" lon="6.66932">
        <ele>2069.5</ele>
        <time>2011-07-30T10:42:39Z</time>
      </trkpt>
      <trkpt lat="45.50764" lon="6.66941">
        <ele>2067.7</ele>
        <time>2011-07-30T10:42:43Z</time>
      </trkpt>
      <trkpt lat="45.50755" lon="6.6695">
        <ele>2066.4</ele>
        <time>2011-07-30T10:42:49Z</time>
      </trkpt>
      <trkpt lat="45.50748" lon="6.66958">
        <ele>2066.7</ele>
        <time>2011-07-30T10:42:53Z</time>
      </trkpt>
      <trkpt lat="45.50738" lon="6.66963">
        <ele>2067.1</ele>
        <time>2011-07-30T10:42:59Z</time>
      </trkpt>
      <trkpt lat="45.50728" lon="6.66964">
        <ele>2067.5</ele>
        <time>2011-07-30T10:43:03Z</time>
      </trkpt>
      <trkpt lat="45.50717" lon="6.66965">
        <ele>2067.8</ele>
        <time>2011-07-30T10:43:09Z</time>
      </trkpt>
      <trkpt lat="45.50706" lon="6.66964">
        <ele>2068.2</ele>
        <time>2011-07-30T10:43:13Z</time>
      </trkpt>
      <trkpt lat="45.50695" lon="6.66962">
        <ele>2065.6</ele>
        <time>2011-07-30T10:43:19Z</time>
      </trkpt>
      <trkpt lat="45.50686" lon="6.66961">
        <ele>2063.1</ele>
        <time>2011-07-30T10:43:23Z</time>
      </trkpt>
      <trkpt lat="45.50676" lon="6.66959">
        <ele>2060.7</ele>
        <time>2011-07-30T10:43:27Z</time>
      </trkpt>
      <trkpt lat="45.50665" lon="6.66962">
        <ele>2058.4</ele>
        <time>2011-07-30T10:43:31Z</time>
      </trkpt>
      <trkpt lat="45.50654" lon="6.66967">
        <ele>2056</ele>
        <time>2011-07-30T10:43:35Z</time>
      </trkpt>
      <trkpt lat="45.50646" lon="6.66972">
        <ele>2053.3</ele>
        <time>2011-07-30T10:43:39Z</time>
      </trkpt>
      <trkpt lat="45.50637" lon="6.66979">
        <ele>2050.5</ele>
        <time>2011-07-30T10:43:42Z</time>
      </trkpt>
      <trkpt lat="45.50628" lon="6.66986">
        <ele>2047.8</ele>
        <time>2011-07-30T10:43:47Z</time>
      </trkpt>
      <trkpt lat="45.50618" lon="6.66991">
        <ele>2045.1</ele>
        <time>2011-07-30T10:43:52Z</time>
      </trkpt>
      <trkpt lat="45.50608" lon="6.66997">
        <ele>2040.7</ele>
        <time>2011-07-30T10:43:57Z</time>
      </trkpt>
      <trkpt lat="45.506" lon="6.67006">
        <ele>2036.4</ele>
        <time>2011-07-30T10:44:00Z</time>
      </trkpt>
      <trkpt lat="45.50595" lon="6.67016">
        <ele>2034.9</ele>
        <time>2011-07-30T10:44:05Z</time>
      </trkpt>
      <trkpt lat="45.50592" lon="6.6703">
        <ele>2033.5</ele>
        <time>2011-07-30T10:44:10Z</time>
      </trkpt>
      <trkpt lat="45.50588" lon="6.67044">
        <ele>2031.8</ele>
        <time>2011-07-30T10:44:14Z</time>
      </trkpt>
      <trkpt lat="45.50585" lon="6.67056">
        <ele>2030.2</ele>
        <time>2011-07-30T10:44:17Z</time>
      </trkpt>
      <trkpt lat="45.50582" lon="6.67071">
        <ele>2027.4</ele>
        <time>2011-07-30T10:44:20Z</time>
      </trkpt>
      <trkpt lat="45.50579" lon="6.67086">
        <ele>2024.5</ele>
        <time>2011-07-30T10:44:26Z</time>
      </trkpt>
      <trkpt lat="45.50579" lon="6.67102">
        <ele>2021.7</ele>
        <time>2011-07-30T10:44:31Z</time>
      </trkpt>
      <trkpt lat="45.50575" lon="6.67114">
        <ele>2019.8</ele>
        <time>2011-07-30T10:44:35Z</time>
      </trkpt>
      <trkpt lat="45.50572" lon="6.67126">
        <ele>2017.9</ele>
        <time>2011-07-30T10:44:39Z</time>
      </trkpt>
      <trkpt lat="45.50567" lon="6.67138">
        <ele>2017.6</ele>
        <time>2011-07-30T10:44:42Z</time>
      </trkpt>
      <trkpt lat="45.5056" lon="6.6715">
        <ele>2017.4</ele>
        <time>2011-07-30T10:44:47Z</time>
      </trkpt>
      <trkpt lat="45.50553" lon="6.67161">
        <ele>2017.1</ele>
        <time>2011-07-30T10:44:51Z</time>
      </trkpt>
      <trkpt lat="45.50544" lon="6.67173">
        <ele>2015.1</ele>
        <time>2011-07-30T10:44:55Z</time>
      </trkpt>
      <trkpt lat="45.50537" lon="6.67182">
        <ele>2013.1</ele>
        <time>2011-07-30T10:44:58Z</time>
      </trkpt>
      <trkpt lat="45.5053" lon="6.67191">
        <ele>2011.1</ele>
        <time>2011-07-30T10:45:00Z</time>
      </trkpt>
      <trkpt lat="45.50523" lon="6.67202">
        <ele>2010.3</ele>
        <time>2011-07-30T10:45:04Z</time>
      </trkpt>
      <trkpt lat="45.50515" lon="6.67213">
        <ele>2009.5</ele>
        <time>2011-07-30T10:45:09Z</time>
      </trkpt>
      <trkpt lat="45.50508" lon="6.67224">
        <ele>2008.6</ele>
        <time>2011-07-30T10:45:15Z</time>
      </trkpt>
      <trkpt lat="45.50503" lon="6.67235">
        <ele>2006.1</ele>
        <time>2011-07-30T10:45:19Z</time>
      </trkpt>
      <trkpt lat="45.50498" lon="6.67245">
        <ele>2003.5</ele>
        <time>2011-07-30T10:45:24Z</time>
      </trkpt>
      <trkpt lat="45.50494" lon="6.67259">
        <ele>2001</ele>
        <time>2011-07-30T10:45:29Z</time>
      </trkpt>
      <trkpt lat="45.50493" lon="6.67273">
        <ele>1998.5</ele>
        <time>2011-07-30T10:45:34Z</time>
      </trkpt>
      <trkpt lat="45.50493" lon="6.67289">
        <ele>1995.9</ele>
        <time>2011-07-30T10:45:38Z</time>
      </trkpt>
      <trkpt lat="45.50493" lon="6.67303">
        <ele>1995.1</ele>
        <time>2011-07-30T10:45:41Z</time>
      </trkpt>
      <trkpt lat="45.50492" lon="6.6732">
        <ele>1994.2</ele>
        <time>2011-07-30T10:45:45Z</time>
      </trkpt>
      <trkpt lat="45.50493" lon="6.67333">
        <ele>1993.3</ele>
        <time>2011-07-30T10:45:48Z</time>
      </trkpt>
      <trkpt lat="45.50495" lon="6.67346">
        <ele>1992.4</ele>
        <time>2011-07-30T10:45:50Z</time>
      </trkpt>
      <trkpt lat="45.50498" lon="6.6736">
        <ele>1991.5</ele>
        <time>2011-07-30T10:45:55Z</time>
      </trkpt>
      <trkpt lat="45.50502" lon="6.67373">
        <ele>1990.5</ele>
        <time>2011-07-30T10:45:58Z</time>
      </trkpt>
      <trkpt lat="45.50504" lon="6.67388">
        <ele>1990.2</ele>
        <time>2011-07-30T10:46:03Z</time>
      </trkpt>
      <trkpt lat="45.50502" lon="6.67404">
        <ele>1989.8</ele>
        <time>2011-07-30T10:46:06Z</time>
      </trkpt>
      <trkpt lat="45.50503" lon="6.67419">
        <ele>1989.5</ele>
        <time>2011-07-30T10:46:11Z</time>
      </trkpt>
      <trkpt lat="45.50504" lon="6.67435">
        <ele>1989.1</ele>
        <time>2011-07-30T10:46:15Z</time>
      </trkpt>
      <trkpt lat="45.50505" lon="6.6745">
        <ele>1988.7</ele>
        <time>2011-07-30T10:46:18Z</time>
      </trkpt>
      <trkpt lat="45.50506" lon="6.67465">
        <ele>1988.4</ele>
        <time>2011-07-30T10:46:23Z</time>
      </trkpt>
      <trkpt lat="45.50507" lon="6.6748">
        <ele>1988.1</ele>
        <time>2011-07-30T10:46:27Z</time>
      </trkpt>
      <trkpt lat="45.50509" lon="6.67495">
        <ele>1987.8</ele>
        <time>2011-07-30T10:46:31Z</time>
      </trkpt>
      <trkpt lat="45.50511" lon="6.67509">
        <ele>1987.5</ele>
        <time>2011-07-30T10:46:35Z</time>
      </trkpt>
      <trkpt lat="45.50514" lon="6.67523">
        <ele>1987.3</ele>
        <time>2011-07-30T10:46:38Z</time>
      </trkpt>
      <trkpt lat="45.50521" lon="6.67534">
        <ele>1987</ele>
        <time>2011-07-30T10:46:43Z</time>
      </trkpt>
      <trkpt lat="45.50529" lon="6.67544">
        <ele>1986.7</ele>
        <time>2011-07-30T10:46:47Z</time>
      </trkpt>
      <trkpt lat="45.50534" lon="6.67556">
        <ele>1986.5</ele>
        <time>2011-07-30T10:46:51Z</time>
      </trkpt>
      <trkpt lat="45.50539" lon="6.67569">
        <ele>1986.2</ele>
        <time>2011-07-30T10:46:56Z</time>
      </trkpt>
      <trkpt lat="45.50541" lon="6.67582">
        <ele>1985.9</ele>
        <time>2011-07-30T10:47:01Z</time>
      </trkpt>
      <trkpt lat="45.50544" lon="6.67597">
        <ele>1985.6</ele>
        <time>2011-07-30T10:47:05Z</time>
      </trkpt>
      <trkpt lat="45.50547" lon="6.6761">
        <ele>1985.4</ele>
        <time>2011-07-30T10:47:10Z</time>
      </trkpt>
      <trkpt lat="45.50555" lon="6.67619">
        <ele>1985.1</ele>
        <time>2011-07-30T10:47:15Z</time>
      </trkpt>
      <trkpt lat="45.50563" lon="6.67614">
        <ele>1984.7</ele>
        <time>2011-07-30T10:47:18Z</time>
      </trkpt>
      <trkpt lat="45.50571" lon="6.67609">
        <ele>1984.4</ele>
        <time>2011-07-30T10:47:27Z</time>
      </trkpt>
      <trkpt lat="45.5058" lon="6.67611">
        <ele>1984</ele>
        <time>2011-07-30T10:47:34Z</time>
      </trkpt>
      <trkpt lat="45.50589" lon="6.67606">
        <ele>1983.6</ele>
        <time>2011-07-30T10:48:40Z</time>
      </trkpt>
      <trkpt lat="45.50588" lon="6.67619">
        <ele>1983.5</ele>
        <time>2011-07-30T10:52:11Z</time>
      </trkpt>
      <trkpt lat="45.50587" lon="6.67634">
        <ele>1983.5</ele>
        <time>2011-07-30T10:52:19Z</time>
      </trkpt>
      <trkpt lat="45.50583" lon="6.67646">
        <ele>1983.9</ele>
        <time>2011-07-30T10:52:25Z</time>
      </trkpt>
      <trkpt lat="45.50578" lon="6.67658">
        <ele>1984.4</ele>
        <time>2011-07-30T10:52:33Z</time>
      </trkpt>
      <trkpt lat="45.50569" lon="6.67667">
        <ele>1984.8</ele>
        <time>2011-07-30T10:52:39Z</time>
      </trkpt>
      <trkpt lat="45.50562" lon="6.67675">
        <ele>1985.3</ele>
        <time>2011-07-30T10:52:46Z</time>
      </trkpt>
      <trkpt lat="45.50553" lon="6.67679">
        <ele>1985.7</ele>
        <time>2011-07-30T10:52:57Z</time>
      </trkpt>
      <trkpt lat="45.50544" lon="6.67685">
        <ele>1986.3</ele>
        <time>2011-07-30T10:53:07Z</time>
      </trkpt>
      <trkpt lat="45.50535" lon="6.67689">
        <ele>1986.8</ele>
        <time>2011-07-30T10:53:16Z</time>
      </trkpt>
      <trkpt lat="45.50525" lon="6.67693">
        <ele>1987.4</ele>
        <time>2011-07-30T10:53:25Z</time>
      </trkpt>
      <trkpt lat="45.50517" lon="6.67698">
        <ele>1988.1</ele>
        <time>2011-07-30T10:53:30Z</time>
      </trkpt>
      <trkpt lat="45.50507" lon="6.67703">
        <ele>1989.7</ele>
        <time>2011-07-30T10:53:38Z</time>
      </trkpt>
      <trkpt lat="45.50499" lon="6.67708">
        <ele>1991.4</ele>
        <time>2011-07-30T10:53:46Z</time>
      </trkpt>
      <trkpt lat="45.5049" lon="6.67713">
        <ele>1992.5</ele>
        <time>2011-07-30T10:53:55Z</time>
      </trkpt>
      <trkpt lat="45.5048" lon="6.67718">
        <ele>1993.5</ele>
        <time>2011-07-30T10:54:02Z</time>
      </trkpt>
      <trkpt lat="45.50471" lon="6.67723">
        <ele>1994.6</ele>
        <time>2011-07-30T10:54:10Z</time>
      </trkpt>
      <trkpt lat="45.50462" lon="6.67725">
        <ele>1995.7</ele>
        <time>2011-07-30T10:54:18Z</time>
      </trkpt>
      <trkpt lat="45.50454" lon="6.67731">
        <ele>1996.8</ele>
        <time>2011-07-30T10:54:26Z</time>
      </trkpt>
      <trkpt lat="45.50445" lon="6.67738">
        <ele>1997.9</ele>
        <time>2011-07-30T10:54:33Z</time>
      </trkpt>
      <trkpt lat="45.50436" lon="6.6774">
        <ele>1999</ele>
        <time>2011-07-30T10:54:41Z</time>
      </trkpt>
      <trkpt lat="45.50426" lon="6.67741">
        <ele>2000.1</ele>
        <time>2011-07-30T10:54:51Z</time>
      </trkpt>
      <trkpt lat="45.50416" lon="6.67743">
        <ele>2001</ele>
        <time>2011-07-30T10:54:59Z</time>
      </trkpt>
      <trkpt lat="45.50407" lon="6.67745">
        <ele>2001.3</ele>
        <time>2011-07-30T10:55:06Z</time>
      </trkpt>
      <trkpt lat="45.50397" lon="6.67749">
        <ele>2001.5</ele>
        <time>2011-07-30T10:55:14Z</time>
      </trkpt>
      <trkpt lat="45.50394" lon="6.67762">
        <ele>2001.8</ele>
        <time>2011-07-30T10:55:22Z</time>
      </trkpt>
      <trkpt lat="45.50392" lon="6.67776">
        <ele>2002.1</ele>
        <time>2011-07-30T10:55:28Z</time>
      </trkpt>
      <trkpt lat="45.5039" lon="6.6779">
        <ele>2002.4</ele>
        <time>2011-07-30T10:55:33Z</time>
      </trkpt>
      <trkpt lat="45.50387" lon="6.67805">
        <ele>2002.6</ele>
        <time>2011-07-30T10:55:36Z</time>
      </trkpt>
      <trkpt lat="45.50386" lon="6.6782">
        <ele>2002.9</ele>
        <time>2011-07-30T10:55:41Z</time>
      </trkpt>
      <trkpt lat="45.50383" lon="6.67833">
        <ele>2004.3</ele>
        <time>2011-07-30T10:55:46Z</time>
      </trkpt>
      <trkpt lat="45.50381" lon="6.67845">
        <ele>2005.6</ele>
        <time>2011-07-30T10:55:53Z</time>
      </trkpt>
      <trkpt lat="45.5038" lon="6.67858">
        <ele>2007</ele>
        <time>2011-07-30T10:56:01Z</time>
      </trkpt>
      <trkpt lat="45.5038" lon="6.67872">
        <ele>2008.4</ele>
        <time>2011-07-30T10:56:11Z</time>
      </trkpt>
      <trkpt lat="45.50381" lon="6.67885">
        <ele>2009.5</ele>
        <time>2011-07-30T10:56:22Z</time>
      </trkpt>
      <trkpt lat="45.50381" lon="6.67898">
        <ele>2010.5</ele>
        <time>2011-07-30T10:56:32Z</time>
      </trkpt>
      <trkpt lat="45.50382" lon="6.67911">
        <ele>2011.6</ele>
        <time>2011-07-30T10:56:42Z</time>
      </trkpt>
      <trkpt lat="45.50386" lon="6.67923">
        <ele>2012.7</ele>
        <time>2011-07-30T10:56:52Z</time>
      </trkpt>
      <trkpt lat="45.50392" lon="6.67934">
        <ele>2016</ele>
        <time>2011-07-30T10:56:59Z</time>
      </trkpt>
      <trkpt lat="45.50399" lon="6.67942">
        <ele>2019.3</ele>
        <time>2011-07-30T10:57:08Z</time>
      </trkpt>
      <trkpt lat="45.50406" lon="6.6795">
        <ele>2022.5</ele>
        <time>2011-07-30T10:57:18Z</time>
      </trkpt>
      <trkpt lat="45.50414" lon="6.6796">
        <ele>2024.7</ele>
        <time>2011-07-30T10:57:29Z</time>
      </trkpt>
      <trkpt lat="45.50421" lon="6.67966">
        <ele>2026.9</ele>
        <time>2011-07-30T10:57:37Z</time>
      </trkpt>
      <trkpt lat="45.50429" lon="6.67974">
        <ele>2029.1</ele>
        <time>2011-07-30T10:57:47Z</time>
      </trkpt>
      <trkpt lat="45.50437" lon="6.6798">
        <ele>2031.3</ele>
        <time>2011-07-30T10:57:51Z</time>
      </trkpt>
      <trkpt lat="45.50445" lon="6.67987">
        <ele>2033.5</ele>
        <time>2011-07-30T10:57:59Z</time>
      </trkpt>
      <trkpt lat="45.50451" lon="6.67997">
        <ele>2037</ele>
        <time>2011-07-30T10:58:09Z</time>
      </trkpt>
      <trkpt lat="45.50456" lon="6.68009">
        <ele>2039.5</ele>
        <time>2011-07-30T10:58:18Z</time>
      </trkpt>
      <trkpt lat="45.50458" lon="6.68022">
        <ele>2042.1</ele>
        <time>2011-07-30T10:58:27Z</time>
      </trkpt>
      <trkpt lat="45.50459" lon="6.68036">
        <ele>2042.5</ele>
        <time>2011-07-30T10:58:37Z</time>
      </trkpt>
      <trkpt lat="45.50462" lon="6.68049">
        <ele>2042.8</ele>
        <time>2011-07-30T10:58:48Z</time>
      </trkpt>
      <trkpt lat="45.50463" lon="6.68062">
        <ele>2043.2</ele>
        <time>2011-07-30T10:58:57Z</time>
      </trkpt>
      <trkpt lat="45.50468" lon="6.68075">
        <ele>2044.6</ele>
        <time>2011-07-30T10:59:07Z</time>
      </trkpt>
      <trkpt lat="45.50472" lon="6.68088">
        <ele>2046.1</ele>
        <time>2011-07-30T10:59:13Z</time>
      </trkpt>
      <trkpt lat="45.50475" lon="6.68101">
        <ele>2047.5</ele>
        <time>2011-07-30T10:59:22Z</time>
      </trkpt>
      <trkpt lat="45.50478" lon="6.68114">
        <ele>2049</ele>
        <time>2011-07-30T10:59:29Z</time>
      </trkpt>
      <trkpt lat="45.50481" lon="6.68126">
        <ele>2050.5</ele>
        <time>2011-07-30T10:59:37Z</time>
      </trkpt>
      <trkpt lat="45.50484" lon="6.68138">
        <ele>2050.5</ele>
        <time>2011-07-30T10:59:47Z</time>
      </trkpt>
      <trkpt lat="45.50489" lon="6.68151">
        <ele>2051.6</ele>
        <time>2011-07-30T10:59:57Z</time>
      </trkpt>
      <trkpt lat="45.50493" lon="6.68162">
        <ele>2052.7</ele>
        <time>2011-07-30T11:00:07Z</time>
      </trkpt>
      <trkpt lat="45.50501" lon="6.68171">
        <ele>2054.5</ele>
        <time>2011-07-30T11:00:14Z</time>
      </trkpt>
      <trkpt lat="45.50506" lon="6.68183">
        <ele>2056.4</ele>
        <time>2011-07-30T11:00:22Z</time>
      </trkpt>
      <trkpt lat="45.5051" lon="6.68194">
        <ele>2058.2</ele>
        <time>2011-07-30T11:00:30Z</time>
      </trkpt>
      <trkpt lat="45.50516" lon="6.68204">
        <ele>2058.9</ele>
        <time>2011-07-30T11:00:39Z</time>
      </trkpt>
      <trkpt lat="45.50522" lon="6.68214">
        <ele>2059.6</ele>
        <time>2011-07-30T11:00:48Z</time>
      </trkpt>
      <trkpt lat="45.50528" lon="6.68225">
        <ele>2060.4</ele>
        <time>2011-07-30T11:00:54Z</time>
      </trkpt>
      <trkpt lat="45.50528" lon="6.68239">
        <ele>2061.5</ele>
        <time>2011-07-30T11:01:04Z</time>
      </trkpt>
      <trkpt lat="45.50522" lon="6.68251">
        <ele>2062.7</ele>
        <time>2011-07-30T11:01:13Z</time>
      </trkpt>
      <trkpt lat="45.50522" lon="6.68264">
        <ele>2063.9</ele>
        <time>2011-07-30T11:01:25Z</time>
      </trkpt>
      <trkpt lat="45.50521" lon="6.68278">
        <ele>2065.1</ele>
        <time>2011-07-30T11:01:35Z</time>
      </trkpt>
      <trkpt lat="45.50518" lon="6.6829">
        <ele>2066.3</ele>
        <time>2011-07-30T11:01:42Z</time>
      </trkpt>
      <trkpt lat="45.50516" lon="6.68304">
        <ele>2066.7</ele>
        <time>2011-07-30T11:01:49Z</time>
      </trkpt>
      <trkpt lat="45.50513" lon="6.68318">
        <ele>2067.2</ele>
        <time>2011-07-30T11:01:56Z</time>
      </trkpt>
      <trkpt lat="45.50516" lon="6.68332">
        <ele>2067.6</ele>
        <time>2011-07-30T11:02:03Z</time>
      </trkpt>
      <trkpt lat="45.50506" lon="6.68333">
        <ele>2068.1</ele>
        <time>2011-07-30T11:02:21Z</time>
      </trkpt>
      <trkpt lat="45.50504" lon="6.6832">
        <ele>2068.5</ele>
        <time>2011-07-30T11:02:33Z</time>
      </trkpt>
      <trkpt lat="45.50496" lon="6.68314">
        <ele>2070.5</ele>
        <time>2011-07-30T11:02:44Z</time>
      </trkpt>
      <trkpt lat="45.50487" lon="6.6832">
        <ele>2071.9</ele>
        <time>2011-07-30T11:02:53Z</time>
      </trkpt>
      <trkpt lat="45.50478" lon="6.68324">
        <ele>2073.4</ele>
        <time>2011-07-30T11:03:04Z</time>
      </trkpt>
      <trkpt lat="45.5047" lon="6.68332">
        <ele>2076</ele>
        <time>2011-07-30T11:03:15Z</time>
      </trkpt>
      <trkpt lat="45.50466" lon="6.68344">
        <ele>2078.6</ele>
        <time>2011-07-30T11:03:26Z</time>
      </trkpt>
      <trkpt lat="45.50461" lon="6.68355">
        <ele>2081.3</ele>
        <time>2011-07-30T11:03:46Z</time>
      </trkpt>
      <trkpt lat="45.50456" lon="6.68366">
        <ele>2083.9</ele>
        <time>2011-07-30T11:04:01Z</time>
      </trkpt>
      <trkpt lat="45.50449" lon="6.68375">
        <ele>2086.5</ele>
        <time>2011-07-30T11:04:16Z</time>
      </trkpt>
      <trkpt lat="45.50441" lon="6.68383">
        <ele>2089.2</ele>
        <time>2011-07-30T11:04:31Z</time>
      </trkpt>
      <trkpt lat="45.50434" lon="6.68392">
        <ele>2091.8</ele>
        <time>2011-07-30T11:04:47Z</time>
      </trkpt>
      <trkpt lat="45.50427" lon="6.68401">
        <ele>2094.9</ele>
        <time>2011-07-30T11:04:59Z</time>
      </trkpt>
      <trkpt lat="45.5042" lon="6.6841">
        <ele>2096.5</ele>
        <time>2011-07-30T11:05:11Z</time>
      </trkpt>
      <trkpt lat="45.50419" lon="6.68424">
        <ele>2098.2</ele>
        <time>2011-07-30T11:05:19Z</time>
      </trkpt>
      <trkpt lat="45.5042" lon="6.68438">
        <ele>2099.8</ele>
        <time>2011-07-30T11:05:28Z</time>
      </trkpt>
      <trkpt lat="45.5042" lon="6.68452">
        <ele>2100.3</ele>
        <time>2011-07-30T11:05:36Z</time>
      </trkpt>
      <trkpt lat="45.50418" lon="6.68466">
        <ele>2100.7</ele>
        <time>2011-07-30T11:05:43Z</time>
      </trkpt>
      <trkpt lat="45.50415" lon="6.68479">
        <ele>2101.2</ele>
        <time>2011-07-30T11:05:51Z</time>
      </trkpt>
      <trkpt lat="45.50409" lon="6.68489">
        <ele>2102.1</ele>
        <time>2011-07-30T11:06:01Z</time>
      </trkpt>
      <trkpt lat="45.50405" lon="6.68502">
        <ele>2103</ele>
        <time>2011-07-30T11:06:06Z</time>
      </trkpt>
      <trkpt lat="45.50401" lon="6.68514">
        <ele>2103.9</ele>
        <time>2011-07-30T11:06:13Z</time>
      </trkpt>
      <trkpt lat="45.50398" lon="6.68527">
        <ele>2105.1</ele>
        <time>2011-07-30T11:06:21Z</time>
      </trkpt>
      <trkpt lat="45.50394" lon="6.68539">
        <ele>2105.8</ele>
        <time>2011-07-30T11:06:32Z</time>
      </trkpt>
      <trkpt lat="45.50391" lon="6.68552">
        <ele>2106.5</ele>
        <time>2011-07-30T11:06:41Z</time>
      </trkpt>
      <trkpt lat="45.50386" lon="6.68564">
        <ele>2107.3</ele>
        <time>2011-07-30T11:06:48Z</time>
      </trkpt>
      <trkpt lat="45.50379" lon="6.68573">
        <ele>2108.9</ele>
        <time>2011-07-30T11:06:56Z</time>
      </trkpt>
      <trkpt lat="45.50373" lon="6.68583">
        <ele>2110.5</ele>
        <time>2011-07-30T11:07:04Z</time>
      </trkpt>
      <trkpt lat="45.50367" lon="6.68593">
        <ele>2112.2</ele>
        <time>2011-07-30T11:07:11Z</time>
      </trkpt>
      <trkpt lat="45.50362" lon="6.68605">
        <ele>2113.8</ele>
        <time>2011-07-30T11:07:18Z</time>
      </trkpt>
      <trkpt lat="45.5036" lon="6.68618">
        <ele>2115</ele>
        <time>2011-07-30T11:07:27Z</time>
      </trkpt>
      <trkpt lat="45.5036" lon="6.6863">
        <ele>2116.2</ele>
        <time>2011-07-30T11:07:33Z</time>
      </trkpt>
      <trkpt lat="45.50358" lon="6.68643">
        <ele>2117.4</ele>
        <time>2011-07-30T11:07:40Z</time>
      </trkpt>
      <trkpt lat="45.50358" lon="6.68657">
        <ele>2118.9</ele>
        <time>2011-07-30T11:07:49Z</time>
      </trkpt>
      <trkpt lat="45.50358" lon="6.6867">
        <ele>2120.5</ele>
        <time>2011-07-30T11:07:59Z</time>
      </trkpt>
      <trkpt lat="45.50357" lon="6.68684">
        <ele>2122</ele>
        <time>2011-07-30T11:08:08Z</time>
      </trkpt>
      <trkpt lat="45.50355" lon="6.68699">
        <ele>2123.5</ele>
        <time>2011-07-30T11:08:15Z</time>
      </trkpt>
      <trkpt lat="45.50352" lon="6.68711">
        <ele>2124.2</ele>
        <time>2011-07-30T11:08:24Z</time>
      </trkpt>
      <trkpt lat="45.50347" lon="6.68723">
        <ele>2124.8</ele>
        <time>2011-07-30T11:08:33Z</time>
      </trkpt>
      <trkpt lat="45.50345" lon="6.68737">
        <ele>2125.5</ele>
        <time>2011-07-30T11:08:44Z</time>
      </trkpt>
      <trkpt lat="45.50343" lon="6.68751">
        <ele>2126.1</ele>
        <time>2011-07-30T11:08:51Z</time>
      </trkpt>
      <trkpt lat="45.50345" lon="6.68764">
        <ele>2126.7</ele>
        <time>2011-07-30T11:09:00Z</time>
      </trkpt>
      <trkpt lat="45.50343" lon="6.68777">
        <ele>2127.4</ele>
        <time>2011-07-30T11:09:08Z</time>
      </trkpt>
      <trkpt lat="45.50338" lon="6.68788">
        <ele>2128</ele>
        <time>2011-07-30T11:09:15Z</time>
      </trkpt>
      <trkpt lat="45.50329" lon="6.68796">
        <ele>2128</ele>
        <time>2011-07-30T11:09:21Z</time>
      </trkpt>
      <trkpt lat="45.50322" lon="6.68805">
        <ele>2128</ele>
        <time>2011-07-30T11:09:30Z</time>
      </trkpt>
      <trkpt lat="45.50315" lon="6.68815">
        <ele>2128</ele>
        <time>2011-07-30T11:09:37Z</time>
      </trkpt>
      <trkpt lat="45.50308" lon="6.68825">
        <ele>2127.4</ele>
        <time>2011-07-30T11:09:46Z</time>
      </trkpt>
      <trkpt lat="45.50304" lon="6.68837">
        <ele>2126.7</ele>
        <time>2011-07-30T11:09:53Z</time>
      </trkpt>
      <trkpt lat="45.50302" lon="6.68849">
        <ele>2128.7</ele>
        <time>2011-07-30T11:09:59Z</time>
      </trkpt>
      <trkpt lat="45.50299" lon="6.68863">
        <ele>2130.7</ele>
        <time>2011-07-30T11:10:08Z</time>
      </trkpt>
      <trkpt lat="45.50297" lon="6.68877">
        <ele>2132.7</ele>
        <time>2011-07-30T11:10:16Z</time>
      </trkpt>
      <trkpt lat="45.50296" lon="6.68891">
        <ele>2134.7</ele>
        <time>2011-07-30T11:10:23Z</time>
      </trkpt>
      <trkpt lat="45.50295" lon="6.68905">
        <ele>2137</ele>
        <time>2011-07-30T11:10:29Z</time>
      </trkpt>
      <trkpt lat="45.50293" lon="6.68919">
        <ele>2139.3</ele>
        <time>2011-07-30T11:10:35Z</time>
      </trkpt>
      <trkpt lat="45.50292" lon="6.68932">
        <ele>2141.5</ele>
        <time>2011-07-30T11:10:39Z</time>
      </trkpt>
      <trkpt lat="45.5029" lon="6.68946">
        <ele>2143.8</ele>
        <time>2011-07-30T11:10:45Z</time>
      </trkpt>
      <trkpt lat="45.50287" lon="6.6896">
        <ele>2146.1</ele>
        <time>2011-07-30T11:10:51Z</time>
      </trkpt>
      <trkpt lat="45.50284" lon="6.68973">
        <ele>2149</ele>
        <time>2011-07-30T11:10:56Z</time>
      </trkpt>
      <trkpt lat="45.50283" lon="6.68988">
        <ele>2151.9</ele>
        <time>2011-07-30T11:11:00Z</time>
      </trkpt>
      <trkpt lat="45.50285" lon="6.69003">
        <ele>2152.2</ele>
        <time>2011-07-30T11:11:06Z</time>
      </trkpt>
      <trkpt lat="45.50286" lon="6.69016">
        <ele>2152.5</ele>
        <time>2011-07-30T11:11:09Z</time>
      </trkpt>
      <trkpt lat="45.50286" lon="6.69029">
        <ele>2152.7</ele>
        <time>2011-07-30T11:11:14Z</time>
      </trkpt>
      <trkpt lat="45.50288" lon="6.69042">
        <ele>2150.5</ele>
        <time>2011-07-30T11:11:18Z</time>
      </trkpt>
      <trkpt lat="45.5029" lon="6.69055">
        <ele>2148.1</ele>
        <time>2011-07-30T11:11:23Z</time>
      </trkpt>
      <trkpt lat="45.50291" lon="6.69068">
        <ele>2146.5</ele>
        <time>2011-07-30T11:11:28Z</time>
      </trkpt>
      <trkpt lat="45.50291" lon="6.69083">
        <ele>2145</ele>
        <time>2011-07-30T11:11:33Z</time>
      </trkpt>
      <trkpt lat="45.50291" lon="6.69097">
        <ele>2143.5</ele>
        <time>2011-07-30T11:11:38Z</time>
      </trkpt>
      <trkpt lat="45.50293" lon="6.69111">
        <ele>2141.9</ele>
        <time>2011-07-30T11:11:43Z</time>
      </trkpt>
      <trkpt lat="45.50296" lon="6.69126">
        <ele>2140.4</ele>
        <time>2011-07-30T11:11:48Z</time>
      </trkpt>
      <trkpt lat="45.50297" lon="6.69139">
        <ele>2138.8</ele>
        <time>2011-07-30T11:11:54Z</time>
      </trkpt>
      <trkpt lat="45.50301" lon="6.69153">
        <ele>2137.9</ele>
        <time>2011-07-30T11:12:01Z</time>
      </trkpt>
      <trkpt lat="45.50303" lon="6.69167">
        <ele>2137</ele>
        <time>2011-07-30T11:12:06Z</time>
      </trkpt>
      <trkpt lat="45.50306" lon="6.6918">
        <ele>2136.1</ele>
        <time>2011-07-30T11:12:09Z</time>
      </trkpt>
      <trkpt lat="45.50307" lon="6.69194">
        <ele>2137.6</ele>
        <time>2011-07-30T11:12:14Z</time>
      </trkpt>
      <trkpt lat="45.50309" lon="6.69208">
        <ele>2139.2</ele>
        <time>2011-07-30T11:12:18Z</time>
      </trkpt>
      <trkpt lat="45.50312" lon="6.69223">
        <ele>2139.8</ele>
        <time>2011-07-30T11:12:22Z</time>
      </trkpt>
      <trkpt lat="45.50316" lon="6.69236">
        <ele>2140.5</ele>
        <time>2011-07-30T11:12:27Z</time>
      </trkpt>
      <trkpt lat="45.50321" lon="6.69247">
        <ele>2141.4</ele>
        <time>2011-07-30T11:12:35Z</time>
      </trkpt>
      <trkpt lat="45.5033" lon="6.69255">
        <ele>2142.3</ele>
        <time>2011-07-30T11:12:42Z</time>
      </trkpt>
      <trkpt lat="45.50336" lon="6.69265">
        <ele>2143.2</ele>
        <time>2011-07-30T11:12:48Z</time>
      </trkpt>
      <trkpt lat="45.50341" lon="6.69276">
        <ele>2144.1</ele>
        <time>2011-07-30T11:12:54Z</time>
      </trkpt>
      <trkpt lat="45.50345" lon="6.6929">
        <ele>2144.4</ele>
        <time>2011-07-30T11:13:02Z</time>
      </trkpt>
      <trkpt lat="45.50348" lon="6.69302">
        <ele>2144.6</ele>
        <time>2011-07-30T11:13:07Z</time>
      </trkpt>
      <trkpt lat="45.5035" lon="6.69317">
        <ele>2144.4</ele>
        <time>2011-07-30T11:13:12Z</time>
      </trkpt>
      <trkpt lat="45.50352" lon="6.6933">
        <ele>2144.1</ele>
        <time>2011-07-30T11:13:16Z</time>
      </trkpt>
      <trkpt lat="45.50352" lon="6.69346">
        <ele>2143.8</ele>
        <time>2011-07-30T11:13:20Z</time>
      </trkpt>
      <trkpt lat="45.50349" lon="6.69361">
        <ele>2143.5</ele>
        <time>2011-07-30T11:13:25Z</time>
      </trkpt>
      <trkpt lat="45.50346" lon="6.69374">
        <ele>2143.3</ele>
        <time>2011-07-30T11:13:31Z</time>
      </trkpt>
      <trkpt lat="45.5034" lon="6.69386">
        <ele>2142.7</ele>
        <time>2011-07-30T11:13:37Z</time>
      </trkpt>
      <trkpt lat="45.50331" lon="6.69393">
        <ele>2142.2</ele>
        <time>2011-07-30T11:13:43Z</time>
      </trkpt>
      <trkpt lat="45.50321" lon="6.69394">
        <ele>2142.8</ele>
        <time>2011-07-30T11:13:48Z</time>
      </trkpt>
      <trkpt lat="45.50312" lon="6.69399">
        <ele>2143.5</ele>
        <time>2011-07-30T11:13:53Z</time>
      </trkpt>
      <trkpt lat="45.50305" lon="6.69408">
        <ele>2144.1</ele>
        <time>2011-07-30T11:13:58Z</time>
      </trkpt>
      <trkpt lat="45.50299" lon="6.6942">
        <ele>2144.7</ele>
        <time>2011-07-30T11:14:03Z</time>
      </trkpt>
      <trkpt lat="45.50297" lon="6.69434">
        <ele>2144.9</ele>
        <time>2011-07-30T11:14:08Z</time>
      </trkpt>
      <trkpt lat="45.50291" lon="6.69445">
        <ele>2145.1</ele>
        <time>2011-07-30T11:14:14Z</time>
      </trkpt>
      <trkpt lat="45.50282" lon="6.69449">
        <ele>2145.3</ele>
        <time>2011-07-30T11:14:19Z</time>
      </trkpt>
      <trkpt lat="45.50273" lon="6.69451">
        <ele>2145.5</ele>
        <time>2011-07-30T11:14:23Z</time>
      </trkpt>
      <trkpt lat="45.50265" lon="6.69457">
        <ele>2145.6</ele>
        <time>2011-07-30T11:14:26Z</time>
      </trkpt>
      <trkpt lat="45.50256" lon="6.69462">
        <ele>2147.1</ele>
        <time>2011-07-30T11:14:32Z</time>
      </trkpt>
      <trkpt lat="45.50247" lon="6.69467">
        <ele>2148.5</ele>
        <time>2011-07-30T11:14:37Z</time>
      </trkpt>
      <trkpt lat="45.50237" lon="6.69472">
        <ele>2148.8</ele>
        <time>2011-07-30T11:14:42Z</time>
      </trkpt>
      <trkpt lat="45.50226" lon="6.69474">
        <ele>2149.1</ele>
        <time>2011-07-30T11:14:47Z</time>
      </trkpt>
      <trkpt lat="45.50217" lon="6.69476">
        <ele>2149.4</ele>
        <time>2011-07-30T11:14:52Z</time>
      </trkpt>
      <trkpt lat="45.50207" lon="6.69481">
        <ele>2149.6</ele>
        <time>2011-07-30T11:14:57Z</time>
      </trkpt>
      <trkpt lat="45.50197" lon="6.69488">
        <ele>2150.9</ele>
        <time>2011-07-30T11:15:02Z</time>
      </trkpt>
      <trkpt lat="45.5019" lon="6.69496">
        <ele>2152.2</ele>
        <time>2011-07-30T11:15:06Z</time>
      </trkpt>
      <trkpt lat="45.50183" lon="6.69507">
        <ele>2152.1</ele>
        <time>2011-07-30T11:15:11Z</time>
      </trkpt>
      <trkpt lat="45.50176" lon="6.69518">
        <ele>2152</ele>
        <time>2011-07-30T11:15:16Z</time>
      </trkpt>
      <trkpt lat="45.50168" lon="6.69525">
        <ele>2151.9</ele>
        <time>2011-07-30T11:15:21Z</time>
      </trkpt>
      <trkpt lat="45.50159" lon="6.69531">
        <ele>2153</ele>
        <time>2011-07-30T11:15:25Z</time>
      </trkpt>
      <trkpt lat="45.5015" lon="6.6954">
        <ele>2154.1</ele>
        <time>2011-07-30T11:15:31Z</time>
      </trkpt>
      <trkpt lat="45.50143" lon="6.69549">
        <ele>2155.2</ele>
        <time>2011-07-30T11:15:36Z</time>
      </trkpt>
      <trkpt lat="45.50138" lon="6.69559">
        <ele>2156.3</ele>
        <time>2011-07-30T11:15:41Z</time>
      </trkpt>
      <trkpt lat="45.50131" lon="6.69572">
        <ele>2156.3</ele>
        <time>2011-07-30T11:15:47Z</time>
      </trkpt>
      <trkpt lat="45.50126" lon="6.69585">
        <ele>2156.3</ele>
        <time>2011-07-30T11:15:53Z</time>
      </trkpt>
      <trkpt lat="45.50121" lon="6.69597">
        <ele>2156.3</ele>
        <time>2011-07-30T11:15:58Z</time>
      </trkpt>
      <trkpt lat="45.50116" lon="6.69608">
        <ele>2156.3</ele>
        <time>2011-07-30T11:16:05Z</time>
      </trkpt>
      <trkpt lat="45.50113" lon="6.69622">
        <ele>2157.6</ele>
        <time>2011-07-30T11:16:11Z</time>
      </trkpt>
      <trkpt lat="45.50111" lon="6.69636">
        <ele>2159</ele>
        <time>2011-07-30T11:16:17Z</time>
      </trkpt>
      <trkpt lat="45.5011" lon="6.6965">
        <ele>2160.4</ele>
        <time>2011-07-30T11:16:22Z</time>
      </trkpt>
      <trkpt lat="45.50108" lon="6.69664">
        <ele>2158.8</ele>
        <time>2011-07-30T11:16:26Z</time>
      </trkpt>
      <trkpt lat="45.50107" lon="6.69678">
        <ele>2157.3</ele>
        <time>2011-07-30T11:16:32Z</time>
      </trkpt>
      <trkpt lat="45.50107" lon="6.69691">
        <ele>2155.7</ele>
        <time>2011-07-30T11:16:36Z</time>
      </trkpt>
      <trkpt lat="45.50107" lon="6.69706">
        <ele>2154.2</ele>
        <time>2011-07-30T11:16:43Z</time>
      </trkpt>
      <trkpt lat="45.50107" lon="6.69721">
        <ele>2153.7</ele>
        <time>2011-07-30T11:16:49Z</time>
      </trkpt>
      <trkpt lat="45.50108" lon="6.69737">
        <ele>2153.3</ele>
        <time>2011-07-30T11:16:54Z</time>
      </trkpt>
      <trkpt lat="45.50106" lon="6.6975">
        <ele>2153</ele>
        <time>2011-07-30T11:16:59Z</time>
      </trkpt>
      <trkpt lat="45.50103" lon="6.69763">
        <ele>2152.7</ele>
        <time>2011-07-30T11:17:05Z</time>
      </trkpt>
      <trkpt lat="45.50099" lon="6.69774">
        <ele>2152.5</ele>
        <time>2011-07-30T11:17:11Z</time>
      </trkpt>
      <trkpt lat="45.50094" lon="6.69787">
        <ele>2152.2</ele>
        <time>2011-07-30T11:17:18Z</time>
      </trkpt>
      <trkpt lat="45.5009" lon="6.69801">
        <ele>2151.9</ele>
        <time>2011-07-30T11:17:26Z</time>
      </trkpt>
      <trkpt lat="45.50088" lon="6.69814">
        <ele>2152.1</ele>
        <time>2011-07-30T11:17:34Z</time>
      </trkpt>
      <trkpt lat="45.50085" lon="6.69828">
        <ele>2152.9</ele>
        <time>2011-07-30T11:17:39Z</time>
      </trkpt>
      <trkpt lat="45.50083" lon="6.69841">
        <ele>2153.7</ele>
        <time>2011-07-30T11:17:46Z</time>
      </trkpt>
      <trkpt lat="45.50081" lon="6.69854">
        <ele>2154.5</ele>
        <time>2011-07-30T11:17:55Z</time>
      </trkpt>
      <trkpt lat="45.5008" lon="6.69867">
        <ele>2155.4</ele>
        <time>2011-07-30T11:18:02Z</time>
      </trkpt>
      <trkpt lat="45.50078" lon="6.6988">
        <ele>2156.2</ele>
        <time>2011-07-30T11:18:08Z</time>
      </trkpt>
      <trkpt lat="45.5008" lon="6.69893">
        <ele>2157.4</ele>
        <time>2011-07-30T11:18:16Z</time>
      </trkpt>
      <trkpt lat="45.50077" lon="6.69905">
        <ele>2158.5</ele>
        <time>2011-07-30T11:18:23Z</time>
      </trkpt>
      <trkpt lat="45.5007" lon="6.69915">
        <ele>2159.7</ele>
        <time>2011-07-30T11:18:30Z</time>
      </trkpt>
      <trkpt lat="45.50062" lon="6.69923">
        <ele>2160.9</ele>
        <time>2011-07-30T11:18:39Z</time>
      </trkpt>
      <trkpt lat="45.50054" lon="6.6993">
        <ele>2162.7</ele>
        <time>2011-07-30T11:18:47Z</time>
      </trkpt>
      <trkpt lat="45.50045" lon="6.69937">
        <ele>2164.5</ele>
        <time>2011-07-30T11:18:58Z</time>
      </trkpt>
      <trkpt lat="45.50037" lon="6.69945">
        <ele>2165.7</ele>
        <time>2011-07-30T11:19:06Z</time>
      </trkpt>
      <trkpt lat="45.50029" lon="6.69953">
        <ele>2166.9</ele>
        <time>2011-07-30T11:19:17Z</time>
      </trkpt>
      <trkpt lat="45.50023" lon="6.69963">
        <ele>2168.1</ele>
        <time>2011-07-30T11:19:26Z</time>
      </trkpt>
      <trkpt lat="45.50015" lon="6.6997">
        <ele>2169.3</ele>
        <time>2011-07-30T11:19:33Z</time>
      </trkpt>
      <trkpt lat="45.50008" lon="6.69979">
        <ele>2170.5</ele>
        <time>2011-07-30T11:19:42Z</time>
      </trkpt>
      <trkpt lat="45.5" lon="6.69985">
        <ele>2171.1</ele>
        <time>2011-07-30T11:19:55Z</time>
      </trkpt>
      <trkpt lat="45.49993" lon="6.69995">
        <ele>2172.6</ele>
        <time>2011-07-30T11:20:04Z</time>
      </trkpt>
      <trkpt lat="45.49988" lon="6.70006">
        <ele>2174.2</ele>
        <time>2011-07-30T11:20:14Z</time>
      </trkpt>
      <trkpt lat="45.49982" lon="6.70015">
        <ele>2176.4</ele>
        <time>2011-07-30T11:20:22Z</time>
      </trkpt>
      <trkpt lat="45.49975" lon="6.70024">
        <ele>2177.9</ele>
        <time>2011-07-30T11:20:31Z</time>
      </trkpt>
      <trkpt lat="45.49969" lon="6.70035">
        <ele>2179.5</ele>
        <time>2011-07-30T11:20:44Z</time>
      </trkpt>
      <trkpt lat="45.49961" lon="6.70042">
        <ele>2181</ele>
        <time>2011-07-30T11:20:53Z</time>
      </trkpt>
      <trkpt lat="45.49953" lon="6.70047">
        <ele>2182.5</ele>
        <time>2011-07-30T11:21:02Z</time>
      </trkpt>
      <trkpt lat="45.49945" lon="6.70055">
        <ele>2184.1</ele>
        <time>2011-07-30T11:21:08Z</time>
      </trkpt>
      <trkpt lat="45.49939" lon="6.70066">
        <ele>2185.6</ele>
        <time>2011-07-30T11:21:16Z</time>
      </trkpt>
      <trkpt lat="45.49931" lon="6.70073">
        <ele>2187.2</ele>
        <time>2011-07-30T11:21:26Z</time>
      </trkpt>
      <trkpt lat="45.49924" lon="6.70083">
        <ele>2189.7</ele>
        <time>2011-07-30T11:21:35Z</time>
      </trkpt>
      <trkpt lat="45.49919" lon="6.70094">
        <ele>2191.4</ele>
        <time>2011-07-30T11:21:49Z</time>
      </trkpt>
      <trkpt lat="45.49914" lon="6.70106">
        <ele>2193</ele>
        <time>2011-07-30T11:21:57Z</time>
      </trkpt>
      <trkpt lat="45.49909" lon="6.70118">
        <ele>2194</ele>
        <time>2011-07-30T11:22:05Z</time>
      </trkpt>
      <trkpt lat="45.49904" lon="6.7013">
        <ele>2195</ele>
        <time>2011-07-30T11:22:19Z</time>
      </trkpt>
      <trkpt lat="45.499" lon="6.70142">
        <ele>2196</ele>
        <time>2011-07-30T11:22:28Z</time>
      </trkpt>
      <trkpt lat="45.49895" lon="6.70153">
        <ele>2198</ele>
        <time>2011-07-30T11:22:36Z</time>
      </trkpt>
      <trkpt lat="45.4989" lon="6.70165">
        <ele>2200</ele>
        <time>2011-07-30T11:22:44Z</time>
      </trkpt>
      <trkpt lat="45.49887" lon="6.70179">
        <ele>2202</ele>
        <time>2011-07-30T11:22:54Z</time>
      </trkpt>
      <trkpt lat="45.49888" lon="6.70193">
        <ele>2204</ele>
        <time>2011-07-30T11:23:06Z</time>
      </trkpt>
      <trkpt lat="45.49888" lon="6.70207">
        <ele>2206</ele>
        <time>2011-07-30T11:23:15Z</time>
      </trkpt>
      <trkpt lat="45.49889" lon="6.70221">
        <ele>2207</ele>
        <time>2011-07-30T11:23:30Z</time>
      </trkpt>
      <trkpt lat="45.49888" lon="6.70236">
        <ele>2209.7</ele>
        <time>2011-07-30T11:23:45Z</time>
      </trkpt>
      <trkpt lat="45.49884" lon="6.70255">
        <ele>2212.5</ele>
        <time>2011-07-30T11:24:00Z</time>
      </trkpt>
      <trkpt lat="45.49881" lon="6.70267">
        <ele>2215.2</ele>
        <time>2011-07-30T11:24:10Z</time>
      </trkpt>
      <trkpt lat="45.49878" lon="6.70279">
        <ele>2217.9</ele>
        <time>2011-07-30T11:24:21Z</time>
      </trkpt>
      <trkpt lat="45.49876" lon="6.70292">
        <ele>2220.6</ele>
        <time>2011-07-30T11:24:34Z</time>
      </trkpt>
      <trkpt lat="45.49874" lon="6.70305">
        <ele>2222.4</ele>
        <time>2011-07-30T11:24:48Z</time>
      </trkpt>
      <trkpt lat="45.49871" lon="6.70318">
        <ele>2224.1</ele>
        <time>2011-07-30T11:25:02Z</time>
      </trkpt>
      <trkpt lat="45.49865" lon="6.70329">
        <ele>2225.9</ele>
        <time>2011-07-30T11:25:18Z</time>
      </trkpt>
      <trkpt lat="45.4986" lon="6.7034">
        <ele>2227.7</ele>
        <time>2011-07-30T11:25:28Z</time>
      </trkpt>
      <trkpt lat="45.49855" lon="6.70351">
        <ele>2229.5</ele>
        <time>2011-07-30T11:25:34Z</time>
      </trkpt>
      <trkpt lat="45.49855" lon="6.70364">
        <ele>2231.4</ele>
        <time>2011-07-30T11:25:41Z</time>
      </trkpt>
      <trkpt lat="45.49856" lon="6.70377">
        <ele>2231.5</ele>
        <time>2011-07-30T11:25:50Z</time>
      </trkpt>
      <trkpt lat="45.49853" lon="6.7039">
        <ele>2231.5</ele>
        <time>2011-07-30T11:26:02Z</time>
      </trkpt>
      <trkpt lat="45.49847" lon="6.70401">
        <ele>2231.6</ele>
        <time>2011-07-30T11:26:11Z</time>
      </trkpt>
      <trkpt lat="45.4984" lon="6.7041">
        <ele>2231.7</ele>
        <time>2011-07-30T11:26:18Z</time>
      </trkpt>
      <trkpt lat="45.49833" lon="6.70419">
        <ele>2232.1</ele>
        <time>2011-07-30T11:26:25Z</time>
      </trkpt>
      <trkpt lat="45.49826" lon="6.70429">
        <ele>2232.8</ele>
        <time>2011-07-30T11:26:32Z</time>
      </trkpt>
      <trkpt lat="45.4982" lon="6.7044">
        <ele>2233.5</ele>
        <time>2011-07-30T11:26:41Z</time>
      </trkpt>
      <trkpt lat="45.49813" lon="6.7045">
        <ele>2234.2</ele>
        <time>2011-07-30T11:26:48Z</time>
      </trkpt>
      <trkpt lat="45.49805" lon="6.70457">
        <ele>2234.8</ele>
        <time>2011-07-30T11:26:55Z</time>
      </trkpt>
      <trkpt lat="45.49797" lon="6.70463">
        <ele>2235.5</ele>
        <time>2011-07-30T11:27:03Z</time>
      </trkpt>
      <trkpt lat="45.49788" lon="6.70465">
        <ele>2236.1</ele>
        <time>2011-07-30T11:27:13Z</time>
      </trkpt>
      <trkpt lat="45.49779" lon="6.7047">
        <ele>2236.7</ele>
        <time>2011-07-30T11:27:21Z</time>
      </trkpt>
      <trkpt lat="45.4977" lon="6.70474">
        <ele>2237.4</ele>
        <time>2011-07-30T11:27:26Z</time>
      </trkpt>
      <trkpt lat="45.4976" lon="6.70478">
        <ele>2238</ele>
        <time>2011-07-30T11:27:33Z</time>
      </trkpt>
      <trkpt lat="45.49751" lon="6.70482">
        <ele>2239.5</ele>
        <time>2011-07-30T11:27:42Z</time>
      </trkpt>
      <trkpt lat="45.49743" lon="6.70488">
        <ele>2240.6</ele>
        <time>2011-07-30T11:27:49Z</time>
      </trkpt>
      <trkpt lat="45.49734" lon="6.70492">
        <ele>2241.5</ele>
        <time>2011-07-30T11:27:56Z</time>
      </trkpt>
      <trkpt lat="45.49725" lon="6.70497">
        <ele>2242.3</ele>
        <time>2011-07-30T11:28:04Z</time>
      </trkpt>
      <trkpt lat="45.49717" lon="6.70504">
        <ele>2243.1</ele>
        <time>2011-07-30T11:28:13Z</time>
      </trkpt>
      <trkpt lat="45.49709" lon="6.70513">
        <ele>2243.9</ele>
        <time>2011-07-30T11:28:22Z</time>
      </trkpt>
      <trkpt lat="45.49701" lon="6.70522">
        <ele>2244.7</ele>
        <time>2011-07-30T11:28:31Z</time>
      </trkpt>
      <trkpt lat="45.49693" lon="6.70529">
        <ele>2245.5</ele>
        <time>2011-07-30T11:28:38Z</time>
      </trkpt>
      <trkpt lat="45.49684" lon="6.70536">
        <ele>2246.4</ele>
        <time>2011-07-30T11:28:48Z</time>
      </trkpt>
      <trkpt lat="45.49676" lon="6.70541">
        <ele>2247.6</ele>
        <time>2011-07-30T11:28:56Z</time>
      </trkpt>
      <trkpt lat="45.49667" lon="6.70546">
        <ele>2248.9</ele>
        <time>2011-07-30T11:29:05Z</time>
      </trkpt>
      <trkpt lat="45.49658" lon="6.70548">
        <ele>2249.4</ele>
        <time>2011-07-30T11:29:14Z</time>
      </trkpt>
      <trkpt lat="45.49648" lon="6.70549">
        <ele>2249.8</ele>
        <time>2011-07-30T11:29:21Z</time>
      </trkpt>
      <trkpt lat="45.49639" lon="6.70552">
        <ele>2250.3</ele>
        <time>2011-07-30T11:29:29Z</time>
      </trkpt>
      <trkpt lat="45.49629" lon="6.70555">
        <ele>2250.7</ele>
        <time>2011-07-30T11:29:35Z</time>
      </trkpt>
      <trkpt lat="45.49619" lon="6.70554">
        <ele>2251.2</ele>
        <time>2011-07-30T11:29:42Z</time>
      </trkpt>
      <trkpt lat="45.4961" lon="6.70558">
        <ele>2251.6</ele>
        <time>2011-07-30T11:29:50Z</time>
      </trkpt>
      <trkpt lat="45.496" lon="6.70556">
        <ele>2252.1</ele>
        <time>2011-07-30T11:29:59Z</time>
      </trkpt>
      <trkpt lat="45.49591" lon="6.70557">
        <ele>2252.5</ele>
        <time>2011-07-30T11:30:08Z</time>
      </trkpt>
      <trkpt lat="45.49584" lon="6.70566">
        <ele>2253</ele>
        <time>2011-07-30T11:30:16Z</time>
      </trkpt>
      <trkpt lat="45.49577" lon="6.70576">
        <ele>2254.1</ele>
        <time>2011-07-30T11:30:22Z</time>
      </trkpt>
      <trkpt lat="45.49571" lon="6.70588">
        <ele>2254.7</ele>
        <time>2011-07-30T11:30:29Z</time>
      </trkpt>
      <trkpt lat="45.49565" lon="6.70599">
        <ele>2255.4</ele>
        <time>2011-07-30T11:30:37Z</time>
      </trkpt>
      <trkpt lat="45.49559" lon="6.70609">
        <ele>2256</ele>
        <time>2011-07-30T11:30:43Z</time>
      </trkpt>
      <trkpt lat="45.49551" lon="6.70615">
        <ele>2256.6</ele>
        <time>2011-07-30T11:30:50Z</time>
      </trkpt>
      <trkpt lat="45.49542" lon="6.70621">
        <ele>2257.3</ele>
        <time>2011-07-30T11:30:58Z</time>
      </trkpt>
      <trkpt lat="45.49533" lon="6.70627">
        <ele>2257.9</ele>
        <time>2011-07-30T11:31:06Z</time>
      </trkpt>
      <trkpt lat="45.49525" lon="6.70632">
        <ele>2258.5</ele>
        <time>2011-07-30T11:31:15Z</time>
      </trkpt>
      <trkpt lat="45.49517" lon="6.7064">
        <ele>2259.2</ele>
        <time>2011-07-30T11:31:22Z</time>
      </trkpt>
      <trkpt lat="45.49509" lon="6.70645">
        <ele>2259.8</ele>
        <time>2011-07-30T11:31:30Z</time>
      </trkpt>
      <trkpt lat="45.49501" lon="6.70651">
        <ele>2263</ele>
        <time>2011-07-30T11:31:39Z</time>
      </trkpt>
      <trkpt lat="45.49492" lon="6.70659">
        <ele>2265.1</ele>
        <time>2011-07-30T11:31:46Z</time>
      </trkpt>
      <trkpt lat="45.49484" lon="6.70667">
        <ele>2267.6</ele>
        <time>2011-07-30T11:31:56Z</time>
      </trkpt>
      <trkpt lat="45.49476" lon="6.70673">
        <ele>2270.2</ele>
        <time>2011-07-30T11:32:06Z</time>
      </trkpt>
      <trkpt lat="45.49468" lon="6.7068">
        <ele>2272.1</ele>
        <time>2011-07-30T11:32:17Z</time>
      </trkpt>
      <trkpt lat="45.49461" lon="6.70689">
        <ele>2274</ele>
        <time>2011-07-30T11:32:29Z</time>
      </trkpt>
      <trkpt lat="45.49453" lon="6.70695">
        <ele>2275.9</ele>
        <time>2011-07-30T11:32:40Z</time>
      </trkpt>
      <trkpt lat="45.49447" lon="6.70705">
        <ele>2277.8</ele>
        <time>2011-07-30T11:32:57Z</time>
      </trkpt>
      <trkpt lat="45.49441" lon="6.70715">
        <ele>2279.7</ele>
        <time>2011-07-30T11:33:05Z</time>
      </trkpt>
      <trkpt lat="45.49433" lon="6.70724">
        <ele>2281.6</ele>
        <time>2011-07-30T11:33:17Z</time>
      </trkpt>
      <trkpt lat="45.49425" lon="6.70729">
        <ele>2283.5</ele>
        <time>2011-07-30T11:33:27Z</time>
      </trkpt>
      <trkpt lat="45.49416" lon="6.70732">
        <ele>2284.7</ele>
        <time>2011-07-30T11:33:40Z</time>
      </trkpt>
      <trkpt lat="45.49406" lon="6.70734">
        <ele>2285.9</ele>
        <time>2011-07-30T11:33:54Z</time>
      </trkpt>
      <trkpt lat="45.49397" lon="6.70736">
        <ele>2287.1</ele>
        <time>2011-07-30T11:34:08Z</time>
      </trkpt>
      <trkpt lat="45.49388" lon="6.70733">
        <ele>2288.3</ele>
        <time>2011-07-30T11:34:18Z</time>
      </trkpt>
      <trkpt lat="45.49379" lon="6.70727">
        <ele>2290.1</ele>
        <time>2011-07-30T11:34:29Z</time>
      </trkpt>
      <trkpt lat="45.4937" lon="6.70732">
        <ele>2291.9</ele>
        <time>2011-07-30T11:34:38Z</time>
      </trkpt>
      <trkpt lat="45.49361" lon="6.7073">
        <ele>2293.7</ele>
        <time>2011-07-30T11:34:51Z</time>
      </trkpt>
      <trkpt lat="45.49352" lon="6.70732">
        <ele>2295.5</ele>
        <time>2011-07-30T11:35:02Z</time>
      </trkpt>
      <trkpt lat="45.49343" lon="6.70737">
        <ele>2297.4</ele>
        <time>2011-07-30T11:35:11Z</time>
      </trkpt>
      <trkpt lat="45.49334" lon="6.70738">
        <ele>2300.6</ele>
        <time>2011-07-30T11:35:22Z</time>
      </trkpt>
      <trkpt lat="45.49324" lon="6.70741">
        <ele>2303.9</ele>
        <time>2011-07-30T11:35:34Z</time>
      </trkpt>
      <trkpt lat="45.49315" lon="6.70742">
        <ele>2305.4</ele>
        <time>2011-07-30T11:35:45Z</time>
      </trkpt>
      <trkpt lat="45.49306" lon="6.7074">
        <ele>2306.8</ele>
        <time>2011-07-30T11:35:59Z</time>
      </trkpt>
      <trkpt lat="45.49297" lon="6.70744">
        <ele>2308.3</ele>
        <time>2011-07-30T11:36:11Z</time>
      </trkpt>
      <trkpt lat="45.49287" lon="6.70746">
        <ele>2309.7</ele>
        <time>2011-07-30T11:36:21Z</time>
      </trkpt>
      <trkpt lat="45.49278" lon="6.70747">
        <ele>2311.2</ele>
        <time>2011-07-30T11:36:29Z</time>
      </trkpt>
      <trkpt lat="45.4927" lon="6.70751">
        <ele>2312.6</ele>
        <time>2011-07-30T11:36:39Z</time>
      </trkpt>
      <trkpt lat="45.49262" lon="6.70758">
        <ele>2314.1</ele>
        <time>2011-07-30T11:36:50Z</time>
      </trkpt>
      <trkpt lat="45.49254" lon="6.70764">
        <ele>2316.7</ele>
        <time>2011-07-30T11:37:06Z</time>
      </trkpt>
      <trkpt lat="45.49248" lon="6.70775">
        <ele>2319.4</ele>
        <time>2011-07-30T11:37:22Z</time>
      </trkpt>
      <trkpt lat="45.49241" lon="6.70783">
        <ele>2320.5</ele>
        <time>2011-07-30T11:37:34Z</time>
      </trkpt>
      <trkpt lat="45.49233" lon="6.70791">
        <ele>2321.7</ele>
        <time>2011-07-30T11:37:51Z</time>
      </trkpt>
      <trkpt lat="45.49227" lon="6.70801">
        <ele>2322.9</ele>
        <time>2011-07-30T11:38:05Z</time>
      </trkpt>
      <trkpt lat="45.49222" lon="6.70812">
        <ele>2324.1</ele>
        <time>2011-07-30T11:38:24Z</time>
      </trkpt>
      <trkpt lat="45.49224" lon="6.70829">
        <ele>2327.4</ele>
        <time>2011-07-30T11:38:51Z</time>
      </trkpt>
      <trkpt lat="45.4923" lon="6.70839">
        <ele>2330.6</ele>
        <time>2011-07-30T11:39:08Z</time>
      </trkpt>
      <trkpt lat="45.49231" lon="6.70852">
        <ele>2333.9</ele>
        <time>2011-07-30T11:39:23Z</time>
      </trkpt>
      <trkpt lat="45.49236" lon="6.70864">
        <ele>2337.2</ele>
        <time>2011-07-30T11:39:39Z</time>
      </trkpt>
      <trkpt lat="45.49236" lon="6.70877">
        <ele>2340.5</ele>
        <time>2011-07-30T11:40:00Z</time>
      </trkpt>
      <trkpt lat="45.4924" lon="6.70889">
        <ele>2342.5</ele>
        <time>2011-07-30T11:40:18Z</time>
      </trkpt>
      <trkpt lat="45.49244" lon="6.70902">
        <ele>2344.6</ele>
        <time>2011-07-30T11:40:33Z</time>
      </trkpt>
      <trkpt lat="45.49247" lon="6.70914">
        <ele>2347.2</ele>
        <time>2011-07-30T11:40:45Z</time>
      </trkpt>
      <trkpt lat="45.49239" lon="6.70922">
        <ele>2349.7</ele>
        <time>2011-07-30T11:41:01Z</time>
      </trkpt>
      <trkpt lat="45.4923" lon="6.70925">
        <ele>2352.3</ele>
        <time>2011-07-30T11:41:09Z</time>
      </trkpt>
      <trkpt lat="45.49222" lon="6.70931">
        <ele>2355</ele>
        <time>2011-07-30T11:41:21Z</time>
      </trkpt>
      <trkpt lat="45.49213" lon="6.70934">
        <ele>2355.6</ele>
        <time>2011-07-30T11:41:29Z</time>
      </trkpt>
      <trkpt lat="45.49204" lon="6.70939">
        <ele>2356.3</ele>
        <time>2011-07-30T11:41:39Z</time>
      </trkpt>
      <trkpt lat="45.49199" lon="6.70951">
        <ele>2356.9</ele>
        <time>2011-07-30T11:41:49Z</time>
      </trkpt>
      <trkpt lat="45.49195" lon="6.70963">
        <ele>2357.5</ele>
        <time>2011-07-30T11:41:56Z</time>
      </trkpt>
      <trkpt lat="45.49192" lon="6.70975">
        <ele>2358.2</ele>
        <time>2011-07-30T11:42:08Z</time>
      </trkpt>
      <trkpt lat="45.49181" lon="6.70976">
        <ele>2358.8</ele>
        <time>2011-07-30T11:43:17Z</time>
      </trkpt>
      <trkpt lat="45.49172" lon="6.70978">
        <ele>2358.5</ele>
        <time>2011-07-30T11:43:22Z</time>
      </trkpt>
      <trkpt lat="45.49163" lon="6.70982">
        <ele>2357.8</ele>
        <time>2011-07-30T11:43:27Z</time>
      </trkpt>
      <trkpt lat="45.49152" lon="6.70983">
        <ele>2357.1</ele>
        <time>2011-07-30T11:43:32Z</time>
      </trkpt>
      <trkpt lat="45.49143" lon="6.70987">
        <ele>2356.4</ele>
        <time>2011-07-30T11:43:36Z</time>
      </trkpt>
      <trkpt lat="45.49132" lon="6.70993">
        <ele>2355.5</ele>
        <time>2011-07-30T11:43:40Z</time>
      </trkpt>
      <trkpt lat="45.49123" lon="6.71">
        <ele>2354.5</ele>
        <time>2011-07-30T11:43:43Z</time>
      </trkpt>
      <trkpt lat="45.49113" lon="6.71007">
        <ele>2353.6</ele>
        <time>2011-07-30T11:43:48Z</time>
      </trkpt>
      <trkpt lat="45.49105" lon="6.71014">
        <ele>2352.7</ele>
        <time>2011-07-30T11:43:51Z</time>
      </trkpt>
      <trkpt lat="45.49097" lon="6.71024">
        <ele>2351.8</ele>
        <time>2011-07-30T11:43:57Z</time>
      </trkpt>
      <trkpt lat="45.49097" lon="6.71038">
        <ele>2350.9</ele>
        <time>2011-07-30T11:44:03Z</time>
      </trkpt>
      <trkpt lat="45.49097" lon="6.71051">
        <ele>2350</ele>
        <time>2011-07-30T11:44:10Z</time>
      </trkpt>
      <trkpt lat="45.49099" lon="6.71065">
        <ele>2350</ele>
        <time>2011-07-30T11:44:18Z</time>
      </trkpt>
      <trkpt lat="45.49099" lon="6.71078">
        <ele>2350.8</ele>
        <time>2011-07-30T11:44:26Z</time>
      </trkpt>
      <trkpt lat="45.49097" lon="6.71091">
        <ele>2351.6</ele>
        <time>2011-07-30T11:44:31Z</time>
      </trkpt>
      <trkpt lat="45.49094" lon="6.71104">
        <ele>2352.5</ele>
        <time>2011-07-30T11:44:37Z</time>
      </trkpt>
      <trkpt lat="45.49088" lon="6.71115">
        <ele>2353.3</ele>
        <time>2011-07-30T11:44:41Z</time>
      </trkpt>
      <trkpt lat="45.49084" lon="6.71126">
        <ele>2354.1</ele>
        <time>2011-07-30T11:44:46Z</time>
      </trkpt>
      <trkpt lat="45.49085" lon="6.7114">
        <ele>2354.9</ele>
        <time>2011-07-30T11:44:51Z</time>
      </trkpt>
      <trkpt lat="45.49082" lon="6.71154">
        <ele>2356</ele>
        <time>2011-07-30T11:44:57Z</time>
      </trkpt>
      <trkpt lat="45.49083" lon="6.71169">
        <ele>2357.1</ele>
        <time>2011-07-30T11:45:03Z</time>
      </trkpt>
      <trkpt lat="45.49081" lon="6.71183">
        <ele>2358.2</ele>
        <time>2011-07-30T11:45:10Z</time>
      </trkpt>
      <trkpt lat="45.49082" lon="6.71196">
        <ele>2359.3</ele>
        <time>2011-07-30T11:45:17Z</time>
      </trkpt>
      <trkpt lat="45.49084" lon="6.71211">
        <ele>2360.4</ele>
        <time>2011-07-30T11:45:25Z</time>
      </trkpt>
      <trkpt lat="45.49086" lon="6.71225">
        <ele>2360.6</ele>
        <time>2011-07-30T11:45:32Z</time>
      </trkpt>
      <trkpt lat="45.49087" lon="6.71238">
        <ele>2361.8</ele>
        <time>2011-07-30T11:45:39Z</time>
      </trkpt>
      <trkpt lat="45.49088" lon="6.71253">
        <ele>2363</ele>
        <time>2011-07-30T11:45:45Z</time>
      </trkpt>
      <trkpt lat="45.49088" lon="6.71267">
        <ele>2364.2</ele>
        <time>2011-07-30T11:45:50Z</time>
      </trkpt>
      <trkpt lat="45.49089" lon="6.71281">
        <ele>2365.4</ele>
        <time>2011-07-30T11:45:57Z</time>
      </trkpt>
      <trkpt lat="45.4909" lon="6.71294">
        <ele>2366.5</ele>
        <time>2011-07-30T11:46:05Z</time>
      </trkpt>
      <trkpt lat="45.49091" lon="6.71307">
        <ele>2367.5</ele>
        <time>2011-07-30T11:46:19Z</time>
      </trkpt>
      <trkpt lat="45.49092" lon="6.7132">
        <ele>2369.9</ele>
        <time>2011-07-30T11:46:34Z</time>
      </trkpt>
      <trkpt lat="45.49092" lon="6.71333">
        <ele>2372.4</ele>
        <time>2011-07-30T11:46:50Z</time>
      </trkpt>
      <trkpt lat="45.49088" lon="6.71345">
        <ele>2374.8</ele>
        <time>2011-07-30T11:47:03Z</time>
      </trkpt>
      <trkpt lat="45.49083" lon="6.71358">
        <ele>2377.3</ele>
        <time>2011-07-30T11:47:12Z</time>
      </trkpt>
      <trkpt lat="45.49083" lon="6.71372">
        <ele>2379.7</ele>
        <time>2011-07-30T11:47:21Z</time>
      </trkpt>
      <trkpt lat="45.49082" lon="6.71385">
        <ele>2381.3</ele>
        <time>2011-07-30T11:47:32Z</time>
      </trkpt>
      <trkpt lat="45.49081" lon="6.71398">
        <ele>2382.8</ele>
        <time>2011-07-30T11:47:43Z</time>
      </trkpt>
      <trkpt lat="45.49077" lon="6.71411">
        <ele>2385.9</ele>
        <time>2011-07-30T11:47:53Z</time>
      </trkpt>
      <trkpt lat="45.49074" lon="6.71423">
        <ele>2389</ele>
        <time>2011-07-30T11:47:59Z</time>
      </trkpt>
      <trkpt lat="45.4907" lon="6.71435">
        <ele>2392.1</ele>
        <time>2011-07-30T11:48:05Z</time>
      </trkpt>
      <trkpt lat="45.49067" lon="6.71447">
        <ele>2395.2</ele>
        <time>2011-07-30T11:48:15Z</time>
      </trkpt>
      <trkpt lat="45.49066" lon="6.71461">
        <ele>2396.7</ele>
        <time>2011-07-30T11:48:26Z</time>
      </trkpt>
      <trkpt lat="45.4907" lon="6.71474">
        <ele>2398.3</ele>
        <time>2011-07-30T11:48:34Z</time>
      </trkpt>
      <trkpt lat="45.49072" lon="6.71487">
        <ele>2400.5</ele>
        <time>2011-07-30T11:48:45Z</time>
      </trkpt>
      <trkpt lat="45.4907" lon="6.71501">
        <ele>2402.6</ele>
        <time>2011-07-30T11:48:59Z</time>
      </trkpt>
      <trkpt lat="45.49068" lon="6.71514">
        <ele>2404.8</ele>
        <time>2011-07-30T11:49:05Z</time>
      </trkpt>
      <trkpt lat="45.49061" lon="6.71523">
        <ele>2406.4</ele>
        <time>2011-07-30T11:49:21Z</time>
      </trkpt>
      <trkpt lat="45.49066" lon="6.71535">
        <ele>2407.9</ele>
        <time>2011-07-30T11:49:33Z</time>
      </trkpt>
      <trkpt lat="45.49071" lon="6.71547">
        <ele>2408.4</ele>
        <time>2011-07-30T11:49:42Z</time>
      </trkpt>
      <trkpt lat="45.49079" lon="6.71556">
        <ele>2408.8</ele>
        <time>2011-07-30T11:49:53Z</time>
      </trkpt>
      <trkpt lat="45.49073" lon="6.71546">
        <ele>2409.3</ele>
        <time>2011-07-30T11:50:20Z</time>
      </trkpt>
      <trkpt lat="45.49062" lon="6.71538">
        <ele>2409.9</ele>
        <time>2011-07-30T11:50:38Z</time>
      </trkpt>
      <trkpt lat="45.49053" lon="6.71532">
        <ele>2410.5</ele>
        <time>2011-07-30T11:50:48Z</time>
      </trkpt>
      <trkpt lat="45.49044" lon="6.71529">
        <ele>2411.2</ele>
        <time>2011-07-30T11:50:57Z</time>
      </trkpt>
      <trkpt lat="45.49035" lon="6.71528">
        <ele>2411.2</ele>
        <time>2011-07-30T11:51:21Z</time>
      </trkpt>
      <trkpt lat="45.49041" lon="6.71539">
        <ele>2411.2</ele>
        <time>2011-07-30T11:51:24Z</time>
      </trkpt>
      <trkpt lat="45.49049" lon="6.71549">
        <ele>2411.2</ele>
        <time>2011-07-30T11:51:27Z</time>
      </trkpt>
      <trkpt lat="45.49057" lon="6.71557">
        <ele>2411.8</ele>
        <time>2011-07-30T11:51:30Z</time>
      </trkpt>
      <trkpt lat="45.49066" lon="6.71559">
        <ele>2412.5</ele>
        <time>2011-07-30T11:51:35Z</time>
      </trkpt>
      <trkpt lat="45.49075" lon="6.71561">
        <ele>2412.6</ele>
        <time>2011-07-30T11:51:40Z</time>
      </trkpt>
      <trkpt lat="45.49085" lon="6.71565">
        <ele>2413.3</ele>
        <time>2011-07-30T11:51:47Z</time>
      </trkpt>
      <trkpt lat="45.49095" lon="6.71567">
        <ele>2413.9</ele>
        <time>2011-07-30T11:51:57Z</time>
      </trkpt>
      <trkpt lat="45.49103" lon="6.71573">
        <ele>2414.4</ele>
        <time>2011-07-30T11:52:08Z</time>
      </trkpt>
      <trkpt lat="45.49112" lon="6.71578">
        <ele>2414.8</ele>
        <time>2011-07-30T11:52:16Z</time>
      </trkpt>
      <trkpt lat="45.4912" lon="6.71584">
        <ele>2416.5</ele>
        <time>2011-07-30T11:52:21Z</time>
      </trkpt>
      <trkpt lat="45.4913" lon="6.7159">
        <ele>2418.3</ele>
        <time>2011-07-30T11:52:29Z</time>
      </trkpt>
      <trkpt lat="45.49138" lon="6.71597">
        <ele>2420</ele>
        <time>2011-07-30T11:52:37Z</time>
      </trkpt>
      <trkpt lat="45.49144" lon="6.71609">
        <ele>2421.7</ele>
        <time>2011-07-30T11:52:46Z</time>
      </trkpt>
      <trkpt lat="45.4915" lon="6.71619">
        <ele>2423.5</ele>
        <time>2011-07-30T11:52:52Z</time>
      </trkpt>
      <trkpt lat="45.49156" lon="6.71629">
        <ele>2425.2</ele>
        <time>2011-07-30T11:53:00Z</time>
      </trkpt>
      <trkpt lat="45.49163" lon="6.71639">
        <ele>2426.9</ele>
        <time>2011-07-30T11:53:09Z</time>
      </trkpt>
      <trkpt lat="45.4917" lon="6.71648">
        <ele>2428.2</ele>
        <time>2011-07-30T11:53:17Z</time>
      </trkpt>
      <trkpt lat="45.49176" lon="6.71659">
        <ele>2429.5</ele>
        <time>2011-07-30T11:53:25Z</time>
      </trkpt>
      <trkpt lat="45.49181" lon="6.71669">
        <ele>2430.7</ele>
        <time>2011-07-30T11:53:33Z</time>
      </trkpt>
      <trkpt lat="45.49185" lon="6.71683">
        <ele>2432</ele>
        <time>2011-07-30T11:53:42Z</time>
      </trkpt>
      <trkpt lat="45.49188" lon="6.71696">
        <ele>2432</ele>
        <time>2011-07-30T11:53:48Z</time>
      </trkpt>
      <trkpt lat="45.4919" lon="6.71709">
        <ele>2432</ele>
        <time>2011-07-30T11:53:54Z</time>
      </trkpt>
      <trkpt lat="45.49192" lon="6.71723">
        <ele>2432</ele>
        <time>2011-07-30T11:53:58Z</time>
      </trkpt>
      <trkpt lat="45.49192" lon="6.71738">
        <ele>2432</ele>
        <time>2011-07-30T11:54:05Z</time>
      </trkpt>
      <trkpt lat="45.49191" lon="6.71752">
        <ele>2432.2</ele>
        <time>2011-07-30T11:54:11Z</time>
      </trkpt>
      <trkpt lat="45.49189" lon="6.71766">
        <ele>2432.4</ele>
        <time>2011-07-30T11:54:18Z</time>
      </trkpt>
      <trkpt lat="45.49188" lon="6.71779">
        <ele>2432.5</ele>
        <time>2011-07-30T11:54:25Z</time>
      </trkpt>
      <trkpt lat="45.49188" lon="6.71792">
        <ele>2432.7</ele>
        <time>2011-07-30T11:54:33Z</time>
      </trkpt>
      <trkpt lat="45.49194" lon="6.71803">
        <ele>2432.9</ele>
        <time>2011-07-30T11:54:39Z</time>
      </trkpt>
      <trkpt lat="45.492" lon="6.71814">
        <ele>2433.1</ele>
        <time>2011-07-30T11:54:45Z</time>
      </trkpt>
      <trkpt lat="45.49199" lon="6.71827">
        <ele>2434.4</ele>
        <time>2011-07-30T11:54:51Z</time>
      </trkpt>
      <trkpt lat="45.49193" lon="6.71837">
        <ele>2435.6</ele>
        <time>2011-07-30T11:54:56Z</time>
      </trkpt>
      <trkpt lat="45.49189" lon="6.71849">
        <ele>2436.9</ele>
        <time>2011-07-30T11:55:03Z</time>
      </trkpt>
      <trkpt lat="45.49187" lon="6.71861">
        <ele>2438.2</ele>
        <time>2011-07-30T11:55:12Z</time>
      </trkpt>
      <trkpt lat="45.49188" lon="6.71874">
        <ele>2439.5</ele>
        <time>2011-07-30T11:55:21Z</time>
      </trkpt>
      <trkpt lat="45.4919" lon="6.71887">
        <ele>2440</ele>
        <time>2011-07-30T11:55:27Z</time>
      </trkpt>
      <trkpt lat="45.49193" lon="6.71901">
        <ele>2440.5</ele>
        <time>2011-07-30T11:55:35Z</time>
      </trkpt>
      <trkpt lat="45.49197" lon="6.71913">
        <ele>2441.8</ele>
        <time>2011-07-30T11:55:43Z</time>
      </trkpt>
      <trkpt lat="45.49203" lon="6.71924">
        <ele>2443.1</ele>
        <time>2011-07-30T11:55:51Z</time>
      </trkpt>
      <trkpt lat="45.49208" lon="6.71936">
        <ele>2444.4</ele>
        <time>2011-07-30T11:55:58Z</time>
      </trkpt>
      <trkpt lat="45.49212" lon="6.71948">
        <ele>2445.6</ele>
        <time>2011-07-30T11:56:07Z</time>
      </trkpt>
      <trkpt lat="45.49211" lon="6.71961">
        <ele>2446.9</ele>
        <time>2011-07-30T11:56:19Z</time>
      </trkpt>
      <trkpt lat="45.49214" lon="6.71974">
        <ele>2448.2</ele>
        <time>2011-07-30T11:56:30Z</time>
      </trkpt>
      <trkpt lat="45.49215" lon="6.71988">
        <ele>2450.1</ele>
        <time>2011-07-30T11:56:42Z</time>
      </trkpt>
      <trkpt lat="45.49216" lon="6.72">
        <ele>2452</ele>
        <time>2011-07-30T11:56:59Z</time>
      </trkpt>
      <trkpt lat="45.49213" lon="6.72013">
        <ele>2453.9</ele>
        <time>2011-07-30T11:57:10Z</time>
      </trkpt>
      <trkpt lat="45.49209" lon="6.72025">
        <ele>2456.4</ele>
        <time>2011-07-30T11:57:19Z</time>
      </trkpt>
      <trkpt lat="45.49206" lon="6.72037">
        <ele>2458.8</ele>
        <time>2011-07-30T11:57:28Z</time>
      </trkpt>
      <trkpt lat="45.49203" lon="6.72051">
        <ele>2460.5</ele>
        <time>2011-07-30T11:57:37Z</time>
      </trkpt>
      <trkpt lat="45.49201" lon="6.72064">
        <ele>2462.3</ele>
        <time>2011-07-30T11:57:49Z</time>
      </trkpt>
      <trkpt lat="45.49199" lon="6.72077">
        <ele>2464.2</ele>
        <time>2011-07-30T11:57:58Z</time>
      </trkpt>
      <trkpt lat="45.49196" lon="6.72089">
        <ele>2466.1</ele>
        <time>2011-07-30T11:58:09Z</time>
      </trkpt>
      <trkpt lat="45.49191" lon="6.72099">
        <ele>2466.9</ele>
        <time>2011-07-30T11:58:20Z</time>
      </trkpt>
      <trkpt lat="45.49188" lon="6.72113">
        <ele>2467.7</ele>
        <time>2011-07-30T11:58:28Z</time>
      </trkpt>
      <trkpt lat="45.49185" lon="6.72127">
        <ele>2467.9</ele>
        <time>2011-07-30T11:58:37Z</time>
      </trkpt>
      <trkpt lat="45.49183" lon="6.7214">
        <ele>2468.1</ele>
        <time>2011-07-30T11:58:46Z</time>
      </trkpt>
      <trkpt lat="45.49182" lon="6.72153">
        <ele>2468.5</ele>
        <time>2011-07-30T11:58:56Z</time>
      </trkpt>
      <trkpt lat="45.49182" lon="6.72167">
        <ele>2469</ele>
        <time>2011-07-30T11:59:06Z</time>
      </trkpt>
      <trkpt lat="45.49181" lon="6.72181">
        <ele>2469.5</ele>
        <time>2011-07-30T11:59:15Z</time>
      </trkpt>
      <trkpt lat="45.49183" lon="6.72195">
        <ele>2469.9</ele>
        <time>2011-07-30T11:59:22Z</time>
      </trkpt>
      <trkpt lat="45.49185" lon="6.72209">
        <ele>2470.4</ele>
        <time>2011-07-30T11:59:30Z</time>
      </trkpt>
      <trkpt lat="45.49185" lon="6.72222">
        <ele>2470.6</ele>
        <time>2011-07-30T11:59:38Z</time>
      </trkpt>
      <trkpt lat="45.49186" lon="6.72235">
        <ele>2471.5</ele>
        <time>2011-07-30T11:59:45Z</time>
      </trkpt>
      <trkpt lat="45.49185" lon="6.72249">
        <ele>2472.5</ele>
        <time>2011-07-30T11:59:52Z</time>
      </trkpt>
      <trkpt lat="45.49185" lon="6.72263">
        <ele>2473.4</ele>
        <time>2011-07-30T12:00:01Z</time>
      </trkpt>
      <trkpt lat="45.49184" lon="6.72277">
        <ele>2474.3</ele>
        <time>2011-07-30T12:00:10Z</time>
      </trkpt>
      <trkpt lat="45.49184" lon="6.7229">
        <ele>2475.2</ele>
        <time>2011-07-30T12:00:22Z</time>
      </trkpt>
      <trkpt lat="45.49185" lon="6.72302">
        <ele>2475.8</ele>
        <time>2011-07-30T12:00:31Z</time>
      </trkpt>
      <trkpt lat="45.4918" lon="6.72315">
        <ele>2477.2</ele>
        <time>2011-07-30T12:00:41Z</time>
      </trkpt>
      <trkpt lat="45.49177" lon="6.72328">
        <ele>2478.5</ele>
        <time>2011-07-30T12:00:46Z</time>
      </trkpt>
      <trkpt lat="45.49175" lon="6.7234">
        <ele>2479.9</ele>
        <time>2011-07-30T12:00:55Z</time>
      </trkpt>
      <trkpt lat="45.49175" lon="6.72354">
        <ele>2481.3</ele>
        <time>2011-07-30T12:01:03Z</time>
      </trkpt>
      <trkpt lat="45.49177" lon="6.72367">
        <ele>2482.6</ele>
        <time>2011-07-30T12:01:12Z</time>
      </trkpt>
      <trkpt lat="45.4918" lon="6.72381">
        <ele>2483.4</ele>
        <time>2011-07-30T12:01:19Z</time>
      </trkpt>
      <trkpt lat="45.49181" lon="6.72395">
        <ele>2484.1</ele>
        <time>2011-07-30T12:01:27Z</time>
      </trkpt>
      <trkpt lat="45.4918" lon="6.72408">
        <ele>2485.4</ele>
        <time>2011-07-30T12:01:34Z</time>
      </trkpt>
      <trkpt lat="45.49178" lon="6.72421">
        <ele>2486.6</ele>
        <time>2011-07-30T12:01:43Z</time>
      </trkpt>
      <trkpt lat="45.49173" lon="6.72433">
        <ele>2487.9</ele>
        <time>2011-07-30T12:01:50Z</time>
      </trkpt>
      <trkpt lat="45.49167" lon="6.72443">
        <ele>2489.2</ele>
        <time>2011-07-30T12:01:59Z</time>
      </trkpt>
      <trkpt lat="45.49161" lon="6.72455">
        <ele>2489.7</ele>
        <time>2011-07-30T12:02:05Z</time>
      </trkpt>
      <trkpt lat="45.49156" lon="6.72466">
        <ele>2489.8</ele>
        <time>2011-07-30T12:02:12Z</time>
      </trkpt>
      <trkpt lat="45.49148" lon="6.72477">
        <ele>2490.4</ele>
        <time>2011-07-30T12:02:19Z</time>
      </trkpt>
      <trkpt lat="45.49141" lon="6.72487">
        <ele>2491.4</ele>
        <time>2011-07-30T12:02:27Z</time>
      </trkpt>
      <trkpt lat="45.49136" lon="6.72498">
        <ele>2492.4</ele>
        <time>2011-07-30T12:02:34Z</time>
      </trkpt>
      <trkpt lat="45.49131" lon="6.72511">
        <ele>2493.4</ele>
        <time>2011-07-30T12:02:41Z</time>
      </trkpt>
      <trkpt lat="45.49129" lon="6.72525">
        <ele>2494.4</ele>
        <time>2011-07-30T12:02:49Z</time>
      </trkpt>
      <trkpt lat="45.49129" lon="6.72539">
        <ele>2494.8</ele>
        <time>2011-07-30T12:02:56Z</time>
      </trkpt>
      <trkpt lat="45.49129" lon="6.72552">
        <ele>2495.3</ele>
        <time>2011-07-30T12:03:02Z</time>
      </trkpt>
      <trkpt lat="45.4913" lon="6.72566">
        <ele>2495.7</ele>
        <time>2011-07-30T12:03:12Z</time>
      </trkpt>
      <trkpt lat="45.49134" lon="6.72578">
        <ele>2497.5</ele>
        <time>2011-07-30T12:03:19Z</time>
      </trkpt>
      <trkpt lat="45.49138" lon="6.7259">
        <ele>2499.2</ele>
        <time>2011-07-30T12:03:24Z</time>
      </trkpt>
      <trkpt lat="45.49142" lon="6.72602">
        <ele>2501.4</ele>
        <time>2011-07-30T12:03:33Z</time>
      </trkpt>
      <trkpt lat="45.49147" lon="6.72613">
        <ele>2503.1</ele>
        <time>2011-07-30T12:03:45Z</time>
      </trkpt>
      <trkpt lat="45.49154" lon="6.72624">
        <ele>2504.4</ele>
        <time>2011-07-30T12:03:55Z</time>
      </trkpt>
      <trkpt lat="45.49158" lon="6.72636">
        <ele>2505.6</ele>
        <time>2011-07-30T12:04:07Z</time>
      </trkpt>
      <trkpt lat="45.49162" lon="6.72648">
        <ele>2506.9</ele>
        <time>2011-07-30T12:04:22Z</time>
      </trkpt>
      <trkpt lat="45.49167" lon="6.7266">
        <ele>2509.5</ele>
        <time>2011-07-30T12:04:33Z</time>
      </trkpt>
      <trkpt lat="45.49165" lon="6.72673">
        <ele>2512.2</ele>
        <time>2011-07-30T12:04:43Z</time>
      </trkpt>
      <trkpt lat="45.49168" lon="6.72685">
        <ele>2514.8</ele>
        <time>2011-07-30T12:04:51Z</time>
      </trkpt>
      <trkpt lat="45.49165" lon="6.72698">
        <ele>2517.5</ele>
        <time>2011-07-30T12:05:06Z</time>
      </trkpt>
      <trkpt lat="45.49164" lon="6.72711">
        <ele>2518.8</ele>
        <time>2011-07-30T12:05:21Z</time>
      </trkpt>
      <trkpt lat="45.49162" lon="6.72724">
        <ele>2520.2</ele>
        <time>2011-07-30T12:05:38Z</time>
      </trkpt>
      <trkpt lat="45.49161" lon="6.72737">
        <ele>2521.5</ele>
        <time>2011-07-30T12:05:51Z</time>
      </trkpt>
      <trkpt lat="45.49162" lon="6.7275">
        <ele>2523.8</ele>
        <time>2011-07-30T12:06:03Z</time>
      </trkpt>
      <trkpt lat="45.49166" lon="6.72762">
        <ele>2526.1</ele>
        <time>2011-07-30T12:06:17Z</time>
      </trkpt>
      <trkpt lat="45.49169" lon="6.72774">
        <ele>2528.4</ele>
        <time>2011-07-30T12:06:29Z</time>
      </trkpt>
      <trkpt lat="45.49171" lon="6.72788">
        <ele>2530.6</ele>
        <time>2011-07-30T12:06:42Z</time>
      </trkpt>
      <trkpt lat="45.49165" lon="6.72798">
        <ele>2531.5</ele>
        <time>2011-07-30T12:07:00Z</time>
      </trkpt>
      <trkpt lat="45.49164" lon="6.72811">
        <ele>2532.5</ele>
        <time>2011-07-30T12:07:07Z</time>
      </trkpt>
      <trkpt lat="45.49167" lon="6.72824">
        <ele>2533.4</ele>
        <time>2011-07-30T12:07:22Z</time>
      </trkpt>
      <trkpt lat="45.49166" lon="6.72837">
        <ele>2535.5</ele>
        <time>2011-07-30T12:07:40Z</time>
      </trkpt>
      <trkpt lat="45.49166" lon="6.72851">
        <ele>2537.5</ele>
        <time>2011-07-30T12:07:55Z</time>
      </trkpt>
      <trkpt lat="45.4916" lon="6.72861">
        <ele>2539.6</ele>
        <time>2011-07-30T12:08:08Z</time>
      </trkpt>
      <trkpt lat="45.49152" lon="6.72869">
        <ele>2541.7</ele>
        <time>2011-07-30T12:08:17Z</time>
      </trkpt>
      <trkpt lat="45.49144" lon="6.72878">
        <ele>2542.9</ele>
        <time>2011-07-30T12:08:24Z</time>
      </trkpt>
      <trkpt lat="45.49138" lon="6.72888">
        <ele>2544</ele>
        <time>2011-07-30T12:08:32Z</time>
      </trkpt>
      <trkpt lat="45.49134" lon="6.729">
        <ele>2546.4</ele>
        <time>2011-07-30T12:08:42Z</time>
      </trkpt>
      <trkpt lat="45.49133" lon="6.72915">
        <ele>2548.7</ele>
        <time>2011-07-30T12:08:50Z</time>
      </trkpt>
      <trkpt lat="45.49132" lon="6.72928">
        <ele>2551.1</ele>
        <time>2011-07-30T12:08:58Z</time>
      </trkpt>
      <trkpt lat="45.4913" lon="6.72941">
        <ele>2552.9</ele>
        <time>2011-07-30T12:09:08Z</time>
      </trkpt>
      <trkpt lat="45.49126" lon="6.72954">
        <ele>2554.7</ele>
        <time>2011-07-30T12:09:18Z</time>
      </trkpt>
      <trkpt lat="45.49126" lon="6.72968">
        <ele>2555.4</ele>
        <time>2011-07-30T12:09:27Z</time>
      </trkpt>
      <trkpt lat="45.49124" lon="6.72981">
        <ele>2556</ele>
        <time>2011-07-30T12:09:33Z</time>
      </trkpt>
      <trkpt lat="45.49127" lon="6.72994">
        <ele>2556.6</ele>
        <time>2011-07-30T12:09:45Z</time>
      </trkpt>
      <trkpt lat="45.49133" lon="6.73003">
        <ele>2558.5</ele>
        <time>2011-07-30T12:09:52Z</time>
      </trkpt>
      <trkpt lat="45.49141" lon="6.73013">
        <ele>2560.5</ele>
        <time>2011-07-30T12:09:58Z</time>
      </trkpt>
      <trkpt lat="45.49149" lon="6.73021">
        <ele>2562.5</ele>
        <time>2011-07-30T12:10:04Z</time>
      </trkpt>
      <trkpt lat="45.49153" lon="6.73033">
        <ele>2563.2</ele>
        <time>2011-07-30T12:10:13Z</time>
      </trkpt>
      <trkpt lat="45.49156" lon="6.73046">
        <ele>2563.9</ele>
        <time>2011-07-30T12:10:23Z</time>
      </trkpt>
      <trkpt lat="45.49154" lon="6.73058">
        <ele>2564.6</ele>
        <time>2011-07-30T12:10:31Z</time>
      </trkpt>
      <trkpt lat="45.49153" lon="6.73072">
        <ele>2565.9</ele>
        <time>2011-07-30T12:10:38Z</time>
      </trkpt>
      <trkpt lat="45.4915" lon="6.73086">
        <ele>2568.7</ele>
        <time>2011-07-30T12:10:47Z</time>
      </trkpt>
      <trkpt lat="45.49148" lon="6.73099">
        <ele>2571.5</ele>
        <time>2011-07-30T12:10:55Z</time>
      </trkpt>
      <trkpt lat="45.49152" lon="6.73111">
        <ele>2574.4</ele>
        <time>2011-07-30T12:11:06Z</time>
      </trkpt>
      <trkpt lat="45.49159" lon="6.73121">
        <ele>2577.2</ele>
        <time>2011-07-30T12:11:15Z</time>
      </trkpt>
      <trkpt lat="45.49167" lon="6.73131">
        <ele>2578.7</ele>
        <time>2011-07-30T12:11:25Z</time>
      </trkpt>
      <trkpt lat="45.49174" lon="6.73139">
        <ele>2580.4</ele>
        <time>2011-07-30T12:11:34Z</time>
      </trkpt>
      <trkpt lat="45.49182" lon="6.73145">
        <ele>2582</ele>
        <time>2011-07-30T12:11:44Z</time>
      </trkpt>
      <trkpt lat="45.49191" lon="6.7315">
        <ele>2583.6</ele>
        <time>2011-07-30T12:11:54Z</time>
      </trkpt>
      <trkpt lat="45.49199" lon="6.73156">
        <ele>2585.3</ele>
        <time>2011-07-30T12:12:02Z</time>
      </trkpt>
      <trkpt lat="45.49209" lon="6.73158">
        <ele>2586.9</ele>
        <time>2011-07-30T12:12:11Z</time>
      </trkpt>
      <trkpt lat="45.49218" lon="6.73163">
        <ele>2588.5</ele>
        <time>2011-07-30T12:12:21Z</time>
      </trkpt>
      <trkpt lat="45.49227" lon="6.73162">
        <ele>2588.6</ele>
        <time>2011-07-30T12:12:29Z</time>
      </trkpt>
      <trkpt lat="45.49236" lon="6.73159">
        <ele>2588.7</ele>
        <time>2011-07-30T12:12:38Z</time>
      </trkpt>
      <trkpt lat="45.49245" lon="6.73159">
        <ele>2589.5</ele>
        <time>2011-07-30T12:12:47Z</time>
      </trkpt>
      <trkpt lat="45.49256" lon="6.7316">
        <ele>2590.2</ele>
        <time>2011-07-30T12:12:54Z</time>
      </trkpt>
      <trkpt lat="45.49265" lon="6.73162">
        <ele>2590.9</ele>
        <time>2011-07-30T12:13:03Z</time>
      </trkpt>
      <trkpt lat="45.49274" lon="6.73161">
        <ele>2591.5</ele>
        <time>2011-07-30T12:13:10Z</time>
      </trkpt>
      <trkpt lat="45.49284" lon="6.73162">
        <ele>2592.2</ele>
        <time>2011-07-30T12:13:18Z</time>
      </trkpt>
      <trkpt lat="45.49293" lon="6.73161">
        <ele>2592.8</ele>
        <time>2011-07-30T12:13:23Z</time>
      </trkpt>
      <trkpt lat="45.49302" lon="6.73159">
        <ele>2593.5</ele>
        <time>2011-07-30T12:13:31Z</time>
      </trkpt>
      <trkpt lat="45.49311" lon="6.73155">
        <ele>2594.1</ele>
        <time>2011-07-30T12:13:38Z</time>
      </trkpt>
      <trkpt lat="45.4932" lon="6.73155">
        <ele>2594.7</ele>
        <time>2011-07-30T12:13:47Z</time>
      </trkpt>
      <trkpt lat="45.4933" lon="6.73155">
        <ele>2595.7</ele>
        <time>2011-07-30T12:13:55Z</time>
      </trkpt>
      <trkpt lat="45.49339" lon="6.73155">
        <ele>2596.7</ele>
        <time>2011-07-30T12:14:05Z</time>
      </trkpt>
      <trkpt lat="45.49349" lon="6.73157">
        <ele>2597.1</ele>
        <time>2011-07-30T12:14:13Z</time>
      </trkpt>
      <trkpt lat="45.49359" lon="6.73158">
        <ele>2597.5</ele>
        <time>2011-07-30T12:14:23Z</time>
      </trkpt>
      <trkpt lat="45.49368" lon="6.73158">
        <ele>2597.8</ele>
        <time>2011-07-30T12:14:31Z</time>
      </trkpt>
      <trkpt lat="45.49378" lon="6.73157">
        <ele>2598.2</ele>
        <time>2011-07-30T12:14:38Z</time>
      </trkpt>
      <trkpt lat="45.49387" lon="6.73158">
        <ele>2598.5</ele>
        <time>2011-07-30T12:14:46Z</time>
      </trkpt>
      <trkpt lat="45.49396" lon="6.7316">
        <ele>2598.9</ele>
        <time>2011-07-30T12:14:56Z</time>
      </trkpt>
      <trkpt lat="45.49405" lon="6.7316">
        <ele>2599.3</ele>
        <time>2011-07-30T12:15:05Z</time>
      </trkpt>
      <trkpt lat="45.49413" lon="6.73167">
        <ele>2599.6</ele>
        <time>2011-07-30T12:15:14Z</time>
      </trkpt>
      <trkpt lat="45.4942" lon="6.73176">
        <ele>2600.3</ele>
        <time>2011-07-30T12:15:24Z</time>
      </trkpt>
      <trkpt lat="45.49428" lon="6.73182">
        <ele>2600.5</ele>
        <time>2011-07-30T12:15:32Z</time>
      </trkpt>
      <trkpt lat="45.49437" lon="6.73188">
        <ele>2600.8</ele>
        <time>2011-07-30T12:15:41Z</time>
      </trkpt>
      <trkpt lat="45.49446" lon="6.73193">
        <ele>2601.1</ele>
        <time>2011-07-30T12:15:49Z</time>
      </trkpt>
      <trkpt lat="45.49455" lon="6.73199">
        <ele>2601.4</ele>
        <time>2011-07-30T12:16:00Z</time>
      </trkpt>
      <trkpt lat="45.49464" lon="6.73203">
        <ele>2601.6</ele>
        <time>2011-07-30T12:16:08Z</time>
      </trkpt>
      <trkpt lat="45.49474" lon="6.73203">
        <ele>2601.9</ele>
        <time>2011-07-30T12:16:17Z</time>
      </trkpt>
      <trkpt lat="45.49483" lon="6.73203">
        <ele>2602.2</ele>
        <time>2011-07-30T12:16:26Z</time>
      </trkpt>
      <trkpt lat="45.49492" lon="6.73205">
        <ele>2605.3</ele>
        <time>2011-07-30T12:16:34Z</time>
      </trkpt>
      <trkpt lat="45.49501" lon="6.7321">
        <ele>2608.4</ele>
        <time>2011-07-30T12:16:44Z</time>
      </trkpt>
      <trkpt lat="45.4951" lon="6.73211">
        <ele>2611.2</ele>
        <time>2011-07-30T12:16:53Z</time>
      </trkpt>
      <trkpt lat="45.49519" lon="6.73211">
        <ele>2613.7</ele>
        <time>2011-07-30T12:17:03Z</time>
      </trkpt>
      <trkpt lat="45.49528" lon="6.73212">
        <ele>2616.3</ele>
        <time>2011-07-30T12:17:12Z</time>
      </trkpt>
      <trkpt lat="45.49537" lon="6.73215">
        <ele>2618.8</ele>
        <time>2011-07-30T12:17:22Z</time>
      </trkpt>
      <trkpt lat="45.49546" lon="6.73219">
        <ele>2621.4</ele>
        <time>2011-07-30T12:17:32Z</time>
      </trkpt>
      <trkpt lat="45.49555" lon="6.73223">
        <ele>2623.9</ele>
        <time>2011-07-30T12:17:41Z</time>
      </trkpt>
      <trkpt lat="45.49564" lon="6.73228">
        <ele>2626.5</ele>
        <time>2011-07-30T12:17:49Z</time>
      </trkpt>
      <trkpt lat="45.49574" lon="6.7323">
        <ele>2629</ele>
        <time>2011-07-30T12:17:59Z</time>
      </trkpt>
      <trkpt lat="45.49583" lon="6.73233">
        <ele>2631.5</ele>
        <time>2011-07-30T12:18:07Z</time>
      </trkpt>
      <trkpt lat="45.49592" lon="6.73235">
        <ele>2632.4</ele>
        <time>2011-07-30T12:18:17Z</time>
      </trkpt>
      <trkpt lat="45.49602" lon="6.73239">
        <ele>2632.1</ele>
        <time>2011-07-30T12:18:25Z</time>
      </trkpt>
      <trkpt lat="45.4961" lon="6.73247">
        <ele>2632.1</ele>
        <time>2011-07-30T12:18:32Z</time>
      </trkpt>
      <trkpt lat="45.49618" lon="6.73253">
        <ele>2632.1</ele>
        <time>2011-07-30T12:18:41Z</time>
      </trkpt>
      <trkpt lat="45.49627" lon="6.73258">
        <ele>2632.1</ele>
        <time>2011-07-30T12:18:49Z</time>
      </trkpt>
      <trkpt lat="45.4963" lon="6.73271">
        <ele>2632.1</ele>
        <time>2011-07-30T12:19:02Z</time>
      </trkpt>
      <trkpt lat="45.49621" lon="6.73278">
        <ele>2632.1</ele>
        <time>2011-07-30T12:19:14Z</time>
      </trkpt>
      <trkpt lat="45.49611" lon="6.73279">
        <ele>2632.1</ele>
        <time>2011-07-30T12:19:21Z</time>
      </trkpt>
      <trkpt lat="45.49601" lon="6.73276">
        <ele>2632.1</ele>
        <time>2011-07-30T12:19:31Z</time>
      </trkpt>
      <trkpt lat="45.49592" lon="6.73274">
        <ele>2632.4</ele>
        <time>2011-07-30T12:19:40Z</time>
      </trkpt>
      <trkpt lat="45.49582" lon="6.7327">
        <ele>2632.6</ele>
        <time>2011-07-30T12:19:50Z</time>
      </trkpt>
      <trkpt lat="45.49573" lon="6.73268">
        <ele>2631.8</ele>
        <time>2011-07-30T12:19:58Z</time>
      </trkpt>
      <trkpt lat="45.49563" lon="6.7327">
        <ele>2632.1</ele>
        <time>2011-07-30T12:20:08Z</time>
      </trkpt>
      <trkpt lat="45.49554" lon="6.73271">
        <ele>2632.4</ele>
        <time>2011-07-30T12:20:17Z</time>
      </trkpt>
      <trkpt lat="45.49544" lon="6.73273">
        <ele>2632.6</ele>
        <time>2011-07-30T12:20:25Z</time>
      </trkpt>
      <trkpt lat="45.49534" lon="6.73276">
        <ele>2632.9</ele>
        <time>2011-07-30T12:20:34Z</time>
      </trkpt>
      <trkpt lat="45.49525" lon="6.73279">
        <ele>2633.2</ele>
        <time>2011-07-30T12:20:43Z</time>
      </trkpt>
      <trkpt lat="45.49516" lon="6.73282">
        <ele>2636.6</ele>
        <time>2011-07-30T12:20:52Z</time>
      </trkpt>
      <trkpt lat="45.49507" lon="6.73284">
        <ele>2640.4</ele>
        <time>2011-07-30T12:21:03Z</time>
      </trkpt>
      <trkpt lat="45.49498" lon="6.73287">
        <ele>2644.1</ele>
        <time>2011-07-30T12:21:11Z</time>
      </trkpt>
      <trkpt lat="45.49489" lon="6.7329">
        <ele>2647.5</ele>
        <time>2011-07-30T12:21:21Z</time>
      </trkpt>
      <trkpt lat="45.4948" lon="6.73293">
        <ele>2651</ele>
        <time>2011-07-30T12:21:30Z</time>
      </trkpt>
      <trkpt lat="45.49471" lon="6.73297">
        <ele>2654.5</ele>
        <time>2011-07-30T12:21:40Z</time>
      </trkpt>
      <trkpt lat="45.49463" lon="6.73302">
        <ele>2657.9</ele>
        <time>2011-07-30T12:21:50Z</time>
      </trkpt>
      <trkpt lat="45.49454" lon="6.73309">
        <ele>2661.4</ele>
        <time>2011-07-30T12:22:00Z</time>
      </trkpt>
      <trkpt lat="45.49446" lon="6.73315">
        <ele>2664.8</ele>
        <time>2011-07-30T12:22:10Z</time>
      </trkpt>
      <trkpt lat="45.49437" lon="6.73321">
        <ele>2668.3</ele>
        <time>2011-07-30T12:22:19Z</time>
      </trkpt>
      <trkpt lat="45.49429" lon="6.73325">
        <ele>2671.7</ele>
        <time>2011-07-30T12:22:27Z</time>
      </trkpt>
      <trkpt lat="45.49419" lon="6.73325">
        <ele>2671.5</ele>
        <time>2011-07-30T12:22:36Z</time>
      </trkpt>
      <trkpt lat="45.49409" lon="6.73328">
        <ele>2670.9</ele>
        <time>2011-07-30T12:22:44Z</time>
      </trkpt>
      <trkpt lat="45.49398" lon="6.73329">
        <ele>2670.4</ele>
        <time>2011-07-30T12:22:53Z</time>
      </trkpt>
      <trkpt lat="45.49388" lon="6.73329">
        <ele>2669.8</ele>
        <time>2011-07-30T12:22:59Z</time>
      </trkpt>
      <trkpt lat="45.49379" lon="6.73331">
        <ele>2669.3</ele>
        <time>2011-07-30T12:23:08Z</time>
      </trkpt>
      <trkpt lat="45.49371" lon="6.73335">
        <ele>2668.7</ele>
        <time>2011-07-30T12:23:18Z</time>
      </trkpt>
      <trkpt lat="45.49361" lon="6.73338">
        <ele>2668.2</ele>
        <time>2011-07-30T12:23:27Z</time>
      </trkpt>
      <trkpt lat="45.49352" lon="6.73344">
        <ele>2667.6</ele>
        <time>2011-07-30T12:23:37Z</time>
      </trkpt>
      <trkpt lat="45.49343" lon="6.73347">
        <ele>2667.1</ele>
        <time>2011-07-30T12:23:45Z</time>
      </trkpt>
      <trkpt lat="45.49334" lon="6.73351">
        <ele>2668.5</ele>
        <time>2011-07-30T12:23:55Z</time>
      </trkpt>
      <trkpt lat="45.49326" lon="6.73357">
        <ele>2670</ele>
        <time>2011-07-30T12:24:07Z</time>
      </trkpt>
      <trkpt lat="45.49317" lon="6.73364">
        <ele>2672</ele>
        <time>2011-07-30T12:24:18Z</time>
      </trkpt>
      <trkpt lat="45.49308" lon="6.73367">
        <ele>2674</ele>
        <time>2011-07-30T12:24:27Z</time>
      </trkpt>
      <trkpt lat="45.49299" lon="6.73372">
        <ele>2676</ele>
        <time>2011-07-30T12:24:36Z</time>
      </trkpt>
      <trkpt lat="45.49291" lon="6.7338">
        <ele>2678</ele>
        <time>2011-07-30T12:24:47Z</time>
      </trkpt>
      <trkpt lat="45.49282" lon="6.73386">
        <ele>2680</ele>
        <time>2011-07-30T12:24:57Z</time>
      </trkpt>
      <trkpt lat="45.49273" lon="6.73391">
        <ele>2682</ele>
        <time>2011-07-30T12:25:06Z</time>
      </trkpt>
      <trkpt lat="45.49263" lon="6.73396">
        <ele>2684</ele>
        <time>2011-07-30T12:25:16Z</time>
      </trkpt>
      <trkpt lat="45.49255" lon="6.73401">
        <ele>2686</ele>
        <time>2011-07-30T12:25:25Z</time>
      </trkpt>
      <trkpt lat="45.49245" lon="6.73406">
        <ele>2688</ele>
        <time>2011-07-30T12:25:37Z</time>
      </trkpt>
      <trkpt lat="45.49237" lon="6.73412">
        <ele>2688.5</ele>
        <time>2011-07-30T12:25:46Z</time>
      </trkpt>
      <trkpt lat="45.49233" lon="6.73424">
        <ele>2688.9</ele>
        <time>2011-07-30T12:25:54Z</time>
      </trkpt>
      <trkpt lat="45.49233" lon="6.73437">
        <ele>2689.4</ele>
        <time>2011-07-30T12:26:06Z</time>
      </trkpt>
      <trkpt lat="45.49238" lon="6.73449">
        <ele>2689.8</ele>
        <time>2011-07-30T12:26:16Z</time>
      </trkpt>
      <trkpt lat="45.49245" lon="6.73459">
        <ele>2690.3</ele>
        <time>2011-07-30T12:26:31Z</time>
      </trkpt>
      <trkpt lat="45.49251" lon="6.7347">
        <ele>2690.7</ele>
        <time>2011-07-30T12:26:41Z</time>
      </trkpt>
      <trkpt lat="45.49255" lon="6.73483">
        <ele>2691.2</ele>
        <time>2011-07-30T12:26:51Z</time>
      </trkpt>
      <trkpt lat="45.49259" lon="6.73495">
        <ele>2691.6</ele>
        <time>2011-07-30T12:27:06Z</time>
      </trkpt>
      <trkpt lat="45.49261" lon="6.73507">
        <ele>2692.1</ele>
        <time>2011-07-30T12:27:17Z</time>
      </trkpt>
      <trkpt lat="45.49259" lon="6.73521">
        <ele>2692.5</ele>
        <time>2011-07-30T12:27:28Z</time>
      </trkpt>
      <trkpt lat="45.4925" lon="6.7352">
        <ele>2693</ele>
        <time>2011-07-30T12:27:39Z</time>
      </trkpt>
      <trkpt lat="45.49244" lon="6.73509">
        <ele>2692.5</ele>
        <time>2011-07-30T12:27:58Z</time>
      </trkpt>
      <trkpt lat="45.4924" lon="6.73496">
        <ele>2690.5</ele>
        <time>2011-07-30T12:28:02Z</time>
      </trkpt>
      <trkpt lat="45.49234" lon="6.73484">
        <ele>2688.4</ele>
        <time>2011-07-30T12:28:07Z</time>
      </trkpt>
      <trkpt lat="45.49227" lon="6.73474">
        <ele>2686.3</ele>
        <time>2011-07-30T12:28:11Z</time>
      </trkpt>
      <trkpt lat="45.49221" lon="6.73465">
        <ele>2684.2</ele>
        <time>2011-07-30T12:28:16Z</time>
      </trkpt>
      <trkpt lat="45.49215" lon="6.73452">
        <ele>2682.1</ele>
        <time>2011-07-30T12:28:19Z</time>
      </trkpt>
      <trkpt lat="45.4921" lon="6.73442">
        <ele>2680</ele>
        <time>2011-07-30T12:28:24Z</time>
      </trkpt>
      <trkpt lat="45.49204" lon="6.73431">
        <ele>2677.9</ele>
        <time>2011-07-30T12:28:29Z</time>
      </trkpt>
      <trkpt lat="45.49199" lon="6.73419">
        <ele>2674.9</ele>
        <time>2011-07-30T12:28:36Z</time>
      </trkpt>
      <trkpt lat="45.49193" lon="6.73408">
        <ele>2671.9</ele>
        <time>2011-07-30T12:28:43Z</time>
      </trkpt>
      <trkpt lat="45.49186" lon="6.73398">
        <ele>2668.9</ele>
        <time>2011-07-30T12:28:50Z</time>
      </trkpt>
      <trkpt lat="45.49178" lon="6.73389">
        <ele>2666.4</ele>
        <time>2011-07-30T12:28:58Z</time>
      </trkpt>
      <trkpt lat="45.4917" lon="6.7338">
        <ele>2665</ele>
        <time>2011-07-30T12:29:07Z</time>
      </trkpt>
      <trkpt lat="45.49161" lon="6.73375">
        <ele>2663.6</ele>
        <time>2011-07-30T12:29:16Z</time>
      </trkpt>
      <trkpt lat="45.49153" lon="6.73369">
        <ele>2662.3</ele>
        <time>2011-07-30T12:29:25Z</time>
      </trkpt>
      <trkpt lat="45.49145" lon="6.73361">
        <ele>2660.9</ele>
        <time>2011-07-30T12:29:31Z</time>
      </trkpt>
      <trkpt lat="45.49135" lon="6.73353">
        <ele>2659.5</ele>
        <time>2011-07-30T12:29:37Z</time>
      </trkpt>
      <trkpt lat="45.49125" lon="6.73348">
        <ele>2658.2</ele>
        <time>2011-07-30T12:29:40Z</time>
      </trkpt>
      <trkpt lat="45.49115" lon="6.73342">
        <ele>2656.8</ele>
        <time>2011-07-30T12:29:43Z</time>
      </trkpt>
      <trkpt lat="45.49106" lon="6.73338">
        <ele>2656.4</ele>
        <time>2011-07-30T12:29:46Z</time>
      </trkpt>
      <trkpt lat="45.49095" lon="6.73331">
        <ele>2654.8</ele>
        <time>2011-07-30T12:29:50Z</time>
      </trkpt>
      <trkpt lat="45.49085" lon="6.73324">
        <ele>2654.6</ele>
        <time>2011-07-30T12:29:54Z</time>
      </trkpt>
      <trkpt lat="45.49076" lon="6.73316">
        <ele>2654.5</ele>
        <time>2011-07-30T12:29:57Z</time>
      </trkpt>
      <trkpt lat="45.49068" lon="6.73308">
        <ele>2654.7</ele>
        <time>2011-07-30T12:30:01Z</time>
      </trkpt>
      <trkpt lat="45.49058" lon="6.73301">
        <ele>2655</ele>
        <time>2011-07-30T12:30:05Z</time>
      </trkpt>
      <trkpt lat="45.49048" lon="6.73294">
        <ele>2655.3</ele>
        <time>2011-07-30T12:30:10Z</time>
      </trkpt>
      <trkpt lat="45.49038" lon="6.73289">
        <ele>2655.5</ele>
        <time>2011-07-30T12:30:14Z</time>
      </trkpt>
      <trkpt lat="45.49029" lon="6.73283">
        <ele>2655.8</ele>
        <time>2011-07-30T12:30:18Z</time>
      </trkpt>
      <trkpt lat="45.4902" lon="6.73279">
        <ele>2656.1</ele>
        <time>2011-07-30T12:30:22Z</time>
      </trkpt>
      <trkpt lat="45.4901" lon="6.73276">
        <ele>2656.4</ele>
        <time>2011-07-30T12:30:27Z</time>
      </trkpt>
      <trkpt lat="45.49001" lon="6.73271">
        <ele>2656.6</ele>
        <time>2011-07-30T12:30:30Z</time>
      </trkpt>
      <trkpt lat="45.48991" lon="6.73268">
        <ele>2658</ele>
        <time>2011-07-30T12:30:35Z</time>
      </trkpt>
      <trkpt lat="45.48982" lon="6.73268">
        <ele>2655.5</ele>
        <time>2011-07-30T12:30:39Z</time>
      </trkpt>
      <trkpt lat="45.48972" lon="6.73265">
        <ele>2653.1</ele>
        <time>2011-07-30T12:30:43Z</time>
      </trkpt>
      <trkpt lat="45.48974" lon="6.73279">
        <ele>2650.6</ele>
        <time>2011-07-30T12:30:50Z</time>
      </trkpt>
      <trkpt lat="45.48983" lon="6.73286">
        <ele>2648.2</ele>
        <time>2011-07-30T12:30:52Z</time>
      </trkpt>
      <trkpt lat="45.48994" lon="6.73294">
        <ele>2645.7</ele>
        <time>2011-07-30T12:30:57Z</time>
      </trkpt>
      <trkpt lat="45.49004" lon="6.73302">
        <ele>2643.3</ele>
        <time>2011-07-30T12:31:00Z</time>
      </trkpt>
      <trkpt lat="45.49015" lon="6.73308">
        <ele>2640.8</ele>
        <time>2011-07-30T12:31:05Z</time>
      </trkpt>
      <trkpt lat="45.49025" lon="6.73316">
        <ele>2638.4</ele>
        <time>2011-07-30T12:31:09Z</time>
      </trkpt>
      <trkpt lat="45.49017" lon="6.73322">
        <ele>2635.9</ele>
        <time>2011-07-30T12:31:17Z</time>
      </trkpt>
      <trkpt lat="45.49006" lon="6.73317">
        <ele>2633.5</ele>
        <time>2011-07-30T12:31:20Z</time>
      </trkpt>
      <trkpt lat="45.48995" lon="6.73315">
        <ele>2631</ele>
        <time>2011-07-30T12:31:22Z</time>
      </trkpt>
      <trkpt lat="45.48985" lon="6.73312">
        <ele>2631</ele>
        <time>2011-07-30T12:31:26Z</time>
      </trkpt>
      <trkpt lat="45.48975" lon="6.7331">
        <ele>2631</ele>
        <time>2011-07-30T12:31:29Z</time>
      </trkpt>
      <trkpt lat="45.48968" lon="6.73321">
        <ele>2631</ele>
        <time>2011-07-30T12:31:33Z</time>
      </trkpt>
      <trkpt lat="45.48976" lon="6.73332">
        <ele>2631</ele>
        <time>2011-07-30T12:31:36Z</time>
      </trkpt>
      <trkpt lat="45.48986" lon="6.7334">
        <ele>2631</ele>
        <time>2011-07-30T12:31:39Z</time>
      </trkpt>
      <trkpt lat="45.48996" lon="6.73346">
        <ele>2626.2</ele>
        <time>2011-07-30T12:31:42Z</time>
      </trkpt>
      <trkpt lat="45.49005" lon="6.73353">
        <ele>2625.5</ele>
        <time>2011-07-30T12:31:45Z</time>
      </trkpt>
      <trkpt lat="45.49014" lon="6.73359">
        <ele>2624.9</ele>
        <time>2011-07-30T12:31:48Z</time>
      </trkpt>
      <trkpt lat="45.49023" lon="6.73365">
        <ele>2624.3</ele>
        <time>2011-07-30T12:31:51Z</time>
      </trkpt>
      <trkpt lat="45.49033" lon="6.73373">
        <ele>2623.6</ele>
        <time>2011-07-30T12:31:55Z</time>
      </trkpt>
      <trkpt lat="45.4904" lon="6.73383">
        <ele>2623</ele>
        <time>2011-07-30T12:31:58Z</time>
      </trkpt>
      <trkpt lat="45.49049" lon="6.7339">
        <ele>2622.4</ele>
        <time>2011-07-30T12:32:03Z</time>
      </trkpt>
      <trkpt lat="45.49059" lon="6.73397">
        <ele>2621.7</ele>
        <time>2011-07-30T12:32:08Z</time>
      </trkpt>
      <trkpt lat="45.49067" lon="6.73406">
        <ele>2621.1</ele>
        <time>2011-07-30T12:32:11Z</time>
      </trkpt>
      <trkpt lat="45.49075" lon="6.73413">
        <ele>2617.8</ele>
        <time>2011-07-30T12:32:14Z</time>
      </trkpt>
      <trkpt lat="45.49085" lon="6.73421">
        <ele>2614.5</ele>
        <time>2011-07-30T12:32:19Z</time>
      </trkpt>
      <trkpt lat="45.49093" lon="6.73433">
        <ele>2616.1</ele>
        <time>2011-07-30T12:32:23Z</time>
      </trkpt>
      <trkpt lat="45.491" lon="6.73442">
        <ele>2613.5</ele>
        <time>2011-07-30T12:32:27Z</time>
      </trkpt>
      <trkpt lat="45.49107" lon="6.73451">
        <ele>2610.8</ele>
        <time>2011-07-30T12:32:31Z</time>
      </trkpt>
      <trkpt lat="45.49113" lon="6.73462">
        <ele>2608.2</ele>
        <time>2011-07-30T12:32:38Z</time>
      </trkpt>
      <trkpt lat="45.49119" lon="6.73473">
        <ele>2610.1</ele>
        <time>2011-07-30T12:32:43Z</time>
      </trkpt>
      <trkpt lat="45.49121" lon="6.73486">
        <ele>2611</ele>
        <time>2011-07-30T12:32:47Z</time>
      </trkpt>
      <trkpt lat="45.49123" lon="6.735">
        <ele>2611.9</ele>
        <time>2011-07-30T12:32:52Z</time>
      </trkpt>
      <trkpt lat="45.49125" lon="6.73514">
        <ele>2612.8</ele>
        <time>2011-07-30T12:32:57Z</time>
      </trkpt>
      <trkpt lat="45.49128" lon="6.73527">
        <ele>2613.7</ele>
        <time>2011-07-30T12:33:01Z</time>
      </trkpt>
      <trkpt lat="45.49129" lon="6.7354">
        <ele>2617.3</ele>
        <time>2011-07-30T12:33:05Z</time>
      </trkpt>
      <trkpt lat="45.4913" lon="6.73554">
        <ele>2620.8</ele>
        <time>2011-07-30T12:33:09Z</time>
      </trkpt>
      <trkpt lat="45.49132" lon="6.73567">
        <ele>2624.3</ele>
        <time>2011-07-30T12:33:12Z</time>
      </trkpt>
      <trkpt lat="45.49134" lon="6.7358">
        <ele>2627.7</ele>
        <time>2011-07-30T12:33:17Z</time>
      </trkpt>
      <trkpt lat="45.49136" lon="6.73593">
        <ele>2631.2</ele>
        <time>2011-07-30T12:33:21Z</time>
      </trkpt>
      <trkpt lat="45.49137" lon="6.73606">
        <ele>2629.9</ele>
        <time>2011-07-30T12:33:26Z</time>
      </trkpt>
      <trkpt lat="45.49137" lon="6.73622">
        <ele>2624.1</ele>
        <time>2011-07-30T12:33:31Z</time>
      </trkpt>
      <trkpt lat="45.49136" lon="6.73635">
        <ele>2619.3</ele>
        <time>2011-07-30T12:33:35Z</time>
      </trkpt>
      <trkpt lat="45.49136" lon="6.73649">
        <ele>2614.5</ele>
        <time>2011-07-30T12:33:39Z</time>
      </trkpt>
      <trkpt lat="45.49132" lon="6.73662">
        <ele>2610.7</ele>
        <time>2011-07-30T12:33:45Z</time>
      </trkpt>
      <trkpt lat="45.49127" lon="6.73675">
        <ele>2607</ele>
        <time>2011-07-30T12:33:48Z</time>
      </trkpt>
      <trkpt lat="45.49125" lon="6.7369">
        <ele>2603.3</ele>
        <time>2011-07-30T12:33:54Z</time>
      </trkpt>
      <trkpt lat="45.49121" lon="6.73703">
        <ele>2599.5</ele>
        <time>2011-07-30T12:33:59Z</time>
      </trkpt>
      <trkpt lat="45.49116" lon="6.73717">
        <ele>2595.9</ele>
        <time>2011-07-30T12:34:03Z</time>
      </trkpt>
      <trkpt lat="45.49111" lon="6.73728">
        <ele>2592.3</ele>
        <time>2011-07-30T12:34:07Z</time>
      </trkpt>
      <trkpt lat="45.49103" lon="6.73737">
        <ele>2588.6</ele>
        <time>2011-07-30T12:34:13Z</time>
      </trkpt>
      <trkpt lat="45.49094" lon="6.73744">
        <ele>2589.7</ele>
        <time>2011-07-30T12:34:17Z</time>
      </trkpt>
      <trkpt lat="45.49085" lon="6.73752">
        <ele>2588.8</ele>
        <time>2011-07-30T12:34:23Z</time>
      </trkpt>
      <trkpt lat="45.49078" lon="6.73762">
        <ele>2587.9</ele>
        <time>2011-07-30T12:34:27Z</time>
      </trkpt>
      <trkpt lat="45.49069" lon="6.73772">
        <ele>2587</ele>
        <time>2011-07-30T12:34:33Z</time>
      </trkpt>
      <trkpt lat="45.4906" lon="6.7378">
        <ele>2587</ele>
        <time>2011-07-30T12:34:38Z</time>
      </trkpt>
      <trkpt lat="45.49052" lon="6.73788">
        <ele>2587</ele>
        <time>2011-07-30T12:34:43Z</time>
      </trkpt>
      <trkpt lat="45.49042" lon="6.73794">
        <ele>2587</ele>
        <time>2011-07-30T12:34:48Z</time>
      </trkpt>
      <trkpt lat="45.49032" lon="6.73797">
        <ele>2587</ele>
        <time>2011-07-30T12:34:53Z</time>
      </trkpt>
      <trkpt lat="45.49023" lon="6.73803">
        <ele>2587</ele>
        <time>2011-07-30T12:34:58Z</time>
      </trkpt>
      <trkpt lat="45.49015" lon="6.73811">
        <ele>2587</ele>
        <time>2011-07-30T12:35:03Z</time>
      </trkpt>
      <trkpt lat="45.49007" lon="6.7382">
        <ele>2584.4</ele>
        <time>2011-07-30T12:35:09Z</time>
      </trkpt>
      <trkpt lat="45.48996" lon="6.73822">
        <ele>2581.7</ele>
        <time>2011-07-30T12:35:15Z</time>
      </trkpt>
      <trkpt lat="45.48985" lon="6.73821">
        <ele>2581.1</ele>
        <time>2011-07-30T12:35:20Z</time>
      </trkpt>
      <trkpt lat="45.48976" lon="6.73818">
        <ele>2580.5</ele>
        <time>2011-07-30T12:35:23Z</time>
      </trkpt>
      <trkpt lat="45.48966" lon="6.73814">
        <ele>2579.8</ele>
        <time>2011-07-30T12:35:28Z</time>
      </trkpt>
      <trkpt lat="45.48956" lon="6.73809">
        <ele>2577.2</ele>
        <time>2011-07-30T12:35:31Z</time>
      </trkpt>
      <trkpt lat="45.48946" lon="6.73807">
        <ele>2574.5</ele>
        <time>2011-07-30T12:35:36Z</time>
      </trkpt>
      <trkpt lat="45.48936" lon="6.73811">
        <ele>2571.9</ele>
        <time>2011-07-30T12:35:40Z</time>
      </trkpt>
      <trkpt lat="45.48928" lon="6.73819">
        <ele>2569.3</ele>
        <time>2011-07-30T12:35:44Z</time>
      </trkpt>
      <trkpt lat="45.48921" lon="6.73828">
        <ele>2566.7</ele>
        <time>2011-07-30T12:35:48Z</time>
      </trkpt>
      <trkpt lat="45.48916" lon="6.73839">
        <ele>2564.2</ele>
        <time>2011-07-30T12:35:51Z</time>
      </trkpt>
      <trkpt lat="45.48915" lon="6.73852">
        <ele>2564.3</ele>
        <time>2011-07-30T12:35:55Z</time>
      </trkpt>
      <trkpt lat="45.48917" lon="6.73866">
        <ele>2564.4</ele>
        <time>2011-07-30T12:35:59Z</time>
      </trkpt>
      <trkpt lat="45.48917" lon="6.7388">
        <ele>2564.5</ele>
        <time>2011-07-30T12:36:04Z</time>
      </trkpt>
      <trkpt lat="45.48916" lon="6.73893">
        <ele>2564.5</ele>
        <time>2011-07-30T12:36:07Z</time>
      </trkpt>
      <trkpt lat="45.48913" lon="6.73907">
        <ele>2564.7</ele>
        <time>2011-07-30T12:36:12Z</time>
      </trkpt>
      <trkpt lat="45.48912" lon="6.73922">
        <ele>2564.9</ele>
        <time>2011-07-30T12:36:17Z</time>
      </trkpt>
      <trkpt lat="45.48911" lon="6.73935">
        <ele>2565.1</ele>
        <time>2011-07-30T12:36:21Z</time>
      </trkpt>
      <trkpt lat="45.48909" lon="6.73948">
        <ele>2565.3</ele>
        <time>2011-07-30T12:36:25Z</time>
      </trkpt>
      <trkpt lat="45.48908" lon="6.73962">
        <ele>2565.5</ele>
        <time>2011-07-30T12:36:29Z</time>
      </trkpt>
      <trkpt lat="45.48905" lon="6.73976">
        <ele>2565.5</ele>
        <time>2011-07-30T12:36:34Z</time>
      </trkpt>
      <trkpt lat="45.48904" lon="6.7399">
        <ele>2565</ele>
        <time>2011-07-30T12:36:39Z</time>
      </trkpt>
      <trkpt lat="45.48904" lon="6.74003">
        <ele>2564.5</ele>
        <time>2011-07-30T12:36:43Z</time>
      </trkpt>
      <trkpt lat="45.48902" lon="6.74016">
        <ele>2561.4</ele>
        <time>2011-07-30T12:36:47Z</time>
      </trkpt>
      <trkpt lat="45.48899" lon="6.74031">
        <ele>2558.3</ele>
        <time>2011-07-30T12:36:52Z</time>
      </trkpt>
      <trkpt lat="45.48894" lon="6.74043">
        <ele>2555.2</ele>
        <time>2011-07-30T12:36:57Z</time>
      </trkpt>
      <trkpt lat="45.48887" lon="6.74053">
        <ele>2552</ele>
        <time>2011-07-30T12:37:02Z</time>
      </trkpt>
      <trkpt lat="45.4888" lon="6.74064">
        <ele>2548.8</ele>
        <time>2011-07-30T12:37:06Z</time>
      </trkpt>
      <trkpt lat="45.48872" lon="6.74074">
        <ele>2545.6</ele>
        <time>2011-07-30T12:37:11Z</time>
      </trkpt>
      <trkpt lat="45.48864" lon="6.74079">
        <ele>2542.5</ele>
        <time>2011-07-30T12:37:15Z</time>
      </trkpt>
      <trkpt lat="45.48855" lon="6.74085">
        <ele>2539.3</ele>
        <time>2011-07-30T12:37:19Z</time>
      </trkpt>
      <trkpt lat="45.48846" lon="6.74092">
        <ele>2536.1</ele>
        <time>2011-07-30T12:37:23Z</time>
      </trkpt>
      <trkpt lat="45.48836" lon="6.74098">
        <ele>2531.5</ele>
        <time>2011-07-30T12:37:26Z</time>
      </trkpt>
      <trkpt lat="45.48827" lon="6.74102">
        <ele>2526.8</ele>
        <time>2011-07-30T12:37:31Z</time>
      </trkpt>
      <trkpt lat="45.48817" lon="6.74105">
        <ele>2526.7</ele>
        <time>2011-07-30T12:37:34Z</time>
      </trkpt>
      <trkpt lat="45.48807" lon="6.74107">
        <ele>2526.6</ele>
        <time>2011-07-30T12:37:39Z</time>
      </trkpt>
      <trkpt lat="45.48796" lon="6.74109">
        <ele>2526.5</ele>
        <time>2011-07-30T12:37:43Z</time>
      </trkpt>
      <trkpt lat="45.48787" lon="6.74114">
        <ele>2526.5</ele>
        <time>2011-07-30T12:37:47Z</time>
      </trkpt>
      <trkpt lat="45.4878" lon="6.74124">
        <ele>2526.4</ele>
        <time>2011-07-30T12:37:51Z</time>
      </trkpt>
      <trkpt lat="45.48773" lon="6.74133">
        <ele>2526.3</ele>
        <time>2011-07-30T12:37:54Z</time>
      </trkpt>
      <trkpt lat="45.48765" lon="6.74144">
        <ele>2526.2</ele>
        <time>2011-07-30T12:38:00Z</time>
      </trkpt>
      <trkpt lat="45.48758" lon="6.74154">
        <ele>2526.1</ele>
        <time>2011-07-30T12:38:05Z</time>
      </trkpt>
      <trkpt lat="45.48749" lon="6.7416">
        <ele>2523.6</ele>
        <time>2011-07-30T12:38:10Z</time>
      </trkpt>
      <trkpt lat="45.4874" lon="6.74166">
        <ele>2523.3</ele>
        <time>2011-07-30T12:38:14Z</time>
      </trkpt>
      <trkpt lat="45.48732" lon="6.74172">
        <ele>2522.9</ele>
        <time>2011-07-30T12:38:18Z</time>
      </trkpt>
      <trkpt lat="45.48722" lon="6.7418">
        <ele>2520.5</ele>
        <time>2011-07-30T12:38:22Z</time>
      </trkpt>
      <trkpt lat="45.48715" lon="6.7419">
        <ele>2519.6</ele>
        <time>2011-07-30T12:38:28Z</time>
      </trkpt>
      <trkpt lat="45.48706" lon="6.74198">
        <ele>2518.7</ele>
        <time>2011-07-30T12:38:32Z</time>
      </trkpt>
      <trkpt lat="45.48697" lon="6.74203">
        <ele>2517.8</ele>
        <time>2011-07-30T12:38:36Z</time>
      </trkpt>
      <trkpt lat="45.48688" lon="6.74207">
        <ele>2516.9</ele>
        <time>2011-07-30T12:38:40Z</time>
      </trkpt>
      <trkpt lat="45.48679" lon="6.74212">
        <ele>2516</ele>
        <time>2011-07-30T12:38:45Z</time>
      </trkpt>
      <trkpt lat="45.48671" lon="6.74218">
        <ele>2513.5</ele>
        <time>2011-07-30T12:38:49Z</time>
      </trkpt>
      <trkpt lat="45.48661" lon="6.74227">
        <ele>2510.9</ele>
        <time>2011-07-30T12:38:54Z</time>
      </trkpt>
      <trkpt lat="45.48654" lon="6.74235">
        <ele>2510.7</ele>
        <time>2011-07-30T12:38:58Z</time>
      </trkpt>
      <trkpt lat="45.48644" lon="6.74242">
        <ele>2510.5</ele>
        <time>2011-07-30T12:39:03Z</time>
      </trkpt>
      <trkpt lat="45.48634" lon="6.74249">
        <ele>2510.4</ele>
        <time>2011-07-30T12:39:07Z</time>
      </trkpt>
      <trkpt lat="45.48625" lon="6.74254">
        <ele>2510.2</ele>
        <time>2011-07-30T12:39:12Z</time>
      </trkpt>
      <trkpt lat="45.48616" lon="6.74258">
        <ele>2507.3</ele>
        <time>2011-07-30T12:39:17Z</time>
      </trkpt>
      <trkpt lat="45.48604" lon="6.74261">
        <ele>2504.4</ele>
        <time>2011-07-30T12:39:22Z</time>
      </trkpt>
      <trkpt lat="45.48595" lon="6.74266">
        <ele>2501.5</ele>
        <time>2011-07-30T12:39:26Z</time>
      </trkpt>
      <trkpt lat="45.48588" lon="6.74275">
        <ele>2498.5</ele>
        <time>2011-07-30T12:39:30Z</time>
      </trkpt>
      <trkpt lat="45.48589" lon="6.7429">
        <ele>2496.5</ele>
        <time>2011-07-30T12:39:35Z</time>
      </trkpt>
      <trkpt lat="45.48594" lon="6.74301">
        <ele>2496</ele>
        <time>2011-07-30T12:39:40Z</time>
      </trkpt>
      <trkpt lat="45.48603" lon="6.74305">
        <ele>2495.5</ele>
        <time>2011-07-30T12:39:45Z</time>
      </trkpt>
      <trkpt lat="45.48613" lon="6.74309">
        <ele>2495.1</ele>
        <time>2011-07-30T12:39:50Z</time>
      </trkpt>
      <trkpt lat="45.48624" lon="6.74315">
        <ele>2494.6</ele>
        <time>2011-07-30T12:39:55Z</time>
      </trkpt>
      <trkpt lat="45.48635" lon="6.74321">
        <ele>2494.2</ele>
        <time>2011-07-30T12:39:59Z</time>
      </trkpt>
      <trkpt lat="45.48645" lon="6.74324">
        <ele>2493.7</ele>
        <time>2011-07-30T12:40:03Z</time>
      </trkpt>
      <trkpt lat="45.48656" lon="6.74326">
        <ele>2494.5</ele>
        <time>2011-07-30T12:40:06Z</time>
      </trkpt>
      <trkpt lat="45.48667" lon="6.74328">
        <ele>2495.4</ele>
        <time>2011-07-30T12:40:11Z</time>
      </trkpt>
      <trkpt lat="45.48677" lon="6.7433">
        <ele>2496.2</ele>
        <time>2011-07-30T12:40:15Z</time>
      </trkpt>
      <trkpt lat="45.48687" lon="6.74332">
        <ele>2497</ele>
        <time>2011-07-30T12:40:19Z</time>
      </trkpt>
      <trkpt lat="45.48697" lon="6.74333">
        <ele>2497</ele>
        <time>2011-07-30T12:40:23Z</time>
      </trkpt>
      <trkpt lat="45.48707" lon="6.74331">
        <ele>2497</ele>
        <time>2011-07-30T12:40:26Z</time>
      </trkpt>
      <trkpt lat="45.48716" lon="6.74329">
        <ele>2497</ele>
        <time>2011-07-30T12:40:31Z</time>
      </trkpt>
      <trkpt lat="45.48725" lon="6.74325">
        <ele>2497</ele>
        <time>2011-07-30T12:40:35Z</time>
      </trkpt>
      <trkpt lat="45.48733" lon="6.7432">
        <ele>2497</ele>
        <time>2011-07-30T12:40:39Z</time>
      </trkpt>
      <trkpt lat="45.48742" lon="6.74314">
        <ele>2498.8</ele>
        <time>2011-07-30T12:40:43Z</time>
      </trkpt>
      <trkpt lat="45.48753" lon="6.74312">
        <ele>2499.8</ele>
        <time>2011-07-30T12:40:47Z</time>
      </trkpt>
      <trkpt lat="45.48763" lon="6.74312">
        <ele>2500.8</ele>
        <time>2011-07-30T12:40:51Z</time>
      </trkpt>
      <trkpt lat="45.48772" lon="6.74308">
        <ele>2501.8</ele>
        <time>2011-07-30T12:40:54Z</time>
      </trkpt>
      <trkpt lat="45.48778" lon="6.74298">
        <ele>2502.8</ele>
        <time>2011-07-30T12:40:58Z</time>
      </trkpt>
      <trkpt lat="45.48786" lon="6.74287">
        <ele>2503.8</ele>
        <time>2011-07-30T12:41:02Z</time>
      </trkpt>
      <trkpt lat="45.48794" lon="6.74281">
        <ele>2504.8</ele>
        <time>2011-07-30T12:41:06Z</time>
      </trkpt>
      <trkpt lat="45.48805" lon="6.74277">
        <ele>2505.8</ele>
        <time>2011-07-30T12:41:10Z</time>
      </trkpt>
      <trkpt lat="45.48815" lon="6.74275">
        <ele>2506.8</ele>
        <time>2011-07-30T12:41:16Z</time>
      </trkpt>
      <trkpt lat="45.48824" lon="6.74272">
        <ele>2507.8</ele>
        <time>2011-07-30T12:41:21Z</time>
      </trkpt>
      <trkpt lat="45.48833" lon="6.74265">
        <ele>2508.6</ele>
        <time>2011-07-30T12:41:26Z</time>
      </trkpt>
      <trkpt lat="45.48843" lon="6.74262">
        <ele>2507.6</ele>
        <time>2011-07-30T12:41:31Z</time>
      </trkpt>
      <trkpt lat="45.48854" lon="6.74267">
        <ele>2506.8</ele>
        <time>2011-07-30T12:41:36Z</time>
      </trkpt>
      <trkpt lat="45.48864" lon="6.74271">
        <ele>2506</ele>
        <time>2011-07-30T12:41:40Z</time>
      </trkpt>
      <trkpt lat="45.48874" lon="6.74273">
        <ele>2505.2</ele>
        <time>2011-07-30T12:41:46Z</time>
      </trkpt>
      <trkpt lat="45.48884" lon="6.74275">
        <ele>2504.4</ele>
        <time>2011-07-30T12:41:51Z</time>
      </trkpt>
      <trkpt lat="45.4889" lon="6.74285">
        <ele>2503.5</ele>
        <time>2011-07-30T12:41:56Z</time>
      </trkpt>
      <trkpt lat="45.4889" lon="6.743">
        <ele>2502.7</ele>
        <time>2011-07-30T12:42:01Z</time>
      </trkpt>
      <trkpt lat="45.48886" lon="6.74315">
        <ele>2501.9</ele>
        <time>2011-07-30T12:42:04Z</time>
      </trkpt>
      <trkpt lat="45.48882" lon="6.74328">
        <ele>2501.1</ele>
        <time>2011-07-30T12:42:09Z</time>
      </trkpt>
      <trkpt lat="45.48889" lon="6.74338">
        <ele>2500.3</ele>
        <time>2011-07-30T12:42:15Z</time>
      </trkpt>
      <trkpt lat="45.48899" lon="6.74342">
        <ele>2499.6</ele>
        <time>2011-07-30T12:42:20Z</time>
      </trkpt>
      <trkpt lat="45.48908" lon="6.74344">
        <ele>2499</ele>
        <time>2011-07-30T12:42:25Z</time>
      </trkpt>
      <trkpt lat="45.48917" lon="6.74348">
        <ele>2499</ele>
        <time>2011-07-30T12:42:30Z</time>
      </trkpt>
      <trkpt lat="45.48927" lon="6.7435">
        <ele>2498.2</ele>
        <time>2011-07-30T12:42:35Z</time>
      </trkpt>
      <trkpt lat="45.48937" lon="6.74349">
        <ele>2498.3</ele>
        <time>2011-07-30T12:42:39Z</time>
      </trkpt>
      <trkpt lat="45.48947" lon="6.74348">
        <ele>2498.4</ele>
        <time>2011-07-30T12:42:46Z</time>
      </trkpt>
      <trkpt lat="45.48955" lon="6.74355">
        <ele>2498.5</ele>
        <time>2011-07-30T12:42:52Z</time>
      </trkpt>
      <trkpt lat="45.48958" lon="6.74368">
        <ele>2498.5</ele>
        <time>2011-07-30T12:43:01Z</time>
      </trkpt>
      <trkpt lat="45.48962" lon="6.74382">
        <ele>2498.6</ele>
        <time>2011-07-30T12:43:08Z</time>
      </trkpt>
      <trkpt lat="45.48966" lon="6.74394">
        <ele>2498.7</ele>
        <time>2011-07-30T12:43:16Z</time>
      </trkpt>
      <trkpt lat="45.48973" lon="6.74403">
        <ele>2498.8</ele>
        <time>2011-07-30T12:43:22Z</time>
      </trkpt>
      <trkpt lat="45.4898" lon="6.74412">
        <ele>2498.9</ele>
        <time>2011-07-30T12:43:30Z</time>
      </trkpt>
      <trkpt lat="45.48987" lon="6.7442">
        <ele>2499</ele>
        <time>2011-07-30T12:43:38Z</time>
      </trkpt>
      <trkpt lat="45.48996" lon="6.74425">
        <ele>2499.1</ele>
        <time>2011-07-30T12:43:46Z</time>
      </trkpt>
      <trkpt lat="45.49006" lon="6.74427">
        <ele>2498.6</ele>
        <time>2011-07-30T12:43:51Z</time>
      </trkpt>
      <trkpt lat="45.49014" lon="6.74432">
        <ele>2498.9</ele>
        <time>2011-07-30T12:44:00Z</time>
      </trkpt>
      <trkpt lat="45.49021" lon="6.74441">
        <ele>2499.2</ele>
        <time>2011-07-30T12:44:07Z</time>
      </trkpt>
      <trkpt lat="45.49029" lon="6.74452">
        <ele>2499.5</ele>
        <time>2011-07-30T12:44:14Z</time>
      </trkpt>
      <trkpt lat="45.49036" lon="6.74461">
        <ele>2499.7</ele>
        <time>2011-07-30T12:44:20Z</time>
      </trkpt>
      <trkpt lat="45.49043" lon="6.74472">
        <ele>2500</ele>
        <time>2011-07-30T12:44:28Z</time>
      </trkpt>
      <trkpt lat="45.4905" lon="6.7448">
        <ele>2500.3</ele>
        <time>2011-07-30T12:44:35Z</time>
      </trkpt>
      <trkpt lat="45.49058" lon="6.74488">
        <ele>2500.5</ele>
        <time>2011-07-30T12:44:43Z</time>
      </trkpt>
      <trkpt lat="45.49068" lon="6.74493">
        <ele>2500.8</ele>
        <time>2011-07-30T12:44:50Z</time>
      </trkpt>
      <trkpt lat="45.49076" lon="6.74497">
        <ele>2499.9</ele>
        <time>2011-07-30T12:44:57Z</time>
      </trkpt>
      <trkpt lat="45.49084" lon="6.74506">
        <ele>2499</ele>
        <time>2011-07-30T12:45:04Z</time>
      </trkpt>
      <trkpt lat="45.49091" lon="6.74516">
        <ele>2499.5</ele>
        <time>2011-07-30T12:45:10Z</time>
      </trkpt>
      <trkpt lat="45.49096" lon="6.74528">
        <ele>2498.3</ele>
        <time>2011-07-30T12:45:17Z</time>
      </trkpt>
      <trkpt lat="45.491" lon="6.7454">
        <ele>2497.1</ele>
        <time>2011-07-30T12:45:24Z</time>
      </trkpt>
      <trkpt lat="45.49105" lon="6.74551">
        <ele>2496.3</ele>
        <time>2011-07-30T12:45:29Z</time>
      </trkpt>
      <trkpt lat="45.4911" lon="6.74563">
        <ele>2495.5</ele>
        <time>2011-07-30T12:45:37Z</time>
      </trkpt>
      <trkpt lat="45.49114" lon="6.74576">
        <ele>2494.3</ele>
        <time>2011-07-30T12:45:44Z</time>
      </trkpt>
      <trkpt lat="45.4912" lon="6.74585">
        <ele>2493.1</ele>
        <time>2011-07-30T12:45:54Z</time>
      </trkpt>
      <trkpt lat="45.49126" lon="6.74598">
        <ele>2491.9</ele>
        <time>2011-07-30T12:45:59Z</time>
      </trkpt>
      <trkpt lat="45.4913" lon="6.74611">
        <ele>2490.7</ele>
        <time>2011-07-30T12:46:03Z</time>
      </trkpt>
      <trkpt lat="45.49135" lon="6.74625">
        <ele>2490.7</ele>
        <time>2011-07-30T12:46:08Z</time>
      </trkpt>
      <trkpt lat="45.49139" lon="6.7464">
        <ele>2490.7</ele>
        <time>2011-07-30T12:46:13Z</time>
      </trkpt>
      <trkpt lat="45.49146" lon="6.74649">
        <ele>2490.7</ele>
        <time>2011-07-30T12:46:20Z</time>
      </trkpt>
      <trkpt lat="45.49147" lon="6.74665">
        <ele>2492.1</ele>
        <time>2011-07-30T12:47:18Z</time>
      </trkpt>
      <trkpt lat="45.49146" lon="6.74679">
        <ele>2492.2</ele>
        <time>2011-07-30T12:50:27Z</time>
      </trkpt>
      <trkpt lat="45.49142" lon="6.74691">
        <ele>2491.9</ele>
        <time>2011-07-30T12:50:37Z</time>
      </trkpt>
      <trkpt lat="45.49139" lon="6.74704">
        <ele>2491.6</ele>
        <time>2011-07-30T12:50:46Z</time>
      </trkpt>
      <trkpt lat="45.49133" lon="6.74714">
        <ele>2491.7</ele>
        <time>2011-07-30T12:51:18Z</time>
      </trkpt>
      <trkpt lat="45.49131" lon="6.74727">
        <ele>2491.8</ele>
        <time>2011-07-30T12:51:32Z</time>
      </trkpt>
      <trkpt lat="45.49128" lon="6.74739">
        <ele>2493.2</ele>
        <time>2011-07-30T12:51:40Z</time>
      </trkpt>
      <trkpt lat="45.49128" lon="6.74753">
        <ele>2494.5</ele>
        <time>2011-07-30T12:51:49Z</time>
      </trkpt>
      <trkpt lat="45.49125" lon="6.74766">
        <ele>2495.9</ele>
        <time>2011-07-30T12:51:58Z</time>
      </trkpt>
      <trkpt lat="45.49124" lon="6.74779">
        <ele>2497.3</ele>
        <time>2011-07-30T12:52:08Z</time>
      </trkpt>
      <trkpt lat="45.49122" lon="6.74792">
        <ele>2498.6</ele>
        <time>2011-07-30T12:52:17Z</time>
      </trkpt>
      <trkpt lat="45.49119" lon="6.74805">
        <ele>2498.6</ele>
        <time>2011-07-30T12:52:28Z</time>
      </trkpt>
      <trkpt lat="45.49115" lon="6.74816">
        <ele>2499.9</ele>
        <time>2011-07-30T12:52:39Z</time>
      </trkpt>
      <trkpt lat="45.4911" lon="6.74828">
        <ele>2501.7</ele>
        <time>2011-07-30T12:53:08Z</time>
      </trkpt>
      <trkpt lat="45.49106" lon="6.74841">
        <ele>2503.5</ele>
        <time>2011-07-30T12:53:16Z</time>
      </trkpt>
      <trkpt lat="45.491" lon="6.7485">
        <ele>2505.4</ele>
        <time>2011-07-30T12:53:23Z</time>
      </trkpt>
      <trkpt lat="45.49099" lon="6.74863">
        <ele>2507.2</ele>
        <time>2011-07-30T12:53:31Z</time>
      </trkpt>
      <trkpt lat="45.49101" lon="6.74876">
        <ele>2507.7</ele>
        <time>2011-07-30T12:53:39Z</time>
      </trkpt>
      <trkpt lat="45.49105" lon="6.74889">
        <ele>2508.3</ele>
        <time>2011-07-30T12:53:44Z</time>
      </trkpt>
      <trkpt lat="45.49106" lon="6.74903">
        <ele>2508.8</ele>
        <time>2011-07-30T12:53:52Z</time>
      </trkpt>
      <trkpt lat="45.4911" lon="6.74914">
        <ele>2511.3</ele>
        <time>2011-07-30T12:54:00Z</time>
      </trkpt>
      <trkpt lat="45.49114" lon="6.74926">
        <ele>2513.7</ele>
        <time>2011-07-30T12:54:07Z</time>
      </trkpt>
      <trkpt lat="45.49119" lon="6.74939">
        <ele>2516.2</ele>
        <time>2011-07-30T12:54:16Z</time>
      </trkpt>
      <trkpt lat="45.49123" lon="6.74952">
        <ele>2518.6</ele>
        <time>2011-07-30T12:54:24Z</time>
      </trkpt>
      <trkpt lat="45.49128" lon="6.74963">
        <ele>2520.5</ele>
        <time>2011-07-30T12:54:32Z</time>
      </trkpt>
      <trkpt lat="45.49135" lon="6.74972">
        <ele>2522.5</ele>
        <time>2011-07-30T12:54:40Z</time>
      </trkpt>
      <trkpt lat="45.49142" lon="6.74983">
        <ele>2524.4</ele>
        <time>2011-07-30T12:54:48Z</time>
      </trkpt>
      <trkpt lat="45.49149" lon="6.74992">
        <ele>2526.9</ele>
        <time>2011-07-30T12:54:55Z</time>
      </trkpt>
      <trkpt lat="45.49155" lon="6.75002">
        <ele>2529.5</ele>
        <time>2011-07-30T12:55:06Z</time>
      </trkpt>
      <trkpt lat="45.49159" lon="6.75014">
        <ele>2532</ele>
        <time>2011-07-30T12:55:15Z</time>
      </trkpt>
      <trkpt lat="45.4916" lon="6.75028">
        <ele>2534.5</ele>
        <time>2011-07-30T12:55:24Z</time>
      </trkpt>
      <trkpt lat="45.49159" lon="6.7504">
        <ele>2535.2</ele>
        <time>2011-07-30T12:55:35Z</time>
      </trkpt>
      <trkpt lat="45.49158" lon="6.75053">
        <ele>2535.8</ele>
        <time>2011-07-30T12:55:46Z</time>
      </trkpt>
      <trkpt lat="45.49158" lon="6.75067">
        <ele>2536.5</ele>
        <time>2011-07-30T12:55:57Z</time>
      </trkpt>
      <trkpt lat="45.4916" lon="6.75079">
        <ele>2538.1</ele>
        <time>2011-07-30T12:56:09Z</time>
      </trkpt>
      <trkpt lat="45.4916" lon="6.75093">
        <ele>2539.7</ele>
        <time>2011-07-30T12:56:17Z</time>
      </trkpt>
      <trkpt lat="45.49162" lon="6.75106">
        <ele>2541.4</ele>
        <time>2011-07-30T12:56:28Z</time>
      </trkpt>
      <trkpt lat="45.49164" lon="6.75119">
        <ele>2543</ele>
        <time>2011-07-30T12:56:37Z</time>
      </trkpt>
      <trkpt lat="45.49166" lon="6.75132">
        <ele>2544</ele>
        <time>2011-07-30T12:56:44Z</time>
      </trkpt>
      <trkpt lat="45.49166" lon="6.75145">
        <ele>2545</ele>
        <time>2011-07-30T12:56:55Z</time>
      </trkpt>
      <trkpt lat="45.49163" lon="6.75158">
        <ele>2547.8</ele>
        <time>2011-07-30T12:57:04Z</time>
      </trkpt>
      <trkpt lat="45.49162" lon="6.75171">
        <ele>2550.6</ele>
        <time>2011-07-30T12:57:16Z</time>
      </trkpt>
      <trkpt lat="45.49159" lon="6.75184">
        <ele>2553.5</ele>
        <time>2011-07-30T12:57:30Z</time>
      </trkpt>
      <trkpt lat="45.49157" lon="6.75197">
        <ele>2556.3</ele>
        <time>2011-07-30T12:57:51Z</time>
      </trkpt>
      <trkpt lat="45.49152" lon="6.75208">
        <ele>2559.1</ele>
        <time>2011-07-30T12:58:05Z</time>
      </trkpt>
      <trkpt lat="45.49153" lon="6.75221">
        <ele>2560.9</ele>
        <time>2011-07-30T12:58:15Z</time>
      </trkpt>
      <trkpt lat="45.49148" lon="6.75233">
        <ele>2563.9</ele>
        <time>2011-07-30T12:58:32Z</time>
      </trkpt>
      <trkpt lat="45.49145" lon="6.75245">
        <ele>2566.9</ele>
        <time>2011-07-30T12:58:45Z</time>
      </trkpt>
      <trkpt lat="45.49143" lon="6.75258">
        <ele>2569.9</ele>
        <time>2011-07-30T12:58:58Z</time>
      </trkpt>
      <trkpt lat="45.49143" lon="6.75271">
        <ele>2572.9</ele>
        <time>2011-07-30T12:59:08Z</time>
      </trkpt>
      <trkpt lat="45.49141" lon="6.75285">
        <ele>2575.9</ele>
        <time>2011-07-30T12:59:21Z</time>
      </trkpt>
      <trkpt lat="45.49142" lon="6.75299">
        <ele>2577.1</ele>
        <time>2011-07-30T12:59:30Z</time>
      </trkpt>
      <trkpt lat="45.4914" lon="6.75313">
        <ele>2579.1</ele>
        <time>2011-07-30T12:59:38Z</time>
      </trkpt>
      <trkpt lat="45.49142" lon="6.75326">
        <ele>2581.1</ele>
        <time>2011-07-30T12:59:48Z</time>
      </trkpt>
      <trkpt lat="45.49144" lon="6.7534">
        <ele>2583.1</ele>
        <time>2011-07-30T12:59:56Z</time>
      </trkpt>
      <trkpt lat="45.49145" lon="6.75354">
        <ele>2585.1</ele>
        <time>2011-07-30T13:00:04Z</time>
      </trkpt>
      <trkpt lat="45.49144" lon="6.75367">
        <ele>2587.1</ele>
        <time>2011-07-30T13:00:14Z</time>
      </trkpt>
      <trkpt lat="45.49144" lon="6.7538">
        <ele>2587.9</ele>
        <time>2011-07-30T13:00:24Z</time>
      </trkpt>
      <trkpt lat="45.49144" lon="6.75393">
        <ele>2588.7</ele>
        <time>2011-07-30T13:00:32Z</time>
      </trkpt>
      <trkpt lat="45.49147" lon="6.75406">
        <ele>2590.1</ele>
        <time>2011-07-30T13:00:39Z</time>
      </trkpt>
      <trkpt lat="45.4915" lon="6.75419">
        <ele>2591.5</ele>
        <time>2011-07-30T13:00:47Z</time>
      </trkpt>
      <trkpt lat="45.49156" lon="6.75429">
        <ele>2592.8</ele>
        <time>2011-07-30T13:00:56Z</time>
      </trkpt>
      <trkpt lat="45.49162" lon="6.7544">
        <ele>2594.2</ele>
        <time>2011-07-30T13:01:04Z</time>
      </trkpt>
      <trkpt lat="45.49168" lon="6.7545">
        <ele>2594.7</ele>
        <time>2011-07-30T13:01:14Z</time>
      </trkpt>
      <trkpt lat="45.49173" lon="6.75462">
        <ele>2595.3</ele>
        <time>2011-07-30T13:01:21Z</time>
      </trkpt>
      <trkpt lat="45.49174" lon="6.75476">
        <ele>2595.8</ele>
        <time>2011-07-30T13:01:29Z</time>
      </trkpt>
      <trkpt lat="45.49174" lon="6.7549">
        <ele>2597.5</ele>
        <time>2011-07-30T13:01:39Z</time>
      </trkpt>
      <trkpt lat="45.49174" lon="6.75504">
        <ele>2599.1</ele>
        <time>2011-07-30T13:01:48Z</time>
      </trkpt>
      <trkpt lat="45.49174" lon="6.75517">
        <ele>2600.7</ele>
        <time>2011-07-30T13:01:59Z</time>
      </trkpt>
      <trkpt lat="45.49176" lon="6.7553">
        <ele>2602.4</ele>
        <time>2011-07-30T13:02:09Z</time>
      </trkpt>
      <trkpt lat="45.49181" lon="6.75543">
        <ele>2603.5</ele>
        <time>2011-07-30T13:02:23Z</time>
      </trkpt>
      <trkpt lat="45.49181" lon="6.75556">
        <ele>2604.5</ele>
        <time>2011-07-30T13:02:34Z</time>
      </trkpt>
      <trkpt lat="45.49185" lon="6.75568">
        <ele>2607.2</ele>
        <time>2011-07-30T13:02:47Z</time>
      </trkpt>
      <trkpt lat="45.49186" lon="6.75581">
        <ele>2609.8</ele>
        <time>2011-07-30T13:02:59Z</time>
      </trkpt>
      <trkpt lat="45.49188" lon="6.75594">
        <ele>2612.5</ele>
        <time>2011-07-30T13:03:14Z</time>
      </trkpt>
      <trkpt lat="45.49192" lon="6.75606">
        <ele>2615.1</ele>
        <time>2011-07-30T13:03:32Z</time>
      </trkpt>
      <trkpt lat="45.49191" lon="6.75619">
        <ele>2617.7</ele>
        <time>2011-07-30T13:03:53Z</time>
      </trkpt>
      <trkpt lat="45.49192" lon="6.75632">
        <ele>2619.3</ele>
        <time>2011-07-30T13:04:04Z</time>
      </trkpt>
      <trkpt lat="45.49194" lon="6.75645">
        <ele>2620.8</ele>
        <time>2011-07-30T13:04:18Z</time>
      </trkpt>
      <trkpt lat="45.49191" lon="6.75657">
        <ele>2623</ele>
        <time>2011-07-30T13:04:32Z</time>
      </trkpt>
      <trkpt lat="45.49193" lon="6.75671">
        <ele>2625.2</ele>
        <time>2011-07-30T13:04:42Z</time>
      </trkpt>
      <trkpt lat="45.49193" lon="6.75685">
        <ele>2627.4</ele>
        <time>2011-07-30T13:04:50Z</time>
      </trkpt>
      <trkpt lat="45.49192" lon="6.75699">
        <ele>2629.5</ele>
        <time>2011-07-30T13:04:58Z</time>
      </trkpt>
      <trkpt lat="45.49189" lon="6.75712">
        <ele>2630.2</ele>
        <time>2011-07-30T13:05:07Z</time>
      </trkpt>
      <trkpt lat="45.49186" lon="6.75725">
        <ele>2630.8</ele>
        <time>2011-07-30T13:05:14Z</time>
      </trkpt>
      <trkpt lat="45.49182" lon="6.75737">
        <ele>2631.5</ele>
        <time>2011-07-30T13:05:20Z</time>
      </trkpt>
      <trkpt lat="45.4918" lon="6.7575">
        <ele>2632</ele>
        <time>2011-07-30T13:05:30Z</time>
      </trkpt>
      <trkpt lat="45.49177" lon="6.75764">
        <ele>2632.5</ele>
        <time>2011-07-30T13:05:37Z</time>
      </trkpt>
      <trkpt lat="45.49174" lon="6.75778">
        <ele>2633.1</ele>
        <time>2011-07-30T13:05:45Z</time>
      </trkpt>
      <trkpt lat="45.4917" lon="6.7579">
        <ele>2633.6</ele>
        <time>2011-07-30T13:05:50Z</time>
      </trkpt>
      <trkpt lat="45.49166" lon="6.75802">
        <ele>2633.5</ele>
        <time>2011-07-30T13:05:54Z</time>
      </trkpt>
      <trkpt lat="45.49162" lon="6.75815">
        <ele>2633.5</ele>
        <time>2011-07-30T13:05:59Z</time>
      </trkpt>
      <trkpt lat="45.4916" lon="6.75829">
        <ele>2633.5</ele>
        <time>2011-07-30T13:06:07Z</time>
      </trkpt>
      <trkpt lat="45.49163" lon="6.75843">
        <ele>2633.5</ele>
        <time>2011-07-30T13:06:16Z</time>
      </trkpt>
      <trkpt lat="45.49167" lon="6.75856">
        <ele>2633.5</ele>
        <time>2011-07-30T13:06:23Z</time>
      </trkpt>
      <trkpt lat="45.49169" lon="6.75868">
        <ele>2633.5</ele>
        <time>2011-07-30T13:06:29Z</time>
      </trkpt>
      <trkpt lat="45.49173" lon="6.75882">
        <ele>2633.5</ele>
        <time>2011-07-30T13:06:38Z</time>
      </trkpt>
      <trkpt lat="45.49179" lon="6.75893">
        <ele>2633.5</ele>
        <time>2011-07-30T13:06:46Z</time>
      </trkpt>
      <trkpt lat="45.49186" lon="6.75903">
        <ele>2633.6</ele>
        <time>2011-07-30T13:06:53Z</time>
      </trkpt>
      <trkpt lat="45.49191" lon="6.75914">
        <ele>2634.5</ele>
        <time>2011-07-30T13:07:03Z</time>
      </trkpt>
      <trkpt lat="45.49194" lon="6.75926">
        <ele>2635.3</ele>
        <time>2011-07-30T13:07:10Z</time>
      </trkpt>
      <trkpt lat="45.49196" lon="6.75939">
        <ele>2636.1</ele>
        <time>2011-07-30T13:07:18Z</time>
      </trkpt>
      <trkpt lat="45.49197" lon="6.75953">
        <ele>2636.9</ele>
        <time>2011-07-30T13:07:24Z</time>
      </trkpt>
      <trkpt lat="45.49199" lon="6.75966">
        <ele>2639</ele>
        <time>2011-07-30T13:07:35Z</time>
      </trkpt>
      <trkpt lat="45.492" lon="6.75979">
        <ele>2641.1</ele>
        <time>2011-07-30T13:07:45Z</time>
      </trkpt>
      <trkpt lat="45.492" lon="6.75993">
        <ele>2643.8</ele>
        <time>2011-07-30T13:07:51Z</time>
      </trkpt>
      <trkpt lat="45.49203" lon="6.76006">
        <ele>2646.5</ele>
        <time>2011-07-30T13:08:01Z</time>
      </trkpt>
      <trkpt lat="45.4921" lon="6.76015">
        <ele>2649.3</ele>
        <time>2011-07-30T13:08:10Z</time>
      </trkpt>
      <trkpt lat="45.49215" lon="6.76026">
        <ele>2652</ele>
        <time>2011-07-30T13:08:25Z</time>
      </trkpt>
      <trkpt lat="45.49213" lon="6.76039">
        <ele>2654.7</ele>
        <time>2011-07-30T13:08:35Z</time>
      </trkpt>
      <trkpt lat="45.49208" lon="6.76051">
        <ele>2656.7</ele>
        <time>2011-07-30T13:08:50Z</time>
      </trkpt>
      <trkpt lat="45.49206" lon="6.76064">
        <ele>2658.7</ele>
        <time>2011-07-30T13:09:10Z</time>
      </trkpt>
      <trkpt lat="45.49203" lon="6.76077">
        <ele>2663.3</ele>
        <time>2011-07-30T13:09:29Z</time>
      </trkpt>
      <trkpt lat="45.49198" lon="6.76088">
        <ele>2667.8</ele>
        <time>2011-07-30T13:09:48Z</time>
      </trkpt>
      <trkpt lat="45.49192" lon="6.76099">
        <ele>2671</ele>
        <time>2011-07-30T13:10:18Z</time>
      </trkpt>
      <trkpt lat="45.49186" lon="6.76109">
        <ele>2674.2</ele>
        <time>2011-07-30T13:10:35Z</time>
      </trkpt>
      <trkpt lat="45.49181" lon="6.7612">
        <ele>2676.7</ele>
        <time>2011-07-30T13:10:51Z</time>
      </trkpt>
      <trkpt lat="45.49178" lon="6.76133">
        <ele>2679.3</ele>
        <time>2011-07-30T13:11:13Z</time>
      </trkpt>
      <trkpt lat="45.49172" lon="6.76144">
        <ele>2681.8</ele>
        <time>2011-07-30T13:11:27Z</time>
      </trkpt>
      <trkpt lat="45.49168" lon="6.76156">
        <ele>2686.4</ele>
        <time>2011-07-30T13:11:43Z</time>
      </trkpt>
      <trkpt lat="45.49165" lon="6.76169">
        <ele>2690.9</ele>
        <time>2011-07-30T13:11:55Z</time>
      </trkpt>
      <trkpt lat="45.49161" lon="6.7618">
        <ele>2695.5</ele>
        <time>2011-07-30T13:12:06Z</time>
      </trkpt>
      <trkpt lat="45.49157" lon="6.76192">
        <ele>2700</ele>
        <time>2011-07-30T13:12:21Z</time>
      </trkpt>
      <trkpt lat="45.49155" lon="6.76205">
        <ele>2701.6</ele>
        <time>2011-07-30T13:12:35Z</time>
      </trkpt>
      <trkpt lat="45.49152" lon="6.76217">
        <ele>2703.3</ele>
        <time>2011-07-30T13:12:50Z</time>
      </trkpt>
      <trkpt lat="45.49148" lon="6.76229">
        <ele>2704.9</ele>
        <time>2011-07-30T13:13:06Z</time>
      </trkpt>
      <trkpt lat="45.49141" lon="6.76238">
        <ele>2706.5</ele>
        <time>2011-07-30T13:13:21Z</time>
      </trkpt>
      <trkpt lat="45.49134" lon="6.76247">
        <ele>2708.2</ele>
        <time>2011-07-30T13:13:32Z</time>
      </trkpt>
      <trkpt lat="45.49126" lon="6.76255">
        <ele>2709.8</ele>
        <time>2011-07-30T13:13:46Z</time>
      </trkpt>
      <trkpt lat="45.49117" lon="6.76259">
        <ele>2711.5</ele>
        <time>2011-07-30T13:13:59Z</time>
      </trkpt>
      <trkpt lat="45.49109" lon="6.76266">
        <ele>2712.5</ele>
        <time>2011-07-30T13:14:09Z</time>
      </trkpt>
      <trkpt lat="45.491" lon="6.76272">
        <ele>2713.5</ele>
        <time>2011-07-30T13:14:24Z</time>
      </trkpt>
      <trkpt lat="45.49091" lon="6.76275">
        <ele>2714.5</ele>
        <time>2011-07-30T13:14:33Z</time>
      </trkpt>
      <trkpt lat="45.49082" lon="6.76281">
        <ele>2715.5</ele>
        <time>2011-07-30T13:14:45Z</time>
      </trkpt>
      <trkpt lat="45.49076" lon="6.76291">
        <ele>2716.8</ele>
        <time>2011-07-30T13:14:55Z</time>
      </trkpt>
      <trkpt lat="45.49074" lon="6.76303">
        <ele>2718.2</ele>
        <time>2011-07-30T13:15:16Z</time>
      </trkpt>
      <trkpt lat="45.49071" lon="6.76316">
        <ele>2719.5</ele>
        <time>2011-07-30T13:15:30Z</time>
      </trkpt>
      <trkpt lat="45.49067" lon="6.76328">
        <ele>2721.8</ele>
        <time>2011-07-30T13:15:43Z</time>
      </trkpt>
      <trkpt lat="45.49065" lon="6.76341">
        <ele>2724.1</ele>
        <time>2011-07-30T13:15:54Z</time>
      </trkpt>
      <trkpt lat="45.49065" lon="6.76355">
        <ele>2726.4</ele>
        <time>2011-07-30T13:16:04Z</time>
      </trkpt>
      <trkpt lat="45.49063" lon="6.76368">
        <ele>2728.6</ele>
        <time>2011-07-30T13:16:14Z</time>
      </trkpt>
      <trkpt lat="45.49055" lon="6.76376">
        <ele>2729.5</ele>
        <time>2011-07-30T13:16:21Z</time>
      </trkpt>
      <trkpt lat="45.49045" lon="6.7638">
        <ele>2730.5</ele>
        <time>2011-07-30T13:16:29Z</time>
      </trkpt>
      <trkpt lat="45.49037" lon="6.76384">
        <ele>2731.4</ele>
        <time>2011-07-30T13:16:36Z</time>
      </trkpt>
      <trkpt lat="45.49028" lon="6.76389">
        <ele>2732.3</ele>
        <time>2011-07-30T13:16:45Z</time>
      </trkpt>
      <trkpt lat="45.4902" lon="6.76396">
        <ele>2733.2</ele>
        <time>2011-07-30T13:16:54Z</time>
      </trkpt>
      <trkpt lat="45.49012" lon="6.76404">
        <ele>2734.1</ele>
        <time>2011-07-30T13:17:03Z</time>
      </trkpt>
      <trkpt lat="45.49004" lon="6.76412">
        <ele>2735</ele>
        <time>2011-07-30T13:17:14Z</time>
      </trkpt>
      <trkpt lat="45.48996" lon="6.7642">
        <ele>2737.7</ele>
        <time>2011-07-30T13:17:26Z</time>
      </trkpt>
      <trkpt lat="45.48989" lon="6.76429">
        <ele>2739.3</ele>
        <time>2011-07-30T13:17:36Z</time>
      </trkpt>
      <trkpt lat="45.48983" lon="6.76439">
        <ele>2740.8</ele>
        <time>2011-07-30T13:17:46Z</time>
      </trkpt>
      <trkpt lat="45.48976" lon="6.76449">
        <ele>2742.4</ele>
        <time>2011-07-30T13:17:57Z</time>
      </trkpt>
      <trkpt lat="45.4897" lon="6.76459">
        <ele>2743.9</ele>
        <time>2011-07-30T13:18:06Z</time>
      </trkpt>
      <trkpt lat="45.48965" lon="6.7647">
        <ele>2745.5</ele>
        <time>2011-07-30T13:18:20Z</time>
      </trkpt>
      <trkpt lat="45.48957" lon="6.76478">
        <ele>2747</ele>
        <time>2011-07-30T13:18:30Z</time>
      </trkpt>
      <trkpt lat="45.48952" lon="6.76489">
        <ele>2748.5</ele>
        <time>2011-07-30T13:18:41Z</time>
      </trkpt>
      <trkpt lat="45.48944" lon="6.76496">
        <ele>2750.1</ele>
        <time>2011-07-30T13:18:52Z</time>
      </trkpt>
      <trkpt lat="45.48935" lon="6.76503">
        <ele>2751.6</ele>
        <time>2011-07-30T13:19:01Z</time>
      </trkpt>
      <trkpt lat="45.48926" lon="6.76505">
        <ele>2753.2</ele>
        <time>2011-07-30T13:19:11Z</time>
      </trkpt>
      <trkpt lat="45.48916" lon="6.76508">
        <ele>2750.6</ele>
        <time>2011-07-30T13:19:22Z</time>
      </trkpt>
      <trkpt lat="45.48907" lon="6.76512">
        <ele>2752.4</ele>
        <time>2011-07-30T13:19:34Z</time>
      </trkpt>
      <trkpt lat="45.48899" lon="6.76518">
        <ele>2754.1</ele>
        <time>2011-07-30T13:19:45Z</time>
      </trkpt>
      <trkpt lat="45.4889" lon="6.76522">
        <ele>2755.8</ele>
        <time>2011-07-30T13:19:58Z</time>
      </trkpt>
      <trkpt lat="45.48882" lon="6.76528">
        <ele>2757.5</ele>
        <time>2011-07-30T13:20:10Z</time>
      </trkpt>
      <trkpt lat="45.48873" lon="6.76534">
        <ele>2759.3</ele>
        <time>2011-07-30T13:20:25Z</time>
      </trkpt>
      <trkpt lat="45.48868" lon="6.76544">
        <ele>2761</ele>
        <time>2011-07-30T13:20:39Z</time>
      </trkpt>
      <trkpt lat="45.48863" lon="6.76555">
        <ele>2762.7</ele>
        <time>2011-07-30T13:20:53Z</time>
      </trkpt>
      <trkpt lat="45.48858" lon="6.76566">
        <ele>2767.5</ele>
        <time>2011-07-30T13:21:16Z</time>
      </trkpt>
      <trkpt lat="45.48856" lon="6.76579">
        <ele>2772.4</ele>
        <time>2011-07-30T13:21:36Z</time>
      </trkpt>
      <trkpt lat="45.48853" lon="6.76591">
        <ele>2777.2</ele>
        <time>2011-07-30T13:21:59Z</time>
      </trkpt>
      <trkpt lat="45.48851" lon="6.76604">
        <ele>2783.4</ele>
        <time>2011-07-30T13:22:25Z</time>
      </trkpt>
      <trkpt lat="45.48851" lon="6.76618">
        <ele>2786.5</ele>
        <time>2011-07-30T13:22:53Z</time>
      </trkpt>
      <trkpt lat="45.4885" lon="6.76631">
        <ele>2789.5</ele>
        <time>2011-07-30T13:23:24Z</time>
      </trkpt>
      <trkpt lat="45.48845" lon="6.76643">
        <ele>2792.6</ele>
        <time>2011-07-30T13:23:43Z</time>
      </trkpt>
      <trkpt lat="45.48842" lon="6.76659">
        <ele>2798.5</ele>
        <time>2011-07-30T13:24:19Z</time>
      </trkpt>
      <trkpt lat="45.48845" lon="6.76674">
        <ele>2804.5</ele>
        <time>2011-07-30T13:24:50Z</time>
      </trkpt>
      <trkpt lat="45.48842" lon="6.76686">
        <ele>2810.4</ele>
        <time>2011-07-30T13:25:11Z</time>
      </trkpt>
      <trkpt lat="45.48842" lon="6.76699">
        <ele>2816.3</ele>
        <time>2011-07-30T13:25:33Z</time>
      </trkpt>
      <trkpt lat="45.48841" lon="6.76713">
        <ele>2819.1</ele>
        <time>2011-07-30T13:26:00Z</time>
      </trkpt>
      <trkpt lat="45.48843" lon="6.76728">
        <ele>2821.9</ele>
        <time>2011-07-30T13:26:27Z</time>
      </trkpt>
      <trkpt lat="45.48844" lon="6.76742">
        <ele>2827.6</ele>
        <time>2011-07-30T13:26:53Z</time>
      </trkpt>
      <trkpt lat="45.48844" lon="6.76755">
        <ele>2833.4</ele>
        <time>2011-07-30T13:27:10Z</time>
      </trkpt>
      <trkpt lat="45.48841" lon="6.76768">
        <ele>2839.1</ele>
        <time>2011-07-30T13:27:25Z</time>
      </trkpt>
      <trkpt lat="45.48846" lon="6.76781">
        <ele>2844.8</ele>
        <time>2011-07-30T13:27:40Z</time>
      </trkpt>
      <trkpt lat="45.48851" lon="6.76797">
        <ele>2850.5</ele>
        <time>2011-07-30T13:28:23Z</time>
      </trkpt>
      <trkpt lat="45.48855" lon="6.7681">
        <ele>2853.5</ele>
        <time>2011-07-30T13:28:51Z</time>
      </trkpt>
      <trkpt lat="45.48858" lon="6.76822">
        <ele>2860.1</ele>
        <time>2011-07-30T13:29:15Z</time>
      </trkpt>
      <trkpt lat="45.48858" lon="6.76835">
        <ele>2866.7</ele>
        <time>2011-07-30T13:29:40Z</time>
      </trkpt>
      <trkpt lat="45.48862" lon="6.76847">
        <ele>2873.4</ele>
        <time>2011-07-30T13:30:08Z</time>
      </trkpt>
      <trkpt lat="45.48862" lon="6.76861">
        <ele>2880</ele>
        <time>2011-07-30T13:30:25Z</time>
      </trkpt>
      <trkpt lat="45.48864" lon="6.76873">
        <ele>2886.6</ele>
        <time>2011-07-30T13:30:53Z</time>
      </trkpt>
      <trkpt lat="45.48866" lon="6.76886">
        <ele>2890.4</ele>
        <time>2011-07-30T13:31:14Z</time>
      </trkpt>
      <trkpt lat="45.48867" lon="6.76899">
        <ele>2894.1</ele>
        <time>2011-07-30T13:31:36Z</time>
      </trkpt>
      <trkpt lat="45.48861" lon="6.76909">
        <ele>2901.1</ele>
        <time>2011-07-30T13:32:16Z</time>
      </trkpt>
      <trkpt lat="45.48855" lon="6.76919">
        <ele>2908.1</ele>
        <time>2011-07-30T13:32:41Z</time>
      </trkpt>
      <trkpt lat="45.48854" lon="6.76932">
        <ele>2915.1</ele>
        <time>2011-07-30T13:33:39Z</time>
      </trkpt>
      <trkpt lat="45.48852" lon="6.76945">
        <ele>2922.1</ele>
        <time>2011-07-30T13:33:55Z</time>
      </trkpt>
      <trkpt lat="45.48851" lon="6.76958">
        <ele>2925.4</ele>
        <time>2011-07-30T13:34:32Z</time>
      </trkpt>
      <trkpt lat="45.48844" lon="6.76968">
        <ele>2928.6</ele>
        <time>2011-07-30T13:35:26Z</time>
      </trkpt>
      <trkpt lat="45.48844" lon="6.76982">
        <ele>2931.9</ele>
        <time>2011-07-30T13:35:55Z</time>
      </trkpt>
      <trkpt lat="45.48844" lon="6.76995">
        <ele>2937.5</ele>
        <time>2011-07-30T13:36:17Z</time>
      </trkpt>
      <trkpt lat="45.48836" lon="6.77007">
        <ele>2943</ele>
        <time>2011-07-30T13:36:51Z</time>
      </trkpt>
      <trkpt lat="45.48838" lon="6.7702">
        <ele>2948.5</ele>
        <time>2011-07-30T13:37:18Z</time>
      </trkpt>
      <trkpt lat="45.48839" lon="6.77035">
        <ele>2954.1</ele>
        <time>2011-07-30T13:38:00Z</time>
      </trkpt>
      <trkpt lat="45.48833" lon="6.77049">
        <ele>2956.4</ele>
        <time>2011-07-30T13:38:32Z</time>
      </trkpt>
      <trkpt lat="45.48831" lon="6.77061">
        <ele>2958.6</ele>
        <time>2011-07-30T13:38:57Z</time>
      </trkpt>
      <trkpt lat="45.48836" lon="6.77074">
        <ele>2962.6</ele>
        <time>2011-07-30T13:39:34Z</time>
      </trkpt>
      <trkpt lat="45.4884" lon="6.77087">
        <ele>2966.6</ele>
        <time>2011-07-30T13:40:03Z</time>
      </trkpt>
      <trkpt lat="45.48853" lon="6.77087">
        <ele>2970.6</ele>
        <time>2011-07-30T13:41:13Z</time>
      </trkpt>
      <trkpt lat="45.4886" lon="6.77079">
        <ele>2974.6</ele>
        <time>2011-07-30T13:41:35Z</time>
      </trkpt>
      <trkpt lat="45.48868" lon="6.77087">
        <ele>2978.6</ele>
        <time>2011-07-30T13:41:55Z</time>
      </trkpt>
      <trkpt lat="45.48877" lon="6.7709">
        <ele>2980.4</ele>
        <time>2011-07-30T13:42:51Z</time>
      </trkpt>
      <trkpt lat="45.48884" lon="6.771">
        <ele>2982.1</ele>
        <time>2011-07-30T13:43:01Z</time>
      </trkpt>
      <trkpt lat="45.48893" lon="6.77095">
        <ele>2983.8</ele>
        <time>2011-07-30T13:43:20Z</time>
      </trkpt>
      <trkpt lat="45.48902" lon="6.77099">
        <ele>2985.5</ele>
        <time>2011-07-30T13:43:29Z</time>
      </trkpt>
      <trkpt lat="45.48911" lon="6.77097">
        <ele>2987.3</ele>
        <time>2011-07-30T13:43:37Z</time>
      </trkpt>
      <trkpt lat="45.4892" lon="6.77093">
        <ele>2989.1</ele>
        <time>2011-07-30T13:43:49Z</time>
      </trkpt>
      <trkpt lat="45.48929" lon="6.77088">
        <ele>2989.2</ele>
        <time>2011-07-30T13:44:00Z</time>
      </trkpt>
      <trkpt lat="45.48938" lon="6.77087">
        <ele>2989.3</ele>
        <time>2011-07-30T13:44:09Z</time>
      </trkpt>
      <trkpt lat="45.48948" lon="6.77091">
        <ele>2989.4</ele>
        <time>2011-07-30T13:44:21Z</time>
      </trkpt>
      <trkpt lat="45.48957" lon="6.77093">
        <ele>2989.5</ele>
        <time>2011-07-30T13:44:30Z</time>
      </trkpt>
      <trkpt lat="45.48968" lon="6.77098">
        <ele>2989.5</ele>
        <time>2011-07-30T13:45:04Z</time>
      </trkpt>
      <trkpt lat="45.48965" lon="6.7711">
        <ele>2990.1</ele>
        <time>2011-07-30T13:46:31Z</time>
      </trkpt>
      <trkpt lat="45.48972" lon="6.771">
        <ele>2990.6</ele>
        <time>2011-07-30T13:47:34Z</time>
      </trkpt>
      <trkpt lat="45.48979" lon="6.7711">
        <ele>2991.2</ele>
        <time>2011-07-30T13:47:59Z</time>
      </trkpt>
      <trkpt lat="45.48988" lon="6.77116">
        <ele>2991.7</ele>
        <time>2011-07-30T13:48:09Z</time>
      </trkpt>
      <trkpt lat="45.48995" lon="6.77124">
        <ele>2992.3</ele>
        <time>2011-07-30T13:48:45Z</time>
      </trkpt>
      <trkpt lat="45.49003" lon="6.77134">
        <ele>2992.1</ele>
        <time>2011-07-30T13:48:52Z</time>
      </trkpt>
      <trkpt lat="45.49012" lon="6.77141">
        <ele>2991.9</ele>
        <time>2011-07-30T13:48:58Z</time>
      </trkpt>
      <trkpt lat="45.4902" lon="6.77148">
        <ele>2991.7</ele>
        <time>2011-07-30T13:49:03Z</time>
      </trkpt>
      <trkpt lat="45.49029" lon="6.77151">
        <ele>2991.5</ele>
        <time>2011-07-30T13:49:08Z</time>
      </trkpt>
      <trkpt lat="45.49039" lon="6.77158">
        <ele>2991.4</ele>
        <time>2011-07-30T13:49:13Z</time>
      </trkpt>
      <trkpt lat="45.49047" lon="6.77164">
        <ele>2991.2</ele>
        <time>2011-07-30T13:49:17Z</time>
      </trkpt>
      <trkpt lat="45.49055" lon="6.77171">
        <ele>2990.5</ele>
        <time>2011-07-30T13:49:21Z</time>
      </trkpt>
      <trkpt lat="45.49063" lon="6.77176">
        <ele>2991.1</ele>
        <time>2011-07-30T13:49:26Z</time>
      </trkpt>
      <trkpt lat="45.49072" lon="6.77182">
        <ele>2991.6</ele>
        <time>2011-07-30T13:49:32Z</time>
      </trkpt>
      <trkpt lat="45.4908" lon="6.7719">
        <ele>2992.2</ele>
        <time>2011-07-30T13:49:39Z</time>
      </trkpt>
      <trkpt lat="45.49085" lon="6.77202">
        <ele>2992.7</ele>
        <time>2011-07-30T13:49:47Z</time>
      </trkpt>
      <trkpt lat="45.49091" lon="6.77213">
        <ele>2993.9</ele>
        <time>2011-07-30T13:49:56Z</time>
      </trkpt>
      <trkpt lat="45.49098" lon="6.77221">
        <ele>2997</ele>
        <time>2011-07-30T13:50:09Z</time>
      </trkpt>
      <trkpt lat="45.49101" lon="6.77234">
        <ele>3000.1</ele>
        <time>2011-07-30T13:50:19Z</time>
      </trkpt>
      <trkpt lat="45.49106" lon="6.77245">
        <ele>3003.2</ele>
        <time>2011-07-30T13:50:30Z</time>
      </trkpt>
      <trkpt lat="45.49114" lon="6.77254">
        <ele>3007.5</ele>
        <time>2011-07-30T13:50:44Z</time>
      </trkpt>
      <trkpt lat="45.49122" lon="6.7726">
        <ele>3011.9</ele>
        <time>2011-07-30T13:50:55Z</time>
      </trkpt>
      <trkpt lat="45.49129" lon="6.77268">
        <ele>3016.3</ele>
        <time>2011-07-30T13:51:05Z</time>
      </trkpt>
      <trkpt lat="45.49136" lon="6.77278">
        <ele>3019.5</ele>
        <time>2011-07-30T13:51:19Z</time>
      </trkpt>
      <trkpt lat="45.4914" lon="6.77289">
        <ele>3022.6</ele>
        <time>2011-07-30T13:51:33Z</time>
      </trkpt>
      <trkpt lat="45.49144" lon="6.77302">
        <ele>3025.8</ele>
        <time>2011-07-30T13:51:55Z</time>
      </trkpt>
      <trkpt lat="45.49148" lon="6.77314">
        <ele>3029</ele>
        <time>2011-07-30T13:52:08Z</time>
      </trkpt>
      <trkpt lat="45.4915" lon="6.77328">
        <ele>3032.2</ele>
        <time>2011-07-30T13:52:24Z</time>
      </trkpt>
      <trkpt lat="45.49158" lon="6.77335">
        <ele>3033.5</ele>
        <time>2011-07-30T13:52:46Z</time>
      </trkpt>
      <trkpt lat="45.49168" lon="6.77343">
        <ele>3037.9</ele>
        <time>2011-07-30T13:53:24Z</time>
      </trkpt>
      <trkpt lat="45.49176" lon="6.77354">
        <ele>3042.4</ele>
        <time>2011-07-30T13:53:54Z</time>
      </trkpt>
      <trkpt lat="45.49183" lon="6.77361">
        <ele>3045.5</ele>
        <time>2011-07-30T13:54:16Z</time>
      </trkpt>
      <trkpt lat="45.49191" lon="6.77369">
        <ele>3048.7</ele>
        <time>2011-07-30T13:54:43Z</time>
      </trkpt>
      <trkpt lat="45.49203" lon="6.77376">
        <ele>3051.9</ele>
        <time>2011-07-30T13:55:28Z</time>
      </trkpt>
      <trkpt lat="45.49213" lon="6.7738">
        <ele>3055.1</ele>
        <time>2011-07-30T13:55:47Z</time>
      </trkpt>
      <trkpt lat="45.49224" lon="6.7738">
        <ele>3058.3</ele>
        <time>2011-07-30T13:56:58Z</time>
      </trkpt>
      <trkpt lat="45.4923" lon="6.7739">
        <ele>3061.5</ele>
        <time>2011-07-30T13:57:10Z</time>
      </trkpt>
      <trkpt lat="45.49235" lon="6.77401">
        <ele>3064.6</ele>
        <time>2011-07-30T13:57:19Z</time>
      </trkpt>
      <trkpt lat="45.49243" lon="6.77408">
        <ele>3066.9</ele>
        <time>2011-07-30T13:57:28Z</time>
      </trkpt>
      <trkpt lat="45.49248" lon="6.7742">
        <ele>3069.2</ele>
        <time>2011-07-30T13:57:43Z</time>
      </trkpt>
      <trkpt lat="45.49245" lon="6.77407">
        <ele>3068.3</ele>
        <time>2011-07-30T13:58:09Z</time>
      </trkpt>
      <trkpt lat="45.49244" lon="6.77393">
        <ele>3067.4</ele>
        <time>2011-07-30T13:58:20Z</time>
      </trkpt>
      <trkpt lat="45.49244" lon="6.7738">
        <ele>3066.5</ele>
        <time>2011-07-30T13:58:32Z</time>
      </trkpt>
      <trkpt lat="45.49244" lon="6.77367">
        <ele>3065.5</ele>
        <time>2011-07-30T13:58:45Z</time>
      </trkpt>
      <trkpt lat="45.49243" lon="6.77353">
        <ele>3064.6</ele>
        <time>2011-07-30T13:58:54Z</time>
      </trkpt>
      <trkpt lat="45.49239" lon="6.77341">
        <ele>3063.7</ele>
        <time>2011-07-30T13:59:03Z</time>
      </trkpt>
      <trkpt lat="45.49235" lon="6.77329">
        <ele>3062.8</ele>
        <time>2011-07-30T13:59:14Z</time>
      </trkpt>
      <trkpt lat="45.49243" lon="6.77322">
        <ele>3061.9</ele>
        <time>2011-07-30T13:59:27Z</time>
      </trkpt>
      <trkpt lat="45.49252" lon="6.77325">
        <ele>3061</ele>
        <time>2011-07-30T13:59:36Z</time>
      </trkpt>
      <trkpt lat="45.49261" lon="6.77331">
        <ele>3061</ele>
        <time>2011-07-30T13:59:45Z</time>
      </trkpt>
      <trkpt lat="45.49271" lon="6.77334">
        <ele>3061</ele>
        <time>2011-07-30T13:59:55Z</time>
      </trkpt>
      <trkpt lat="45.49281" lon="6.77334">
        <ele>3061</ele>
        <time>2011-07-30T14:00:02Z</time>
      </trkpt>
      <trkpt lat="45.4929" lon="6.77335">
        <ele>3061</ele>
        <time>2011-07-30T14:00:08Z</time>
      </trkpt>
      <trkpt lat="45.49301" lon="6.77338">
        <ele>3061</ele>
        <time>2011-07-30T14:00:14Z</time>
      </trkpt>
      <trkpt lat="45.4931" lon="6.77338">
        <ele>3061</ele>
        <time>2011-07-30T14:00:19Z</time>
      </trkpt>
      <trkpt lat="45.49319" lon="6.77338">
        <ele>3061</ele>
        <time>2011-07-30T14:00:24Z</time>
      </trkpt>
      <trkpt lat="45.49329" lon="6.77336">
        <ele>3060.7</ele>
        <time>2011-07-30T14:00:29Z</time>
      </trkpt>
      <trkpt lat="45.49339" lon="6.77335">
        <ele>3060.5</ele>
        <time>2011-07-30T14:00:33Z</time>
      </trkpt>
      <trkpt lat="45.49348" lon="6.77334">
        <ele>3060.2</ele>
        <time>2011-07-30T14:00:37Z</time>
      </trkpt>
      <trkpt lat="45.49358" lon="6.77332">
        <ele>3059.9</ele>
        <time>2011-07-30T14:00:42Z</time>
      </trkpt>
      <trkpt lat="45.49368" lon="6.77329">
        <ele>3059.6</ele>
        <time>2011-07-30T14:00:46Z</time>
      </trkpt>
      <trkpt lat="45.49377" lon="6.77326">
        <ele>3059.4</ele>
        <time>2011-07-30T14:00:50Z</time>
      </trkpt>
      <trkpt lat="45.49386" lon="6.77321">
        <ele>3055.2</ele>
        <time>2011-07-30T14:00:54Z</time>
      </trkpt>
      <trkpt lat="45.49395" lon="6.77316">
        <ele>3051</ele>
        <time>2011-07-30T14:00:58Z</time>
      </trkpt>
      <trkpt lat="45.49403" lon="6.7731">
        <ele>3046.8</ele>
        <time>2011-07-30T14:01:03Z</time>
      </trkpt>
      <trkpt lat="45.49413" lon="6.77305">
        <ele>3042.6</ele>
        <time>2011-07-30T14:01:08Z</time>
      </trkpt>
      <trkpt lat="45.49422" lon="6.77303">
        <ele>3039.4</ele>
        <time>2011-07-30T14:01:13Z</time>
      </trkpt>
      <trkpt lat="45.49432" lon="6.77297">
        <ele>3036.4</ele>
        <time>2011-07-30T14:01:19Z</time>
      </trkpt>
      <trkpt lat="45.4944" lon="6.77289">
        <ele>3033.4</ele>
        <time>2011-07-30T14:01:23Z</time>
      </trkpt>
      <trkpt lat="45.49448" lon="6.77282">
        <ele>3030.4</ele>
        <time>2011-07-30T14:01:27Z</time>
      </trkpt>
      <trkpt lat="45.49457" lon="6.77277">
        <ele>3027.4</ele>
        <time>2011-07-30T14:01:32Z</time>
      </trkpt>
      <trkpt lat="45.49467" lon="6.77274">
        <ele>3024.4</ele>
        <time>2011-07-30T14:01:38Z</time>
      </trkpt>
      <trkpt lat="45.49476" lon="6.77271">
        <ele>3021.4</ele>
        <time>2011-07-30T14:01:43Z</time>
      </trkpt>
      <trkpt lat="45.49486" lon="6.77271">
        <ele>3022.3</ele>
        <time>2011-07-30T14:01:49Z</time>
      </trkpt>
      <trkpt lat="45.49496" lon="6.77268">
        <ele>3023.2</ele>
        <time>2011-07-30T14:01:55Z</time>
      </trkpt>
      <trkpt lat="45.49504" lon="6.77261">
        <ele>3022</ele>
        <time>2011-07-30T14:02:00Z</time>
      </trkpt>
      <trkpt lat="45.49513" lon="6.77252">
        <ele>3020.8</ele>
        <time>2011-07-30T14:02:05Z</time>
      </trkpt>
      <trkpt lat="45.49521" lon="6.77245">
        <ele>3018.7</ele>
        <time>2011-07-30T14:02:09Z</time>
      </trkpt>
      <trkpt lat="45.49529" lon="6.77235">
        <ele>3016.6</ele>
        <time>2011-07-30T14:02:13Z</time>
      </trkpt>
      <trkpt lat="45.49535" lon="6.77225">
        <ele>3014.5</ele>
        <time>2011-07-30T14:02:17Z</time>
      </trkpt>
      <trkpt lat="45.4954" lon="6.77212">
        <ele>3012.5</ele>
        <time>2011-07-30T14:02:22Z</time>
      </trkpt>
      <trkpt lat="45.49537" lon="6.77199">
        <ele>3006.9</ele>
        <time>2011-07-30T14:02:30Z</time>
      </trkpt>
      <trkpt lat="45.49536" lon="6.77186">
        <ele>3001.4</ele>
        <time>2011-07-30T14:02:38Z</time>
      </trkpt>
      <trkpt lat="45.49536" lon="6.77172">
        <ele>2995.8</ele>
        <time>2011-07-30T14:02:51Z</time>
      </trkpt>
      <trkpt lat="45.49538" lon="6.77158">
        <ele>2990.3</ele>
        <time>2011-07-30T14:02:58Z</time>
      </trkpt>
      <trkpt lat="45.49538" lon="6.77144">
        <ele>2984.7</ele>
        <time>2011-07-30T14:03:11Z</time>
      </trkpt>
      <trkpt lat="45.49538" lon="6.7713">
        <ele>2981.3</ele>
        <time>2011-07-30T14:03:22Z</time>
      </trkpt>
      <trkpt lat="45.49536" lon="6.77118">
        <ele>2977.8</ele>
        <time>2011-07-30T14:03:34Z</time>
      </trkpt>
      <trkpt lat="45.4954" lon="6.77106">
        <ele>2974.4</ele>
        <time>2011-07-30T14:03:49Z</time>
      </trkpt>
      <trkpt lat="45.4954" lon="6.77092">
        <ele>2970.9</ele>
        <time>2011-07-30T14:04:05Z</time>
      </trkpt>
      <trkpt lat="45.49542" lon="6.7708">
        <ele>2967.5</ele>
        <time>2011-07-30T14:04:25Z</time>
      </trkpt>
      <trkpt lat="45.49535" lon="6.77068">
        <ele>2964</ele>
        <time>2011-07-30T14:04:40Z</time>
      </trkpt>
      <trkpt lat="45.49525" lon="6.7707">
        <ele>2964</ele>
        <time>2011-07-30T14:04:46Z</time>
      </trkpt>
      <trkpt lat="45.49516" lon="6.77071">
        <ele>2964</ele>
        <time>2011-07-30T14:04:51Z</time>
      </trkpt>
      <trkpt lat="45.49506" lon="6.77072">
        <ele>2961.5</ele>
        <time>2011-07-30T14:04:57Z</time>
      </trkpt>
      <trkpt lat="45.49496" lon="6.77072">
        <ele>2958.9</ele>
        <time>2011-07-30T14:05:05Z</time>
      </trkpt>
      <trkpt lat="45.49487" lon="6.77078">
        <ele>2956.4</ele>
        <time>2011-07-30T14:05:13Z</time>
      </trkpt>
      <trkpt lat="45.49476" lon="6.77082">
        <ele>2953.8</ele>
        <time>2011-07-30T14:05:19Z</time>
      </trkpt>
      <trkpt lat="45.49466" lon="6.77085">
        <ele>2951.3</ele>
        <time>2011-07-30T14:05:25Z</time>
      </trkpt>
      <trkpt lat="45.49456" lon="6.77087">
        <ele>2948.7</ele>
        <time>2011-07-30T14:05:31Z</time>
      </trkpt>
      <trkpt lat="45.49446" lon="6.77092">
        <ele>2946.2</ele>
        <time>2011-07-30T14:05:36Z</time>
      </trkpt>
      <trkpt lat="45.49435" lon="6.77097">
        <ele>2943.6</ele>
        <time>2011-07-30T14:05:41Z</time>
      </trkpt>
      <trkpt lat="45.49426" lon="6.77103">
        <ele>2944.5</ele>
        <time>2011-07-30T14:05:46Z</time>
      </trkpt>
      <trkpt lat="45.49418" lon="6.77108">
        <ele>2943.5</ele>
        <time>2011-07-30T14:05:50Z</time>
      </trkpt>
      <trkpt lat="45.49408" lon="6.77115">
        <ele>2942.5</ele>
        <time>2011-07-30T14:05:55Z</time>
      </trkpt>
      <trkpt lat="45.49399" lon="6.77123">
        <ele>2944</ele>
        <time>2011-07-30T14:06:00Z</time>
      </trkpt>
      <trkpt lat="45.4939" lon="6.77129">
        <ele>2945.5</ele>
        <time>2011-07-30T14:06:04Z</time>
      </trkpt>
      <trkpt lat="45.49381" lon="6.77136">
        <ele>2947.1</ele>
        <time>2011-07-30T14:06:09Z</time>
      </trkpt>
      <trkpt lat="45.49372" lon="6.77143">
        <ele>2945.6</ele>
        <time>2011-07-30T14:06:13Z</time>
      </trkpt>
      <trkpt lat="45.49363" lon="6.77147">
        <ele>2944.2</ele>
        <time>2011-07-30T14:06:17Z</time>
      </trkpt>
      <trkpt lat="45.49353" lon="6.77146">
        <ele>2942.7</ele>
        <time>2011-07-30T14:06:21Z</time>
      </trkpt>
      <trkpt lat="45.49344" lon="6.77141">
        <ele>2941.3</ele>
        <time>2011-07-30T14:06:25Z</time>
      </trkpt>
      <trkpt lat="45.49333" lon="6.77137">
        <ele>2939.8</ele>
        <time>2011-07-30T14:06:30Z</time>
      </trkpt>
      <trkpt lat="45.49325" lon="6.77131">
        <ele>2935</ele>
        <time>2011-07-30T14:06:34Z</time>
      </trkpt>
      <trkpt lat="45.49317" lon="6.77123">
        <ele>2932</ele>
        <time>2011-07-30T14:06:38Z</time>
      </trkpt>
      <trkpt lat="45.49308" lon="6.77113">
        <ele>2929</ele>
        <time>2011-07-30T14:06:43Z</time>
      </trkpt>
      <trkpt lat="45.49301" lon="6.77104">
        <ele>2926</ele>
        <time>2011-07-30T14:06:48Z</time>
      </trkpt>
      <trkpt lat="45.49296" lon="6.77092">
        <ele>2923</ele>
        <time>2011-07-30T14:06:54Z</time>
      </trkpt>
      <trkpt lat="45.49306" lon="6.7709">
        <ele>2920</ele>
        <time>2011-07-30T14:07:00Z</time>
      </trkpt>
      <trkpt lat="45.49316" lon="6.77094">
        <ele>2920</ele>
        <time>2011-07-30T14:07:05Z</time>
      </trkpt>
      <trkpt lat="45.49325" lon="6.77097">
        <ele>2917.7</ele>
        <time>2011-07-30T14:07:11Z</time>
      </trkpt>
      <trkpt lat="45.49332" lon="6.77087">
        <ele>2915.5</ele>
        <time>2011-07-30T14:07:26Z</time>
      </trkpt>
      <trkpt lat="45.49336" lon="6.77076">
        <ele>2913.2</ele>
        <time>2011-07-30T14:07:37Z</time>
      </trkpt>
      <trkpt lat="45.4934" lon="6.77064">
        <ele>2910.9</ele>
        <time>2011-07-30T14:07:50Z</time>
      </trkpt>
      <trkpt lat="45.49338" lon="6.77051">
        <ele>2908.6</ele>
        <time>2011-07-30T14:08:05Z</time>
      </trkpt>
      <trkpt lat="45.49342" lon="6.77039">
        <ele>2906.4</ele>
        <time>2011-07-30T14:08:15Z</time>
      </trkpt>
      <trkpt lat="45.49344" lon="6.77025">
        <ele>2902.2</ele>
        <time>2011-07-30T14:08:23Z</time>
      </trkpt>
      <trkpt lat="45.49343" lon="6.77012">
        <ele>2898</ele>
        <time>2011-07-30T14:08:33Z</time>
      </trkpt>
      <trkpt lat="45.49347" lon="6.76999">
        <ele>2893.8</ele>
        <time>2011-07-30T14:08:43Z</time>
      </trkpt>
      <trkpt lat="45.49348" lon="6.76986">
        <ele>2889.6</ele>
        <time>2011-07-30T14:08:54Z</time>
      </trkpt>
      <trkpt lat="45.4935" lon="6.76972">
        <ele>2885.5</ele>
        <time>2011-07-30T14:09:03Z</time>
      </trkpt>
      <trkpt lat="45.49352" lon="6.76959">
        <ele>2883.5</ele>
        <time>2011-07-30T14:09:11Z</time>
      </trkpt>
      <trkpt lat="45.49349" lon="6.76946">
        <ele>2880</ele>
        <time>2011-07-30T14:09:25Z</time>
      </trkpt>
      <trkpt lat="45.49344" lon="6.76935">
        <ele>2876.5</ele>
        <time>2011-07-30T14:09:38Z</time>
      </trkpt>
      <trkpt lat="45.49344" lon="6.76922">
        <ele>2872.9</ele>
        <time>2011-07-30T14:09:47Z</time>
      </trkpt>
      <trkpt lat="45.49347" lon="6.76909">
        <ele>2869.4</ele>
        <time>2011-07-30T14:09:59Z</time>
      </trkpt>
      <trkpt lat="45.49346" lon="6.76895">
        <ele>2865.8</ele>
        <time>2011-07-30T14:10:10Z</time>
      </trkpt>
      <trkpt lat="45.49345" lon="6.76882">
        <ele>2864.2</ele>
        <time>2011-07-30T14:10:19Z</time>
      </trkpt>
      <trkpt lat="45.49344" lon="6.76868">
        <ele>2862.5</ele>
        <time>2011-07-30T14:10:30Z</time>
      </trkpt>
      <trkpt lat="45.49344" lon="6.76855">
        <ele>2859.6</ele>
        <time>2011-07-30T14:10:47Z</time>
      </trkpt>
      <trkpt lat="45.49339" lon="6.76842">
        <ele>2856.7</ele>
        <time>2011-07-30T14:10:55Z</time>
      </trkpt>
      <trkpt lat="45.49341" lon="6.76828">
        <ele>2853.8</ele>
        <time>2011-07-30T14:11:04Z</time>
      </trkpt>
      <trkpt lat="45.49347" lon="6.76817">
        <ele>2850.9</ele>
        <time>2011-07-30T14:11:11Z</time>
      </trkpt>
      <trkpt lat="45.49349" lon="6.76803">
        <ele>2849.6</ele>
        <time>2011-07-30T14:11:16Z</time>
      </trkpt>
      <trkpt lat="45.49351" lon="6.7679">
        <ele>2847</ele>
        <time>2011-07-30T14:11:24Z</time>
      </trkpt>
      <trkpt lat="45.49354" lon="6.76775">
        <ele>2844.4</ele>
        <time>2011-07-30T14:11:30Z</time>
      </trkpt>
      <trkpt lat="45.49356" lon="6.76761">
        <ele>2841.7</ele>
        <time>2011-07-30T14:11:35Z</time>
      </trkpt>
      <trkpt lat="45.49356" lon="6.76746">
        <ele>2839.1</ele>
        <time>2011-07-30T14:11:40Z</time>
      </trkpt>
      <trkpt lat="45.49355" lon="6.76731">
        <ele>2836.5</ele>
        <time>2011-07-30T14:11:45Z</time>
      </trkpt>
      <trkpt lat="45.49354" lon="6.76715">
        <ele>2833.8</ele>
        <time>2011-07-30T14:11:51Z</time>
      </trkpt>
      <trkpt lat="45.49353" lon="6.76699">
        <ele>2832.5</ele>
        <time>2011-07-30T14:11:55Z</time>
      </trkpt>
      <trkpt lat="45.49352" lon="6.76683">
        <ele>2829</ele>
        <time>2011-07-30T14:11:59Z</time>
      </trkpt>
      <trkpt lat="45.49348" lon="6.76669">
        <ele>2825.5</ele>
        <time>2011-07-30T14:12:03Z</time>
      </trkpt>
      <trkpt lat="45.49343" lon="6.76658">
        <ele>2822.1</ele>
        <time>2011-07-30T14:12:07Z</time>
      </trkpt>
      <trkpt lat="45.49336" lon="6.76649">
        <ele>2818.6</ele>
        <time>2011-07-30T14:12:11Z</time>
      </trkpt>
      <trkpt lat="45.49332" lon="6.76634">
        <ele>2816.5</ele>
        <time>2011-07-30T14:12:16Z</time>
      </trkpt>
      <trkpt lat="45.4933" lon="6.76621">
        <ele>2814.5</ele>
        <time>2011-07-30T14:12:23Z</time>
      </trkpt>
      <trkpt lat="45.49337" lon="6.76613">
        <ele>2812.4</ele>
        <time>2011-07-30T14:12:44Z</time>
      </trkpt>
      <trkpt lat="45.49342" lon="6.766">
        <ele>2808.9</ele>
        <time>2011-07-30T14:12:56Z</time>
      </trkpt>
      <trkpt lat="45.49346" lon="6.76586">
        <ele>2805.5</ele>
        <time>2011-07-30T14:13:04Z</time>
      </trkpt>
      <trkpt lat="45.49349" lon="6.76573">
        <ele>2802</ele>
        <time>2011-07-30T14:13:13Z</time>
      </trkpt>
      <trkpt lat="45.4935" lon="6.7656">
        <ele>2798.5</ele>
        <time>2011-07-30T14:13:22Z</time>
      </trkpt>
      <trkpt lat="45.4935" lon="6.76547">
        <ele>2797.2</ele>
        <time>2011-07-30T14:13:33Z</time>
      </trkpt>
      <trkpt lat="45.49344" lon="6.76534">
        <ele>2795.8</ele>
        <time>2011-07-30T14:13:40Z</time>
      </trkpt>
      <trkpt lat="45.4934" lon="6.76522">
        <ele>2794.5</ele>
        <time>2011-07-30T14:13:46Z</time>
      </trkpt>
      <trkpt lat="45.49333" lon="6.76512">
        <ele>2793.1</ele>
        <time>2011-07-30T14:13:50Z</time>
      </trkpt>
      <trkpt lat="45.49327" lon="6.76502">
        <ele>2790.8</ele>
        <time>2011-07-30T14:13:54Z</time>
      </trkpt>
      <trkpt lat="45.49319" lon="6.76496">
        <ele>2788.5</ele>
        <time>2011-07-30T14:13:59Z</time>
      </trkpt>
      <trkpt lat="45.4931" lon="6.7649">
        <ele>2786.3</ele>
        <time>2011-07-30T14:14:03Z</time>
      </trkpt>
      <trkpt lat="45.49302" lon="6.76484">
        <ele>2785.4</ele>
        <time>2011-07-30T14:14:07Z</time>
      </trkpt>
      <trkpt lat="45.49294" lon="6.7648">
        <ele>2783.3</ele>
        <time>2011-07-30T14:14:12Z</time>
      </trkpt>
      <trkpt lat="45.49283" lon="6.76476">
        <ele>2781.2</ele>
        <time>2011-07-30T14:14:17Z</time>
      </trkpt>
      <trkpt lat="45.49273" lon="6.76477">
        <ele>2779.1</ele>
        <time>2011-07-30T14:14:22Z</time>
      </trkpt>
      <trkpt lat="45.49264" lon="6.76473">
        <ele>2777</ele>
        <time>2011-07-30T14:14:28Z</time>
      </trkpt>
      <trkpt lat="45.49258" lon="6.76463">
        <ele>2774.9</ele>
        <time>2011-07-30T14:14:33Z</time>
      </trkpt>
      <trkpt lat="45.49252" lon="6.76454">
        <ele>2772.8</ele>
        <time>2011-07-30T14:14:39Z</time>
      </trkpt>
      <trkpt lat="45.49244" lon="6.76445">
        <ele>2770.7</ele>
        <time>2011-07-30T14:14:45Z</time>
      </trkpt>
      <trkpt lat="45.49237" lon="6.76434">
        <ele>2768.5</ele>
        <time>2011-07-30T14:14:51Z</time>
      </trkpt>
      <trkpt lat="45.49235" lon="6.76421">
        <ele>2766.2</ele>
        <time>2011-07-30T14:14:56Z</time>
      </trkpt>
      <trkpt lat="45.49228" lon="6.76411">
        <ele>2762</ele>
        <time>2011-07-30T14:15:01Z</time>
      </trkpt>
      <trkpt lat="45.4922" lon="6.76403">
        <ele>2757.8</ele>
        <time>2011-07-30T14:15:07Z</time>
      </trkpt>
      <trkpt lat="45.49215" lon="6.76389">
        <ele>2754.8</ele>
        <time>2011-07-30T14:15:14Z</time>
      </trkpt>
      <trkpt lat="45.49218" lon="6.76376">
        <ele>2751.8</ele>
        <time>2011-07-30T14:15:20Z</time>
      </trkpt>
      <trkpt lat="45.49215" lon="6.76363">
        <ele>2747.1</ele>
        <time>2011-07-30T14:15:26Z</time>
      </trkpt>
      <trkpt lat="45.49211" lon="6.76351">
        <ele>2742.4</ele>
        <time>2011-07-30T14:15:33Z</time>
      </trkpt>
      <trkpt lat="45.49209" lon="6.76336">
        <ele>2737.6</ele>
        <time>2011-07-30T14:15:39Z</time>
      </trkpt>
      <trkpt lat="45.49207" lon="6.76321">
        <ele>2732.9</ele>
        <time>2011-07-30T14:15:44Z</time>
      </trkpt>
      <trkpt lat="45.49204" lon="6.76307">
        <ele>2728.2</ele>
        <time>2011-07-30T14:15:50Z</time>
      </trkpt>
      <trkpt lat="45.49198" lon="6.76295">
        <ele>2724.5</ele>
        <time>2011-07-30T14:15:56Z</time>
      </trkpt>
      <trkpt lat="45.49192" lon="6.76283">
        <ele>2720.9</ele>
        <time>2011-07-30T14:16:02Z</time>
      </trkpt>
      <trkpt lat="45.49195" lon="6.76269">
        <ele>2719.2</ele>
        <time>2011-07-30T14:16:08Z</time>
      </trkpt>
      <trkpt lat="45.49191" lon="6.76257">
        <ele>2715.5</ele>
        <time>2011-07-30T14:16:14Z</time>
      </trkpt>
      <trkpt lat="45.49182" lon="6.7625">
        <ele>2711.7</ele>
        <time>2011-07-30T14:16:19Z</time>
      </trkpt>
      <trkpt lat="45.49176" lon="6.76241">
        <ele>2708</ele>
        <time>2011-07-30T14:16:26Z</time>
      </trkpt>
      <trkpt lat="45.4918" lon="6.76228">
        <ele>2706</ele>
        <time>2011-07-30T14:16:33Z</time>
      </trkpt>
      <trkpt lat="45.49172" lon="6.76221">
        <ele>2704</ele>
        <time>2011-07-30T14:16:50Z</time>
      </trkpt>
      <trkpt lat="45.49171" lon="6.76208">
        <ele>2702</ele>
        <time>2011-07-30T14:16:58Z</time>
      </trkpt>
      <trkpt lat="45.49173" lon="6.76194">
        <ele>2700</ele>
        <time>2011-07-30T14:17:07Z</time>
      </trkpt>
      <trkpt lat="45.4917" lon="6.76182">
        <ele>2695.5</ele>
        <time>2011-07-30T14:17:17Z</time>
      </trkpt>
      <trkpt lat="45.4917" lon="6.76168">
        <ele>2690.9</ele>
        <time>2011-07-30T14:17:26Z</time>
      </trkpt>
      <trkpt lat="45.49174" lon="6.76156">
        <ele>2686.4</ele>
        <time>2011-07-30T14:17:33Z</time>
      </trkpt>
      <trkpt lat="45.49181" lon="6.76146">
        <ele>2681.8</ele>
        <time>2011-07-30T14:17:41Z</time>
      </trkpt>
      <trkpt lat="45.49187" lon="6.76134">
        <ele>2679.3</ele>
        <time>2011-07-30T14:17:46Z</time>
      </trkpt>
      <trkpt lat="45.49192" lon="6.76121">
        <ele>2678.2</ele>
        <time>2011-07-30T14:17:51Z</time>
      </trkpt>
      <trkpt lat="45.49194" lon="6.76108">
        <ele>2675</ele>
        <time>2011-07-30T14:17:56Z</time>
      </trkpt>
      <trkpt lat="45.49198" lon="6.76095">
        <ele>2670.5</ele>
        <time>2011-07-30T14:18:01Z</time>
      </trkpt>
      <trkpt lat="45.49203" lon="6.76082">
        <ele>2665.9</ele>
        <time>2011-07-30T14:18:07Z</time>
      </trkpt>
      <trkpt lat="45.49207" lon="6.7607">
        <ele>2661.4</ele>
        <time>2011-07-30T14:18:13Z</time>
      </trkpt>
      <trkpt lat="45.49211" lon="6.76057">
        <ele>2656.8</ele>
        <time>2011-07-30T14:18:19Z</time>
      </trkpt>
      <trkpt lat="45.49214" lon="6.76043">
        <ele>2654.8</ele>
        <time>2011-07-30T14:18:24Z</time>
      </trkpt>
      <trkpt lat="45.49208" lon="6.76031">
        <ele>2652.1</ele>
        <time>2011-07-30T14:18:31Z</time>
      </trkpt>
      <trkpt lat="45.49203" lon="6.76018">
        <ele>2649.4</ele>
        <time>2011-07-30T14:18:38Z</time>
      </trkpt>
      <trkpt lat="45.49198" lon="6.76007">
        <ele>2646.6</ele>
        <time>2011-07-30T14:18:43Z</time>
      </trkpt>
      <trkpt lat="45.49193" lon="6.75992">
        <ele>2643.9</ele>
        <time>2011-07-30T14:18:48Z</time>
      </trkpt>
      <trkpt lat="45.49189" lon="6.75979">
        <ele>2639.7</ele>
        <time>2011-07-30T14:18:52Z</time>
      </trkpt>
      <trkpt lat="45.49186" lon="6.75966">
        <ele>2637.6</ele>
        <time>2011-07-30T14:18:56Z</time>
      </trkpt>
      <trkpt lat="45.49185" lon="6.75951">
        <ele>2636.8</ele>
        <time>2011-07-30T14:19:01Z</time>
      </trkpt>
      <trkpt lat="45.49184" lon="6.75937">
        <ele>2636</ele>
        <time>2011-07-30T14:19:06Z</time>
      </trkpt>
      <trkpt lat="45.49179" lon="6.75923">
        <ele>2635.2</ele>
        <time>2011-07-30T14:19:10Z</time>
      </trkpt>
      <trkpt lat="45.49176" lon="6.75908">
        <ele>2634.4</ele>
        <time>2011-07-30T14:19:15Z</time>
      </trkpt>
      <trkpt lat="45.49172" lon="6.75896">
        <ele>2633.5</ele>
        <time>2011-07-30T14:19:19Z</time>
      </trkpt>
      <trkpt lat="45.49168" lon="6.75884">
        <ele>2633.5</ele>
        <time>2011-07-30T14:19:24Z</time>
      </trkpt>
      <trkpt lat="45.49163" lon="6.7587">
        <ele>2633.5</ele>
        <time>2011-07-30T14:19:31Z</time>
      </trkpt>
      <trkpt lat="45.49159" lon="6.75855">
        <ele>2633.5</ele>
        <time>2011-07-30T14:19:36Z</time>
      </trkpt>
      <trkpt lat="45.49157" lon="6.75841">
        <ele>2633.5</ele>
        <time>2011-07-30T14:19:41Z</time>
      </trkpt>
      <trkpt lat="45.49155" lon="6.75828">
        <ele>2633.5</ele>
        <time>2011-07-30T14:19:45Z</time>
      </trkpt>
      <trkpt lat="45.49155" lon="6.75815">
        <ele>2633.5</ele>
        <time>2011-07-30T14:19:49Z</time>
      </trkpt>
      <trkpt lat="45.49157" lon="6.75801">
        <ele>2633.5</ele>
        <time>2011-07-30T14:19:53Z</time>
      </trkpt>
      <trkpt lat="45.4916" lon="6.75789">
        <ele>2633.6</ele>
        <time>2011-07-30T14:19:58Z</time>
      </trkpt>
      <trkpt lat="45.49166" lon="6.75779">
        <ele>2633.1</ele>
        <time>2011-07-30T14:20:04Z</time>
      </trkpt>
      <trkpt lat="45.49172" lon="6.75767">
        <ele>2632.5</ele>
        <time>2011-07-30T14:20:10Z</time>
      </trkpt>
      <trkpt lat="45.49177" lon="6.75754">
        <ele>2632</ele>
        <time>2011-07-30T14:20:15Z</time>
      </trkpt>
      <trkpt lat="45.49179" lon="6.75741">
        <ele>2631.5</ele>
        <time>2011-07-30T14:20:19Z</time>
      </trkpt>
      <trkpt lat="45.49182" lon="6.75727">
        <ele>2630.8</ele>
        <time>2011-07-30T14:20:24Z</time>
      </trkpt>
      <trkpt lat="45.49186" lon="6.75715">
        <ele>2630.2</ele>
        <time>2011-07-30T14:20:28Z</time>
      </trkpt>
      <trkpt lat="45.49191" lon="6.75701">
        <ele>2629.5</ele>
        <time>2011-07-30T14:20:33Z</time>
      </trkpt>
      <trkpt lat="45.49192" lon="6.75686">
        <ele>2627.4</ele>
        <time>2011-07-30T14:20:39Z</time>
      </trkpt>
      <trkpt lat="45.49193" lon="6.75671">
        <ele>2625.2</ele>
        <time>2011-07-30T14:20:44Z</time>
      </trkpt>
      <trkpt lat="45.49193" lon="6.75657">
        <ele>2623</ele>
        <time>2011-07-30T14:20:49Z</time>
      </trkpt>
      <trkpt lat="45.49189" lon="6.75644">
        <ele>2620.8</ele>
        <time>2011-07-30T14:20:56Z</time>
      </trkpt>
      <trkpt lat="45.49186" lon="6.7563">
        <ele>2619.3</ele>
        <time>2011-07-30T14:21:02Z</time>
      </trkpt>
      <trkpt lat="45.49183" lon="6.75618">
        <ele>2617.7</ele>
        <time>2011-07-30T14:21:07Z</time>
      </trkpt>
      <trkpt lat="45.4918" lon="6.75604">
        <ele>2615.1</ele>
        <time>2011-07-30T14:21:13Z</time>
      </trkpt>
      <trkpt lat="45.49179" lon="6.7559">
        <ele>2612.5</ele>
        <time>2011-07-30T14:21:18Z</time>
      </trkpt>
      <trkpt lat="45.49177" lon="6.75575">
        <ele>2609.8</ele>
        <time>2011-07-30T14:21:24Z</time>
      </trkpt>
      <trkpt lat="45.49175" lon="6.75562">
        <ele>2607.2</ele>
        <time>2011-07-30T14:21:30Z</time>
      </trkpt>
      <trkpt lat="45.49171" lon="6.75549">
        <ele>2604.5</ele>
        <time>2011-07-30T14:21:35Z</time>
      </trkpt>
      <trkpt lat="45.49169" lon="6.75534">
        <ele>2603.5</ele>
        <time>2011-07-30T14:21:41Z</time>
      </trkpt>
      <trkpt lat="45.49166" lon="6.7552">
        <ele>2601.8</ele>
        <time>2011-07-30T14:21:46Z</time>
      </trkpt>
      <trkpt lat="45.49165" lon="6.75505">
        <ele>2600.2</ele>
        <time>2011-07-30T14:21:51Z</time>
      </trkpt>
      <trkpt lat="45.49165" lon="6.75492">
        <ele>2598.5</ele>
        <time>2011-07-30T14:21:55Z</time>
      </trkpt>
      <trkpt lat="45.49164" lon="6.75477">
        <ele>2596.9</ele>
        <time>2011-07-30T14:21:59Z</time>
      </trkpt>
      <trkpt lat="45.49161" lon="6.75463">
        <ele>2595.3</ele>
        <time>2011-07-30T14:22:03Z</time>
      </trkpt>
      <trkpt lat="45.49158" lon="6.75448">
        <ele>2594.7</ele>
        <time>2011-07-30T14:22:07Z</time>
      </trkpt>
      <trkpt lat="45.49152" lon="6.75435">
        <ele>2593.4</ele>
        <time>2011-07-30T14:22:11Z</time>
      </trkpt>
      <trkpt lat="45.49147" lon="6.75424">
        <ele>2592</ele>
        <time>2011-07-30T14:22:15Z</time>
      </trkpt>
      <trkpt lat="45.49143" lon="6.75412">
        <ele>2590.6</ele>
        <time>2011-07-30T14:22:19Z</time>
      </trkpt>
      <trkpt lat="45.49139" lon="6.75399">
        <ele>2589.3</ele>
        <time>2011-07-30T14:22:24Z</time>
      </trkpt>
      <trkpt lat="45.49138" lon="6.75384">
        <ele>2587.9</ele>
        <time>2011-07-30T14:22:29Z</time>
      </trkpt>
      <trkpt lat="45.49138" lon="6.7537">
        <ele>2587.1</ele>
        <time>2011-07-30T14:22:34Z</time>
      </trkpt>
      <trkpt lat="45.49138" lon="6.75357">
        <ele>2585.1</ele>
        <time>2011-07-30T14:22:38Z</time>
      </trkpt>
      <trkpt lat="45.49138" lon="6.75341">
        <ele>2583.1</ele>
        <time>2011-07-30T14:22:43Z</time>
      </trkpt>
      <trkpt lat="45.49137" lon="6.75326">
        <ele>2581.1</ele>
        <time>2011-07-30T14:22:47Z</time>
      </trkpt>
      <trkpt lat="45.49137" lon="6.75313">
        <ele>2579.1</ele>
        <time>2011-07-30T14:22:51Z</time>
      </trkpt>
      <trkpt lat="45.49137" lon="6.75298">
        <ele>2577.1</ele>
        <time>2011-07-30T14:22:56Z</time>
      </trkpt>
      <trkpt lat="45.49139" lon="6.75284">
        <ele>2574.1</ele>
        <time>2011-07-30T14:23:01Z</time>
      </trkpt>
      <trkpt lat="45.49142" lon="6.75271">
        <ele>2571.1</ele>
        <time>2011-07-30T14:23:06Z</time>
      </trkpt>
      <trkpt lat="45.49144" lon="6.75255">
        <ele>2568.1</ele>
        <time>2011-07-30T14:23:11Z</time>
      </trkpt>
      <trkpt lat="45.49145" lon="6.7524">
        <ele>2565.1</ele>
        <time>2011-07-30T14:23:17Z</time>
      </trkpt>
      <trkpt lat="45.49147" lon="6.75226">
        <ele>2562.1</ele>
        <time>2011-07-30T14:23:22Z</time>
      </trkpt>
      <trkpt lat="45.49152" lon="6.75213">
        <ele>2559.1</ele>
        <time>2011-07-30T14:23:29Z</time>
      </trkpt>
      <trkpt lat="45.49155" lon="6.75201">
        <ele>2557.3</ele>
        <time>2011-07-30T14:23:34Z</time>
      </trkpt>
      <trkpt lat="45.49158" lon="6.75188">
        <ele>2554.5</ele>
        <time>2011-07-30T14:23:39Z</time>
      </trkpt>
      <trkpt lat="45.49164" lon="6.75176">
        <ele>2551.6</ele>
        <time>2011-07-30T14:23:47Z</time>
      </trkpt>
      <trkpt lat="45.49168" lon="6.75161">
        <ele>2548.8</ele>
        <time>2011-07-30T14:23:53Z</time>
      </trkpt>
      <trkpt lat="45.49172" lon="6.75147">
        <ele>2546</ele>
        <time>2011-07-30T14:23:58Z</time>
      </trkpt>
      <trkpt lat="45.49173" lon="6.75134">
        <ele>2545</ele>
        <time>2011-07-30T14:24:02Z</time>
      </trkpt>
      <trkpt lat="45.49173" lon="6.75121">
        <ele>2544</ele>
        <time>2011-07-30T14:24:06Z</time>
      </trkpt>
      <trkpt lat="45.49172" lon="6.75107">
        <ele>2542.4</ele>
        <time>2011-07-30T14:24:10Z</time>
      </trkpt>
      <trkpt lat="45.49169" lon="6.75095">
        <ele>2540.7</ele>
        <time>2011-07-30T14:24:14Z</time>
      </trkpt>
      <trkpt lat="45.49166" lon="6.75081">
        <ele>2539.1</ele>
        <time>2011-07-30T14:24:19Z</time>
      </trkpt>
      <trkpt lat="45.49165" lon="6.75067">
        <ele>2537.5</ele>
        <time>2011-07-30T14:24:24Z</time>
      </trkpt>
      <trkpt lat="45.49164" lon="6.75052">
        <ele>2535.8</ele>
        <time>2011-07-30T14:24:29Z</time>
      </trkpt>
      <trkpt lat="45.49164" lon="6.75037">
        <ele>2535.2</ele>
        <time>2011-07-30T14:24:33Z</time>
      </trkpt>
      <trkpt lat="45.49163" lon="6.75025">
        <ele>2534.5</ele>
        <time>2011-07-30T14:24:38Z</time>
      </trkpt>
      <trkpt lat="45.49159" lon="6.75013">
        <ele>2532</ele>
        <time>2011-07-30T14:24:43Z</time>
      </trkpt>
      <trkpt lat="45.49153" lon="6.75002">
        <ele>2529.5</ele>
        <time>2011-07-30T14:24:47Z</time>
      </trkpt>
      <trkpt lat="45.49147" lon="6.74992">
        <ele>2526.9</ele>
        <time>2011-07-30T14:24:51Z</time>
      </trkpt>
      <trkpt lat="45.49139" lon="6.74981">
        <ele>2524.4</ele>
        <time>2011-07-30T14:24:56Z</time>
      </trkpt>
      <trkpt lat="45.49133" lon="6.74969">
        <ele>2522.5</ele>
        <time>2011-07-30T14:25:00Z</time>
      </trkpt>
      <trkpt lat="45.49127" lon="6.74957">
        <ele>2520.5</ele>
        <time>2011-07-30T14:25:04Z</time>
      </trkpt>
      <trkpt lat="45.49121" lon="6.74946">
        <ele>2518.1</ele>
        <time>2011-07-30T14:25:08Z</time>
      </trkpt>
      <trkpt lat="45.49115" lon="6.74935">
        <ele>2515.6</ele>
        <time>2011-07-30T14:25:14Z</time>
      </trkpt>
      <trkpt lat="45.49111" lon="6.74923">
        <ele>2513.2</ele>
        <time>2011-07-30T14:25:21Z</time>
      </trkpt>
      <trkpt lat="45.49111" lon="6.7491">
        <ele>2510.7</ele>
        <time>2011-07-30T14:25:42Z</time>
      </trkpt>
      <trkpt lat="45.49108" lon="6.74896">
        <ele>2508.3</ele>
        <time>2011-07-30T14:25:50Z</time>
      </trkpt>
      <trkpt lat="45.49104" lon="6.74883">
        <ele>2507.7</ele>
        <time>2011-07-30T14:25:57Z</time>
      </trkpt>
      <trkpt lat="45.49102" lon="6.74869">
        <ele>2507.2</ele>
        <time>2011-07-30T14:26:03Z</time>
      </trkpt>
      <trkpt lat="45.49103" lon="6.74856">
        <ele>2506.6</ele>
        <time>2011-07-30T14:26:08Z</time>
      </trkpt>
      <trkpt lat="45.49108" lon="6.74842">
        <ele>2506.1</ele>
        <time>2011-07-30T14:26:13Z</time>
      </trkpt>
      <trkpt lat="45.49113" lon="6.74829">
        <ele>2505.5</ele>
        <time>2011-07-30T14:26:18Z</time>
      </trkpt>
      <trkpt lat="45.4912" lon="6.74819">
        <ele>2505</ele>
        <time>2011-07-30T14:26:23Z</time>
      </trkpt>
      <trkpt lat="45.49126" lon="6.74809">
        <ele>2505</ele>
        <time>2011-07-30T14:26:27Z</time>
      </trkpt>
      <trkpt lat="45.4913" lon="6.74797">
        <ele>2505</ele>
        <time>2011-07-30T14:26:31Z</time>
      </trkpt>
      <trkpt lat="45.49132" lon="6.74784">
        <ele>2503.6</ele>
        <time>2011-07-30T14:26:35Z</time>
      </trkpt>
      <trkpt lat="45.49132" lon="6.7477">
        <ele>2502.3</ele>
        <time>2011-07-30T14:26:39Z</time>
      </trkpt>
      <trkpt lat="45.49131" lon="6.74754">
        <ele>2500.9</ele>
        <time>2011-07-30T14:26:43Z</time>
      </trkpt>
      <trkpt lat="45.49132" lon="6.74739">
        <ele>2499.5</ele>
        <time>2011-07-30T14:26:47Z</time>
      </trkpt>
      <trkpt lat="45.49134" lon="6.74725">
        <ele>2498.2</ele>
        <time>2011-07-30T14:26:51Z</time>
      </trkpt>
      <trkpt lat="45.49137" lon="6.74713">
        <ele>2496.8</ele>
        <time>2011-07-30T14:26:55Z</time>
      </trkpt>
      <trkpt lat="45.49141" lon="6.74699">
        <ele>2495.5</ele>
        <time>2011-07-30T14:27:00Z</time>
      </trkpt>
      <trkpt lat="45.49145" lon="6.74685">
        <ele>2494.1</ele>
        <time>2011-07-30T14:27:05Z</time>
      </trkpt>
      <trkpt lat="45.4915" lon="6.74671">
        <ele>2493.1</ele>
        <time>2011-07-30T14:27:10Z</time>
      </trkpt>
      <trkpt lat="45.49153" lon="6.74659">
        <ele>2492.1</ele>
        <time>2011-07-30T14:27:20Z</time>
      </trkpt>
      <trkpt lat="45.4916" lon="6.7465">
        <ele>2491.1</ele>
        <time>2011-07-30T14:28:21Z</time>
      </trkpt>
      <trkpt lat="45.49169" lon="6.7464">
        <ele>2491.5</ele>
        <time>2011-07-30T14:28:28Z</time>
      </trkpt>
      <trkpt lat="45.49178" lon="6.74631">
        <ele>2491.8</ele>
        <time>2011-07-30T14:28:33Z</time>
      </trkpt>
      <trkpt lat="45.49185" lon="6.7462">
        <ele>2490</ele>
        <time>2011-07-30T14:28:38Z</time>
      </trkpt>
      <trkpt lat="45.49191" lon="6.7461">
        <ele>2488.2</ele>
        <time>2011-07-30T14:28:42Z</time>
      </trkpt>
      <trkpt lat="45.49195" lon="6.74597">
        <ele>2485.8</ele>
        <time>2011-07-30T14:28:46Z</time>
      </trkpt>
      <trkpt lat="45.492" lon="6.74584">
        <ele>2483.5</ele>
        <time>2011-07-30T14:28:50Z</time>
      </trkpt>
      <trkpt lat="45.49206" lon="6.74573">
        <ele>2481.1</ele>
        <time>2011-07-30T14:28:54Z</time>
      </trkpt>
      <trkpt lat="45.49212" lon="6.74562">
        <ele>2478.7</ele>
        <time>2011-07-30T14:28:59Z</time>
      </trkpt>
      <trkpt lat="45.49217" lon="6.74549">
        <ele>2476</ele>
        <time>2011-07-30T14:29:04Z</time>
      </trkpt>
      <trkpt lat="45.49223" lon="6.74537">
        <ele>2473.3</ele>
        <time>2011-07-30T14:29:09Z</time>
      </trkpt>
      <trkpt lat="45.4923" lon="6.74528">
        <ele>2470.5</ele>
        <time>2011-07-30T14:29:13Z</time>
      </trkpt>
      <trkpt lat="45.49237" lon="6.74518">
        <ele>2467.8</ele>
        <time>2011-07-30T14:29:16Z</time>
      </trkpt>
      <trkpt lat="45.49245" lon="6.7451">
        <ele>2465.1</ele>
        <time>2011-07-30T14:29:19Z</time>
      </trkpt>
      <trkpt lat="45.49253" lon="6.74502">
        <ele>2464.8</ele>
        <time>2011-07-30T14:29:22Z</time>
      </trkpt>
      <trkpt lat="45.4926" lon="6.74493">
        <ele>2462.2</ele>
        <time>2011-07-30T14:29:26Z</time>
      </trkpt>
      <trkpt lat="45.49267" lon="6.74485">
        <ele>2460.1</ele>
        <time>2011-07-30T14:29:30Z</time>
      </trkpt>
      <trkpt lat="45.49276" lon="6.74477">
        <ele>2458</ele>
        <time>2011-07-30T14:29:35Z</time>
      </trkpt>
      <trkpt lat="45.49285" lon="6.74469">
        <ele>2455.9</ele>
        <time>2011-07-30T14:29:39Z</time>
      </trkpt>
      <trkpt lat="45.49292" lon="6.74461">
        <ele>2453.8</ele>
        <time>2011-07-30T14:29:43Z</time>
      </trkpt>
      <trkpt lat="45.493" lon="6.74453">
        <ele>2451.7</ele>
        <time>2011-07-30T14:29:47Z</time>
      </trkpt>
      <trkpt lat="45.49306" lon="6.74442">
        <ele>2449.6</ele>
        <time>2011-07-30T14:29:52Z</time>
      </trkpt>
      <trkpt lat="45.49313" lon="6.74431">
        <ele>2447.5</ele>
        <time>2011-07-30T14:29:57Z</time>
      </trkpt>
      <trkpt lat="45.4932" lon="6.74422">
        <ele>2445.5</ele>
        <time>2011-07-30T14:30:01Z</time>
      </trkpt>
      <trkpt lat="45.49329" lon="6.74413">
        <ele>2442.3</ele>
        <time>2011-07-30T14:30:06Z</time>
      </trkpt>
      <trkpt lat="45.49335" lon="6.74403">
        <ele>2438</ele>
        <time>2011-07-30T14:30:10Z</time>
      </trkpt>
      <trkpt lat="45.49343" lon="6.74395">
        <ele>2436.1</ele>
        <time>2011-07-30T14:30:14Z</time>
      </trkpt>
      <trkpt lat="45.49352" lon="6.74387">
        <ele>2434.2</ele>
        <time>2011-07-30T14:30:19Z</time>
      </trkpt>
      <trkpt lat="45.49361" lon="6.74379">
        <ele>2432.3</ele>
        <time>2011-07-30T14:30:23Z</time>
      </trkpt>
      <trkpt lat="45.4937" lon="6.74373">
        <ele>2430.4</ele>
        <time>2011-07-30T14:30:27Z</time>
      </trkpt>
      <trkpt lat="45.49379" lon="6.74367">
        <ele>2428.5</ele>
        <time>2011-07-30T14:30:31Z</time>
      </trkpt>
      <trkpt lat="45.49387" lon="6.74359">
        <ele>2426.5</ele>
        <time>2011-07-30T14:30:35Z</time>
      </trkpt>
      <trkpt lat="45.49396" lon="6.74352">
        <ele>2424.6</ele>
        <time>2011-07-30T14:30:39Z</time>
      </trkpt>
      <trkpt lat="45.49404" lon="6.74344">
        <ele>2422.7</ele>
        <time>2011-07-30T14:30:44Z</time>
      </trkpt>
      <trkpt lat="45.49414" lon="6.74337">
        <ele>2420.8</ele>
        <time>2011-07-30T14:30:49Z</time>
      </trkpt>
      <trkpt lat="45.49423" lon="6.74331">
        <ele>2419.1</ele>
        <time>2011-07-30T14:30:54Z</time>
      </trkpt>
      <trkpt lat="45.49434" lon="6.74325">
        <ele>2418.2</ele>
        <time>2011-07-30T14:30:59Z</time>
      </trkpt>
      <trkpt lat="45.49444" lon="6.74319">
        <ele>2415.8</ele>
        <time>2011-07-30T14:31:03Z</time>
      </trkpt>
      <trkpt lat="45.49454" lon="6.74314">
        <ele>2413.5</ele>
        <time>2011-07-30T14:31:07Z</time>
      </trkpt>
      <trkpt lat="45.49463" lon="6.74308">
        <ele>2411.1</ele>
        <time>2011-07-30T14:31:11Z</time>
      </trkpt>
      <trkpt lat="45.49471" lon="6.74302">
        <ele>2408.7</ele>
        <time>2011-07-30T14:31:15Z</time>
      </trkpt>
      <trkpt lat="45.49482" lon="6.74297">
        <ele>2406.4</ele>
        <time>2011-07-30T14:31:20Z</time>
      </trkpt>
      <trkpt lat="45.49491" lon="6.74292">
        <ele>2404</ele>
        <time>2011-07-30T14:31:24Z</time>
      </trkpt>
      <trkpt lat="45.49501" lon="6.74289">
        <ele>2401.6</ele>
        <time>2011-07-30T14:31:29Z</time>
      </trkpt>
      <trkpt lat="45.4951" lon="6.74287">
        <ele>2399.3</ele>
        <time>2011-07-30T14:31:34Z</time>
      </trkpt>
      <trkpt lat="45.49508" lon="6.74274">
        <ele>2398</ele>
        <time>2011-07-30T14:31:40Z</time>
      </trkpt>
      <trkpt lat="45.49494" lon="6.74269">
        <ele>2395.8</ele>
        <time>2011-07-30T14:31:44Z</time>
      </trkpt>
      <trkpt lat="45.49485" lon="6.74263">
        <ele>2393.6</ele>
        <time>2011-07-30T14:31:48Z</time>
      </trkpt>
      <trkpt lat="45.49475" lon="6.74259">
        <ele>2392.9</ele>
        <time>2011-07-30T14:31:52Z</time>
      </trkpt>
      <trkpt lat="45.49466" lon="6.74251">
        <ele>2392.2</ele>
        <time>2011-07-30T14:31:57Z</time>
      </trkpt>
      <trkpt lat="45.49459" lon="6.74218">
        <ele>2391.5</ele>
        <time>2011-07-30T14:32:16Z</time>
      </trkpt>
      <trkpt lat="45.49465" lon="6.74208">
        <ele>2390.7</ele>
        <time>2011-07-30T14:32:19Z</time>
      </trkpt>
      <trkpt lat="45.49473" lon="6.74202">
        <ele>2390</ele>
        <time>2011-07-30T14:32:22Z</time>
      </trkpt>
      <trkpt lat="45.49482" lon="6.74199">
        <ele>2387.2</ele>
        <time>2011-07-30T14:32:25Z</time>
      </trkpt>
      <trkpt lat="45.49494" lon="6.74198">
        <ele>2384.4</ele>
        <time>2011-07-30T14:32:29Z</time>
      </trkpt>
      <trkpt lat="45.49504" lon="6.74199">
        <ele>2381.5</ele>
        <time>2011-07-30T14:32:33Z</time>
      </trkpt>
      <trkpt lat="45.49513" lon="6.74199">
        <ele>2377.6</ele>
        <time>2011-07-30T14:32:38Z</time>
      </trkpt>
      <trkpt lat="45.49533" lon="6.74172">
        <ele>2375.5</ele>
        <time>2011-07-30T14:32:51Z</time>
      </trkpt>
      <trkpt lat="45.49562" lon="6.74173">
        <ele>2371.9</ele>
        <time>2011-07-30T14:33:02Z</time>
      </trkpt>
      <trkpt lat="45.49571" lon="6.74174">
        <ele>2368.3</ele>
        <time>2011-07-30T14:33:09Z</time>
      </trkpt>
      <trkpt lat="45.49581" lon="6.74174">
        <ele>2364.6</ele>
        <time>2011-07-30T14:33:14Z</time>
      </trkpt>
      <trkpt lat="45.49591" lon="6.74174">
        <ele>2361</ele>
        <time>2011-07-30T14:33:19Z</time>
      </trkpt>
      <trkpt lat="45.49602" lon="6.74173">
        <ele>2355.4</ele>
        <time>2011-07-30T14:33:23Z</time>
      </trkpt>
      <trkpt lat="45.4963" lon="6.74164">
        <ele>2349.7</ele>
        <time>2011-07-30T14:33:36Z</time>
      </trkpt>
      <trkpt lat="45.49659" lon="6.74163">
        <ele>2346.2</ele>
        <time>2011-07-30T14:33:48Z</time>
      </trkpt>
      <trkpt lat="45.49685" lon="6.74154">
        <ele>2342.6</ele>
        <time>2011-07-30T14:34:00Z</time>
      </trkpt>
      <trkpt lat="45.49704" lon="6.74149">
        <ele>2339.1</ele>
        <time>2011-07-30T14:34:08Z</time>
      </trkpt>
      <trkpt lat="45.49714" lon="6.7415">
        <ele>2335.5</ele>
        <time>2011-07-30T14:34:12Z</time>
      </trkpt>
      <trkpt lat="45.49723" lon="6.74152">
        <ele>2332</ele>
        <time>2011-07-30T14:34:18Z</time>
      </trkpt>
      <trkpt lat="45.49733" lon="6.74158">
        <ele>2330</ele>
        <time>2011-07-30T14:34:24Z</time>
      </trkpt>
      <trkpt lat="45.49742" lon="6.74162">
        <ele>2328</ele>
        <time>2011-07-30T14:34:28Z</time>
      </trkpt>
      <trkpt lat="45.49751" lon="6.74168">
        <ele>2323.9</ele>
        <time>2011-07-30T14:34:32Z</time>
      </trkpt>
      <trkpt lat="45.4976" lon="6.74172">
        <ele>2319.8</ele>
        <time>2011-07-30T14:34:37Z</time>
      </trkpt>
      <trkpt lat="45.4977" lon="6.74174">
        <ele>2317.7</ele>
        <time>2011-07-30T14:34:42Z</time>
      </trkpt>
      <trkpt lat="45.49779" lon="6.74177">
        <ele>2315.6</ele>
        <time>2011-07-30T14:34:47Z</time>
      </trkpt>
      <trkpt lat="45.49788" lon="6.74174">
        <ele>2313.5</ele>
        <time>2011-07-30T14:34:59Z</time>
      </trkpt>
      <trkpt lat="45.49797" lon="6.74177">
        <ele>2311.5</ele>
        <time>2011-07-30T14:35:06Z</time>
      </trkpt>
      <trkpt lat="45.49806" lon="6.74178">
        <ele>2309.4</ele>
        <time>2011-07-30T14:35:12Z</time>
      </trkpt>
      <trkpt lat="45.49813" lon="6.74185">
        <ele>2307.3</ele>
        <time>2011-07-30T14:35:17Z</time>
      </trkpt>
      <trkpt lat="45.49822" lon="6.74192">
        <ele>2305.2</ele>
        <time>2011-07-30T14:35:23Z</time>
      </trkpt>
      <trkpt lat="45.49832" lon="6.74195">
        <ele>2301.3</ele>
        <time>2011-07-30T14:35:30Z</time>
      </trkpt>
      <trkpt lat="45.49841" lon="6.742">
        <ele>2297.4</ele>
        <time>2011-07-30T14:35:41Z</time>
      </trkpt>
      <trkpt lat="45.49851" lon="6.742">
        <ele>2295.5</ele>
        <time>2011-07-30T14:35:48Z</time>
      </trkpt>
      <trkpt lat="45.4986" lon="6.74199">
        <ele>2293.7</ele>
        <time>2011-07-30T14:35:53Z</time>
      </trkpt>
      <trkpt lat="45.49869" lon="6.74196">
        <ele>2291.9</ele>
        <time>2011-07-30T14:35:59Z</time>
      </trkpt>
      <trkpt lat="45.49877" lon="6.74189">
        <ele>2290.1</ele>
        <time>2011-07-30T14:36:05Z</time>
      </trkpt>
      <trkpt lat="45.49883" lon="6.74179">
        <ele>2288.5</ele>
        <time>2011-07-30T14:36:09Z</time>
      </trkpt>
      <trkpt lat="45.4989" lon="6.74169">
        <ele>2286.8</ele>
        <time>2011-07-30T14:36:12Z</time>
      </trkpt>
      <trkpt lat="45.49897" lon="6.74159">
        <ele>2285.2</ele>
        <time>2011-07-30T14:36:16Z</time>
      </trkpt>
      <trkpt lat="45.49903" lon="6.74146">
        <ele>2283.5</ele>
        <time>2011-07-30T14:36:21Z</time>
      </trkpt>
      <trkpt lat="45.49906" lon="6.74133">
        <ele>2281.9</ele>
        <time>2011-07-30T14:36:26Z</time>
      </trkpt>
      <trkpt lat="45.49911" lon="6.74122">
        <ele>2282.1</ele>
        <time>2011-07-30T14:36:36Z</time>
      </trkpt>
      <trkpt lat="45.4992" lon="6.74115">
        <ele>2280.6</ele>
        <time>2011-07-30T14:36:45Z</time>
      </trkpt>
      <trkpt lat="45.49929" lon="6.74113">
        <ele>2279.2</ele>
        <time>2011-07-30T14:36:52Z</time>
      </trkpt>
      <trkpt lat="45.49939" lon="6.74108">
        <ele>2277.7</ele>
        <time>2011-07-30T14:36:58Z</time>
      </trkpt>
      <trkpt lat="45.49947" lon="6.74101">
        <ele>2276.3</ele>
        <time>2011-07-30T14:37:04Z</time>
      </trkpt>
      <trkpt lat="45.49956" lon="6.74094">
        <ele>2274.8</ele>
        <time>2011-07-30T14:37:10Z</time>
      </trkpt>
      <trkpt lat="45.49964" lon="6.74085">
        <ele>2273.2</ele>
        <time>2011-07-30T14:37:15Z</time>
      </trkpt>
      <trkpt lat="45.49974" lon="6.74082">
        <ele>2271.5</ele>
        <time>2011-07-30T14:37:20Z</time>
      </trkpt>
      <trkpt lat="45.49984" lon="6.74079">
        <ele>2270.8</ele>
        <time>2011-07-30T14:37:25Z</time>
      </trkpt>
      <trkpt lat="45.49993" lon="6.74073">
        <ele>2270.1</ele>
        <time>2011-07-30T14:37:30Z</time>
      </trkpt>
      <trkpt lat="45.50001" lon="6.74066">
        <ele>2269.4</ele>
        <time>2011-07-30T14:37:34Z</time>
      </trkpt>
      <trkpt lat="45.5001" lon="6.74059">
        <ele>2267</ele>
        <time>2011-07-30T14:37:38Z</time>
      </trkpt>
      <trkpt lat="45.50018" lon="6.74051">
        <ele>2266.3</ele>
        <time>2011-07-30T14:37:43Z</time>
      </trkpt>
      <trkpt lat="45.50025" lon="6.74043">
        <ele>2265.5</ele>
        <time>2011-07-30T14:37:52Z</time>
      </trkpt>
      <trkpt lat="45.50036" lon="6.74044">
        <ele>2264.8</ele>
        <time>2011-07-30T14:37:58Z</time>
      </trkpt>
      <trkpt lat="45.50046" lon="6.74045">
        <ele>2264.1</ele>
        <time>2011-07-30T14:38:04Z</time>
      </trkpt>
      <trkpt lat="45.50055" lon="6.74041">
        <ele>2263.4</ele>
        <time>2011-07-30T14:38:09Z</time>
      </trkpt>
      <trkpt lat="45.50064" lon="6.74035">
        <ele>2262.6</ele>
        <time>2011-07-30T14:38:14Z</time>
      </trkpt>
      <trkpt lat="45.50074" lon="6.74033">
        <ele>2261.9</ele>
        <time>2011-07-30T14:38:19Z</time>
      </trkpt>
      <trkpt lat="45.50084" lon="6.74031">
        <ele>2258</ele>
        <time>2011-07-30T14:38:25Z</time>
      </trkpt>
      <trkpt lat="45.50092" lon="6.74026">
        <ele>2254.1</ele>
        <time>2011-07-30T14:38:32Z</time>
      </trkpt>
      <trkpt lat="45.50101" lon="6.74024">
        <ele>2250.2</ele>
        <time>2011-07-30T14:38:39Z</time>
      </trkpt>
      <trkpt lat="45.5011" lon="6.7402">
        <ele>2247.9</ele>
        <time>2011-07-30T14:38:46Z</time>
      </trkpt>
      <trkpt lat="45.50121" lon="6.74018">
        <ele>2245.6</ele>
        <time>2011-07-30T14:38:53Z</time>
      </trkpt>
      <trkpt lat="45.50129" lon="6.74008">
        <ele>2244.5</ele>
        <time>2011-07-30T14:38:58Z</time>
      </trkpt>
      <trkpt lat="45.50135" lon="6.73997">
        <ele>2243.5</ele>
        <time>2011-07-30T14:39:04Z</time>
      </trkpt>
      <trkpt lat="45.5014" lon="6.73986">
        <ele>2242.4</ele>
        <time>2011-07-30T14:39:10Z</time>
      </trkpt>
      <trkpt lat="45.50148" lon="6.73978">
        <ele>2241.3</ele>
        <time>2011-07-30T14:39:15Z</time>
      </trkpt>
      <trkpt lat="45.50157" lon="6.73973">
        <ele>2240.2</ele>
        <time>2011-07-30T14:39:19Z</time>
      </trkpt>
      <trkpt lat="45.50166" lon="6.73966">
        <ele>2235.5</ele>
        <time>2011-07-30T14:39:23Z</time>
      </trkpt>
      <trkpt lat="45.50175" lon="6.73961">
        <ele>2233</ele>
        <time>2011-07-30T14:39:27Z</time>
      </trkpt>
      <trkpt lat="45.50185" lon="6.73958">
        <ele>2230.5</ele>
        <time>2011-07-30T14:39:32Z</time>
      </trkpt>
      <trkpt lat="45.50196" lon="6.73955">
        <ele>2228.1</ele>
        <time>2011-07-30T14:39:37Z</time>
      </trkpt>
      <trkpt lat="45.50206" lon="6.73956">
        <ele>2225.6</ele>
        <time>2011-07-30T14:39:41Z</time>
      </trkpt>
      <trkpt lat="45.50216" lon="6.73959">
        <ele>2223.2</ele>
        <time>2011-07-30T14:39:46Z</time>
      </trkpt>
      <trkpt lat="45.50224" lon="6.73961">
        <ele>2219.5</ele>
        <time>2011-07-30T14:39:56Z</time>
      </trkpt>
      <trkpt lat="45.50234" lon="6.73961">
        <ele>2215.9</ele>
        <time>2011-07-30T14:40:03Z</time>
      </trkpt>
      <trkpt lat="45.50243" lon="6.73967">
        <ele>2212.3</ele>
        <time>2011-07-30T14:40:10Z</time>
      </trkpt>
      <trkpt lat="45.50253" lon="6.73967">
        <ele>2205.3</ele>
        <time>2011-07-30T14:40:16Z</time>
      </trkpt>
      <trkpt lat="45.50263" lon="6.73962">
        <ele>2198.3</ele>
        <time>2011-07-30T14:40:22Z</time>
      </trkpt>
      <trkpt lat="45.50273" lon="6.73956">
        <ele>2194.9</ele>
        <time>2011-07-30T14:40:28Z</time>
      </trkpt>
      <trkpt lat="45.50281" lon="6.73947">
        <ele>2191.5</ele>
        <time>2011-07-30T14:40:34Z</time>
      </trkpt>
      <trkpt lat="45.5029" lon="6.7394">
        <ele>2188.9</ele>
        <time>2011-07-30T14:40:40Z</time>
      </trkpt>
      <trkpt lat="45.50299" lon="6.73932">
        <ele>2186.3</ele>
        <time>2011-07-30T14:40:46Z</time>
      </trkpt>
      <trkpt lat="45.50307" lon="6.73923">
        <ele>2183.6</ele>
        <time>2011-07-30T14:40:52Z</time>
      </trkpt>
      <trkpt lat="45.50315" lon="6.73917">
        <ele>2181</ele>
        <time>2011-07-30T14:40:56Z</time>
      </trkpt>
      <trkpt lat="45.50324" lon="6.73914">
        <ele>2175.6</ele>
        <time>2011-07-30T14:41:02Z</time>
      </trkpt>
      <trkpt lat="45.50337" lon="6.7388">
        <ele>2170.3</ele>
        <time>2011-07-30T14:41:22Z</time>
      </trkpt>
      <trkpt lat="45.5034" lon="6.73867">
        <ele>2164.9</ele>
        <time>2011-07-30T14:41:26Z</time>
      </trkpt>
      <trkpt lat="45.50348" lon="6.73856">
        <ele>2162.9</ele>
        <time>2011-07-30T14:41:33Z</time>
      </trkpt>
      <trkpt lat="45.50375" lon="6.73859">
        <ele>2160.9</ele>
        <time>2011-07-30T14:41:44Z</time>
      </trkpt>
      <trkpt lat="45.50384" lon="6.7386">
        <ele>2158.9</ele>
        <time>2011-07-30T14:41:47Z</time>
      </trkpt>
      <trkpt lat="45.50395" lon="6.73862">
        <ele>2156.9</ele>
        <time>2011-07-30T14:41:51Z</time>
      </trkpt>
      <trkpt lat="45.50406" lon="6.73864">
        <ele>2149.9</ele>
        <time>2011-07-30T14:41:55Z</time>
      </trkpt>
      <trkpt lat="45.50417" lon="6.73867">
        <ele>2144.3</ele>
        <time>2011-07-30T14:41:59Z</time>
      </trkpt>
      <trkpt lat="45.50428" lon="6.73868">
        <ele>2138.6</ele>
        <time>2011-07-30T14:42:04Z</time>
      </trkpt>
      <trkpt lat="45.50454" lon="6.73867">
        <ele>2133</ele>
        <time>2011-07-30T14:42:17Z</time>
      </trkpt>
      <trkpt lat="45.50457" lon="6.73881">
        <ele>2130.1</ele>
        <time>2011-07-30T14:42:25Z</time>
      </trkpt>
      <trkpt lat="45.50466" lon="6.73886">
        <ele>2123.5</ele>
        <time>2011-07-30T14:42:38Z</time>
      </trkpt>
      <trkpt lat="45.50465" lon="6.73873">
        <ele>2117</ele>
        <time>2011-07-30T14:42:49Z</time>
      </trkpt>
      <trkpt lat="45.50466" lon="6.7386">
        <ele>2110.5</ele>
        <time>2011-07-30T14:42:57Z</time>
      </trkpt>
      <trkpt lat="45.50493" lon="6.73848">
        <ele>2103.9</ele>
        <time>2011-07-30T14:43:12Z</time>
      </trkpt>
      <trkpt lat="45.50518" lon="6.7383">
        <ele>2097.4</ele>
        <time>2011-07-30T14:43:31Z</time>
      </trkpt>
      <trkpt lat="45.50547" lon="6.7383">
        <ele>2090.8</ele>
        <time>2011-07-30T14:43:49Z</time>
      </trkpt>
      <trkpt lat="45.50568" lon="6.73811">
        <ele>2088.5</ele>
        <time>2011-07-30T14:44:09Z</time>
      </trkpt>
      <trkpt lat="45.50575" lon="6.7382">
        <ele>2084.9</ele>
        <time>2011-07-30T14:44:14Z</time>
      </trkpt>
      <trkpt lat="45.50601" lon="6.73838">
        <ele>2081.3</ele>
        <time>2011-07-30T14:44:27Z</time>
      </trkpt>
      <trkpt lat="45.5061" lon="6.73845">
        <ele>2073.6</ele>
        <time>2011-07-30T14:44:31Z</time>
      </trkpt>
      <trkpt lat="45.50597" lon="6.73832">
        <ele>2064.3</ele>
        <time>2011-07-30T14:44:43Z</time>
      </trkpt>
      <trkpt lat="45.50599" lon="6.73818">
        <ele>2058.5</ele>
        <time>2011-07-30T14:44:47Z</time>
      </trkpt>
      <trkpt lat="45.50614" lon="6.73824">
        <ele>2052.8</ele>
        <time>2011-07-30T14:44:56Z</time>
      </trkpt>
      <trkpt lat="45.50623" lon="6.73827">
        <ele>2047.1</ele>
        <time>2011-07-30T14:45:00Z</time>
      </trkpt>
      <trkpt lat="45.50648" lon="6.73812">
        <ele>2041.4</ele>
        <time>2011-07-30T14:45:35Z</time>
      </trkpt>
      <trkpt lat="45.50665" lon="6.73781">
        <ele>2034.6</ele>
        <time>2011-07-30T14:45:58Z</time>
      </trkpt>
      <trkpt lat="45.50655" lon="6.73774">
        <ele>2027.9</ele>
        <time>2011-07-30T14:46:02Z</time>
      </trkpt>
      <trkpt lat="45.5065" lon="6.7376">
        <ele>2021.2</ele>
        <time>2011-07-30T14:46:08Z</time>
      </trkpt>
      <trkpt lat="45.50647" lon="6.73745">
        <ele>2014.5</ele>
        <time>2011-07-30T14:46:12Z</time>
      </trkpt>
      <trkpt lat="45.50645" lon="6.73733">
        <ele>2007.7</ele>
        <time>2011-07-30T14:46:16Z</time>
      </trkpt>
      <trkpt lat="45.50633" lon="6.73706">
        <ele>2005</ele>
        <time>2011-07-30T14:46:37Z</time>
      </trkpt>
      <trkpt lat="45.5063" lon="6.7369">
        <ele>2004</ele>
        <time>2011-07-30T14:46:45Z</time>
      </trkpt>
      <trkpt lat="45.50637" lon="6.7368">
        <ele>2003.6</ele>
        <time>2011-07-30T14:46:52Z</time>
      </trkpt>
      <trkpt lat="45.50647" lon="6.73651">
        <ele>2003.3</ele>
        <time>2011-07-30T14:47:21Z</time>
      </trkpt>
      <trkpt lat="45.50657" lon="6.7365">
        <ele>2002.9</ele>
        <time>2011-07-30T14:47:24Z</time>
      </trkpt>
      <trkpt lat="45.50667" lon="6.73648">
        <ele>2002.5</ele>
        <time>2011-07-30T14:47:27Z</time>
      </trkpt>
      <trkpt lat="45.50676" lon="6.73646">
        <ele>2003.2</ele>
        <time>2011-07-30T14:47:30Z</time>
      </trkpt>
      <trkpt lat="45.5068" lon="6.73625">
        <ele>2003.8</ele>
        <time>2011-07-30T14:47:39Z</time>
      </trkpt>
      <trkpt lat="45.50671" lon="6.73613">
        <ele>2005.8</ele>
        <time>2011-07-30T14:47:41Z</time>
      </trkpt>
      <trkpt lat="45.50665" lon="6.736">
        <ele>2007.8</ele>
        <time>2011-07-30T14:47:45Z</time>
      </trkpt>
      <trkpt lat="45.50653" lon="6.73575">
        <ele>2009.8</ele>
        <time>2011-07-30T14:47:55Z</time>
      </trkpt>
      <trkpt lat="45.50654" lon="6.73562">
        <ele>2011.8</ele>
        <time>2011-07-30T14:48:01Z</time>
      </trkpt>
      <trkpt lat="45.50658" lon="6.73549">
        <ele>2013.8</ele>
        <time>2011-07-30T14:48:13Z</time>
      </trkpt>
      <trkpt lat="45.50664" lon="6.73539">
        <ele>2015.2</ele>
        <time>2011-07-30T14:48:20Z</time>
      </trkpt>
      <trkpt lat="45.50668" lon="6.73526">
        <ele>2016.5</ele>
        <time>2011-07-30T14:48:26Z</time>
      </trkpt>
      <trkpt lat="45.50672" lon="6.73514">
        <ele>2016.5</ele>
        <time>2011-07-30T14:48:32Z</time>
      </trkpt>
      <trkpt lat="45.50677" lon="6.73503">
        <ele>2016.5</ele>
        <time>2011-07-30T14:48:38Z</time>
      </trkpt>
      <trkpt lat="45.50682" lon="6.73491">
        <ele>2016.5</ele>
        <time>2011-07-30T14:48:45Z</time>
      </trkpt>
      <trkpt lat="45.5069" lon="6.73483">
        <ele>2016.5</ele>
        <time>2011-07-30T14:48:52Z</time>
      </trkpt>
      <trkpt lat="45.50697" lon="6.73473">
        <ele>2015.2</ele>
        <time>2011-07-30T14:48:59Z</time>
      </trkpt>
      <trkpt lat="45.50712" lon="6.73454">
        <ele>2013.8</ele>
        <time>2011-07-30T14:49:08Z</time>
      </trkpt>
      <trkpt lat="45.50723" lon="6.73452">
        <ele>2012.5</ele>
        <time>2011-07-30T14:49:12Z</time>
      </trkpt>
      <trkpt lat="45.50733" lon="6.73449">
        <ele>2011.1</ele>
        <time>2011-07-30T14:49:17Z</time>
      </trkpt>
      <trkpt lat="45.50742" lon="6.73445">
        <ele>2009.7</ele>
        <time>2011-07-30T14:49:21Z</time>
      </trkpt>
      <trkpt lat="45.50751" lon="6.73441">
        <ele>2005.4</ele>
        <time>2011-07-30T14:49:25Z</time>
      </trkpt>
      <trkpt lat="45.50761" lon="6.73437">
        <ele>2004</ele>
        <time>2011-07-30T14:49:29Z</time>
      </trkpt>
      <trkpt lat="45.50771" lon="6.73431">
        <ele>2004</ele>
        <time>2011-07-30T14:49:34Z</time>
      </trkpt>
      <trkpt lat="45.50779" lon="6.73425">
        <ele>2006.4</ele>
        <time>2011-07-30T14:49:39Z</time>
      </trkpt>
      <trkpt lat="45.50787" lon="6.73417">
        <ele>2008.7</ele>
        <time>2011-07-30T14:49:44Z</time>
      </trkpt>
      <trkpt lat="45.50793" lon="6.73407">
        <ele>2011.1</ele>
        <time>2011-07-30T14:49:50Z</time>
      </trkpt>
      <trkpt lat="45.5079" lon="6.73393">
        <ele>2010.6</ele>
        <time>2011-07-30T14:49:56Z</time>
      </trkpt>
      <trkpt lat="45.50787" lon="6.7338">
        <ele>2010.2</ele>
        <time>2011-07-30T14:50:01Z</time>
      </trkpt>
      <trkpt lat="45.50789" lon="6.73368">
        <ele>2009.7</ele>
        <time>2011-07-30T14:50:09Z</time>
      </trkpt>
      <trkpt lat="45.50791" lon="6.73355">
        <ele>2009.3</ele>
        <time>2011-07-30T14:50:17Z</time>
      </trkpt>
      <trkpt lat="45.5079" lon="6.73341">
        <ele>2010.8</ele>
        <time>2011-07-30T14:50:26Z</time>
      </trkpt>
      <trkpt lat="45.50797" lon="6.73332">
        <ele>2015.4</ele>
        <time>2011-07-30T14:50:36Z</time>
      </trkpt>
      <trkpt lat="45.50803" lon="6.73322">
        <ele>2016.9</ele>
        <time>2011-07-30T14:50:45Z</time>
      </trkpt>
      <trkpt lat="45.5081" lon="6.73314">
        <ele>2018.5</ele>
        <time>2011-07-30T14:50:54Z</time>
      </trkpt>
      <trkpt lat="45.50816" lon="6.73303">
        <ele>2017.6</ele>
        <time>2011-07-30T14:51:03Z</time>
      </trkpt>
      <trkpt lat="45.50822" lon="6.73292">
        <ele>2016.8</ele>
        <time>2011-07-30T14:51:09Z</time>
      </trkpt>
      <trkpt lat="45.50824" lon="6.7328">
        <ele>2016</ele>
        <time>2011-07-30T14:51:15Z</time>
      </trkpt>
      <trkpt lat="45.50827" lon="6.73267">
        <ele>2018</ele>
        <time>2011-07-30T14:51:21Z</time>
      </trkpt>
      <trkpt lat="45.50834" lon="6.7326">
        <ele>2018.6</ele>
        <time>2011-07-30T14:51:28Z</time>
      </trkpt>
      <trkpt lat="45.50843" lon="6.73252">
        <ele>2019.3</ele>
        <time>2011-07-30T14:51:36Z</time>
      </trkpt>
      <trkpt lat="45.50852" lon="6.73246">
        <ele>2019.9</ele>
        <time>2011-07-30T14:51:44Z</time>
      </trkpt>
      <trkpt lat="45.50861" lon="6.73238">
        <ele>2018.5</ele>
        <time>2011-07-30T14:51:50Z</time>
      </trkpt>
      <trkpt lat="45.5087" lon="6.73235">
        <ele>2017.2</ele>
        <time>2011-07-30T14:51:57Z</time>
      </trkpt>
      <trkpt lat="45.5088" lon="6.73234">
        <ele>2018.4</ele>
        <time>2011-07-30T14:52:05Z</time>
      </trkpt>
      <trkpt lat="45.50889" lon="6.7323">
        <ele>2019.5</ele>
        <time>2011-07-30T14:52:12Z</time>
      </trkpt>
      <trkpt lat="45.50899" lon="6.73227">
        <ele>2020.7</ele>
        <time>2011-07-30T14:52:20Z</time>
      </trkpt>
      <trkpt lat="45.50908" lon="6.73221">
        <ele>2021.9</ele>
        <time>2011-07-30T14:52:27Z</time>
      </trkpt>
      <trkpt lat="45.50916" lon="6.73215">
        <ele>2022.5</ele>
        <time>2011-07-30T14:52:35Z</time>
      </trkpt>
      <trkpt lat="45.50925" lon="6.73209">
        <ele>2023.2</ele>
        <time>2011-07-30T14:52:43Z</time>
      </trkpt>
      <trkpt lat="45.50934" lon="6.73203">
        <ele>2025.2</ele>
        <time>2011-07-30T14:52:50Z</time>
      </trkpt>
      <trkpt lat="45.50945" lon="6.73199">
        <ele>2027.2</ele>
        <time>2011-07-30T14:52:56Z</time>
      </trkpt>
      <trkpt lat="45.50954" lon="6.73197">
        <ele>2029.2</ele>
        <time>2011-07-30T14:53:01Z</time>
      </trkpt>
      <trkpt lat="45.50965" lon="6.73196">
        <ele>2031.2</ele>
        <time>2011-07-30T14:53:08Z</time>
      </trkpt>
      <trkpt lat="45.50975" lon="6.73195">
        <ele>2033.2</ele>
        <time>2011-07-30T14:53:13Z</time>
      </trkpt>
      <trkpt lat="45.50984" lon="6.73194">
        <ele>2032.6</ele>
        <time>2011-07-30T14:53:18Z</time>
      </trkpt>
      <trkpt lat="45.50993" lon="6.73189">
        <ele>2032.1</ele>
        <time>2011-07-30T14:53:26Z</time>
      </trkpt>
      <trkpt lat="45.51002" lon="6.73184">
        <ele>2030.9</ele>
        <time>2011-07-30T14:53:35Z</time>
      </trkpt>
      <trkpt lat="45.51011" lon="6.73176">
        <ele>2029.7</ele>
        <time>2011-07-30T14:53:43Z</time>
      </trkpt>
      <trkpt lat="45.5102" lon="6.73171">
        <ele>2029.1</ele>
        <time>2011-07-30T14:53:54Z</time>
      </trkpt>
      <trkpt lat="45.5103" lon="6.73167">
        <ele>2028.5</ele>
        <time>2011-07-30T14:54:06Z</time>
      </trkpt>
      <trkpt lat="45.51039" lon="6.73173">
        <ele>2027.8</ele>
        <time>2011-07-30T14:54:13Z</time>
      </trkpt>
      <trkpt lat="45.51048" lon="6.73173">
        <ele>2027.2</ele>
        <time>2011-07-30T14:54:20Z</time>
      </trkpt>
      <trkpt lat="45.51057" lon="6.73168">
        <ele>2026.5</ele>
        <time>2011-07-30T14:54:28Z</time>
      </trkpt>
      <trkpt lat="45.51067" lon="6.7317">
        <ele>2025.9</ele>
        <time>2011-07-30T14:54:37Z</time>
      </trkpt>
      <trkpt lat="45.51077" lon="6.73173">
        <ele>2025.3</ele>
        <time>2011-07-30T14:54:45Z</time>
      </trkpt>
      <trkpt lat="45.51086" lon="6.73174">
        <ele>2023.9</ele>
        <time>2011-07-30T14:54:52Z</time>
      </trkpt>
      <trkpt lat="45.51095" lon="6.73171">
        <ele>2022.5</ele>
        <time>2011-07-30T14:54:59Z</time>
      </trkpt>
      <trkpt lat="45.51103" lon="6.73165">
        <ele>2021.8</ele>
        <time>2011-07-30T14:55:06Z</time>
      </trkpt>
      <trkpt lat="45.51111" lon="6.73159">
        <ele>2021.1</ele>
        <time>2011-07-30T14:55:14Z</time>
      </trkpt>
      <trkpt lat="45.5112" lon="6.73154">
        <ele>2020.4</ele>
        <time>2011-07-30T14:55:22Z</time>
      </trkpt>
      <trkpt lat="45.5113" lon="6.7315">
        <ele>2019.6</ele>
        <time>2011-07-30T14:55:30Z</time>
      </trkpt>
      <trkpt lat="45.51139" lon="6.73146">
        <ele>2018.9</ele>
        <time>2011-07-30T14:55:37Z</time>
      </trkpt>
      <trkpt lat="45.51148" lon="6.73143">
        <ele>2021.3</ele>
        <time>2011-07-30T14:55:43Z</time>
      </trkpt>
      <trkpt lat="45.51157" lon="6.73138">
        <ele>2023.6</ele>
        <time>2011-07-30T14:55:49Z</time>
      </trkpt>
      <trkpt lat="45.51167" lon="6.73135">
        <ele>2024.7</ele>
        <time>2011-07-30T14:56:02Z</time>
      </trkpt>
      <trkpt lat="45.51177" lon="6.73135">
        <ele>2025.8</ele>
        <time>2011-07-30T14:56:09Z</time>
      </trkpt>
      <trkpt lat="45.51188" lon="6.73133">
        <ele>2027.6</ele>
        <time>2011-07-30T14:56:14Z</time>
      </trkpt>
      <trkpt lat="45.51198" lon="6.73129">
        <ele>2029.5</ele>
        <time>2011-07-30T14:56:18Z</time>
      </trkpt>
      <trkpt lat="45.51207" lon="6.73122">
        <ele>2031.3</ele>
        <time>2011-07-30T14:56:22Z</time>
      </trkpt>
      <trkpt lat="45.51216" lon="6.73117">
        <ele>2033.1</ele>
        <time>2011-07-30T14:56:27Z</time>
      </trkpt>
      <trkpt lat="45.51225" lon="6.73113">
        <ele>2034.9</ele>
        <time>2011-07-30T14:56:32Z</time>
      </trkpt>
      <trkpt lat="45.51234" lon="6.73108">
        <ele>2036.7</ele>
        <time>2011-07-30T14:56:38Z</time>
      </trkpt>
      <trkpt lat="45.51243" lon="6.73108">
        <ele>2038.5</ele>
        <time>2011-07-30T14:56:43Z</time>
      </trkpt>
      <trkpt lat="45.51253" lon="6.73107">
        <ele>2036.5</ele>
        <time>2011-07-30T14:56:51Z</time>
      </trkpt>
      <trkpt lat="45.51262" lon="6.73102">
        <ele>2034.4</ele>
        <time>2011-07-30T14:56:59Z</time>
      </trkpt>
      <trkpt lat="45.51271" lon="6.73095">
        <ele>2033.5</ele>
        <time>2011-07-30T14:57:05Z</time>
      </trkpt>
      <trkpt lat="45.51277" lon="6.73085">
        <ele>2032.7</ele>
        <time>2011-07-30T14:57:11Z</time>
      </trkpt>
      <trkpt lat="45.51286" lon="6.73082">
        <ele>2031.9</ele>
        <time>2011-07-30T14:57:17Z</time>
      </trkpt>
      <trkpt lat="45.51296" lon="6.73076">
        <ele>2031.1</ele>
        <time>2011-07-30T14:57:24Z</time>
      </trkpt>
      <trkpt lat="45.51305" lon="6.73075">
        <ele>2030.3</ele>
        <time>2011-07-30T14:57:31Z</time>
      </trkpt>
      <trkpt lat="45.51314" lon="6.7307">
        <ele>2029.5</ele>
        <time>2011-07-30T14:57:40Z</time>
      </trkpt>
      <trkpt lat="45.51322" lon="6.73064">
        <ele>2028.6</ele>
        <time>2011-07-30T14:57:51Z</time>
      </trkpt>
      <trkpt lat="45.51328" lon="6.73075">
        <ele>2027.8</ele>
        <time>2011-07-30T14:58:02Z</time>
      </trkpt>
      <trkpt lat="45.51334" lon="6.73085">
        <ele>2028.5</ele>
        <time>2011-07-30T14:58:12Z</time>
      </trkpt>
      <trkpt lat="45.51343" lon="6.73087">
        <ele>2029.9</ele>
        <time>2011-07-30T14:58:28Z</time>
      </trkpt>
      <trkpt lat="45.51353" lon="6.73091">
        <ele>2031.4</ele>
        <time>2011-07-30T14:58:37Z</time>
      </trkpt>
      <trkpt lat="45.51362" lon="6.73092">
        <ele>2032.8</ele>
        <time>2011-07-30T14:58:45Z</time>
      </trkpt>
      <trkpt lat="45.51372" lon="6.73094">
        <ele>2034.3</ele>
        <time>2011-07-30T14:58:54Z</time>
      </trkpt>
      <trkpt lat="45.5138" lon="6.73101">
        <ele>2035.7</ele>
        <time>2011-07-30T14:59:09Z</time>
      </trkpt>
      <trkpt lat="45.51388" lon="6.73106">
        <ele>2037.2</ele>
        <time>2011-07-30T14:59:26Z</time>
      </trkpt>
      <trkpt lat="45.51396" lon="6.73099">
        <ele>2038.6</ele>
        <time>2011-07-30T14:59:48Z</time>
      </trkpt>
      <trkpt lat="45.51403" lon="6.7309">
        <ele>2040.1</ele>
        <time>2011-07-30T15:00:07Z</time>
      </trkpt>
      <trkpt lat="45.51412" lon="6.73087">
        <ele>2041.5</ele>
        <time>2011-07-30T15:00:26Z</time>
      </trkpt>
      <trkpt lat="45.51421" lon="6.73087">
        <ele>2044.4</ele>
        <time>2011-07-30T15:00:36Z</time>
      </trkpt>
      <trkpt lat="45.51429" lon="6.73082">
        <ele>2045.7</ele>
        <time>2011-07-30T15:00:53Z</time>
      </trkpt>
      <trkpt lat="45.51438" lon="6.73082">
        <ele>2047.1</ele>
        <time>2011-07-30T15:01:13Z</time>
      </trkpt>
      <trkpt lat="45.51448" lon="6.73085">
        <ele>2048.5</ele>
        <time>2011-07-30T15:01:24Z</time>
      </trkpt>
      <trkpt lat="45.51457" lon="6.73088">
        <ele>2049.8</ele>
        <time>2011-07-30T15:01:40Z</time>
      </trkpt>
      <trkpt lat="45.51467" lon="6.73089">
        <ele>2051.2</ele>
        <time>2011-07-30T15:01:48Z</time>
      </trkpt>
      <trkpt lat="45.51476" lon="6.73094">
        <ele>2052.5</ele>
        <time>2011-07-30T15:01:55Z</time>
      </trkpt>
      <trkpt lat="45.51486" lon="6.73096">
        <ele>2053.9</ele>
        <time>2011-07-30T15:02:03Z</time>
      </trkpt>
      <trkpt lat="45.51495" lon="6.73101">
        <ele>2055.3</ele>
        <time>2011-07-30T15:02:10Z</time>
      </trkpt>
      <trkpt lat="45.51503" lon="6.73109">
        <ele>2057.2</ele>
        <time>2011-07-30T15:02:17Z</time>
      </trkpt>
      <trkpt lat="45.51512" lon="6.73112">
        <ele>2059.1</ele>
        <time>2011-07-30T15:02:24Z</time>
      </trkpt>
      <trkpt lat="45.51523" lon="6.7311">
        <ele>2059.6</ele>
        <time>2011-07-30T15:02:31Z</time>
      </trkpt>
      <trkpt lat="45.51532" lon="6.73105">
        <ele>2060.2</ele>
        <time>2011-07-30T15:02:36Z</time>
      </trkpt>
      <trkpt lat="45.51543" lon="6.73104">
        <ele>2060.7</ele>
        <time>2011-07-30T15:02:42Z</time>
      </trkpt>
      <trkpt lat="45.51553" lon="6.73105">
        <ele>2061.3</ele>
        <time>2011-07-30T15:02:49Z</time>
      </trkpt>
      <trkpt lat="45.51562" lon="6.73107">
        <ele>2059.4</ele>
        <time>2011-07-30T15:03:00Z</time>
      </trkpt>
      <trkpt lat="45.51571" lon="6.73113">
        <ele>2057.5</ele>
        <time>2011-07-30T15:03:14Z</time>
      </trkpt>
      <trkpt lat="45.51579" lon="6.7312">
        <ele>2055.5</ele>
        <time>2011-07-30T15:03:23Z</time>
      </trkpt>
      <trkpt lat="45.51587" lon="6.73127">
        <ele>2054.8</ele>
        <time>2011-07-30T15:03:29Z</time>
      </trkpt>
      <trkpt lat="45.51597" lon="6.73131">
        <ele>2054.1</ele>
        <time>2011-07-30T15:03:35Z</time>
      </trkpt>
      <trkpt lat="45.51606" lon="6.73133">
        <ele>2052.8</ele>
        <time>2011-07-30T15:03:42Z</time>
      </trkpt>
      <trkpt lat="45.51615" lon="6.73137">
        <ele>2051.5</ele>
        <time>2011-07-30T15:03:47Z</time>
      </trkpt>
      <trkpt lat="45.51625" lon="6.73144">
        <ele>2050.3</ele>
        <time>2011-07-30T15:03:52Z</time>
      </trkpt>
      <trkpt lat="45.51632" lon="6.73156">
        <ele>2049</ele>
        <time>2011-07-30T15:03:56Z</time>
      </trkpt>
      <trkpt lat="45.5164" lon="6.73162">
        <ele>2047.7</ele>
        <time>2011-07-30T15:04:00Z</time>
      </trkpt>
      <trkpt lat="45.51648" lon="6.73169">
        <ele>2046.5</ele>
        <time>2011-07-30T15:04:06Z</time>
      </trkpt>
      <trkpt lat="45.51656" lon="6.73176">
        <ele>2047.6</ele>
        <time>2011-07-30T15:04:14Z</time>
      </trkpt>
      <trkpt lat="45.51665" lon="6.73177">
        <ele>2047.8</ele>
        <time>2011-07-30T15:04:20Z</time>
      </trkpt>
      <trkpt lat="45.51675" lon="6.73177">
        <ele>2048</ele>
        <time>2011-07-30T15:04:25Z</time>
      </trkpt>
      <trkpt lat="45.51686" lon="6.73175">
        <ele>2047</ele>
        <time>2011-07-30T15:04:30Z</time>
      </trkpt>
      <trkpt lat="45.51695" lon="6.73168">
        <ele>2046</ele>
        <time>2011-07-30T15:04:35Z</time>
      </trkpt>
      <trkpt lat="45.51703" lon="6.7316">
        <ele>2045</ele>
        <time>2011-07-30T15:04:41Z</time>
      </trkpt>
      <trkpt lat="45.51713" lon="6.73155">
        <ele>2044</ele>
        <time>2011-07-30T15:04:46Z</time>
      </trkpt>
      <trkpt lat="45.51722" lon="6.73152">
        <ele>2043</ele>
        <time>2011-07-30T15:04:54Z</time>
      </trkpt>
      <trkpt lat="45.51731" lon="6.73146">
        <ele>2042</ele>
        <time>2011-07-30T15:05:02Z</time>
      </trkpt>
      <trkpt lat="45.5174" lon="6.73141">
        <ele>2041</ele>
        <time>2011-07-30T15:05:08Z</time>
      </trkpt>
      <trkpt lat="45.51749" lon="6.7314">
        <ele>2042.6</ele>
        <time>2011-07-30T15:05:14Z</time>
      </trkpt>
      <trkpt lat="45.5176" lon="6.73141">
        <ele>2044.3</ele>
        <time>2011-07-30T15:05:21Z</time>
      </trkpt>
      <trkpt lat="45.5177" lon="6.73139">
        <ele>2043.7</ele>
        <time>2011-07-30T15:05:27Z</time>
      </trkpt>
      <trkpt lat="45.51779" lon="6.73139">
        <ele>2043.2</ele>
        <time>2011-07-30T15:05:32Z</time>
      </trkpt>
      <trkpt lat="45.51788" lon="6.73138">
        <ele>2042.6</ele>
        <time>2011-07-30T15:05:38Z</time>
      </trkpt>
      <trkpt lat="45.51797" lon="6.73132">
        <ele>2042.1</ele>
        <time>2011-07-30T15:05:45Z</time>
      </trkpt>
      <trkpt lat="45.51806" lon="6.7313">
        <ele>2041.5</ele>
        <time>2011-07-30T15:05:50Z</time>
      </trkpt>
      <trkpt lat="45.51815" lon="6.73134">
        <ele>2041</ele>
        <time>2011-07-30T15:05:57Z</time>
      </trkpt>
      <trkpt lat="45.51825" lon="6.73135">
        <ele>2043.6</ele>
        <time>2011-07-30T15:06:05Z</time>
      </trkpt>
      <trkpt lat="45.51835" lon="6.73134">
        <ele>2045.7</ele>
        <time>2011-07-30T15:06:12Z</time>
      </trkpt>
      <trkpt lat="45.51845" lon="6.73134">
        <ele>2047.8</ele>
        <time>2011-07-30T15:06:18Z</time>
      </trkpt>
      <trkpt lat="45.51854" lon="6.73137">
        <ele>2047.3</ele>
        <time>2011-07-30T15:06:24Z</time>
      </trkpt>
      <trkpt lat="45.51865" lon="6.73136">
        <ele>2046.7</ele>
        <time>2011-07-30T15:06:30Z</time>
      </trkpt>
      <trkpt lat="45.51873" lon="6.73131">
        <ele>2049.4</ele>
        <time>2011-07-30T15:06:36Z</time>
      </trkpt>
      <trkpt lat="45.51882" lon="6.73125">
        <ele>2052</ele>
        <time>2011-07-30T15:06:44Z</time>
      </trkpt>
      <trkpt lat="45.51891" lon="6.73123">
        <ele>2054.6</ele>
        <time>2011-07-30T15:06:54Z</time>
      </trkpt>
      <trkpt lat="45.51899" lon="6.73118">
        <ele>2057.3</ele>
        <time>2011-07-30T15:07:04Z</time>
      </trkpt>
      <trkpt lat="45.51909" lon="6.73114">
        <ele>2059.9</ele>
        <time>2011-07-30T15:07:13Z</time>
      </trkpt>
      <trkpt lat="45.51918" lon="6.73112">
        <ele>2061.3</ele>
        <time>2011-07-30T15:07:21Z</time>
      </trkpt>
      <trkpt lat="45.5193" lon="6.73116">
        <ele>2059.5</ele>
        <time>2011-07-30T15:07:26Z</time>
      </trkpt>
      <trkpt lat="45.51941" lon="6.73119">
        <ele>2058.2</ele>
        <time>2011-07-30T15:07:30Z</time>
      </trkpt>
      <trkpt lat="45.5195" lon="6.7312">
        <ele>2056.9</ele>
        <time>2011-07-30T15:07:35Z</time>
      </trkpt>
      <trkpt lat="45.5196" lon="6.73119">
        <ele>2055.6</ele>
        <time>2011-07-30T15:07:42Z</time>
      </trkpt>
      <trkpt lat="45.51969" lon="6.73118">
        <ele>2054.4</ele>
        <time>2011-07-30T15:07:49Z</time>
      </trkpt>
      <trkpt lat="45.51978" lon="6.73116">
        <ele>2053.1</ele>
        <time>2011-07-30T15:07:56Z</time>
      </trkpt>
      <trkpt lat="45.51987" lon="6.7311">
        <ele>2051.8</ele>
        <time>2011-07-30T15:08:02Z</time>
      </trkpt>
      <trkpt lat="45.51997" lon="6.73106">
        <ele>2050.5</ele>
        <time>2011-07-30T15:08:09Z</time>
      </trkpt>
      <trkpt lat="45.52006" lon="6.7311">
        <ele>2049.3</ele>
        <time>2011-07-30T15:08:20Z</time>
      </trkpt>
      <trkpt lat="45.52016" lon="6.73111">
        <ele>2048</ele>
        <time>2011-07-30T15:08:29Z</time>
      </trkpt>
      <trkpt lat="45.52025" lon="6.7311">
        <ele>2048</ele>
        <time>2011-07-30T15:08:36Z</time>
      </trkpt>
      <trkpt lat="45.52032" lon="6.73101">
        <ele>2050.6</ele>
        <time>2011-07-30T15:08:45Z</time>
      </trkpt>
      <trkpt lat="45.52034" lon="6.73088">
        <ele>2051.2</ele>
        <time>2011-07-30T15:08:58Z</time>
      </trkpt>
      <trkpt lat="45.52033" lon="6.73076">
        <ele>2051.7</ele>
        <time>2011-07-30T15:09:42Z</time>
      </trkpt>
      <trkpt lat="45.52037" lon="6.73063">
        <ele>2052.3</ele>
        <time>2011-07-30T15:09:52Z</time>
      </trkpt>
      <trkpt lat="45.52043" lon="6.73053">
        <ele>2052.8</ele>
        <time>2011-07-30T15:09:59Z</time>
      </trkpt>
      <trkpt lat="45.52045" lon="6.7304">
        <ele>2053.4</ele>
        <time>2011-07-30T15:10:09Z</time>
      </trkpt>
      <trkpt lat="45.52048" lon="6.73027">
        <ele>2053.9</ele>
        <time>2011-07-30T15:10:21Z</time>
      </trkpt>
      <trkpt lat="45.52057" lon="6.73021">
        <ele>2056.7</ele>
        <time>2011-07-30T15:10:37Z</time>
      </trkpt>
      <trkpt lat="45.5206" lon="6.73008">
        <ele>2059.5</ele>
        <time>2011-07-30T15:10:50Z</time>
      </trkpt>
      <trkpt lat="45.52064" lon="6.72997">
        <ele>2062.4</ele>
        <time>2011-07-30T15:11:12Z</time>
      </trkpt>
      <trkpt lat="45.52067" lon="6.72984">
        <ele>2065.2</ele>
        <time>2011-07-30T15:11:29Z</time>
      </trkpt>
      <trkpt lat="45.52072" lon="6.72972">
        <ele>2065.4</ele>
        <time>2011-07-30T15:11:40Z</time>
      </trkpt>
      <trkpt lat="45.52078" lon="6.72962">
        <ele>2067.6</ele>
        <time>2011-07-30T15:11:56Z</time>
      </trkpt>
      <trkpt lat="45.52085" lon="6.72953">
        <ele>2069.9</ele>
        <time>2011-07-30T15:12:07Z</time>
      </trkpt>
      <trkpt lat="45.52092" lon="6.72944">
        <ele>2071.9</ele>
        <time>2011-07-30T15:12:17Z</time>
      </trkpt>
      <trkpt lat="45.52099" lon="6.72936">
        <ele>2073.9</ele>
        <time>2011-07-30T15:12:32Z</time>
      </trkpt>
      <trkpt lat="45.52109" lon="6.72937">
        <ele>2075.9</ele>
        <time>2011-07-30T15:12:49Z</time>
      </trkpt>
      <trkpt lat="45.52118" lon="6.72938">
        <ele>2077.9</ele>
        <time>2011-07-30T15:12:59Z</time>
      </trkpt>
      <trkpt lat="45.52127" lon="6.72933">
        <ele>2077.6</ele>
        <time>2011-07-30T15:13:10Z</time>
      </trkpt>
      <trkpt lat="45.52136" lon="6.72927">
        <ele>2079.3</ele>
        <time>2011-07-30T15:13:21Z</time>
      </trkpt>
      <trkpt lat="45.52141" lon="6.72915">
        <ele>2080.9</ele>
        <time>2011-07-30T15:13:28Z</time>
      </trkpt>
      <trkpt lat="45.52145" lon="6.72904">
        <ele>2082.5</ele>
        <time>2011-07-30T15:13:38Z</time>
      </trkpt>
      <trkpt lat="45.52151" lon="6.72892">
        <ele>2084.2</ele>
        <time>2011-07-30T15:13:55Z</time>
      </trkpt>
      <trkpt lat="45.5216" lon="6.72888">
        <ele>2085.8</ele>
        <time>2011-07-30T15:14:09Z</time>
      </trkpt>
      <trkpt lat="45.52166" lon="6.72878">
        <ele>2087.5</ele>
        <time>2011-07-30T15:14:21Z</time>
      </trkpt>
      <trkpt lat="45.52176" lon="6.72874">
        <ele>2089.4</ele>
        <time>2011-07-30T15:15:12Z</time>
      </trkpt>
      <trkpt lat="45.52181" lon="6.72864">
        <ele>2092.5</ele>
        <time>2011-07-30T15:15:36Z</time>
      </trkpt>
      <trkpt lat="45.52177" lon="6.72851">
        <ele>2095.5</ele>
        <time>2011-07-30T15:15:51Z</time>
      </trkpt>
      <trkpt lat="45.52174" lon="6.72839">
        <ele>2098.6</ele>
        <time>2011-07-30T15:16:03Z</time>
      </trkpt>
      <trkpt lat="45.52172" lon="6.72826">
        <ele>2101.7</ele>
        <time>2011-07-30T15:16:14Z</time>
      </trkpt>
      <trkpt lat="45.52175" lon="6.72814">
        <ele>2102.9</ele>
        <time>2011-07-30T15:16:26Z</time>
      </trkpt>
      <trkpt lat="45.52178" lon="6.72801">
        <ele>2104.3</ele>
        <time>2011-07-30T15:16:37Z</time>
      </trkpt>
      <trkpt lat="45.52184" lon="6.72789">
        <ele>2105.6</ele>
        <time>2011-07-30T15:16:46Z</time>
      </trkpt>
      <trkpt lat="45.52192" lon="6.72782">
        <ele>2107</ele>
        <time>2011-07-30T15:16:54Z</time>
      </trkpt>
      <trkpt lat="45.52199" lon="6.72773">
        <ele>2108.4</ele>
        <time>2011-07-30T15:17:04Z</time>
      </trkpt>
      <trkpt lat="45.52207" lon="6.72767">
        <ele>2109.7</ele>
        <time>2011-07-30T15:17:13Z</time>
      </trkpt>
      <trkpt lat="45.52216" lon="6.72765">
        <ele>2111.1</ele>
        <time>2011-07-30T15:17:22Z</time>
      </trkpt>
      <trkpt lat="45.52225" lon="6.72761">
        <ele>2111.3</ele>
        <time>2011-07-30T15:17:30Z</time>
      </trkpt>
      <trkpt lat="45.52232" lon="6.72752">
        <ele>2111.5</ele>
        <time>2011-07-30T15:17:37Z</time>
      </trkpt>
      <trkpt lat="45.5224" lon="6.72745">
        <ele>2111.6</ele>
        <time>2011-07-30T15:17:46Z</time>
      </trkpt>
      <trkpt lat="45.52247" lon="6.72735">
        <ele>2113.9</ele>
        <time>2011-07-30T15:17:54Z</time>
      </trkpt>
      <trkpt lat="45.52257" lon="6.72734">
        <ele>2116.2</ele>
        <time>2011-07-30T15:18:04Z</time>
      </trkpt>
      <trkpt lat="45.52267" lon="6.72733">
        <ele>2118.3</ele>
        <time>2011-07-30T15:18:14Z</time>
      </trkpt>
      <trkpt lat="45.52275" lon="6.72726">
        <ele>2120.4</ele>
        <time>2011-07-30T15:18:23Z</time>
      </trkpt>
      <trkpt lat="45.52285" lon="6.72722">
        <ele>2122.5</ele>
        <time>2011-07-30T15:18:31Z</time>
      </trkpt>
      <trkpt lat="45.52294" lon="6.72719">
        <ele>2124.5</ele>
        <time>2011-07-30T15:18:39Z</time>
      </trkpt>
      <trkpt lat="45.52303" lon="6.72712">
        <ele>2126.6</ele>
        <time>2011-07-30T15:18:50Z</time>
      </trkpt>
      <trkpt lat="45.5231" lon="6.72704">
        <ele>2128.7</ele>
        <time>2011-07-30T15:19:01Z</time>
      </trkpt>
      <trkpt lat="45.52318" lon="6.72697">
        <ele>2130.8</ele>
        <time>2011-07-30T15:19:12Z</time>
      </trkpt>
      <trkpt lat="45.52327" lon="6.72693">
        <ele>2132.9</ele>
        <time>2011-07-30T15:19:27Z</time>
      </trkpt>
      <trkpt lat="45.52336" lon="6.72691">
        <ele>2134.5</ele>
        <time>2011-07-30T15:19:39Z</time>
      </trkpt>
      <trkpt lat="45.52344" lon="6.72683">
        <ele>2133.9</ele>
        <time>2011-07-30T15:19:53Z</time>
      </trkpt>
      <trkpt lat="45.52353" lon="6.72678">
        <ele>2133.4</ele>
        <time>2011-07-30T15:20:06Z</time>
      </trkpt>
      <trkpt lat="45.52361" lon="6.72674">
        <ele>2134.5</ele>
        <time>2011-07-30T15:20:18Z</time>
      </trkpt>
      <trkpt lat="45.5237" lon="6.72669">
        <ele>2135.7</ele>
        <time>2011-07-30T15:20:29Z</time>
      </trkpt>
      <trkpt lat="45.52376" lon="6.72658">
        <ele>2136.9</ele>
        <time>2011-07-30T15:20:40Z</time>
      </trkpt>
      <trkpt lat="45.52379" lon="6.72646">
        <ele>2138.1</ele>
        <time>2011-07-30T15:20:52Z</time>
      </trkpt>
      <trkpt lat="45.52377" lon="6.72633">
        <ele>2139.3</ele>
        <time>2011-07-30T15:21:05Z</time>
      </trkpt>
      <trkpt lat="45.52379" lon="6.72619">
        <ele>2140.5</ele>
        <time>2011-07-30T15:21:19Z</time>
      </trkpt>
      <trkpt lat="45.5238" lon="6.72605">
        <ele>2143.2</ele>
        <time>2011-07-30T15:21:28Z</time>
      </trkpt>
      <trkpt lat="45.52378" lon="6.72592">
        <ele>2145.9</ele>
        <time>2011-07-30T15:21:42Z</time>
      </trkpt>
      <trkpt lat="45.5238" lon="6.72579">
        <ele>2149.2</ele>
        <time>2011-07-30T15:21:49Z</time>
      </trkpt>
      <trkpt lat="45.52382" lon="6.72565">
        <ele>2152.6</ele>
        <time>2011-07-30T15:22:03Z</time>
      </trkpt>
      <trkpt lat="45.52382" lon="6.72551">
        <ele>2156.1</ele>
        <time>2011-07-30T15:22:13Z</time>
      </trkpt>
      <trkpt lat="45.52381" lon="6.72538">
        <ele>2157.8</ele>
        <time>2011-07-30T15:22:22Z</time>
      </trkpt>
      <trkpt lat="45.5238" lon="6.72525">
        <ele>2160.3</ele>
        <time>2011-07-30T15:22:38Z</time>
      </trkpt>
      <trkpt lat="45.52376" lon="6.72513">
        <ele>2163.1</ele>
        <time>2011-07-30T15:22:57Z</time>
      </trkpt>
      <trkpt lat="45.52375" lon="6.725">
        <ele>2165.9</ele>
        <time>2011-07-30T15:23:07Z</time>
      </trkpt>
      <trkpt lat="45.52371" lon="6.72486">
        <ele>2168.7</ele>
        <time>2011-07-30T15:23:16Z</time>
      </trkpt>
      <trkpt lat="45.52371" lon="6.72473">
        <ele>2171.5</ele>
        <time>2011-07-30T15:23:26Z</time>
      </trkpt>
      <trkpt lat="45.52375" lon="6.7246">
        <ele>2172.8</ele>
        <time>2011-07-30T15:23:36Z</time>
      </trkpt>
      <trkpt lat="45.5238" lon="6.72448">
        <ele>2174.1</ele>
        <time>2011-07-30T15:23:47Z</time>
      </trkpt>
      <trkpt lat="45.52388" lon="6.72439">
        <ele>2175.4</ele>
        <time>2011-07-30T15:23:58Z</time>
      </trkpt>
      <trkpt lat="45.52397" lon="6.72434">
        <ele>2176.5</ele>
        <time>2011-07-30T15:24:09Z</time>
      </trkpt>
      <trkpt lat="45.52407" lon="6.72429">
        <ele>2177.5</ele>
        <time>2011-07-30T15:24:16Z</time>
      </trkpt>
      <trkpt lat="45.52414" lon="6.72422">
        <ele>2179.3</ele>
        <time>2011-07-30T15:24:27Z</time>
      </trkpt>
      <trkpt lat="45.52422" lon="6.72415">
        <ele>2180.3</ele>
        <time>2011-07-30T15:24:46Z</time>
      </trkpt>
      <trkpt lat="45.52428" lon="6.72405">
        <ele>2180.9</ele>
        <time>2011-07-30T15:24:57Z</time>
      </trkpt>
      <trkpt lat="45.52434" lon="6.72395">
        <ele>2183</ele>
        <time>2011-07-30T15:25:06Z</time>
      </trkpt>
      <trkpt lat="45.52441" lon="6.72384">
        <ele>2185.1</ele>
        <time>2011-07-30T15:25:20Z</time>
      </trkpt>
      <trkpt lat="45.52446" lon="6.72374">
        <ele>2187.2</ele>
        <time>2011-07-30T15:25:31Z</time>
      </trkpt>
      <trkpt lat="45.52452" lon="6.72365">
        <ele>2189.3</ele>
        <time>2011-07-30T15:25:41Z</time>
      </trkpt>
      <trkpt lat="45.5246" lon="6.72358">
        <ele>2191.4</ele>
        <time>2011-07-30T15:25:52Z</time>
      </trkpt>
      <trkpt lat="45.52466" lon="6.72348">
        <ele>2193.5</ele>
        <time>2011-07-30T15:26:02Z</time>
      </trkpt>
      <trkpt lat="45.52475" lon="6.72342">
        <ele>2195.5</ele>
        <time>2011-07-30T15:26:15Z</time>
      </trkpt>
      <trkpt lat="45.52484" lon="6.7234">
        <ele>2197.6</ele>
        <time>2011-07-30T15:26:25Z</time>
      </trkpt>
      <trkpt lat="45.52493" lon="6.72338">
        <ele>2199.1</ele>
        <time>2011-07-30T15:26:33Z</time>
      </trkpt>
      <trkpt lat="45.52502" lon="6.72333">
        <ele>2202.6</ele>
        <time>2011-07-30T15:26:43Z</time>
      </trkpt>
      <trkpt lat="45.52511" lon="6.72331">
        <ele>2206.2</ele>
        <time>2011-07-30T15:26:54Z</time>
      </trkpt>
      <trkpt lat="45.52521" lon="6.72328">
        <ele>2209.5</ele>
        <time>2011-07-30T15:27:06Z</time>
      </trkpt>
      <trkpt lat="45.5253" lon="6.72324">
        <ele>2212.9</ele>
        <time>2011-07-30T15:27:18Z</time>
      </trkpt>
      <trkpt lat="45.52539" lon="6.72322">
        <ele>2216.3</ele>
        <time>2011-07-30T15:27:31Z</time>
      </trkpt>
      <trkpt lat="45.52547" lon="6.72313">
        <ele>2219.6</ele>
        <time>2011-07-30T15:27:45Z</time>
      </trkpt>
      <trkpt lat="45.52554" lon="6.72304">
        <ele>2223</ele>
        <time>2011-07-30T15:28:03Z</time>
      </trkpt>
      <trkpt lat="45.52562" lon="6.72295">
        <ele>2226.4</ele>
        <time>2011-07-30T15:28:27Z</time>
      </trkpt>
      <trkpt lat="45.52568" lon="6.72282">
        <ele>2229.7</ele>
        <time>2011-07-30T15:28:48Z</time>
      </trkpt>
      <trkpt lat="45.52571" lon="6.7227">
        <ele>2235</ele>
        <time>2011-07-30T15:29:04Z</time>
      </trkpt>
      <trkpt lat="45.52567" lon="6.72257">
        <ele>2240.3</ele>
        <time>2011-07-30T15:29:20Z</time>
      </trkpt>
      <trkpt lat="45.52563" lon="6.72246">
        <ele>2243.5</ele>
        <time>2011-07-30T15:29:37Z</time>
      </trkpt>
      <trkpt lat="45.5256" lon="6.72233">
        <ele>2244.2</ele>
        <time>2011-07-30T15:29:51Z</time>
      </trkpt>
      <trkpt lat="45.52558" lon="6.7222">
        <ele>2243.6</ele>
        <time>2011-07-30T15:30:01Z</time>
      </trkpt>
      <trkpt lat="45.52554" lon="6.72208">
        <ele>2243.1</ele>
        <time>2011-07-30T15:30:14Z</time>
      </trkpt>
      <trkpt lat="45.52553" lon="6.72195">
        <ele>2242.5</ele>
        <time>2011-07-30T15:30:26Z</time>
      </trkpt>
      <trkpt lat="45.52551" lon="6.72182">
        <ele>2244.4</ele>
        <time>2011-07-30T15:30:39Z</time>
      </trkpt>
      <trkpt lat="45.52544" lon="6.72173">
        <ele>2246.2</ele>
        <time>2011-07-30T15:30:51Z</time>
      </trkpt>
      <trkpt lat="45.52539" lon="6.72162">
        <ele>2248</ele>
        <time>2011-07-30T15:31:02Z</time>
      </trkpt>
      <trkpt lat="45.52535" lon="6.72151">
        <ele>2249.8</ele>
        <time>2011-07-30T15:31:13Z</time>
      </trkpt>
      <trkpt lat="45.52531" lon="6.72139">
        <ele>2249.7</ele>
        <time>2011-07-30T15:31:22Z</time>
      </trkpt>
      <trkpt lat="45.52524" lon="6.72132">
        <ele>2249.6</ele>
        <time>2011-07-30T15:31:35Z</time>
      </trkpt>
      <trkpt lat="45.52517" lon="6.72121">
        <ele>2249.5</ele>
        <time>2011-07-30T15:31:45Z</time>
      </trkpt>
      <trkpt lat="45.5251" lon="6.72112">
        <ele>2251.9</ele>
        <time>2011-07-30T15:31:55Z</time>
      </trkpt>
      <trkpt lat="45.52504" lon="6.72102">
        <ele>2254.3</ele>
        <time>2011-07-30T15:32:01Z</time>
      </trkpt>
      <trkpt lat="45.52497" lon="6.72092">
        <ele>2257.2</ele>
        <time>2011-07-30T15:32:17Z</time>
      </trkpt>
      <trkpt lat="45.52489" lon="6.72084">
        <ele>2260.1</ele>
        <time>2011-07-30T15:32:28Z</time>
      </trkpt>
      <trkpt lat="45.52484" lon="6.72073">
        <ele>2260.6</ele>
        <time>2011-07-30T15:32:36Z</time>
      </trkpt>
      <trkpt lat="45.52477" lon="6.72064">
        <ele>2261.2</ele>
        <time>2011-07-30T15:32:43Z</time>
      </trkpt>
      <trkpt lat="45.52469" lon="6.72057">
        <ele>2261.7</ele>
        <time>2011-07-30T15:32:51Z</time>
      </trkpt>
      <trkpt lat="45.52462" lon="6.72045">
        <ele>2262.3</ele>
        <time>2011-07-30T15:32:57Z</time>
      </trkpt>
      <trkpt lat="45.52456" lon="6.72035">
        <ele>2262.8</ele>
        <time>2011-07-30T15:33:04Z</time>
      </trkpt>
      <trkpt lat="45.52448" lon="6.72029">
        <ele>2263.4</ele>
        <time>2011-07-30T15:33:17Z</time>
      </trkpt>
      <trkpt lat="45.52442" lon="6.72019">
        <ele>2265.6</ele>
        <time>2011-07-30T15:33:29Z</time>
      </trkpt>
      <trkpt lat="45.52432" lon="6.72006">
        <ele>2267.9</ele>
        <time>2011-07-30T15:33:45Z</time>
      </trkpt>
      <trkpt lat="45.52427" lon="6.71996">
        <ele>2270.2</ele>
        <time>2011-07-30T15:34:00Z</time>
      </trkpt>
      <trkpt lat="45.52422" lon="6.71984">
        <ele>2271.9</ele>
        <time>2011-07-30T15:34:12Z</time>
      </trkpt>
      <trkpt lat="45.52416" lon="6.71975">
        <ele>2273.6</ele>
        <time>2011-07-30T15:34:22Z</time>
      </trkpt>
      <trkpt lat="45.52415" lon="6.71962">
        <ele>2275.4</ele>
        <time>2011-07-30T15:34:37Z</time>
      </trkpt>
      <trkpt lat="45.52407" lon="6.71954">
        <ele>2277.9</ele>
        <time>2011-07-30T15:34:56Z</time>
      </trkpt>
      <trkpt lat="45.524" lon="6.71946">
        <ele>2280.5</ele>
        <time>2011-07-30T15:35:06Z</time>
      </trkpt>
      <trkpt lat="45.52393" lon="6.71937">
        <ele>2284.8</ele>
        <time>2011-07-30T15:35:14Z</time>
      </trkpt>
      <trkpt lat="45.52386" lon="6.71928">
        <ele>2289.2</ele>
        <time>2011-07-30T15:35:23Z</time>
      </trkpt>
      <trkpt lat="45.5238" lon="6.71917">
        <ele>2293.5</ele>
        <time>2011-07-30T15:35:36Z</time>
      </trkpt>
      <trkpt lat="45.52374" lon="6.71907">
        <ele>2296.2</ele>
        <time>2011-07-30T15:35:47Z</time>
      </trkpt>
      <trkpt lat="45.52368" lon="6.71897">
        <ele>2298.8</ele>
        <time>2011-07-30T15:36:02Z</time>
      </trkpt>
      <trkpt lat="45.52367" lon="6.71884">
        <ele>2301.5</ele>
        <time>2011-07-30T15:36:34Z</time>
      </trkpt>
      <trkpt lat="45.52366" lon="6.7187">
        <ele>2304.1</ele>
        <time>2011-07-30T15:36:51Z</time>
      </trkpt>
      <trkpt lat="45.52365" lon="6.71857">
        <ele>2308.3</ele>
        <time>2011-07-30T15:37:01Z</time>
      </trkpt>
      <trkpt lat="45.52362" lon="6.71844">
        <ele>2312.5</ele>
        <time>2011-07-30T15:37:09Z</time>
      </trkpt>
      <trkpt lat="45.52361" lon="6.71831">
        <ele>2315.8</ele>
        <time>2011-07-30T15:37:22Z</time>
      </trkpt>
      <trkpt lat="45.52361" lon="6.71818">
        <ele>2319.2</ele>
        <time>2011-07-30T15:37:33Z</time>
      </trkpt>
      <trkpt lat="45.52362" lon="6.71804">
        <ele>2320.7</ele>
        <time>2011-07-30T15:37:45Z</time>
      </trkpt>
      <trkpt lat="45.52363" lon="6.71791">
        <ele>2322.3</ele>
        <time>2011-07-30T15:37:56Z</time>
      </trkpt>
      <trkpt lat="45.5236" lon="6.71778">
        <ele>2323.8</ele>
        <time>2011-07-30T15:38:08Z</time>
      </trkpt>
      <trkpt lat="45.52355" lon="6.71767">
        <ele>2325.7</ele>
        <time>2011-07-30T15:38:21Z</time>
      </trkpt>
      <trkpt lat="45.52349" lon="6.71757">
        <ele>2327.6</ele>
        <time>2011-07-30T15:38:34Z</time>
      </trkpt>
      <trkpt lat="45.52344" lon="6.71746">
        <ele>2329.5</ele>
        <time>2011-07-30T15:38:46Z</time>
      </trkpt>
      <trkpt lat="45.52338" lon="6.71735">
        <ele>2331.5</ele>
        <time>2011-07-30T15:39:01Z</time>
      </trkpt>
      <trkpt lat="45.52335" lon="6.71722">
        <ele>2331.8</ele>
        <time>2011-07-30T15:39:15Z</time>
      </trkpt>
      <trkpt lat="45.52329" lon="6.71712">
        <ele>2332.9</ele>
        <time>2011-07-30T15:39:34Z</time>
      </trkpt>
      <trkpt lat="45.52323" lon="6.71703">
        <ele>2334</ele>
        <time>2011-07-30T15:39:53Z</time>
      </trkpt>
      <trkpt lat="45.52314" lon="6.71697">
        <ele>2335.1</ele>
        <time>2011-07-30T15:40:08Z</time>
      </trkpt>
      <trkpt lat="45.52308" lon="6.71688">
        <ele>2336.2</ele>
        <time>2011-07-30T15:40:21Z</time>
      </trkpt>
      <trkpt lat="45.52299" lon="6.71683">
        <ele>2337.3</ele>
        <time>2011-07-30T15:40:33Z</time>
      </trkpt>
      <trkpt lat="45.52291" lon="6.71679">
        <ele>2338.4</ele>
        <time>2011-07-30T15:40:47Z</time>
      </trkpt>
      <trkpt lat="45.52282" lon="6.71674">
        <ele>2339.1</ele>
        <time>2011-07-30T15:41:00Z</time>
      </trkpt>
      <trkpt lat="45.52273" lon="6.71678">
        <ele>2339.8</ele>
        <time>2011-07-30T15:41:14Z</time>
      </trkpt>
      <trkpt lat="45.52265" lon="6.71684">
        <ele>2340.5</ele>
        <time>2011-07-30T15:41:21Z</time>
      </trkpt>
      <trkpt lat="45.52256" lon="6.71688">
        <ele>2341.3</ele>
        <time>2011-07-30T15:41:28Z</time>
      </trkpt>
      <trkpt lat="45.52246" lon="6.71683">
        <ele>2341.1</ele>
        <time>2011-07-30T15:41:35Z</time>
      </trkpt>
      <trkpt lat="45.52239" lon="6.71674">
        <ele>2340.2</ele>
        <time>2011-07-30T15:41:42Z</time>
      </trkpt>
      <trkpt lat="45.52231" lon="6.71665">
        <ele>2339.3</ele>
        <time>2011-07-30T15:41:50Z</time>
      </trkpt>
      <trkpt lat="45.52223" lon="6.71657">
        <ele>2337.6</ele>
        <time>2011-07-30T15:42:02Z</time>
      </trkpt>
      <trkpt lat="45.52213" lon="6.71652">
        <ele>2336</ele>
        <time>2011-07-30T15:42:07Z</time>
      </trkpt>
      <trkpt lat="45.52205" lon="6.71646">
        <ele>2334.4</ele>
        <time>2011-07-30T15:42:12Z</time>
      </trkpt>
      <trkpt lat="45.52198" lon="6.71638">
        <ele>2332.7</ele>
        <time>2011-07-30T15:42:17Z</time>
      </trkpt>
      <trkpt lat="45.5219" lon="6.7163">
        <ele>2331.1</ele>
        <time>2011-07-30T15:42:22Z</time>
      </trkpt>
      <trkpt lat="45.5218" lon="6.71624">
        <ele>2329.5</ele>
        <time>2011-07-30T15:42:28Z</time>
      </trkpt>
      <trkpt lat="45.52172" lon="6.71618">
        <ele>2327.8</ele>
        <time>2011-07-30T15:42:34Z</time>
      </trkpt>
      <trkpt lat="45.52165" lon="6.71611">
        <ele>2325.1</ele>
        <time>2011-07-30T15:42:40Z</time>
      </trkpt>
      <trkpt lat="45.52157" lon="6.71602">
        <ele>2323.3</ele>
        <time>2011-07-30T15:42:45Z</time>
      </trkpt>
      <trkpt lat="45.52148" lon="6.71595">
        <ele>2321.5</ele>
        <time>2011-07-30T15:42:49Z</time>
      </trkpt>
      <trkpt lat="45.5214" lon="6.71586">
        <ele>2319.5</ele>
        <time>2011-07-30T15:42:54Z</time>
      </trkpt>
      <trkpt lat="45.52132" lon="6.71578">
        <ele>2318.4</ele>
        <time>2011-07-30T15:42:59Z</time>
      </trkpt>
      <trkpt lat="45.52124" lon="6.71571">
        <ele>2317.2</ele>
        <time>2011-07-30T15:43:04Z</time>
      </trkpt>
      <trkpt lat="45.52116" lon="6.71562">
        <ele>2316</ele>
        <time>2011-07-30T15:43:10Z</time>
      </trkpt>
      <trkpt lat="45.5211" lon="6.71552">
        <ele>2314.8</ele>
        <time>2011-07-30T15:43:16Z</time>
      </trkpt>
      <trkpt lat="45.52102" lon="6.71542">
        <ele>2313.6</ele>
        <time>2011-07-30T15:43:22Z</time>
      </trkpt>
      <trkpt lat="45.52094" lon="6.71534">
        <ele>2312.5</ele>
        <time>2011-07-30T15:43:27Z</time>
      </trkpt>
      <trkpt lat="45.52085" lon="6.71526">
        <ele>2310.1</ele>
        <time>2011-07-30T15:43:32Z</time>
      </trkpt>
      <trkpt lat="45.52077" lon="6.71519">
        <ele>2308.8</ele>
        <time>2011-07-30T15:43:36Z</time>
      </trkpt>
      <trkpt lat="45.52068" lon="6.71511">
        <ele>2307.5</ele>
        <time>2011-07-30T15:43:41Z</time>
      </trkpt>
      <trkpt lat="45.5206" lon="6.71505">
        <ele>2306.3</ele>
        <time>2011-07-30T15:43:46Z</time>
      </trkpt>
      <trkpt lat="45.52052" lon="6.71497">
        <ele>2304.9</ele>
        <time>2011-07-30T15:43:52Z</time>
      </trkpt>
      <trkpt lat="45.52045" lon="6.71488">
        <ele>2303.5</ele>
        <time>2011-07-30T15:43:59Z</time>
      </trkpt>
      <trkpt lat="45.52036" lon="6.71481">
        <ele>2302.2</ele>
        <time>2011-07-30T15:44:04Z</time>
      </trkpt>
      <trkpt lat="45.52027" lon="6.71474">
        <ele>2300.8</ele>
        <time>2011-07-30T15:44:09Z</time>
      </trkpt>
      <trkpt lat="45.52019" lon="6.71467">
        <ele>2299.5</ele>
        <time>2011-07-30T15:44:14Z</time>
      </trkpt>
      <trkpt lat="45.5201" lon="6.71459">
        <ele>2298.1</ele>
        <time>2011-07-30T15:44:19Z</time>
      </trkpt>
      <trkpt lat="45.52002" lon="6.71452">
        <ele>2296.7</ele>
        <time>2011-07-30T15:44:23Z</time>
      </trkpt>
      <trkpt lat="45.51994" lon="6.71441">
        <ele>2295.9</ele>
        <time>2011-07-30T15:44:28Z</time>
      </trkpt>
      <trkpt lat="45.51988" lon="6.71429">
        <ele>2295.1</ele>
        <time>2011-07-30T15:44:33Z</time>
      </trkpt>
      <trkpt lat="45.5198" lon="6.71421">
        <ele>2293.5</ele>
        <time>2011-07-30T15:44:39Z</time>
      </trkpt>
      <trkpt lat="45.51973" lon="6.7141">
        <ele>2291.8</ele>
        <time>2011-07-30T15:44:45Z</time>
      </trkpt>
      <trkpt lat="45.51966" lon="6.714">
        <ele>2290.4</ele>
        <time>2011-07-30T15:44:51Z</time>
      </trkpt>
      <trkpt lat="45.51959" lon="6.71392">
        <ele>2288.9</ele>
        <time>2011-07-30T15:44:57Z</time>
      </trkpt>
      <trkpt lat="45.51952" lon="6.71383">
        <ele>2287.5</ele>
        <time>2011-07-30T15:45:05Z</time>
      </trkpt>
      <trkpt lat="45.51943" lon="6.71374">
        <ele>2286</ele>
        <time>2011-07-30T15:45:11Z</time>
      </trkpt>
      <trkpt lat="45.51936" lon="6.71365">
        <ele>2284.5</ele>
        <time>2011-07-30T15:45:17Z</time>
      </trkpt>
      <trkpt lat="45.5193" lon="6.71353">
        <ele>2283.1</ele>
        <time>2011-07-30T15:45:23Z</time>
      </trkpt>
      <trkpt lat="45.51923" lon="6.71342">
        <ele>2281.6</ele>
        <time>2011-07-30T15:45:27Z</time>
      </trkpt>
      <trkpt lat="45.51915" lon="6.71337">
        <ele>2279.6</ele>
        <time>2011-07-30T15:45:31Z</time>
      </trkpt>
      <trkpt lat="45.51905" lon="6.71334">
        <ele>2277.6</ele>
        <time>2011-07-30T15:45:37Z</time>
      </trkpt>
      <trkpt lat="45.51897" lon="6.71326">
        <ele>2276.5</ele>
        <time>2011-07-30T15:45:42Z</time>
      </trkpt>
      <trkpt lat="45.51889" lon="6.71319">
        <ele>2275.3</ele>
        <time>2011-07-30T15:45:48Z</time>
      </trkpt>
      <trkpt lat="45.51881" lon="6.71314">
        <ele>2273.5</ele>
        <time>2011-07-30T15:45:53Z</time>
      </trkpt>
      <trkpt lat="45.51871" lon="6.71309">
        <ele>2271.6</ele>
        <time>2011-07-30T15:45:59Z</time>
      </trkpt>
      <trkpt lat="45.51861" lon="6.71306">
        <ele>2269.8</ele>
        <time>2011-07-30T15:46:05Z</time>
      </trkpt>
      <trkpt lat="45.51852" lon="6.71301">
        <ele>2268</ele>
        <time>2011-07-30T15:46:11Z</time>
      </trkpt>
      <trkpt lat="45.51842" lon="6.71297">
        <ele>2264.5</ele>
        <time>2011-07-30T15:46:16Z</time>
      </trkpt>
      <trkpt lat="45.51832" lon="6.71293">
        <ele>2261.1</ele>
        <time>2011-07-30T15:46:21Z</time>
      </trkpt>
      <trkpt lat="45.51821" lon="6.71291">
        <ele>2257.6</ele>
        <time>2011-07-30T15:46:27Z</time>
      </trkpt>
      <trkpt lat="45.51812" lon="6.7129">
        <ele>2255.4</ele>
        <time>2011-07-30T15:46:33Z</time>
      </trkpt>
      <trkpt lat="45.51802" lon="6.71288">
        <ele>2253.1</ele>
        <time>2011-07-30T15:46:40Z</time>
      </trkpt>
      <trkpt lat="45.51791" lon="6.71285">
        <ele>2250.8</ele>
        <time>2011-07-30T15:46:47Z</time>
      </trkpt>
      <trkpt lat="45.51781" lon="6.7129">
        <ele>2248.5</ele>
        <time>2011-07-30T15:46:59Z</time>
      </trkpt>
      <trkpt lat="45.51769" lon="6.71286">
        <ele>2246.9</ele>
        <time>2011-07-30T15:47:04Z</time>
      </trkpt>
      <trkpt lat="45.51757" lon="6.7128">
        <ele>2245.3</ele>
        <time>2011-07-30T15:47:07Z</time>
      </trkpt>
      <trkpt lat="45.51749" lon="6.71275">
        <ele>2243.6</ele>
        <time>2011-07-30T15:47:10Z</time>
      </trkpt>
      <trkpt lat="45.5174" lon="6.7127">
        <ele>2241.2</ele>
        <time>2011-07-30T15:47:14Z</time>
      </trkpt>
      <trkpt lat="45.51734" lon="6.7126">
        <ele>2238.7</ele>
        <time>2011-07-30T15:47:19Z</time>
      </trkpt>
      <trkpt lat="45.51728" lon="6.71247">
        <ele>2236.3</ele>
        <time>2011-07-30T15:47:25Z</time>
      </trkpt>
      <trkpt lat="45.51723" lon="6.71236">
        <ele>2233.8</ele>
        <time>2011-07-30T15:47:32Z</time>
      </trkpt>
      <trkpt lat="45.51716" lon="6.71227">
        <ele>2231.4</ele>
        <time>2011-07-30T15:47:38Z</time>
      </trkpt>
      <trkpt lat="45.51711" lon="6.71212">
        <ele>2228.9</ele>
        <time>2011-07-30T15:47:45Z</time>
      </trkpt>
      <trkpt lat="45.51704" lon="6.71202">
        <ele>2226.5</ele>
        <time>2011-07-30T15:47:50Z</time>
      </trkpt>
      <trkpt lat="45.51697" lon="6.7119">
        <ele>2223.3</ele>
        <time>2011-07-30T15:47:55Z</time>
      </trkpt>
      <trkpt lat="45.51691" lon="6.71179">
        <ele>2220.1</ele>
        <time>2011-07-30T15:48:00Z</time>
      </trkpt>
      <trkpt lat="45.51685" lon="6.71168">
        <ele>2216.9</ele>
        <time>2011-07-30T15:48:06Z</time>
      </trkpt>
      <trkpt lat="45.51679" lon="6.71157">
        <ele>2213.7</ele>
        <time>2011-07-30T15:48:11Z</time>
      </trkpt>
      <trkpt lat="45.51674" lon="6.71144">
        <ele>2211.4</ele>
        <time>2011-07-30T15:48:18Z</time>
      </trkpt>
      <trkpt lat="45.51669" lon="6.71132">
        <ele>2210.6</ele>
        <time>2011-07-30T15:48:23Z</time>
      </trkpt>
      <trkpt lat="45.51664" lon="6.7112">
        <ele>2208.1</ele>
        <time>2011-07-30T15:48:28Z</time>
      </trkpt>
      <trkpt lat="45.51657" lon="6.7111">
        <ele>2205.5</ele>
        <time>2011-07-30T15:48:33Z</time>
      </trkpt>
      <trkpt lat="45.51649" lon="6.71102">
        <ele>2203</ele>
        <time>2011-07-30T15:48:38Z</time>
      </trkpt>
      <trkpt lat="45.51641" lon="6.71095">
        <ele>2200.5</ele>
        <time>2011-07-30T15:48:43Z</time>
      </trkpt>
      <trkpt lat="45.51633" lon="6.71089">
        <ele>2197.9</ele>
        <time>2011-07-30T15:48:48Z</time>
      </trkpt>
      <trkpt lat="45.51624" lon="6.71083">
        <ele>2195.6</ele>
        <time>2011-07-30T15:48:53Z</time>
      </trkpt>
      <trkpt lat="45.51615" lon="6.71079">
        <ele>2193.4</ele>
        <time>2011-07-30T15:49:03Z</time>
      </trkpt>
      <trkpt lat="45.51606" lon="6.71074">
        <ele>2191.1</ele>
        <time>2011-07-30T15:49:10Z</time>
      </trkpt>
      <trkpt lat="45.51599" lon="6.71066">
        <ele>2188.8</ele>
        <time>2011-07-30T15:49:18Z</time>
      </trkpt>
      <trkpt lat="45.51593" lon="6.71056">
        <ele>2186.5</ele>
        <time>2011-07-30T15:49:24Z</time>
      </trkpt>
      <trkpt lat="45.51585" lon="6.71048">
        <ele>2182.8</ele>
        <time>2011-07-30T15:49:29Z</time>
      </trkpt>
      <trkpt lat="45.51575" lon="6.71046">
        <ele>2180.9</ele>
        <time>2011-07-30T15:49:34Z</time>
      </trkpt>
      <trkpt lat="45.51564" lon="6.71042">
        <ele>2179</ele>
        <time>2011-07-30T15:49:39Z</time>
      </trkpt>
      <trkpt lat="45.51556" lon="6.71036">
        <ele>2177.1</ele>
        <time>2011-07-30T15:49:43Z</time>
      </trkpt>
      <trkpt lat="45.51547" lon="6.71029">
        <ele>2175.2</ele>
        <time>2011-07-30T15:49:49Z</time>
      </trkpt>
      <trkpt lat="45.51537" lon="6.71022">
        <ele>2173.3</ele>
        <time>2011-07-30T15:49:55Z</time>
      </trkpt>
      <trkpt lat="45.51528" lon="6.71016">
        <ele>2171.8</ele>
        <time>2011-07-30T15:50:00Z</time>
      </trkpt>
      <trkpt lat="45.51519" lon="6.71012">
        <ele>2170.4</ele>
        <time>2011-07-30T15:50:04Z</time>
      </trkpt>
      <trkpt lat="45.51509" lon="6.71006">
        <ele>2168.3</ele>
        <time>2011-07-30T15:50:09Z</time>
      </trkpt>
      <trkpt lat="45.51498" lon="6.71">
        <ele>2166.2</ele>
        <time>2011-07-30T15:50:14Z</time>
      </trkpt>
      <trkpt lat="45.5149" lon="6.70994">
        <ele>2163.4</ele>
        <time>2011-07-30T15:50:18Z</time>
      </trkpt>
      <trkpt lat="45.51481" lon="6.70989">
        <ele>2162</ele>
        <time>2011-07-30T15:50:22Z</time>
      </trkpt>
      <trkpt lat="45.51472" lon="6.70984">
        <ele>2160.6</ele>
        <time>2011-07-30T15:50:27Z</time>
      </trkpt>
      <trkpt lat="45.51462" lon="6.70979">
        <ele>2159.3</ele>
        <time>2011-07-30T15:50:32Z</time>
      </trkpt>
      <trkpt lat="45.51453" lon="6.70971">
        <ele>2157.9</ele>
        <time>2011-07-30T15:50:37Z</time>
      </trkpt>
      <trkpt lat="45.51444" lon="6.70967">
        <ele>2156.5</ele>
        <time>2011-07-30T15:50:42Z</time>
      </trkpt>
      <trkpt lat="45.51434" lon="6.70962">
        <ele>2155.2</ele>
        <time>2011-07-30T15:50:48Z</time>
      </trkpt>
      <trkpt lat="45.51426" lon="6.70957">
        <ele>2153.8</ele>
        <time>2011-07-30T15:50:53Z</time>
      </trkpt>
      <trkpt lat="45.51417" lon="6.70948">
        <ele>2152.2</ele>
        <time>2011-07-30T15:50:59Z</time>
      </trkpt>
      <trkpt lat="45.5141" lon="6.70937">
        <ele>2151.2</ele>
        <time>2011-07-30T15:51:04Z</time>
      </trkpt>
      <trkpt lat="45.51402" lon="6.70927">
        <ele>2150.2</ele>
        <time>2011-07-30T15:51:07Z</time>
      </trkpt>
      <trkpt lat="45.51393" lon="6.70921">
        <ele>2149.9</ele>
        <time>2011-07-30T15:51:11Z</time>
      </trkpt>
      <trkpt lat="45.51384" lon="6.7092">
        <ele>2149.6</ele>
        <time>2011-07-30T15:51:16Z</time>
      </trkpt>
      <trkpt lat="45.51374" lon="6.70923">
        <ele>2148.7</ele>
        <time>2011-07-30T15:51:22Z</time>
      </trkpt>
      <trkpt lat="45.51364" lon="6.70927">
        <ele>2147.8</ele>
        <time>2011-07-30T15:51:28Z</time>
      </trkpt>
      <trkpt lat="45.51355" lon="6.70921">
        <ele>2146.9</ele>
        <time>2011-07-30T15:51:34Z</time>
      </trkpt>
      <trkpt lat="45.51351" lon="6.70908">
        <ele>2146</ele>
        <time>2011-07-30T15:51:40Z</time>
      </trkpt>
      <trkpt lat="45.51347" lon="6.70894">
        <ele>2145.1</ele>
        <time>2011-07-30T15:51:45Z</time>
      </trkpt>
      <trkpt lat="45.51341" lon="6.70881">
        <ele>2144.2</ele>
        <time>2011-07-30T15:51:50Z</time>
      </trkpt>
      <trkpt lat="45.51337" lon="6.70869">
        <ele>2142.5</ele>
        <time>2011-07-30T15:51:55Z</time>
      </trkpt>
      <trkpt lat="45.51333" lon="6.70857">
        <ele>2140.7</ele>
        <time>2011-07-30T15:52:00Z</time>
      </trkpt>
      <trkpt lat="45.5133" lon="6.70842">
        <ele>2139</ele>
        <time>2011-07-30T15:52:05Z</time>
      </trkpt>
      <trkpt lat="45.51327" lon="6.70829">
        <ele>2136.5</ele>
        <time>2011-07-30T15:52:09Z</time>
      </trkpt>
      <trkpt lat="45.51323" lon="6.70816">
        <ele>2134.1</ele>
        <time>2011-07-30T15:52:14Z</time>
      </trkpt>
      <trkpt lat="45.51319" lon="6.70802">
        <ele>2132.3</ele>
        <time>2011-07-30T15:52:20Z</time>
      </trkpt>
      <trkpt lat="45.51312" lon="6.70792">
        <ele>2130.5</ele>
        <time>2011-07-30T15:52:26Z</time>
      </trkpt>
      <trkpt lat="45.51303" lon="6.70787">
        <ele>2128.6</ele>
        <time>2011-07-30T15:52:34Z</time>
      </trkpt>
      <trkpt lat="45.51293" lon="6.70789">
        <ele>2126.8</ele>
        <time>2011-07-30T15:52:40Z</time>
      </trkpt>
      <trkpt lat="45.51282" lon="6.70789">
        <ele>2125</ele>
        <time>2011-07-30T15:52:45Z</time>
      </trkpt>
      <trkpt lat="45.51273" lon="6.70787">
        <ele>2123.2</ele>
        <time>2011-07-30T15:52:50Z</time>
      </trkpt>
      <trkpt lat="45.51263" lon="6.70785">
        <ele>2122.5</ele>
        <time>2011-07-30T15:52:54Z</time>
      </trkpt>
      <trkpt lat="45.51253" lon="6.70783">
        <ele>2121.1</ele>
        <time>2011-07-30T15:52:59Z</time>
      </trkpt>
      <trkpt lat="45.51243" lon="6.70785">
        <ele>2119.7</ele>
        <time>2011-07-30T15:53:04Z</time>
      </trkpt>
      <trkpt lat="45.51232" lon="6.70786">
        <ele>2119.1</ele>
        <time>2011-07-30T15:53:09Z</time>
      </trkpt>
      <trkpt lat="45.51223" lon="6.70785">
        <ele>2118.5</ele>
        <time>2011-07-30T15:53:13Z</time>
      </trkpt>
      <trkpt lat="45.51213" lon="6.70785">
        <ele>2117.8</ele>
        <time>2011-07-30T15:53:18Z</time>
      </trkpt>
      <trkpt lat="45.51203" lon="6.70785">
        <ele>2117.2</ele>
        <time>2011-07-30T15:53:24Z</time>
      </trkpt>
      <trkpt lat="45.51193" lon="6.70782">
        <ele>2116.5</ele>
        <time>2011-07-30T15:53:29Z</time>
      </trkpt>
      <trkpt lat="45.51183" lon="6.70782">
        <ele>2115.9</ele>
        <time>2011-07-30T15:53:34Z</time>
      </trkpt>
      <trkpt lat="45.51173" lon="6.7078">
        <ele>2114.4</ele>
        <time>2011-07-30T15:53:39Z</time>
      </trkpt>
      <trkpt lat="45.51163" lon="6.70779">
        <ele>2112.8</ele>
        <time>2011-07-30T15:53:45Z</time>
      </trkpt>
      <trkpt lat="45.51152" lon="6.70778">
        <ele>2111.3</ele>
        <time>2011-07-30T15:53:51Z</time>
      </trkpt>
      <trkpt lat="45.51142" lon="6.70779">
        <ele>2110.4</ele>
        <time>2011-07-30T15:53:57Z</time>
      </trkpt>
      <trkpt lat="45.51133" lon="6.70778">
        <ele>2109.5</ele>
        <time>2011-07-30T15:54:02Z</time>
      </trkpt>
      <trkpt lat="45.51123" lon="6.70776">
        <ele>2108.5</ele>
        <time>2011-07-30T15:54:07Z</time>
      </trkpt>
      <trkpt lat="45.51113" lon="6.70777">
        <ele>2109.6</ele>
        <time>2011-07-30T15:54:12Z</time>
      </trkpt>
      <trkpt lat="45.51103" lon="6.70776">
        <ele>2110.7</ele>
        <time>2011-07-30T15:54:17Z</time>
      </trkpt>
      <trkpt lat="45.51093" lon="6.7078">
        <ele>2111.8</ele>
        <time>2011-07-30T15:54:23Z</time>
      </trkpt>
      <trkpt lat="45.51083" lon="6.70786">
        <ele>2111.8</ele>
        <time>2011-07-30T15:54:28Z</time>
      </trkpt>
      <trkpt lat="45.51076" lon="6.70797">
        <ele>2111.8</ele>
        <time>2011-07-30T15:54:33Z</time>
      </trkpt>
      <trkpt lat="45.51068" lon="6.70807">
        <ele>2112.7</ele>
        <time>2011-07-30T15:54:39Z</time>
      </trkpt>
      <trkpt lat="45.5106" lon="6.70816">
        <ele>2113.6</ele>
        <time>2011-07-30T15:54:45Z</time>
      </trkpt>
      <trkpt lat="45.5105" lon="6.70819">
        <ele>2114.5</ele>
        <time>2011-07-30T15:54:49Z</time>
      </trkpt>
      <trkpt lat="45.5104" lon="6.70819">
        <ele>2115.5</ele>
        <time>2011-07-30T15:54:53Z</time>
      </trkpt>
      <trkpt lat="45.51031" lon="6.70819">
        <ele>2116.4</ele>
        <time>2011-07-30T15:54:57Z</time>
      </trkpt>
      <trkpt lat="45.51021" lon="6.70819">
        <ele>2117.3</ele>
        <time>2011-07-30T15:55:02Z</time>
      </trkpt>
      <trkpt lat="45.51011" lon="6.70819">
        <ele>2115.4</ele>
        <time>2011-07-30T15:55:07Z</time>
      </trkpt>
      <trkpt lat="45.51002" lon="6.70817">
        <ele>2113.5</ele>
        <time>2011-07-30T15:55:12Z</time>
      </trkpt>
      <trkpt lat="45.50991" lon="6.70814">
        <ele>2111.5</ele>
        <time>2011-07-30T15:55:18Z</time>
      </trkpt>
      <trkpt lat="45.50981" lon="6.7081">
        <ele>2110.7</ele>
        <time>2011-07-30T15:55:24Z</time>
      </trkpt>
      <trkpt lat="45.5097" lon="6.70811">
        <ele>2109.9</ele>
        <time>2011-07-30T15:55:30Z</time>
      </trkpt>
      <trkpt lat="45.50959" lon="6.70813">
        <ele>2109.1</ele>
        <time>2011-07-30T15:55:36Z</time>
      </trkpt>
      <trkpt lat="45.5095" lon="6.70814">
        <ele>2108.3</ele>
        <time>2011-07-30T15:55:41Z</time>
      </trkpt>
      <trkpt lat="45.50941" lon="6.70813">
        <ele>2107.5</ele>
        <time>2011-07-30T15:55:47Z</time>
      </trkpt>
      <trkpt lat="45.50932" lon="6.70809">
        <ele>2106.6</ele>
        <time>2011-07-30T15:55:56Z</time>
      </trkpt>
      <trkpt lat="45.50923" lon="6.70812">
        <ele>2105.8</ele>
        <time>2011-07-30T15:56:04Z</time>
      </trkpt>
      <trkpt lat="45.50914" lon="6.70814">
        <ele>2104.3</ele>
        <time>2011-07-30T15:57:14Z</time>
      </trkpt>
      <trkpt lat="45.50904" lon="6.70821">
        <ele>2103.5</ele>
        <time>2011-07-30T15:57:20Z</time>
      </trkpt>
      <trkpt lat="45.50895" lon="6.70825">
        <ele>2102.8</ele>
        <time>2011-07-30T15:57:24Z</time>
      </trkpt>
      <trkpt lat="45.50886" lon="6.70829">
        <ele>2102.1</ele>
        <time>2011-07-30T15:57:28Z</time>
      </trkpt>
      <trkpt lat="45.50876" lon="6.70833">
        <ele>2101.4</ele>
        <time>2011-07-30T15:57:32Z</time>
      </trkpt>
      <trkpt lat="45.50867" lon="6.70837">
        <ele>2100.6</ele>
        <time>2011-07-30T15:57:36Z</time>
      </trkpt>
      <trkpt lat="45.50858" lon="6.7084">
        <ele>2099.9</ele>
        <time>2011-07-30T15:57:41Z</time>
      </trkpt>
      <trkpt lat="45.50849" lon="6.70844">
        <ele>2099.2</ele>
        <time>2011-07-30T15:57:46Z</time>
      </trkpt>
      <trkpt lat="45.50841" lon="6.70848">
        <ele>2098.5</ele>
        <time>2011-07-30T15:57:51Z</time>
      </trkpt>
      <trkpt lat="45.50831" lon="6.70854">
        <ele>2096.5</ele>
        <time>2011-07-30T15:57:56Z</time>
      </trkpt>
      <trkpt lat="45.50821" lon="6.70857">
        <ele>2094.6</ele>
        <time>2011-07-30T15:58:01Z</time>
      </trkpt>
      <trkpt lat="45.50812" lon="6.70861">
        <ele>2093.5</ele>
        <time>2011-07-30T15:58:05Z</time>
      </trkpt>
      <trkpt lat="45.50803" lon="6.70864">
        <ele>2092.3</ele>
        <time>2011-07-30T15:58:10Z</time>
      </trkpt>
      <trkpt lat="45.50795" lon="6.70871">
        <ele>2091.1</ele>
        <time>2011-07-30T15:58:16Z</time>
      </trkpt>
      <trkpt lat="45.50785" lon="6.70864">
        <ele>2089.9</ele>
        <time>2011-07-30T15:58:22Z</time>
      </trkpt>
      <trkpt lat="45.50776" lon="6.70857">
        <ele>2088.7</ele>
        <time>2011-07-30T15:58:27Z</time>
      </trkpt>
      <trkpt lat="45.50766" lon="6.70855">
        <ele>2087.5</ele>
        <time>2011-07-30T15:58:32Z</time>
      </trkpt>
      <trkpt lat="45.50757" lon="6.70855">
        <ele>2085.6</ele>
        <time>2011-07-30T15:58:37Z</time>
      </trkpt>
      <trkpt lat="45.50746" lon="6.70857">
        <ele>2083.7</ele>
        <time>2011-07-30T15:58:43Z</time>
      </trkpt>
      <trkpt lat="45.50737" lon="6.70856">
        <ele>2082.7</ele>
        <time>2011-07-30T15:58:48Z</time>
      </trkpt>
      <trkpt lat="45.50727" lon="6.70859">
        <ele>2082.9</ele>
        <time>2011-07-30T15:58:53Z</time>
      </trkpt>
      <trkpt lat="45.50718" lon="6.70864">
        <ele>2082.2</ele>
        <time>2011-07-30T15:58:58Z</time>
      </trkpt>
      <trkpt lat="45.50709" lon="6.70872">
        <ele>2081.5</ele>
        <time>2011-07-30T15:59:03Z</time>
      </trkpt>
      <trkpt lat="45.50701" lon="6.7088">
        <ele>2080.7</ele>
        <time>2011-07-30T15:59:08Z</time>
      </trkpt>
      <trkpt lat="45.50692" lon="6.70889">
        <ele>2080</ele>
        <time>2011-07-30T15:59:13Z</time>
      </trkpt>
      <trkpt lat="45.50682" lon="6.70889">
        <ele>2079.3</ele>
        <time>2011-07-30T15:59:18Z</time>
      </trkpt>
      <trkpt lat="45.50673" lon="6.70881">
        <ele>2078.5</ele>
        <time>2011-07-30T15:59:22Z</time>
      </trkpt>
      <trkpt lat="45.50668" lon="6.70867">
        <ele>2077</ele>
        <time>2011-07-30T15:59:27Z</time>
      </trkpt>
      <trkpt lat="45.50669" lon="6.70853">
        <ele>2076.2</ele>
        <time>2011-07-30T15:59:32Z</time>
      </trkpt>
      <trkpt lat="45.50671" lon="6.7084">
        <ele>2075.4</ele>
        <time>2011-07-30T15:59:35Z</time>
      </trkpt>
      <trkpt lat="45.50675" lon="6.70826">
        <ele>2073.6</ele>
        <time>2011-07-30T15:59:39Z</time>
      </trkpt>
      <trkpt lat="45.50679" lon="6.70813">
        <ele>2071.9</ele>
        <time>2011-07-30T15:59:43Z</time>
      </trkpt>
      <trkpt lat="45.50674" lon="6.70799">
        <ele>2071.1</ele>
        <time>2011-07-30T15:59:48Z</time>
      </trkpt>
      <trkpt lat="45.50669" lon="6.70787">
        <ele>2069.5</ele>
        <time>2011-07-30T15:59:53Z</time>
      </trkpt>
      <trkpt lat="45.50663" lon="6.70775">
        <ele>2067.8</ele>
        <time>2011-07-30T15:59:58Z</time>
      </trkpt>
      <trkpt lat="45.5066" lon="6.70761">
        <ele>2066.2</ele>
        <time>2011-07-30T16:00:04Z</time>
      </trkpt>
      <trkpt lat="45.50658" lon="6.70747">
        <ele>2064.5</ele>
        <time>2011-07-30T16:00:08Z</time>
      </trkpt>
      <trkpt lat="45.50655" lon="6.70733">
        <ele>2062.9</ele>
        <time>2011-07-30T16:00:12Z</time>
      </trkpt>
      <trkpt lat="45.50651" lon="6.70719">
        <ele>2062.1</ele>
        <time>2011-07-30T16:00:16Z</time>
      </trkpt>
      <trkpt lat="45.50646" lon="6.70706">
        <ele>2061.3</ele>
        <time>2011-07-30T16:00:20Z</time>
      </trkpt>
      <trkpt lat="45.50643" lon="6.70694">
        <ele>2060.5</ele>
        <time>2011-07-30T16:00:24Z</time>
      </trkpt>
      <trkpt lat="45.50643" lon="6.70679">
        <ele>2058.7</ele>
        <time>2011-07-30T16:00:28Z</time>
      </trkpt>
      <trkpt lat="45.50645" lon="6.70665">
        <ele>2057</ele>
        <time>2011-07-30T16:00:32Z</time>
      </trkpt>
      <trkpt lat="45.50648" lon="6.70653">
        <ele>2055.3</ele>
        <time>2011-07-30T16:00:36Z</time>
      </trkpt>
      <trkpt lat="45.5065" lon="6.7064">
        <ele>2054.4</ele>
        <time>2011-07-30T16:00:40Z</time>
      </trkpt>
      <trkpt lat="45.50654" lon="6.70626">
        <ele>2053.5</ele>
        <time>2011-07-30T16:00:45Z</time>
      </trkpt>
      <trkpt lat="45.50659" lon="6.70613">
        <ele>2052.5</ele>
        <time>2011-07-30T16:00:50Z</time>
      </trkpt>
      <trkpt lat="45.50664" lon="6.706">
        <ele>2051.6</ele>
        <time>2011-07-30T16:00:55Z</time>
      </trkpt>
      <trkpt lat="45.5067" lon="6.7059">
        <ele>2050.7</ele>
        <time>2011-07-30T16:00:59Z</time>
      </trkpt>
      <trkpt lat="45.50677" lon="6.70582">
        <ele>2048.1</ele>
        <time>2011-07-30T16:01:03Z</time>
      </trkpt>
      <trkpt lat="45.50685" lon="6.70575">
        <ele>2045.5</ele>
        <time>2011-07-30T16:01:07Z</time>
      </trkpt>
      <trkpt lat="45.50694" lon="6.70567">
        <ele>2042.8</ele>
        <time>2011-07-30T16:01:12Z</time>
      </trkpt>
      <trkpt lat="45.50702" lon="6.7056">
        <ele>2041.1</ele>
        <time>2011-07-30T16:01:17Z</time>
      </trkpt>
      <trkpt lat="45.50708" lon="6.70549">
        <ele>2039.4</ele>
        <time>2011-07-30T16:01:22Z</time>
      </trkpt>
      <trkpt lat="45.50712" lon="6.70537">
        <ele>2037.6</ele>
        <time>2011-07-30T16:01:27Z</time>
      </trkpt>
      <trkpt lat="45.50717" lon="6.70525">
        <ele>2035.9</ele>
        <time>2011-07-30T16:01:33Z</time>
      </trkpt>
      <trkpt lat="45.50724" lon="6.70513">
        <ele>2034.2</ele>
        <time>2011-07-30T16:01:38Z</time>
      </trkpt>
      <trkpt lat="45.50732" lon="6.70507">
        <ele>2032.5</ele>
        <time>2011-07-30T16:01:43Z</time>
      </trkpt>
      <trkpt lat="45.50743" lon="6.70506">
        <ele>2030.7</ele>
        <time>2011-07-30T16:01:49Z</time>
      </trkpt>
      <trkpt lat="45.50752" lon="6.70504">
        <ele>2028.5</ele>
        <time>2011-07-30T16:01:54Z</time>
      </trkpt>
      <trkpt lat="45.50764" lon="6.70502">
        <ele>2028.1</ele>
        <time>2011-07-30T16:02:00Z</time>
      </trkpt>
      <trkpt lat="45.50773" lon="6.70499">
        <ele>2027.6</ele>
        <time>2011-07-30T16:02:04Z</time>
      </trkpt>
      <trkpt lat="45.50782" lon="6.70498">
        <ele>2027.2</ele>
        <time>2011-07-30T16:02:08Z</time>
      </trkpt>
      <trkpt lat="45.50791" lon="6.70493">
        <ele>2024.8</ele>
        <time>2011-07-30T16:02:12Z</time>
      </trkpt>
      <trkpt lat="45.508" lon="6.70485">
        <ele>2022.5</ele>
        <time>2011-07-30T16:02:17Z</time>
      </trkpt>
      <trkpt lat="45.50809" lon="6.70478">
        <ele>2020.1</ele>
        <time>2011-07-30T16:02:22Z</time>
      </trkpt>
      <trkpt lat="45.50819" lon="6.70472">
        <ele>2017.7</ele>
        <time>2011-07-30T16:02:27Z</time>
      </trkpt>
      <trkpt lat="45.50829" lon="6.70465">
        <ele>2015.4</ele>
        <time>2011-07-30T16:02:32Z</time>
      </trkpt>
      <trkpt lat="45.50838" lon="6.70458">
        <ele>2012.8</ele>
        <time>2011-07-30T16:02:37Z</time>
      </trkpt>
      <trkpt lat="45.50846" lon="6.7045">
        <ele>2010.3</ele>
        <time>2011-07-30T16:02:42Z</time>
      </trkpt>
      <trkpt lat="45.50856" lon="6.7045">
        <ele>2008.2</ele>
        <time>2011-07-30T16:02:47Z</time>
      </trkpt>
      <trkpt lat="45.50866" lon="6.70443">
        <ele>2006.1</ele>
        <time>2011-07-30T16:02:52Z</time>
      </trkpt>
      <trkpt lat="45.50873" lon="6.70434">
        <ele>2003</ele>
        <time>2011-07-30T16:02:57Z</time>
      </trkpt>
      <trkpt lat="45.5088" lon="6.70423">
        <ele>1999.9</ele>
        <time>2011-07-30T16:03:02Z</time>
      </trkpt>
      <trkpt lat="45.50887" lon="6.7041">
        <ele>1998.7</ele>
        <time>2011-07-30T16:03:07Z</time>
      </trkpt>
      <trkpt lat="45.50892" lon="6.70397">
        <ele>1997.5</ele>
        <time>2011-07-30T16:03:12Z</time>
      </trkpt>
      <trkpt lat="45.50897" lon="6.70386">
        <ele>1996.4</ele>
        <time>2011-07-30T16:03:17Z</time>
      </trkpt>
      <trkpt lat="45.50903" lon="6.70373">
        <ele>1995.2</ele>
        <time>2011-07-30T16:03:22Z</time>
      </trkpt>
      <trkpt lat="45.50909" lon="6.70364">
        <ele>1994</ele>
        <time>2011-07-30T16:03:26Z</time>
      </trkpt>
      <trkpt lat="45.50916" lon="6.70351">
        <ele>1993</ele>
        <time>2011-07-30T16:03:31Z</time>
      </trkpt>
      <trkpt lat="45.50922" lon="6.70341">
        <ele>1992.1</ele>
        <time>2011-07-30T16:03:35Z</time>
      </trkpt>
      <trkpt lat="45.50928" lon="6.70329">
        <ele>1991.2</ele>
        <time>2011-07-30T16:03:41Z</time>
      </trkpt>
      <trkpt lat="45.50934" lon="6.70319">
        <ele>1989</ele>
        <time>2011-07-30T16:03:45Z</time>
      </trkpt>
      <trkpt lat="45.5094" lon="6.70309">
        <ele>1987.8</ele>
        <time>2011-07-30T16:03:49Z</time>
      </trkpt>
      <trkpt lat="45.50947" lon="6.70297">
        <ele>1986.6</ele>
        <time>2011-07-30T16:03:54Z</time>
      </trkpt>
      <trkpt lat="45.50955" lon="6.70291">
        <ele>1985.5</ele>
        <time>2011-07-30T16:03:59Z</time>
      </trkpt>
      <trkpt lat="45.50963" lon="6.70284">
        <ele>1984.3</ele>
        <time>2011-07-30T16:04:04Z</time>
      </trkpt>
      <trkpt lat="45.5097" lon="6.70274">
        <ele>1983.1</ele>
        <time>2011-07-30T16:04:09Z</time>
      </trkpt>
      <trkpt lat="45.50977" lon="6.70262">
        <ele>1981.4</ele>
        <time>2011-07-30T16:04:15Z</time>
      </trkpt>
      <trkpt lat="45.50983" lon="6.70252">
        <ele>1979.6</ele>
        <time>2011-07-30T16:04:21Z</time>
      </trkpt>
      <trkpt lat="45.50988" lon="6.70242">
        <ele>1977.9</ele>
        <time>2011-07-30T16:04:26Z</time>
      </trkpt>
      <trkpt lat="45.50994" lon="6.70231">
        <ele>1976.1</ele>
        <time>2011-07-30T16:04:31Z</time>
      </trkpt>
      <trkpt lat="45.51002" lon="6.70222">
        <ele>1974.3</ele>
        <time>2011-07-30T16:04:36Z</time>
      </trkpt>
      <trkpt lat="45.5101" lon="6.70212">
        <ele>1973.7</ele>
        <time>2011-07-30T16:04:41Z</time>
      </trkpt>
      <trkpt lat="45.51018" lon="6.70204">
        <ele>1973</ele>
        <time>2011-07-30T16:04:46Z</time>
      </trkpt>
      <trkpt lat="45.51025" lon="6.70193">
        <ele>1972.3</ele>
        <time>2011-07-30T16:04:51Z</time>
      </trkpt>
      <trkpt lat="45.51033" lon="6.70184">
        <ele>1971.5</ele>
        <time>2011-07-30T16:04:56Z</time>
      </trkpt>
      <trkpt lat="45.51038" lon="6.70171">
        <ele>1969.7</ele>
        <time>2011-07-30T16:05:01Z</time>
      </trkpt>
      <trkpt lat="45.51045" lon="6.7016">
        <ele>1967.9</ele>
        <time>2011-07-30T16:05:06Z</time>
      </trkpt>
      <trkpt lat="45.51055" lon="6.70152">
        <ele>1966.6</ele>
        <time>2011-07-30T16:05:11Z</time>
      </trkpt>
      <trkpt lat="45.51063" lon="6.70142">
        <ele>1965.4</ele>
        <time>2011-07-30T16:05:16Z</time>
      </trkpt>
      <trkpt lat="45.51072" lon="6.70133">
        <ele>1964.1</ele>
        <time>2011-07-30T16:05:21Z</time>
      </trkpt>
      <trkpt lat="45.51079" lon="6.70125">
        <ele>1962.8</ele>
        <time>2011-07-30T16:05:25Z</time>
      </trkpt>
      <trkpt lat="45.51086" lon="6.70116">
        <ele>1961.5</ele>
        <time>2011-07-30T16:05:29Z</time>
      </trkpt>
      <trkpt lat="45.51092" lon="6.70106">
        <ele>1959.9</ele>
        <time>2011-07-30T16:05:33Z</time>
      </trkpt>
      <trkpt lat="45.51098" lon="6.70096">
        <ele>1958.5</ele>
        <time>2011-07-30T16:05:37Z</time>
      </trkpt>
      <trkpt lat="45.51105" lon="6.70089">
        <ele>1957</ele>
        <time>2011-07-30T16:05:43Z</time>
      </trkpt>
      <trkpt lat="45.51106" lon="6.70074">
        <ele>1955.5</ele>
        <time>2011-07-30T16:05:48Z</time>
      </trkpt>
      <trkpt lat="45.51105" lon="6.70059">
        <ele>1954.4</ele>
        <time>2011-07-30T16:05:52Z</time>
      </trkpt>
      <trkpt lat="45.51107" lon="6.70043">
        <ele>1953.2</ele>
        <time>2011-07-30T16:05:57Z</time>
      </trkpt>
      <trkpt lat="45.51112" lon="6.7003">
        <ele>1952</ele>
        <time>2011-07-30T16:06:02Z</time>
      </trkpt>
      <trkpt lat="45.5112" lon="6.70019">
        <ele>1950.4</ele>
        <time>2011-07-30T16:06:07Z</time>
      </trkpt>
      <trkpt lat="45.51128" lon="6.70012">
        <ele>1948.7</ele>
        <time>2011-07-30T16:06:11Z</time>
      </trkpt>
      <trkpt lat="45.51135" lon="6.70003">
        <ele>1947.1</ele>
        <time>2011-07-30T16:06:15Z</time>
      </trkpt>
      <trkpt lat="45.51142" lon="6.69991">
        <ele>1945.5</ele>
        <time>2011-07-30T16:06:20Z</time>
      </trkpt>
      <trkpt lat="45.51148" lon="6.69979">
        <ele>1944.2</ele>
        <time>2011-07-30T16:06:25Z</time>
      </trkpt>
      <trkpt lat="45.51154" lon="6.69967">
        <ele>1942.9</ele>
        <time>2011-07-30T16:06:30Z</time>
      </trkpt>
      <trkpt lat="45.5116" lon="6.69955">
        <ele>1941.6</ele>
        <time>2011-07-30T16:06:35Z</time>
      </trkpt>
      <trkpt lat="45.51166" lon="6.69944">
        <ele>1940.2</ele>
        <time>2011-07-30T16:06:40Z</time>
      </trkpt>
      <trkpt lat="45.51172" lon="6.69934">
        <ele>1939.5</ele>
        <time>2011-07-30T16:06:45Z</time>
      </trkpt>
      <trkpt lat="45.51179" lon="6.69922">
        <ele>1938.9</ele>
        <time>2011-07-30T16:06:50Z</time>
      </trkpt>
      <trkpt lat="45.51185" lon="6.69911">
        <ele>1938.3</ele>
        <time>2011-07-30T16:06:55Z</time>
      </trkpt>
      <trkpt lat="45.51191" lon="6.699">
        <ele>1938.1</ele>
        <time>2011-07-30T16:07:00Z</time>
      </trkpt>
      <trkpt lat="45.51196" lon="6.69886">
        <ele>1937.5</ele>
        <time>2011-07-30T16:07:06Z</time>
      </trkpt>
      <trkpt lat="45.51196" lon="6.69872">
        <ele>1936.8</ele>
        <time>2011-07-30T16:07:10Z</time>
      </trkpt>
      <trkpt lat="45.51199" lon="6.69859">
        <ele>1936.2</ele>
        <time>2011-07-30T16:07:14Z</time>
      </trkpt>
      <trkpt lat="45.51204" lon="6.69848">
        <ele>1935.5</ele>
        <time>2011-07-30T16:07:19Z</time>
      </trkpt>
      <trkpt lat="45.51211" lon="6.69839">
        <ele>1934.7</ele>
        <time>2011-07-30T16:07:25Z</time>
      </trkpt>
      <trkpt lat="45.51218" lon="6.6983">
        <ele>1933.9</ele>
        <time>2011-07-30T16:07:31Z</time>
      </trkpt>
      <trkpt lat="45.51226" lon="6.69821">
        <ele>1933.3</ele>
        <time>2011-07-30T16:07:37Z</time>
      </trkpt>
      <trkpt lat="45.51234" lon="6.69814">
        <ele>1932.6</ele>
        <time>2011-07-30T16:07:42Z</time>
      </trkpt>
      <trkpt lat="45.51244" lon="6.69807">
        <ele>1932</ele>
        <time>2011-07-30T16:07:47Z</time>
      </trkpt>
      <trkpt lat="45.51253" lon="6.69801">
        <ele>1931.5</ele>
        <time>2011-07-30T16:07:51Z</time>
      </trkpt>
      <trkpt lat="45.51262" lon="6.69797">
        <ele>1931.1</ele>
        <time>2011-07-30T16:07:56Z</time>
      </trkpt>
      <trkpt lat="45.51271" lon="6.69798">
        <ele>1931.1</ele>
        <time>2011-07-30T16:08:03Z</time>
      </trkpt>
      <trkpt lat="45.51279" lon="6.6979">
        <ele>1931.1</ele>
        <time>2011-07-30T16:10:36Z</time>
      </trkpt>
      <trkpt lat="45.51288" lon="6.69787">
        <ele>1931.1</ele>
        <time>2011-07-30T16:11:11Z</time>
      </trkpt>
      <trkpt lat="45.51298" lon="6.69786">
        <ele>1931.1</ele>
        <time>2011-07-30T16:11:17Z</time>
      </trkpt>
      <trkpt lat="45.51302" lon="6.69774">
        <ele>1931.3</ele>
        <time>2011-07-30T16:11:27Z</time>
      </trkpt>
      <trkpt lat="45.51304" lon="6.6976">
        <ele>1931.5</ele>
        <time>2011-07-30T16:11:38Z</time>
      </trkpt>
      <trkpt lat="45.51314" lon="6.69764">
        <ele>1931.6</ele>
        <time>2011-07-30T16:11:50Z</time>
      </trkpt>
      <trkpt lat="45.51327" lon="6.69772">
        <ele>1931.7</ele>
        <time>2011-07-30T16:11:56Z</time>
      </trkpt>
      <trkpt lat="45.51336" lon="6.69778">
        <ele>1931.8</ele>
        <time>2011-07-30T16:11:59Z</time>
      </trkpt>
      <trkpt lat="45.51348" lon="6.69783">
        <ele>1931.7</ele>
        <time>2011-07-30T16:12:03Z</time>
      </trkpt>
      <trkpt lat="45.51357" lon="6.69788">
        <ele>1931.6</ele>
        <time>2011-07-30T16:12:07Z</time>
      </trkpt>
      <trkpt lat="45.51366" lon="6.69791">
        <ele>1931.5</ele>
        <time>2011-07-30T16:12:14Z</time>
      </trkpt>
      <trkpt lat="45.51377" lon="6.6979">
        <ele>1931.5</ele>
        <time>2011-07-30T16:12:22Z</time>
      </trkpt>
      <trkpt lat="45.51388" lon="6.6979">
        <ele>1931.4</ele>
        <time>2011-07-30T16:12:27Z</time>
      </trkpt>
      <trkpt lat="45.51395" lon="6.69781">
        <ele>1931.3</ele>
        <time>2011-07-30T16:12:39Z</time>
      </trkpt>
      <trkpt lat="45.51404" lon="6.69776">
        <ele>1931.2</ele>
        <time>2011-07-30T16:12:48Z</time>
      </trkpt>
      <trkpt lat="45.51415" lon="6.6977">
        <ele>1930.6</ele>
        <time>2011-07-30T16:12:54Z</time>
      </trkpt>
      <trkpt lat="45.51424" lon="6.69765">
        <ele>1930.1</ele>
        <time>2011-07-30T16:12:59Z</time>
      </trkpt>
      <trkpt lat="45.51434" lon="6.6976">
        <ele>1929.6</ele>
        <time>2011-07-30T16:13:15Z</time>
      </trkpt>
      <trkpt lat="45.51444" lon="6.6976">
        <ele>1929.2</ele>
        <time>2011-07-30T16:13:21Z</time>
      </trkpt>
      <trkpt lat="45.51455" lon="6.6976">
        <ele>1928.7</ele>
        <time>2011-07-30T16:13:29Z</time>
      </trkpt>
      <trkpt lat="45.51468" lon="6.69761">
        <ele>1928.3</ele>
        <time>2011-07-30T16:13:33Z</time>
      </trkpt>
      <trkpt lat="45.51483" lon="6.69764">
        <ele>1927.8</ele>
        <time>2011-07-30T16:13:37Z</time>
      </trkpt>
      <trkpt lat="45.51495" lon="6.69768">
        <ele>1927.4</ele>
        <time>2011-07-30T16:13:43Z</time>
      </trkpt>
      <trkpt lat="45.51505" lon="6.69763">
        <ele>1925.3</ele>
        <time>2011-07-30T16:13:49Z</time>
      </trkpt>
      <trkpt lat="45.51513" lon="6.69755">
        <ele>1923.2</ele>
        <time>2011-07-30T16:13:55Z</time>
      </trkpt>
      <trkpt lat="45.51521" lon="6.69745">
        <ele>1923.8</ele>
        <time>2011-07-30T16:14:01Z</time>
      </trkpt>
      <trkpt lat="45.51528" lon="6.69735">
        <ele>1924.9</ele>
        <time>2011-07-30T16:14:05Z</time>
      </trkpt>
      <trkpt lat="45.51535" lon="6.69723">
        <ele>1926</ele>
        <time>2011-07-30T16:14:09Z</time>
      </trkpt>
      <trkpt lat="45.51541" lon="6.69711">
        <ele>1927.1</ele>
        <time>2011-07-30T16:14:13Z</time>
      </trkpt>
      <trkpt lat="45.51544" lon="6.69698">
        <ele>1928.2</ele>
        <time>2011-07-30T16:14:17Z</time>
      </trkpt>
      <trkpt lat="45.51547" lon="6.69684">
        <ele>1928</ele>
        <time>2011-07-30T16:14:21Z</time>
      </trkpt>
      <trkpt lat="45.5155" lon="6.69669">
        <ele>1927.8</ele>
        <time>2011-07-30T16:14:25Z</time>
      </trkpt>
      <trkpt lat="45.51552" lon="6.69655">
        <ele>1927.6</ele>
        <time>2011-07-30T16:14:29Z</time>
      </trkpt>
      <trkpt lat="45.51554" lon="6.69642">
        <ele>1927.5</ele>
        <time>2011-07-30T16:14:33Z</time>
      </trkpt>
      <trkpt lat="45.51556" lon="6.69628">
        <ele>1928.9</ele>
        <time>2011-07-30T16:14:38Z</time>
      </trkpt>
      <trkpt lat="45.51559" lon="6.69613">
        <ele>1930.4</ele>
        <time>2011-07-30T16:14:44Z</time>
      </trkpt>
      <trkpt lat="45.5156" lon="6.696">
        <ele>1928</ele>
        <time>2011-07-30T16:14:50Z</time>
      </trkpt>
      <trkpt lat="45.51561" lon="6.69586">
        <ele>1925.6</ele>
        <time>2011-07-30T16:14:55Z</time>
      </trkpt>
      <trkpt lat="45.51563" lon="6.69572">
        <ele>1923.3</ele>
        <time>2011-07-30T16:14:59Z</time>
      </trkpt>
      <trkpt lat="45.51565" lon="6.69558">
        <ele>1920.9</ele>
        <time>2011-07-30T16:15:04Z</time>
      </trkpt>
      <trkpt lat="45.51567" lon="6.69543">
        <ele>1918.5</ele>
        <time>2011-07-30T16:15:09Z</time>
      </trkpt>
      <trkpt lat="45.51569" lon="6.6953">
        <ele>1916.3</ele>
        <time>2011-07-30T16:15:13Z</time>
      </trkpt>
      <trkpt lat="45.5157" lon="6.69516">
        <ele>1914</ele>
        <time>2011-07-30T16:15:18Z</time>
      </trkpt>
      <trkpt lat="45.51573" lon="6.695">
        <ele>1911.7</ele>
        <time>2011-07-30T16:15:23Z</time>
      </trkpt>
      <trkpt lat="45.51573" lon="6.69487">
        <ele>1908.5</ele>
        <time>2011-07-30T16:15:27Z</time>
      </trkpt>
      <trkpt lat="45.51572" lon="6.69474">
        <ele>1905.4</ele>
        <time>2011-07-30T16:15:32Z</time>
      </trkpt>
      <trkpt lat="45.51566" lon="6.6946">
        <ele>1902.2</ele>
        <time>2011-07-30T16:15:37Z</time>
      </trkpt>
      <trkpt lat="45.51559" lon="6.69452">
        <ele>1900.1</ele>
        <time>2011-07-30T16:15:41Z</time>
      </trkpt>
      <trkpt lat="45.5155" lon="6.69445">
        <ele>1898</ele>
        <time>2011-07-30T16:15:45Z</time>
      </trkpt>
      <trkpt lat="45.5154" lon="6.69442">
        <ele>1895.9</ele>
        <time>2011-07-30T16:15:49Z</time>
      </trkpt>
      <trkpt lat="45.5153" lon="6.69443">
        <ele>1893.8</ele>
        <time>2011-07-30T16:15:54Z</time>
      </trkpt>
      <trkpt lat="45.51521" lon="6.69446">
        <ele>1891.7</ele>
        <time>2011-07-30T16:15:58Z</time>
      </trkpt>
      <trkpt lat="45.51512" lon="6.69451">
        <ele>1890.8</ele>
        <time>2011-07-30T16:16:02Z</time>
      </trkpt>
      <trkpt lat="45.51509" lon="6.69438">
        <ele>1890.8</ele>
        <time>2011-07-30T16:16:13Z</time>
      </trkpt>
      <trkpt lat="45.51516" lon="6.69427">
        <ele>1890.8</ele>
        <time>2011-07-30T16:16:17Z</time>
      </trkpt>
      <trkpt lat="45.51523" lon="6.69418">
        <ele>1891.7</ele>
        <time>2011-07-30T16:16:21Z</time>
      </trkpt>
      <trkpt lat="45.51533" lon="6.69412">
        <ele>1892.6</ele>
        <time>2011-07-30T16:16:26Z</time>
      </trkpt>
      <trkpt lat="45.51542" lon="6.69407">
        <ele>1890.8</ele>
        <time>2011-07-30T16:16:31Z</time>
      </trkpt>
      <trkpt lat="45.51551" lon="6.69405">
        <ele>1889</ele>
        <time>2011-07-30T16:16:36Z</time>
      </trkpt>
      <trkpt lat="45.51561" lon="6.69398">
        <ele>1887.2</ele>
        <time>2011-07-30T16:16:41Z</time>
      </trkpt>
      <trkpt lat="45.5157" lon="6.69392">
        <ele>1885.4</ele>
        <time>2011-07-30T16:16:47Z</time>
      </trkpt>
      <trkpt lat="45.51579" lon="6.69384">
        <ele>1883.5</ele>
        <time>2011-07-30T16:16:54Z</time>
      </trkpt>
      <trkpt lat="45.51589" lon="6.69377">
        <ele>1881.7</ele>
        <time>2011-07-30T16:16:57Z</time>
      </trkpt>
      <trkpt lat="45.516" lon="6.69371">
        <ele>1879.9</ele>
        <time>2011-07-30T16:17:01Z</time>
      </trkpt>
      <trkpt lat="45.5161" lon="6.69369">
        <ele>1877.2</ele>
        <time>2011-07-30T16:17:04Z</time>
      </trkpt>
      <trkpt lat="45.51619" lon="6.69363">
        <ele>1874.5</ele>
        <time>2011-07-30T16:17:08Z</time>
      </trkpt>
      <trkpt lat="45.51627" lon="6.69356">
        <ele>1871.7</ele>
        <time>2011-07-30T16:17:12Z</time>
      </trkpt>
      <trkpt lat="45.51636" lon="6.69348">
        <ele>1869</ele>
        <time>2011-07-30T16:17:17Z</time>
      </trkpt>
      <trkpt lat="45.51646" lon="6.69345">
        <ele>1869</ele>
        <time>2011-07-30T16:17:22Z</time>
      </trkpt>
      <trkpt lat="45.51655" lon="6.69343">
        <ele>1869</ele>
        <time>2011-07-30T16:17:27Z</time>
      </trkpt>
      <trkpt lat="45.51666" lon="6.69339">
        <ele>1869.9</ele>
        <time>2011-07-30T16:17:32Z</time>
      </trkpt>
      <trkpt lat="45.51676" lon="6.69335">
        <ele>1870.8</ele>
        <time>2011-07-30T16:17:37Z</time>
      </trkpt>
      <trkpt lat="45.51686" lon="6.69331">
        <ele>1871.7</ele>
        <time>2011-07-30T16:17:41Z</time>
      </trkpt>
      <trkpt lat="45.51694" lon="6.69324">
        <ele>1872.6</ele>
        <time>2011-07-30T16:17:46Z</time>
      </trkpt>
      <trkpt lat="45.51704" lon="6.6932">
        <ele>1873.5</ele>
        <time>2011-07-30T16:17:50Z</time>
      </trkpt>
      <trkpt lat="45.51712" lon="6.69316">
        <ele>1870.7</ele>
        <time>2011-07-30T16:17:55Z</time>
      </trkpt>
      <trkpt lat="45.51724" lon="6.69312">
        <ele>1867.9</ele>
        <time>2011-07-30T16:17:59Z</time>
      </trkpt>
      <trkpt lat="45.51733" lon="6.69308">
        <ele>1865.1</ele>
        <time>2011-07-30T16:18:03Z</time>
      </trkpt>
      <trkpt lat="45.51742" lon="6.69305">
        <ele>1862.3</ele>
        <time>2011-07-30T16:18:08Z</time>
      </trkpt>
      <trkpt lat="45.51752" lon="6.693">
        <ele>1861.4</ele>
        <time>2011-07-30T16:18:14Z</time>
      </trkpt>
      <trkpt lat="45.51759" lon="6.69291">
        <ele>1860.5</ele>
        <time>2011-07-30T16:18:19Z</time>
      </trkpt>
      <trkpt lat="45.51767" lon="6.69282">
        <ele>1858.6</ele>
        <time>2011-07-30T16:18:24Z</time>
      </trkpt>
      <trkpt lat="45.51776" lon="6.69278">
        <ele>1856.8</ele>
        <time>2011-07-30T16:18:27Z</time>
      </trkpt>
      <trkpt lat="45.51792" lon="6.69267">
        <ele>1855</ele>
        <time>2011-07-30T16:18:33Z</time>
      </trkpt>
      <trkpt lat="45.51802" lon="6.69261">
        <ele>1853.2</ele>
        <time>2011-07-30T16:18:37Z</time>
      </trkpt>
      <trkpt lat="45.51811" lon="6.69255">
        <ele>1851.4</ele>
        <time>2011-07-30T16:18:41Z</time>
      </trkpt>
      <trkpt lat="45.51819" lon="6.69248">
        <ele>1850.2</ele>
        <time>2011-07-30T16:18:44Z</time>
      </trkpt>
      <trkpt lat="45.51828" lon="6.69241">
        <ele>1849</ele>
        <time>2011-07-30T16:18:47Z</time>
      </trkpt>
      <trkpt lat="45.51837" lon="6.69235">
        <ele>1847.8</ele>
        <time>2011-07-30T16:18:51Z</time>
      </trkpt>
      <trkpt lat="45.51845" lon="6.69228">
        <ele>1849.3</ele>
        <time>2011-07-30T16:18:57Z</time>
      </trkpt>
      <trkpt lat="45.51853" lon="6.69219">
        <ele>1848.8</ele>
        <time>2011-07-30T16:19:05Z</time>
      </trkpt>
      <trkpt lat="45.51859" lon="6.69209">
        <ele>1848.4</ele>
        <time>2011-07-30T16:19:12Z</time>
      </trkpt>
      <trkpt lat="45.51868" lon="6.69201">
        <ele>1847.9</ele>
        <time>2011-07-30T16:19:20Z</time>
      </trkpt>
      <trkpt lat="45.51875" lon="6.69193">
        <ele>1847.5</ele>
        <time>2011-07-30T16:19:28Z</time>
      </trkpt>
      <trkpt lat="45.51884" lon="6.69191">
        <ele>1847</ele>
        <time>2011-07-30T16:19:37Z</time>
      </trkpt>
      <trkpt lat="45.51893" lon="6.69188">
        <ele>1846.5</ele>
        <time>2011-07-30T16:19:49Z</time>
      </trkpt>
      <trkpt lat="45.51902" lon="6.69182">
        <ele>1846.1</ele>
        <time>2011-07-30T16:19:57Z</time>
      </trkpt>
      <trkpt lat="45.51912" lon="6.6918">
        <ele>1848.7</ele>
        <time>2011-07-30T16:20:06Z</time>
      </trkpt>
      <trkpt lat="45.51921" lon="6.69177">
        <ele>1854.5</ele>
        <time>2011-07-30T16:20:14Z</time>
      </trkpt>
      <trkpt lat="45.51931" lon="6.69174">
        <ele>1860.4</ele>
        <time>2011-07-30T16:20:23Z</time>
      </trkpt>
      <trkpt lat="45.51938" lon="6.69167">
        <ele>1863.5</ele>
        <time>2011-07-30T16:20:34Z</time>
      </trkpt>
      <trkpt lat="45.51946" lon="6.69161">
        <ele>1865.3</ele>
        <time>2011-07-30T16:20:45Z</time>
      </trkpt>
      <trkpt lat="45.51955" lon="6.69159">
        <ele>1867</ele>
        <time>2011-07-30T16:20:55Z</time>
      </trkpt>
      <trkpt lat="45.51965" lon="6.69156">
        <ele>1868.7</ele>
        <time>2011-07-30T16:21:03Z</time>
      </trkpt>
      <trkpt lat="45.51974" lon="6.69148">
        <ele>1870.5</ele>
        <time>2011-07-30T16:21:10Z</time>
      </trkpt>
      <trkpt lat="45.5198" lon="6.69137">
        <ele>1872.2</ele>
        <time>2011-07-30T16:21:15Z</time>
      </trkpt>
      <trkpt lat="45.51985" lon="6.69126">
        <ele>1873.9</ele>
        <time>2011-07-30T16:21:24Z</time>
      </trkpt>
      <trkpt lat="45.51988" lon="6.69114">
        <ele>1875.6</ele>
        <time>2011-07-30T16:21:33Z</time>
      </trkpt>
      <trkpt lat="45.51992" lon="6.69102">
        <ele>1877.4</ele>
        <time>2011-07-30T16:21:41Z</time>
      </trkpt>
      <trkpt lat="45.51999" lon="6.69092">
        <ele>1874.6</ele>
        <time>2011-07-30T16:21:51Z</time>
      </trkpt>
      <trkpt lat="45.52006" lon="6.69084">
        <ele>1871.9</ele>
        <time>2011-07-30T16:21:57Z</time>
      </trkpt>
      <trkpt lat="45.52015" lon="6.69076">
        <ele>1871.3</ele>
        <time>2011-07-30T16:22:03Z</time>
      </trkpt>
      <trkpt lat="45.52023" lon="6.69066">
        <ele>1872.1</ele>
        <time>2011-07-30T16:22:09Z</time>
      </trkpt>
      <trkpt lat="45.5203" lon="6.69059">
        <ele>1872.9</ele>
        <time>2011-07-30T16:22:14Z</time>
      </trkpt>
      <trkpt lat="45.52038" lon="6.69048">
        <ele>1873.7</ele>
        <time>2011-07-30T16:22:21Z</time>
      </trkpt>
      <trkpt lat="45.52045" lon="6.69038">
        <ele>1874.5</ele>
        <time>2011-07-30T16:22:27Z</time>
      </trkpt>
      <trkpt lat="45.52051" lon="6.69029">
        <ele>1875.4</ele>
        <time>2011-07-30T16:22:33Z</time>
      </trkpt>
      <trkpt lat="45.52059" lon="6.69021">
        <ele>1876.2</ele>
        <time>2011-07-30T16:22:40Z</time>
      </trkpt>
      <trkpt lat="45.52068" lon="6.69016">
        <ele>1877</ele>
        <time>2011-07-30T16:22:48Z</time>
      </trkpt>
      <trkpt lat="45.52079" lon="6.69012">
        <ele>1876.6</ele>
        <time>2011-07-30T16:22:54Z</time>
      </trkpt>
      <trkpt lat="45.52087" lon="6.69006">
        <ele>1877.5</ele>
        <time>2011-07-30T16:23:01Z</time>
      </trkpt>
      <trkpt lat="45.52095" lon="6.68994">
        <ele>1878.5</ele>
        <time>2011-07-30T16:23:12Z</time>
      </trkpt>
      <trkpt lat="45.521" lon="6.68982">
        <ele>1877.3</ele>
        <time>2011-07-30T16:23:19Z</time>
      </trkpt>
      <trkpt lat="45.52105" lon="6.6897">
        <ele>1879</ele>
        <time>2011-07-30T16:23:27Z</time>
      </trkpt>
      <trkpt lat="45.52109" lon="6.68957">
        <ele>1880.7</ele>
        <time>2011-07-30T16:23:34Z</time>
      </trkpt>
      <trkpt lat="45.52114" lon="6.68947">
        <ele>1882.5</ele>
        <time>2011-07-30T16:23:39Z</time>
      </trkpt>
      <trkpt lat="45.5212" lon="6.68936">
        <ele>1884.2</ele>
        <time>2011-07-30T16:23:46Z</time>
      </trkpt>
      <trkpt lat="45.52127" lon="6.68925">
        <ele>1884.1</ele>
        <time>2011-07-30T16:23:54Z</time>
      </trkpt>
      <trkpt lat="45.52135" lon="6.68917">
        <ele>1884</ele>
        <time>2011-07-30T16:24:01Z</time>
      </trkpt>
      <trkpt lat="45.52143" lon="6.68907">
        <ele>1883.9</ele>
        <time>2011-07-30T16:24:08Z</time>
      </trkpt>
      <trkpt lat="45.52149" lon="6.68898">
        <ele>1885</ele>
        <time>2011-07-30T16:24:15Z</time>
      </trkpt>
      <trkpt lat="45.52155" lon="6.68888">
        <ele>1886.1</ele>
        <time>2011-07-30T16:24:22Z</time>
      </trkpt>
      <trkpt lat="45.52159" lon="6.68875">
        <ele>1887.2</ele>
        <time>2011-07-30T16:24:30Z</time>
      </trkpt>
      <trkpt lat="45.52161" lon="6.68861">
        <ele>1888.3</ele>
        <time>2011-07-30T16:24:38Z</time>
      </trkpt>
      <trkpt lat="45.52166" lon="6.68849">
        <ele>1888.7</ele>
        <time>2011-07-30T16:24:45Z</time>
      </trkpt>
      <trkpt lat="45.52174" lon="6.6884">
        <ele>1889.2</ele>
        <time>2011-07-30T16:24:54Z</time>
      </trkpt>
      <trkpt lat="45.52184" lon="6.68837">
        <ele>1889.6</ele>
        <time>2011-07-30T16:25:02Z</time>
      </trkpt>
      <trkpt lat="45.52194" lon="6.68841">
        <ele>1890.1</ele>
        <time>2011-07-30T16:25:10Z</time>
      </trkpt>
      <trkpt lat="45.52203" lon="6.68844">
        <ele>1892.4</ele>
        <time>2011-07-30T16:25:16Z</time>
      </trkpt>
      <trkpt lat="45.52213" lon="6.68845">
        <ele>1894.6</ele>
        <time>2011-07-30T16:25:23Z</time>
      </trkpt>
      <trkpt lat="45.52222" lon="6.68838">
        <ele>1896.9</ele>
        <time>2011-07-30T16:25:30Z</time>
      </trkpt>
      <trkpt lat="45.5223" lon="6.68831">
        <ele>1896.6</ele>
        <time>2011-07-30T16:25:36Z</time>
      </trkpt>
      <trkpt lat="45.5224" lon="6.68824">
        <ele>1896.4</ele>
        <time>2011-07-30T16:25:42Z</time>
      </trkpt>
      <trkpt lat="45.52248" lon="6.68819">
        <ele>1896.1</ele>
        <time>2011-07-30T16:25:48Z</time>
      </trkpt>
      <trkpt lat="45.52258" lon="6.68813">
        <ele>1895.8</ele>
        <time>2011-07-30T16:25:54Z</time>
      </trkpt>
      <trkpt lat="45.52266" lon="6.68805">
        <ele>1896.4</ele>
        <time>2011-07-30T16:25:59Z</time>
      </trkpt>
      <trkpt lat="45.52272" lon="6.68794">
        <ele>1896.9</ele>
        <time>2011-07-30T16:26:04Z</time>
      </trkpt>
      <trkpt lat="45.52279" lon="6.68781">
        <ele>1897.5</ele>
        <time>2011-07-30T16:26:09Z</time>
      </trkpt>
      <trkpt lat="45.52285" lon="6.68768">
        <ele>1896.1</ele>
        <time>2011-07-30T16:26:14Z</time>
      </trkpt>
      <trkpt lat="45.52291" lon="6.68756">
        <ele>1894.7</ele>
        <time>2011-07-30T16:26:19Z</time>
      </trkpt>
      <trkpt lat="45.52302" lon="6.68743">
        <ele>1893.4</ele>
        <time>2011-07-30T16:26:27Z</time>
      </trkpt>
      <trkpt lat="45.52309" lon="6.68735">
        <ele>1892</ele>
        <time>2011-07-30T16:26:32Z</time>
      </trkpt>
      <trkpt lat="45.52316" lon="6.68725">
        <ele>1893.2</ele>
        <time>2011-07-30T16:26:37Z</time>
      </trkpt>
      <trkpt lat="45.52321" lon="6.68713">
        <ele>1894.4</ele>
        <time>2011-07-30T16:26:42Z</time>
      </trkpt>
      <trkpt lat="45.52325" lon="6.68698">
        <ele>1895.5</ele>
        <time>2011-07-30T16:26:47Z</time>
      </trkpt>
      <trkpt lat="45.52328" lon="6.68684">
        <ele>1896.7</ele>
        <time>2011-07-30T16:26:51Z</time>
      </trkpt>
      <trkpt lat="45.52332" lon="6.68671">
        <ele>1893.2</ele>
        <time>2011-07-30T16:26:55Z</time>
      </trkpt>
      <trkpt lat="45.52338" lon="6.68659">
        <ele>1889.6</ele>
        <time>2011-07-30T16:27:00Z</time>
      </trkpt>
      <trkpt lat="45.52345" lon="6.68648">
        <ele>1888.5</ele>
        <time>2011-07-30T16:27:05Z</time>
      </trkpt>
      <trkpt lat="45.52352" lon="6.68638">
        <ele>1889.4</ele>
        <time>2011-07-30T16:27:10Z</time>
      </trkpt>
      <trkpt lat="45.5236" lon="6.68629">
        <ele>1890.2</ele>
        <time>2011-07-30T16:27:16Z</time>
      </trkpt>
      <trkpt lat="45.52368" lon="6.68619">
        <ele>1891</ele>
        <time>2011-07-30T16:27:21Z</time>
      </trkpt>
      <trkpt lat="45.52375" lon="6.6861">
        <ele>1891.8</ele>
        <time>2011-07-30T16:27:25Z</time>
      </trkpt>
      <trkpt lat="45.52384" lon="6.68604">
        <ele>1892.6</ele>
        <time>2011-07-30T16:27:30Z</time>
      </trkpt>
      <trkpt lat="45.52393" lon="6.68597">
        <ele>1893.5</ele>
        <time>2011-07-30T16:27:35Z</time>
      </trkpt>
      <trkpt lat="45.524" lon="6.68585">
        <ele>1892.2</ele>
        <time>2011-07-30T16:27:40Z</time>
      </trkpt>
      <trkpt lat="45.52407" lon="6.68574">
        <ele>1890.9</ele>
        <time>2011-07-30T16:27:45Z</time>
      </trkpt>
      <trkpt lat="45.52415" lon="6.68563">
        <ele>1891.3</ele>
        <time>2011-07-30T16:27:51Z</time>
      </trkpt>
      <trkpt lat="45.52421" lon="6.68554">
        <ele>1891.6</ele>
        <time>2011-07-30T16:27:56Z</time>
      </trkpt>
      <trkpt lat="45.52428" lon="6.68546">
        <ele>1891.4</ele>
        <time>2011-07-30T16:28:01Z</time>
      </trkpt>
      <trkpt lat="45.52435" lon="6.68536">
        <ele>1891.1</ele>
        <time>2011-07-30T16:28:07Z</time>
      </trkpt>
      <trkpt lat="45.52443" lon="6.68528">
        <ele>1890.8</ele>
        <time>2011-07-30T16:28:12Z</time>
      </trkpt>
      <trkpt lat="45.52452" lon="6.68519">
        <ele>1890.5</ele>
        <time>2011-07-30T16:28:16Z</time>
      </trkpt>
      <trkpt lat="45.52462" lon="6.68512">
        <ele>1890.3</ele>
        <time>2011-07-30T16:28:19Z</time>
      </trkpt>
      <trkpt lat="45.52471" lon="6.68503">
        <ele>1890</ele>
        <time>2011-07-30T16:28:23Z</time>
      </trkpt>
      <trkpt lat="45.52479" lon="6.68494">
        <ele>1889.7</ele>
        <time>2011-07-30T16:28:27Z</time>
      </trkpt>
      <trkpt lat="45.52488" lon="6.68488">
        <ele>1892.5</ele>
        <time>2011-07-30T16:28:32Z</time>
      </trkpt>
      <trkpt lat="45.52497" lon="6.68484">
        <ele>1895.4</ele>
        <time>2011-07-30T16:28:38Z</time>
      </trkpt>
      <trkpt lat="45.52509" lon="6.68487">
        <ele>1895.9</ele>
        <time>2011-07-30T16:28:48Z</time>
      </trkpt>
      <trkpt lat="45.52519" lon="6.68487">
        <ele>1896.5</ele>
        <time>2011-07-30T16:28:54Z</time>
      </trkpt>
      <trkpt lat="45.52528" lon="6.68483">
        <ele>1895.2</ele>
        <time>2011-07-30T16:28:57Z</time>
      </trkpt>
      <trkpt lat="45.5255" lon="6.68471">
        <ele>1893.9</ele>
        <time>2011-07-30T16:29:04Z</time>
      </trkpt>
      <trkpt lat="45.52558" lon="6.68463">
        <ele>1892.6</ele>
        <time>2011-07-30T16:29:08Z</time>
      </trkpt>
      <trkpt lat="45.52566" lon="6.68454">
        <ele>1891.4</ele>
        <time>2011-07-30T16:29:13Z</time>
      </trkpt>
      <trkpt lat="45.52573" lon="6.68445">
        <ele>1890.1</ele>
        <time>2011-07-30T16:29:19Z</time>
      </trkpt>
      <trkpt lat="45.52579" lon="6.68435">
        <ele>1888.8</ele>
        <time>2011-07-30T16:29:26Z</time>
      </trkpt>
      <trkpt lat="45.52588" lon="6.68428">
        <ele>1887.8</ele>
        <time>2011-07-30T16:29:34Z</time>
      </trkpt>
      <trkpt lat="45.52598" lon="6.68425">
        <ele>1885.8</ele>
        <time>2011-07-30T16:29:42Z</time>
      </trkpt>
      <trkpt lat="45.52607" lon="6.68423">
        <ele>1883.8</ele>
        <time>2011-07-30T16:29:49Z</time>
      </trkpt>
      <trkpt lat="45.52617" lon="6.68421">
        <ele>1884.1</ele>
        <time>2011-07-30T16:29:56Z</time>
      </trkpt>
      <trkpt lat="45.52625" lon="6.68425">
        <ele>1884.4</ele>
        <time>2011-07-30T16:30:02Z</time>
      </trkpt>
      <trkpt lat="45.52635" lon="6.68431">
        <ele>1885.3</ele>
        <time>2011-07-30T16:30:10Z</time>
      </trkpt>
      <trkpt lat="45.52644" lon="6.68436">
        <ele>1886.2</ele>
        <time>2011-07-30T16:30:15Z</time>
      </trkpt>
      <trkpt lat="45.52654" lon="6.68442">
        <ele>1887.1</ele>
        <time>2011-07-30T16:30:20Z</time>
      </trkpt>
      <trkpt lat="45.52668" lon="6.6845">
        <ele>1888</ele>
        <time>2011-07-30T16:30:27Z</time>
      </trkpt>
      <trkpt lat="45.52676" lon="6.68459">
        <ele>1888.9</ele>
        <time>2011-07-30T16:30:33Z</time>
      </trkpt>
      <trkpt lat="45.52683" lon="6.68469">
        <ele>1889.8</ele>
        <time>2011-07-30T16:30:38Z</time>
      </trkpt>
      <trkpt lat="45.52689" lon="6.68482">
        <ele>1890.5</ele>
        <time>2011-07-30T16:30:43Z</time>
      </trkpt>
      <trkpt lat="45.5269" lon="6.68498">
        <ele>1891.1</ele>
        <time>2011-07-30T16:30:48Z</time>
      </trkpt>
      <trkpt lat="45.52687" lon="6.68513">
        <ele>1891.7</ele>
        <time>2011-07-30T16:30:53Z</time>
      </trkpt>
      <trkpt lat="45.52686" lon="6.68527">
        <ele>1892.4</ele>
        <time>2011-07-30T16:30:58Z</time>
      </trkpt>
      <trkpt lat="45.52686" lon="6.68542">
        <ele>1893</ele>
        <time>2011-07-30T16:31:04Z</time>
      </trkpt>
      <trkpt lat="45.52689" lon="6.68557">
        <ele>1893</ele>
        <time>2011-07-30T16:31:09Z</time>
      </trkpt>
      <trkpt lat="45.52695" lon="6.68568">
        <ele>1893.3</ele>
        <time>2011-07-30T16:31:15Z</time>
      </trkpt>
      <trkpt lat="45.527" lon="6.6858">
        <ele>1892</ele>
        <time>2011-07-30T16:31:21Z</time>
      </trkpt>
      <trkpt lat="45.52702" lon="6.68594">
        <ele>1890.7</ele>
        <time>2011-07-30T16:31:28Z</time>
      </trkpt>
      <trkpt lat="45.52706" lon="6.68607">
        <ele>1889.5</ele>
        <time>2011-07-30T16:31:33Z</time>
      </trkpt>
      <trkpt lat="45.52705" lon="6.68622">
        <ele>1888.2</ele>
        <time>2011-07-30T16:31:38Z</time>
      </trkpt>
      <trkpt lat="45.52706" lon="6.68636">
        <ele>1886.9</ele>
        <time>2011-07-30T16:31:43Z</time>
      </trkpt>
      <trkpt lat="45.52713" lon="6.68647">
        <ele>1885.6</ele>
        <time>2011-07-30T16:31:51Z</time>
      </trkpt>
      <trkpt lat="45.52719" lon="6.68658">
        <ele>1884.4</ele>
        <time>2011-07-30T16:31:58Z</time>
      </trkpt>
      <trkpt lat="45.52727" lon="6.68665">
        <ele>1883.1</ele>
        <time>2011-07-30T16:32:05Z</time>
      </trkpt>
      <trkpt lat="45.52736" lon="6.68673">
        <ele>1881.8</ele>
        <time>2011-07-30T16:32:12Z</time>
      </trkpt>
      <trkpt lat="45.52743" lon="6.68682">
        <ele>1880.5</ele>
        <time>2011-07-30T16:32:19Z</time>
      </trkpt>
      <trkpt lat="45.52751" lon="6.6869">
        <ele>1880.2</ele>
        <time>2011-07-30T16:32:26Z</time>
      </trkpt>
      <trkpt lat="45.52759" lon="6.68701">
        <ele>1879</ele>
        <time>2011-07-30T16:32:32Z</time>
      </trkpt>
      <trkpt lat="45.52766" lon="6.68707">
        <ele>1877.8</ele>
        <time>2011-07-30T16:32:37Z</time>
      </trkpt>
      <trkpt lat="45.52775" lon="6.68715">
        <ele>1876.6</ele>
        <time>2011-07-30T16:32:43Z</time>
      </trkpt>
      <trkpt lat="45.52784" lon="6.68721">
        <ele>1875.5</ele>
        <time>2011-07-30T16:32:49Z</time>
      </trkpt>
      <trkpt lat="45.52792" lon="6.68728">
        <ele>1874.3</ele>
        <time>2011-07-30T16:32:55Z</time>
      </trkpt>
      <trkpt lat="45.52799" lon="6.68737">
        <ele>1873.2</ele>
        <time>2011-07-30T16:33:02Z</time>
      </trkpt>
      <trkpt lat="45.52802" lon="6.6875">
        <ele>1872.1</ele>
        <time>2011-07-30T16:33:08Z</time>
      </trkpt>
      <trkpt lat="45.52804" lon="6.68764">
        <ele>1871</ele>
        <time>2011-07-30T16:33:13Z</time>
      </trkpt>
      <trkpt lat="45.52805" lon="6.68777">
        <ele>1869.9</ele>
        <time>2011-07-30T16:33:18Z</time>
      </trkpt>
      <trkpt lat="45.52805" lon="6.68792">
        <ele>1868.8</ele>
        <time>2011-07-30T16:33:23Z</time>
      </trkpt>
      <trkpt lat="45.52805" lon="6.68806">
        <ele>1866.5</ele>
        <time>2011-07-30T16:33:27Z</time>
      </trkpt>
      <trkpt lat="45.52805" lon="6.68821">
        <ele>1866</ele>
        <time>2011-07-30T16:33:31Z</time>
      </trkpt>
      <trkpt lat="45.52804" lon="6.68835">
        <ele>1865.5</ele>
        <time>2011-07-30T16:33:35Z</time>
      </trkpt>
      <trkpt lat="45.52802" lon="6.68849">
        <ele>1864.9</ele>
        <time>2011-07-30T16:33:41Z</time>
      </trkpt>
      <trkpt lat="45.52802" lon="6.68862">
        <ele>1864.4</ele>
        <time>2011-07-30T16:33:47Z</time>
      </trkpt>
      <trkpt lat="45.52805" lon="6.68874">
        <ele>1863.8</ele>
        <time>2011-07-30T16:33:53Z</time>
      </trkpt>
      <trkpt lat="45.52804" lon="6.6889">
        <ele>1863.2</ele>
        <time>2011-07-30T16:33:58Z</time>
      </trkpt>
      <trkpt lat="45.52804" lon="6.68903">
        <ele>1862.6</ele>
        <time>2011-07-30T16:34:02Z</time>
      </trkpt>
      <trkpt lat="45.52804" lon="6.68918">
        <ele>1862.1</ele>
        <time>2011-07-30T16:34:06Z</time>
      </trkpt>
      <trkpt lat="45.52801" lon="6.68931">
        <ele>1861.5</ele>
        <time>2011-07-30T16:34:09Z</time>
      </trkpt>
      <trkpt lat="45.52798" lon="6.68943">
        <ele>1861</ele>
        <time>2011-07-30T16:34:12Z</time>
      </trkpt>
      <trkpt lat="45.52796" lon="6.68957">
        <ele>1863.6</ele>
        <time>2011-07-30T16:34:16Z</time>
      </trkpt>
      <trkpt lat="45.52798" lon="6.68971">
        <ele>1866.9</ele>
        <time>2011-07-30T16:34:22Z</time>
      </trkpt>
      <trkpt lat="45.528" lon="6.68986">
        <ele>1870.7</ele>
        <time>2011-07-30T16:34:29Z</time>
      </trkpt>
      <trkpt lat="45.52798" lon="6.68998">
        <ele>1874.5</ele>
        <time>2011-07-30T16:34:33Z</time>
      </trkpt>
      <trkpt lat="45.52794" lon="6.69011">
        <ele>1878.4</ele>
        <time>2011-07-30T16:34:38Z</time>
      </trkpt>
      <trkpt lat="45.5279" lon="6.69025">
        <ele>1879</ele>
        <time>2011-07-30T16:34:45Z</time>
      </trkpt>
      <trkpt lat="45.52791" lon="6.69038">
        <ele>1879.6</ele>
        <time>2011-07-30T16:34:56Z</time>
      </trkpt>
      <trkpt lat="45.52789" lon="6.69053">
        <ele>1880.2</ele>
        <time>2011-07-30T16:35:07Z</time>
      </trkpt>
      <trkpt lat="45.52789" lon="6.69067">
        <ele>1880.7</ele>
        <time>2011-07-30T16:35:15Z</time>
      </trkpt>
      <trkpt lat="45.52792" lon="6.69079">
        <ele>1882.7</ele>
        <time>2011-07-30T16:35:23Z</time>
      </trkpt>
      <trkpt lat="45.52798" lon="6.69089">
        <ele>1884.7</ele>
        <time>2011-07-30T16:35:31Z</time>
      </trkpt>
      <trkpt lat="45.52802" lon="6.69102">
        <ele>1883.5</ele>
        <time>2011-07-30T16:35:39Z</time>
      </trkpt>
      <trkpt lat="45.52803" lon="6.69116">
        <ele>1882.4</ele>
        <time>2011-07-30T16:35:46Z</time>
      </trkpt>
      <trkpt lat="45.52808" lon="6.69128">
        <ele>1880.6</ele>
        <time>2011-07-30T16:35:54Z</time>
      </trkpt>
      <trkpt lat="45.52814" lon="6.69139">
        <ele>1878.9</ele>
        <time>2011-07-30T16:36:02Z</time>
      </trkpt>
      <trkpt lat="45.52819" lon="6.69151">
        <ele>1877.2</ele>
        <time>2011-07-30T16:36:09Z</time>
      </trkpt>
      <trkpt lat="45.52824" lon="6.69163">
        <ele>1878.6</ele>
        <time>2011-07-30T16:36:17Z</time>
      </trkpt>
      <trkpt lat="45.52831" lon="6.69173">
        <ele>1880.1</ele>
        <time>2011-07-30T16:36:25Z</time>
      </trkpt>
      <trkpt lat="45.5284" lon="6.69181">
        <ele>1880.7</ele>
        <time>2011-07-30T16:36:31Z</time>
      </trkpt>
      <trkpt lat="45.52849" lon="6.69189">
        <ele>1881.4</ele>
        <time>2011-07-30T16:36:37Z</time>
      </trkpt>
      <trkpt lat="45.52856" lon="6.69198">
        <ele>1880.5</ele>
        <time>2011-07-30T16:36:43Z</time>
      </trkpt>
      <trkpt lat="45.52865" lon="6.69204">
        <ele>1879.7</ele>
        <time>2011-07-30T16:36:48Z</time>
      </trkpt>
      <trkpt lat="45.52873" lon="6.6921">
        <ele>1878.9</ele>
        <time>2011-07-30T16:36:57Z</time>
      </trkpt>
      <trkpt lat="45.52882" lon="6.69218">
        <ele>1878.1</ele>
        <time>2011-07-30T16:37:03Z</time>
      </trkpt>
      <trkpt lat="45.52891" lon="6.69225">
        <ele>1877.3</ele>
        <time>2011-07-30T16:37:09Z</time>
      </trkpt>
      <trkpt lat="45.52899" lon="6.69232">
        <ele>1876.5</ele>
        <time>2011-07-30T16:37:15Z</time>
      </trkpt>
      <trkpt lat="45.52908" lon="6.6924">
        <ele>1875.6</ele>
        <time>2011-07-30T16:37:20Z</time>
      </trkpt>
      <trkpt lat="45.52916" lon="6.69248">
        <ele>1874.8</ele>
        <time>2011-07-30T16:37:26Z</time>
      </trkpt>
      <trkpt lat="45.52926" lon="6.69255">
        <ele>1872</ele>
        <time>2011-07-30T16:37:31Z</time>
      </trkpt>
      <trkpt lat="45.52935" lon="6.6926">
        <ele>1870</ele>
        <time>2011-07-30T16:37:35Z</time>
      </trkpt>
      <trkpt lat="45.52943" lon="6.69266">
        <ele>1868.9</ele>
        <time>2011-07-30T16:37:39Z</time>
      </trkpt>
      <trkpt lat="45.52952" lon="6.69274">
        <ele>1867.8</ele>
        <time>2011-07-30T16:37:44Z</time>
      </trkpt>
      <trkpt lat="45.5296" lon="6.69281">
        <ele>1866.7</ele>
        <time>2011-07-30T16:37:49Z</time>
      </trkpt>
      <trkpt lat="45.5297" lon="6.69288">
        <ele>1865.6</ele>
        <time>2011-07-30T16:37:55Z</time>
      </trkpt>
      <trkpt lat="45.52979" lon="6.69294">
        <ele>1864.5</ele>
        <time>2011-07-30T16:38:00Z</time>
      </trkpt>
      <trkpt lat="45.52988" lon="6.69301">
        <ele>1863.5</ele>
        <time>2011-07-30T16:38:04Z</time>
      </trkpt>
      <trkpt lat="45.52997" lon="6.69309">
        <ele>1862.4</ele>
        <time>2011-07-30T16:38:09Z</time>
      </trkpt>
      <trkpt lat="45.53007" lon="6.69316">
        <ele>1859</ele>
        <time>2011-07-30T16:38:14Z</time>
      </trkpt>
      <trkpt lat="45.53015" lon="6.69324">
        <ele>1855.6</ele>
        <time>2011-07-30T16:38:18Z</time>
      </trkpt>
      <trkpt lat="45.53024" lon="6.69331">
        <ele>1854.3</ele>
        <time>2011-07-30T16:38:22Z</time>
      </trkpt>
      <trkpt lat="45.53035" lon="6.69336">
        <ele>1853.5</ele>
        <time>2011-07-30T16:38:26Z</time>
      </trkpt>
      <trkpt lat="45.53045" lon="6.69338">
        <ele>1851.7</ele>
        <time>2011-07-30T16:38:30Z</time>
      </trkpt>
      <trkpt lat="45.53055" lon="6.69343">
        <ele>1850</ele>
        <time>2011-07-30T16:38:34Z</time>
      </trkpt>
      <trkpt lat="45.53063" lon="6.69353">
        <ele>1848.3</ele>
        <time>2011-07-30T16:38:39Z</time>
      </trkpt>
      <trkpt lat="45.53067" lon="6.69366">
        <ele>1846.5</ele>
        <time>2011-07-30T16:38:45Z</time>
      </trkpt>
      <trkpt lat="45.53071" lon="6.6938">
        <ele>1844.8</ele>
        <time>2011-07-30T16:38:51Z</time>
      </trkpt>
      <trkpt lat="45.53072" lon="6.69393">
        <ele>1843.1</ele>
        <time>2011-07-30T16:38:57Z</time>
      </trkpt>
      <trkpt lat="45.53074" lon="6.69407">
        <ele>1841.4</ele>
        <time>2011-07-30T16:39:03Z</time>
      </trkpt>
      <trkpt lat="45.53075" lon="6.69422">
        <ele>1843.7</ele>
        <time>2011-07-30T16:39:10Z</time>
      </trkpt>
      <trkpt lat="45.53079" lon="6.69435">
        <ele>1846.1</ele>
        <time>2011-07-30T16:39:18Z</time>
      </trkpt>
      <trkpt lat="45.53086" lon="6.69444">
        <ele>1846.7</ele>
        <time>2011-07-30T16:39:24Z</time>
      </trkpt>
      <trkpt lat="45.53094" lon="6.69452">
        <ele>1846.8</ele>
        <time>2011-07-30T16:39:30Z</time>
      </trkpt>
      <trkpt lat="45.53101" lon="6.6946">
        <ele>1846.9</ele>
        <time>2011-07-30T16:39:39Z</time>
      </trkpt>
      <trkpt lat="45.53111" lon="6.69468">
        <ele>1847</ele>
        <time>2011-07-30T16:39:47Z</time>
      </trkpt>
      <trkpt lat="45.5312" lon="6.69475">
        <ele>1847.1</ele>
        <time>2011-07-30T16:39:52Z</time>
      </trkpt>
      <trkpt lat="45.53129" lon="6.69479">
        <ele>1847.2</ele>
        <time>2011-07-30T16:39:57Z</time>
      </trkpt>
      <trkpt lat="45.53138" lon="6.69484">
        <ele>1847.3</ele>
        <time>2011-07-30T16:40:02Z</time>
      </trkpt>
      <trkpt lat="45.53147" lon="6.6949">
        <ele>1847.4</ele>
        <time>2011-07-30T16:40:07Z</time>
      </trkpt>
      <trkpt lat="45.53156" lon="6.69498">
        <ele>1847.5</ele>
        <time>2011-07-30T16:40:12Z</time>
      </trkpt>
      <trkpt lat="45.53164" lon="6.69505">
        <ele>1847.6</ele>
        <time>2011-07-30T16:40:17Z</time>
      </trkpt>
      <trkpt lat="45.53173" lon="6.69513">
        <ele>1845.7</ele>
        <time>2011-07-30T16:40:22Z</time>
      </trkpt>
      <trkpt lat="45.53182" lon="6.69522">
        <ele>1845.5</ele>
        <time>2011-07-30T16:40:27Z</time>
      </trkpt>
      <trkpt lat="45.5319" lon="6.6953">
        <ele>1845.4</ele>
        <time>2011-07-30T16:40:32Z</time>
      </trkpt>
      <trkpt lat="45.53197" lon="6.69538">
        <ele>1845.2</ele>
        <time>2011-07-30T16:40:37Z</time>
      </trkpt>
      <trkpt lat="45.53205" lon="6.69548">
        <ele>1845</ele>
        <time>2011-07-30T16:40:43Z</time>
      </trkpt>
      <trkpt lat="45.53213" lon="6.69555">
        <ele>1844.8</ele>
        <time>2011-07-30T16:40:48Z</time>
      </trkpt>
      <trkpt lat="45.53223" lon="6.69562">
        <ele>1844.6</ele>
        <time>2011-07-30T16:40:53Z</time>
      </trkpt>
      <trkpt lat="45.53231" lon="6.69571">
        <ele>1844.5</ele>
        <time>2011-07-30T16:40:58Z</time>
      </trkpt>
      <trkpt lat="45.53239" lon="6.6958">
        <ele>1844.3</ele>
        <time>2011-07-30T16:41:03Z</time>
      </trkpt>
      <trkpt lat="45.53248" lon="6.69587">
        <ele>1842.7</ele>
        <time>2011-07-30T16:41:08Z</time>
      </trkpt>
      <trkpt lat="45.53258" lon="6.69592">
        <ele>1839.3</ele>
        <time>2011-07-30T16:41:15Z</time>
      </trkpt>
      <trkpt lat="45.53268" lon="6.69594">
        <ele>1838.8</ele>
        <time>2011-07-30T16:41:19Z</time>
      </trkpt>
      <trkpt lat="45.53279" lon="6.69596">
        <ele>1838.4</ele>
        <time>2011-07-30T16:41:23Z</time>
      </trkpt>
      <trkpt lat="45.53288" lon="6.69599">
        <ele>1837.9</ele>
        <time>2011-07-30T16:41:26Z</time>
      </trkpt>
      <trkpt lat="45.53304" lon="6.6961">
        <ele>1837.5</ele>
        <time>2011-07-30T16:41:31Z</time>
      </trkpt>
      <trkpt lat="45.53312" lon="6.69618">
        <ele>1837</ele>
        <time>2011-07-30T16:41:35Z</time>
      </trkpt>
      <trkpt lat="45.53322" lon="6.69626">
        <ele>1836.5</ele>
        <time>2011-07-30T16:41:39Z</time>
      </trkpt>
      <trkpt lat="45.53331" lon="6.69635">
        <ele>1836.1</ele>
        <time>2011-07-30T16:41:42Z</time>
      </trkpt>
      <trkpt lat="45.5334" lon="6.69645">
        <ele>1833.2</ele>
        <time>2011-07-30T16:41:45Z</time>
      </trkpt>
      <trkpt lat="45.53347" lon="6.69655">
        <ele>1830.3</ele>
        <time>2011-07-30T16:41:48Z</time>
      </trkpt>
      <trkpt lat="45.53354" lon="6.69666">
        <ele>1828.7</ele>
        <time>2011-07-30T16:41:52Z</time>
      </trkpt>
      <trkpt lat="45.53362" lon="6.69675">
        <ele>1827.2</ele>
        <time>2011-07-30T16:41:57Z</time>
      </trkpt>
      <trkpt lat="45.53371" lon="6.69678">
        <ele>1824.7</ele>
        <time>2011-07-30T16:42:04Z</time>
      </trkpt>
      <trkpt lat="45.53381" lon="6.69682">
        <ele>1822.3</ele>
        <time>2011-07-30T16:42:12Z</time>
      </trkpt>
      <trkpt lat="45.53391" lon="6.69685">
        <ele>1819.8</ele>
        <time>2011-07-30T16:42:20Z</time>
      </trkpt>
      <trkpt lat="45.53399" lon="6.69691">
        <ele>1818.5</ele>
        <time>2011-07-30T16:42:28Z</time>
      </trkpt>
      <trkpt lat="45.53407" lon="6.69699">
        <ele>1817.1</ele>
        <time>2011-07-30T16:42:34Z</time>
      </trkpt>
      <trkpt lat="45.53415" lon="6.69707">
        <ele>1815.7</ele>
        <time>2011-07-30T16:42:38Z</time>
      </trkpt>
      <trkpt lat="45.53423" lon="6.69713">
        <ele>1811.7</ele>
        <time>2011-07-30T16:42:40Z</time>
      </trkpt>
      <trkpt lat="45.53432" lon="6.69719">
        <ele>1810.2</ele>
        <time>2011-07-30T16:42:42Z</time>
      </trkpt>
      <trkpt lat="45.53442" lon="6.69723">
        <ele>1808.6</ele>
        <time>2011-07-30T16:42:45Z</time>
      </trkpt>
      <trkpt lat="45.53452" lon="6.69728">
        <ele>1807.1</ele>
        <time>2011-07-30T16:42:49Z</time>
      </trkpt>
      <trkpt lat="45.53461" lon="6.69734">
        <ele>1805.5</ele>
        <time>2011-07-30T16:42:55Z</time>
      </trkpt>
      <trkpt lat="45.53469" lon="6.69742">
        <ele>1804</ele>
        <time>2011-07-30T16:43:00Z</time>
      </trkpt>
      <trkpt lat="45.53477" lon="6.69749">
        <ele>1802.5</ele>
        <time>2011-07-30T16:43:06Z</time>
      </trkpt>
      <trkpt lat="45.53487" lon="6.69752">
        <ele>1800.9</ele>
        <time>2011-07-30T16:43:12Z</time>
      </trkpt>
      <trkpt lat="45.53495" lon="6.69757">
        <ele>1798.3</ele>
        <time>2011-07-30T16:43:17Z</time>
      </trkpt>
      <trkpt lat="45.53504" lon="6.69763">
        <ele>1797</ele>
        <time>2011-07-30T16:43:22Z</time>
      </trkpt>
      <trkpt lat="45.53513" lon="6.69772">
        <ele>1793</ele>
        <time>2011-07-30T16:43:29Z</time>
      </trkpt>
      <trkpt lat="45.53517" lon="6.69784">
        <ele>1791.6</ele>
        <time>2011-07-30T16:43:33Z</time>
      </trkpt>
      <trkpt lat="45.53523" lon="6.69796">
        <ele>1790.3</ele>
        <time>2011-07-30T16:43:38Z</time>
      </trkpt>
      <trkpt lat="45.53532" lon="6.69802">
        <ele>1788.9</ele>
        <time>2011-07-30T16:43:43Z</time>
      </trkpt>
      <trkpt lat="45.53542" lon="6.6981">
        <ele>1787.5</ele>
        <time>2011-07-30T16:43:48Z</time>
      </trkpt>
      <trkpt lat="45.53552" lon="6.69817">
        <ele>1786.2</ele>
        <time>2011-07-30T16:43:52Z</time>
      </trkpt>
      <trkpt lat="45.5356" lon="6.69822">
        <ele>1784.8</ele>
        <time>2011-07-30T16:43:56Z</time>
      </trkpt>
      <trkpt lat="45.5357" lon="6.69826">
        <ele>1783.5</ele>
        <time>2011-07-30T16:44:01Z</time>
      </trkpt>
      <trkpt lat="45.53579" lon="6.69832">
        <ele>1782.1</ele>
        <time>2011-07-30T16:44:07Z</time>
      </trkpt>
      <trkpt lat="45.53587" lon="6.69839">
        <ele>1780.7</ele>
        <time>2011-07-30T16:44:14Z</time>
      </trkpt>
      <trkpt lat="45.53596" lon="6.69846">
        <ele>1774.5</ele>
        <time>2011-07-30T16:44:20Z</time>
      </trkpt>
      <trkpt lat="45.53604" lon="6.69857">
        <ele>1771.4</ele>
        <time>2011-07-30T16:44:25Z</time>
      </trkpt>
      <trkpt lat="45.53611" lon="6.69866">
        <ele>1768.2</ele>
        <time>2011-07-30T16:44:30Z</time>
      </trkpt>
      <trkpt lat="45.53617" lon="6.69876">
        <ele>1765</ele>
        <time>2011-07-30T16:44:35Z</time>
      </trkpt>
      <trkpt lat="45.53626" lon="6.69881">
        <ele>1761.8</ele>
        <time>2011-07-30T16:44:41Z</time>
      </trkpt>
      <trkpt lat="45.53635" lon="6.69886">
        <ele>1758.6</ele>
        <time>2011-07-30T16:44:46Z</time>
      </trkpt>
      <trkpt lat="45.53641" lon="6.69898">
        <ele>1755.5</ele>
        <time>2011-07-30T16:44:51Z</time>
      </trkpt>
      <trkpt lat="45.53647" lon="6.69911">
        <ele>1753.2</ele>
        <time>2011-07-30T16:44:56Z</time>
      </trkpt>
      <trkpt lat="45.53652" lon="6.69925">
        <ele>1750.9</ele>
        <time>2011-07-30T16:45:01Z</time>
      </trkpt>
      <trkpt lat="45.53655" lon="6.69938">
        <ele>1748.6</ele>
        <time>2011-07-30T16:45:04Z</time>
      </trkpt>
      <trkpt lat="45.53659" lon="6.69952">
        <ele>1746.4</ele>
        <time>2011-07-30T16:45:09Z</time>
      </trkpt>
      <trkpt lat="45.53664" lon="6.69965">
        <ele>1747.5</ele>
        <time>2011-07-30T16:45:14Z</time>
      </trkpt>
      <trkpt lat="45.5367" lon="6.69976">
        <ele>1748.5</ele>
        <time>2011-07-30T16:45:19Z</time>
      </trkpt>
      <trkpt lat="45.53677" lon="6.69984">
        <ele>1749.9</ele>
        <time>2011-07-30T16:45:25Z</time>
      </trkpt>
      <trkpt lat="45.5368" lon="6.69997">
        <ele>1751.4</ele>
        <time>2011-07-30T16:45:30Z</time>
      </trkpt>
      <trkpt lat="45.53681" lon="6.70011">
        <ele>1752.8</ele>
        <time>2011-07-30T16:45:35Z</time>
      </trkpt>
      <trkpt lat="45.53681" lon="6.70025">
        <ele>1754.3</ele>
        <time>2011-07-30T16:45:41Z</time>
      </trkpt>
      <trkpt lat="45.53683" lon="6.70038">
        <ele>1755.7</ele>
        <time>2011-07-30T16:45:47Z</time>
      </trkpt>
      <trkpt lat="45.53687" lon="6.70052">
        <ele>1754.1</ele>
        <time>2011-07-30T16:45:52Z</time>
      </trkpt>
      <trkpt lat="45.5369" lon="6.70066">
        <ele>1752.5</ele>
        <time>2011-07-30T16:45:58Z</time>
      </trkpt>
      <trkpt lat="45.53695" lon="6.7008">
        <ele>1750.8</ele>
        <time>2011-07-30T16:46:04Z</time>
      </trkpt>
      <trkpt lat="45.53699" lon="6.70091">
        <ele>1749.2</ele>
        <time>2011-07-30T16:46:12Z</time>
      </trkpt>
      <trkpt lat="45.53706" lon="6.701">
        <ele>1747.5</ele>
        <time>2011-07-30T16:46:22Z</time>
      </trkpt>
      <trkpt lat="45.53715" lon="6.70098">
        <ele>1745.9</ele>
        <time>2011-07-30T16:46:27Z</time>
      </trkpt>
      <trkpt lat="45.53726" lon="6.70096">
        <ele>1743.7</ele>
        <time>2011-07-30T16:46:32Z</time>
      </trkpt>
      <trkpt lat="45.53738" lon="6.70094">
        <ele>1741.5</ele>
        <time>2011-07-30T16:46:36Z</time>
      </trkpt>
      <trkpt lat="45.53749" lon="6.70093">
        <ele>1739.4</ele>
        <time>2011-07-30T16:46:40Z</time>
      </trkpt>
      <trkpt lat="45.53759" lon="6.70094">
        <ele>1736</ele>
        <time>2011-07-30T16:46:44Z</time>
      </trkpt>
      <trkpt lat="45.53769" lon="6.70099">
        <ele>1733.5</ele>
        <time>2011-07-30T16:46:47Z</time>
      </trkpt>
      <trkpt lat="45.53777" lon="6.70108">
        <ele>1732.3</ele>
        <time>2011-07-30T16:46:52Z</time>
      </trkpt>
      <trkpt lat="45.53785" lon="6.70116">
        <ele>1731.1</ele>
        <time>2011-07-30T16:46:56Z</time>
      </trkpt>
      <trkpt lat="45.53793" lon="6.70124">
        <ele>1729.9</ele>
        <time>2011-07-30T16:47:03Z</time>
      </trkpt>
      <trkpt lat="45.53802" lon="6.70129">
        <ele>1728.7</ele>
        <time>2011-07-30T16:47:11Z</time>
      </trkpt>
      <trkpt lat="45.53811" lon="6.70133">
        <ele>1727.5</ele>
        <time>2011-07-30T16:47:19Z</time>
      </trkpt>
      <trkpt lat="45.53822" lon="6.7013">
        <ele>1726.4</ele>
        <time>2011-07-30T16:47:23Z</time>
      </trkpt>
      <trkpt lat="45.53831" lon="6.70122">
        <ele>1726</ele>
        <time>2011-07-30T16:47:27Z</time>
      </trkpt>
      <trkpt lat="45.5384" lon="6.70119">
        <ele>1722.8</ele>
        <time>2011-07-30T16:47:30Z</time>
      </trkpt>
      <trkpt lat="45.53849" lon="6.70118">
        <ele>1719.6</ele>
        <time>2011-07-30T16:47:34Z</time>
      </trkpt>
      <trkpt lat="45.53858" lon="6.70122">
        <ele>1717.6</ele>
        <time>2011-07-30T16:47:39Z</time>
      </trkpt>
      <trkpt lat="45.53865" lon="6.70132">
        <ele>1714.8</ele>
        <time>2011-07-30T16:47:44Z</time>
      </trkpt>
      <trkpt lat="45.53874" lon="6.7014">
        <ele>1712.8</ele>
        <time>2011-07-30T16:47:50Z</time>
      </trkpt>
      <trkpt lat="45.53881" lon="6.70151">
        <ele>1709.5</ele>
        <time>2011-07-30T16:47:56Z</time>
      </trkpt>
      <trkpt lat="45.53887" lon="6.70162">
        <ele>1706.1</ele>
        <time>2011-07-30T16:48:02Z</time>
      </trkpt>
      <trkpt lat="45.53889" lon="6.70175">
        <ele>1702.7</ele>
        <time>2011-07-30T16:48:08Z</time>
      </trkpt>
      <trkpt lat="45.5389" lon="6.70188">
        <ele>1699.4</ele>
        <time>2011-07-30T16:48:14Z</time>
      </trkpt>
      <trkpt lat="45.53893" lon="6.70201">
        <ele>1693.8</ele>
        <time>2011-07-30T16:48:21Z</time>
      </trkpt>
      <trkpt lat="45.53894" lon="6.70217">
        <ele>1687.5</ele>
        <time>2011-07-30T16:48:26Z</time>
      </trkpt>
      <trkpt lat="45.53894" lon="6.70253">
        <ele>1683.9</ele>
        <time>2011-07-30T16:48:39Z</time>
      </trkpt>
      <trkpt lat="45.53891" lon="6.70268">
        <ele>1680.4</ele>
        <time>2011-07-30T16:48:43Z</time>
      </trkpt>
      <trkpt lat="45.53887" lon="6.7029">
        <ele>1679.7</ele>
        <time>2011-07-30T16:48:52Z</time>
      </trkpt>
      <trkpt lat="45.53884" lon="6.70304">
        <ele>1679.1</ele>
        <time>2011-07-30T16:48:57Z</time>
      </trkpt>
      <trkpt lat="45.53884" lon="6.70318">
        <ele>1678.5</ele>
        <time>2011-07-30T16:49:01Z</time>
      </trkpt>
      <trkpt lat="45.53882" lon="6.70332">
        <ele>1677.5</ele>
        <time>2011-07-30T16:49:05Z</time>
      </trkpt>
      <trkpt lat="45.53877" lon="6.70344">
        <ele>1676.5</ele>
        <time>2011-07-30T16:49:10Z</time>
      </trkpt>
      <trkpt lat="45.53869" lon="6.70352">
        <ele>1675.5</ele>
        <time>2011-07-30T16:49:15Z</time>
      </trkpt>
      <trkpt lat="45.53861" lon="6.70364">
        <ele>1674.5</ele>
        <time>2011-07-30T16:49:21Z</time>
      </trkpt>
      <trkpt lat="45.53853" lon="6.70374">
        <ele>1674.8</ele>
        <time>2011-07-30T16:49:25Z</time>
      </trkpt>
      <trkpt lat="45.53846" lon="6.70388">
        <ele>1675.2</ele>
        <time>2011-07-30T16:49:29Z</time>
      </trkpt>
      <trkpt lat="45.53834" lon="6.70424">
        <ele>1675.5</ele>
        <time>2011-07-30T16:49:41Z</time>
      </trkpt>
      <trkpt lat="45.53831" lon="6.7044">
        <ele>1675.9</ele>
        <time>2011-07-30T16:49:45Z</time>
      </trkpt>
      <trkpt lat="45.53829" lon="6.70453">
        <ele>1673.4</ele>
        <time>2011-07-30T16:49:49Z</time>
      </trkpt>
      <trkpt lat="45.53826" lon="6.70468">
        <ele>1670.8</ele>
        <time>2011-07-30T16:49:53Z</time>
      </trkpt>
      <trkpt lat="45.53823" lon="6.70481">
        <ele>1668.3</ele>
        <time>2011-07-30T16:49:58Z</time>
      </trkpt>
      <trkpt lat="45.53819" lon="6.70495">
        <ele>1667.5</ele>
        <time>2011-07-30T16:50:04Z</time>
      </trkpt>
      <trkpt lat="45.53818" lon="6.70508">
        <ele>1666.6</ele>
        <time>2011-07-30T16:50:11Z</time>
      </trkpt>
      <trkpt lat="45.53816" lon="6.70522">
        <ele>1665.8</ele>
        <time>2011-07-30T16:50:16Z</time>
      </trkpt>
      <trkpt lat="45.53826" lon="6.70522">
        <ele>1665</ele>
        <time>2011-07-30T16:50:25Z</time>
      </trkpt>
      <trkpt lat="45.53836" lon="6.70526">
        <ele>1662.6</ele>
        <time>2011-07-30T16:50:34Z</time>
      </trkpt>
      <trkpt lat="45.53845" lon="6.70524">
        <ele>1660.3</ele>
        <time>2011-07-30T16:50:41Z</time>
      </trkpt>
      <trkpt lat="45.5385" lon="6.70513">
        <ele>1657.9</ele>
        <time>2011-07-30T16:50:48Z</time>
      </trkpt>
      <trkpt lat="45.5386" lon="6.70507">
        <ele>1655.5</ele>
        <time>2011-07-30T16:51:04Z</time>
      </trkpt>
      <trkpt lat="45.5387" lon="6.70506">
        <ele>1653.2</ele>
        <time>2011-07-30T16:51:10Z</time>
      </trkpt>
      <trkpt lat="45.53879" lon="6.70505">
        <ele>1650.8</ele>
        <time>2011-07-30T16:51:17Z</time>
      </trkpt>
      <trkpt lat="45.5389" lon="6.70504">
        <ele>1648.5</ele>
        <time>2011-07-30T16:51:22Z</time>
      </trkpt>
      <trkpt lat="45.539" lon="6.70505">
        <ele>1646.1</ele>
        <time>2011-07-30T16:51:27Z</time>
      </trkpt>
      <trkpt lat="45.53914" lon="6.70514">
        <ele>1643.7</ele>
        <time>2011-07-30T16:51:33Z</time>
      </trkpt>
      <trkpt lat="45.53923" lon="6.70519">
        <ele>1639.5</ele>
        <time>2011-07-30T16:51:37Z</time>
      </trkpt>
      <trkpt lat="45.53933" lon="6.70519">
        <ele>1637.5</ele>
        <time>2011-07-30T16:51:43Z</time>
      </trkpt>
      <trkpt lat="45.53942" lon="6.70518">
        <ele>1637.8</ele>
        <time>2011-07-30T16:51:48Z</time>
      </trkpt>
      <trkpt lat="45.53954" lon="6.70525">
        <ele>1638.2</ele>
        <time>2011-07-30T16:51:54Z</time>
      </trkpt>
      <trkpt lat="45.53963" lon="6.70531">
        <ele>1638.5</ele>
        <time>2011-07-30T16:51:59Z</time>
      </trkpt>
      <trkpt lat="45.5397" lon="6.70539">
        <ele>1638.9</ele>
        <time>2011-07-30T16:52:04Z</time>
      </trkpt>
      <trkpt lat="45.53981" lon="6.70544">
        <ele>1639.3</ele>
        <time>2011-07-30T16:52:08Z</time>
      </trkpt>
      <trkpt lat="45.53993" lon="6.7055">
        <ele>1639.6</ele>
        <time>2011-07-30T16:52:15Z</time>
      </trkpt>
      <trkpt lat="45.54001" lon="6.70557">
        <ele>1640</ele>
        <time>2011-07-30T16:52:22Z</time>
      </trkpt>
      <trkpt lat="45.54006" lon="6.70569">
        <ele>1637.3</ele>
        <time>2011-07-30T16:52:26Z</time>
      </trkpt>
      <trkpt lat="45.54013" lon="6.70579">
        <ele>1634.5</ele>
        <time>2011-07-30T16:52:31Z</time>
      </trkpt>
      <trkpt lat="45.5402" lon="6.70592">
        <ele>1633.7</ele>
        <time>2011-07-30T16:52:34Z</time>
      </trkpt>
      <trkpt lat="45.54029" lon="6.70602">
        <ele>1630.6</ele>
        <time>2011-07-30T16:52:37Z</time>
      </trkpt>
      <trkpt lat="45.5404" lon="6.70603">
        <ele>1629.8</ele>
        <time>2011-07-30T16:52:49Z</time>
      </trkpt>
      <trkpt lat="45.54049" lon="6.70598">
        <ele>1629</ele>
        <time>2011-07-30T16:52:53Z</time>
      </trkpt>
      <trkpt lat="45.54057" lon="6.70594">
        <ele>1628.2</ele>
        <time>2011-07-30T16:52:58Z</time>
      </trkpt>
      <trkpt lat="45.54068" lon="6.70594">
        <ele>1624.5</ele>
        <time>2011-07-30T16:53:05Z</time>
      </trkpt>
      <trkpt lat="45.54085" lon="6.70623">
        <ele>1620.7</ele>
        <time>2011-07-30T16:53:20Z</time>
      </trkpt>
      <trkpt lat="45.5409" lon="6.70634">
        <ele>1617</ele>
        <time>2011-07-30T16:53:27Z</time>
      </trkpt>
      <trkpt lat="45.54115" lon="6.70657">
        <ele>1613.3</ele>
        <time>2011-07-30T16:53:38Z</time>
      </trkpt>
      <trkpt lat="45.54123" lon="6.70661">
        <ele>1612.6</ele>
        <time>2011-07-30T16:53:41Z</time>
      </trkpt>
      <trkpt lat="45.54133" lon="6.70668">
        <ele>1612</ele>
        <time>2011-07-30T16:53:47Z</time>
      </trkpt>
      <trkpt lat="45.54141" lon="6.70679">
        <ele>1611.4</ele>
        <time>2011-07-30T16:53:52Z</time>
      </trkpt>
      <trkpt lat="45.54148" lon="6.70687">
        <ele>1610.7</ele>
        <time>2011-07-30T16:53:55Z</time>
      </trkpt>
      <trkpt lat="45.54155" lon="6.70696">
        <ele>1607.8</ele>
        <time>2011-07-30T16:53:58Z</time>
      </trkpt>
      <trkpt lat="45.54164" lon="6.70703">
        <ele>1604.9</ele>
        <time>2011-07-30T16:54:02Z</time>
      </trkpt>
      <trkpt lat="45.54172" lon="6.70698">
        <ele>1602</ele>
        <time>2011-07-30T16:54:07Z</time>
      </trkpt>
      <trkpt lat="45.54171" lon="6.70685">
        <ele>1602</ele>
        <time>2011-07-30T16:54:16Z</time>
      </trkpt>
      <trkpt lat="45.54165" lon="6.70671">
        <ele>1598.7</ele>
        <time>2011-07-30T16:54:19Z</time>
      </trkpt>
      <trkpt lat="45.54155" lon="6.70652">
        <ele>1595.5</ele>
        <time>2011-07-30T16:54:29Z</time>
      </trkpt>
      <trkpt lat="45.5416" lon="6.70641">
        <ele>1592.2</ele>
        <time>2011-07-30T16:54:37Z</time>
      </trkpt>
      <trkpt lat="45.54187" lon="6.70642">
        <ele>1588.9</ele>
        <time>2011-07-30T16:54:51Z</time>
      </trkpt>
      <trkpt lat="45.54196" lon="6.70642">
        <ele>1585.6</ele>
        <time>2011-07-30T16:54:56Z</time>
      </trkpt>
      <trkpt lat="45.54212" lon="6.70643">
        <ele>1582.4</ele>
        <time>2011-07-30T16:55:03Z</time>
      </trkpt>
      <trkpt lat="45.54221" lon="6.70653">
        <ele>1578.2</ele>
        <time>2011-07-30T16:55:07Z</time>
      </trkpt>
      <trkpt lat="45.54226" lon="6.70665">
        <ele>1574</ele>
        <time>2011-07-30T16:55:11Z</time>
      </trkpt>
      <trkpt lat="45.5423" lon="6.70683">
        <ele>1569.8</ele>
        <time>2011-07-30T16:55:19Z</time>
      </trkpt>
      <trkpt lat="45.54233" lon="6.70698">
        <ele>1565.6</ele>
        <time>2011-07-30T16:55:26Z</time>
      </trkpt>
      <trkpt lat="45.54236" lon="6.70711">
        <ele>1561.5</ele>
        <time>2011-07-30T16:55:30Z</time>
      </trkpt>
      <trkpt lat="45.5424" lon="6.70723">
        <ele>1560.5</ele>
        <time>2011-07-30T16:55:34Z</time>
      </trkpt>
      <trkpt lat="45.54246" lon="6.70734">
        <ele>1559.6</ele>
        <time>2011-07-30T16:55:38Z</time>
      </trkpt>
      <trkpt lat="45.54249" lon="6.70747">
        <ele>1558.1</ele>
        <time>2011-07-30T16:55:44Z</time>
      </trkpt>
      <trkpt lat="45.54249" lon="6.70761">
        <ele>1556.5</ele>
        <time>2011-07-30T16:55:48Z</time>
      </trkpt>
      <trkpt lat="45.54252" lon="6.70774">
        <ele>1555</ele>
        <time>2011-07-30T16:55:53Z</time>
      </trkpt>
      <trkpt lat="45.54256" lon="6.70787">
        <ele>1553.5</ele>
        <time>2011-07-30T16:55:58Z</time>
      </trkpt>
      <trkpt lat="45.54258" lon="6.70802">
        <ele>1552.8</ele>
        <time>2011-07-30T16:56:02Z</time>
      </trkpt>
      <trkpt lat="45.54258" lon="6.70817">
        <ele>1553</ele>
        <time>2011-07-30T16:56:07Z</time>
      </trkpt>
      <trkpt lat="45.5426" lon="6.70831">
        <ele>1553.2</ele>
        <time>2011-07-30T16:56:13Z</time>
      </trkpt>
      <trkpt lat="45.54261" lon="6.70846">
        <ele>1553.4</ele>
        <time>2011-07-30T16:56:18Z</time>
      </trkpt>
      <trkpt lat="45.54257" lon="6.70858">
        <ele>1553.5</ele>
        <time>2011-07-30T16:56:22Z</time>
      </trkpt>
      <trkpt lat="45.54262" lon="6.70869">
        <ele>1553.7</ele>
        <time>2011-07-30T16:56:34Z</time>
      </trkpt>
      <trkpt lat="45.54258" lon="6.70895">
        <ele>1553.1</ele>
        <time>2011-07-30T16:56:43Z</time>
      </trkpt>
      <trkpt lat="45.54256" lon="6.70908">
        <ele>1553.9</ele>
        <time>2011-07-30T16:56:46Z</time>
      </trkpt>
      <trkpt lat="45.54251" lon="6.70919">
        <ele>1554.7</ele>
        <time>2011-07-30T16:56:52Z</time>
      </trkpt>
      <trkpt lat="45.54258" lon="6.70909">
        <ele>1555.5</ele>
        <time>2011-07-30T16:57:09Z</time>
      </trkpt>
      <trkpt lat="45.54256" lon="6.70896">
        <ele>1554.8</ele>
        <time>2011-07-30T16:57:15Z</time>
      </trkpt>
      <trkpt lat="45.54261" lon="6.70884">
        <ele>1554.1</ele>
        <time>2011-07-30T16:57:21Z</time>
      </trkpt>
      <trkpt lat="45.5427" lon="6.70895">
        <ele>1551.1</ele>
        <time>2011-07-30T16:57:29Z</time>
      </trkpt>
      <trkpt lat="45.5428" lon="6.70899">
        <ele>1548.1</ele>
        <time>2011-07-30T16:57:33Z</time>
      </trkpt>
      <trkpt lat="45.5429" lon="6.70899">
        <ele>1545.1</ele>
        <time>2011-07-30T16:57:39Z</time>
      </trkpt>
      <trkpt lat="45.543" lon="6.70898">
        <ele>1542.1</ele>
        <time>2011-07-30T16:57:46Z</time>
      </trkpt>
      <trkpt lat="45.54307" lon="6.70889">
        <ele>1540.5</ele>
        <time>2011-07-30T16:57:53Z</time>
      </trkpt>
      <trkpt lat="45.54317" lon="6.70883">
        <ele>1539.8</ele>
        <time>2011-07-30T16:58:00Z</time>
      </trkpt>
      <trkpt lat="45.54326" lon="6.70879">
        <ele>1538.3</ele>
        <time>2011-07-30T16:58:09Z</time>
      </trkpt>
      <trkpt lat="45.54336" lon="6.70876">
        <ele>1536.7</ele>
        <time>2011-07-30T16:58:19Z</time>
      </trkpt>
      <trkpt lat="45.54345" lon="6.70874">
        <ele>1534.1</ele>
        <time>2011-07-30T16:58:27Z</time>
      </trkpt>
      <trkpt lat="45.54355" lon="6.70886">
        <ele>1533</ele>
        <time>2011-07-30T16:58:34Z</time>
      </trkpt>
      <trkpt lat="45.54359" lon="6.70903">
        <ele>1531.9</ele>
        <time>2011-07-30T16:58:36Z</time>
      </trkpt>
      <trkpt lat="45.54364" lon="6.70915">
        <ele>1534.3</ele>
        <time>2011-07-30T16:58:38Z</time>
      </trkpt>
      <trkpt lat="45.54371" lon="6.70926">
        <ele>1536.6</ele>
        <time>2011-07-30T16:58:41Z</time>
      </trkpt>
      <trkpt lat="45.54379" lon="6.70936">
        <ele>1537</ele>
        <time>2011-07-30T16:58:45Z</time>
      </trkpt>
      <trkpt lat="45.54384" lon="6.70947">
        <ele>1537.4</ele>
        <time>2011-07-30T16:58:49Z</time>
      </trkpt>
      <trkpt lat="45.54387" lon="6.70959">
        <ele>1536.3</ele>
        <time>2011-07-30T16:58:54Z</time>
      </trkpt>
      <trkpt lat="45.54392" lon="6.70972">
        <ele>1535.2</ele>
        <time>2011-07-30T16:59:02Z</time>
      </trkpt>
      <trkpt lat="45.54401" lon="6.70972">
        <ele>1534.1</ele>
        <time>2011-07-30T16:59:20Z</time>
      </trkpt>
      <trkpt lat="45.54407" lon="6.70963">
        <ele>1533</ele>
        <time>2011-07-30T16:59:25Z</time>
      </trkpt>
      <trkpt lat="45.54415" lon="6.70955">
        <ele>1533</ele>
        <time>2011-07-30T16:59:30Z</time>
      </trkpt>
      <trkpt lat="45.54424" lon="6.70949">
        <ele>1532.9</ele>
        <time>2011-07-30T16:59:37Z</time>
      </trkpt>
      <trkpt lat="45.54432" lon="6.7094">
        <ele>1532.8</ele>
        <time>2011-07-30T16:59:45Z</time>
      </trkpt>
      <trkpt lat="45.54439" lon="6.70931">
        <ele>1530.7</ele>
        <time>2011-07-30T16:59:55Z</time>
      </trkpt>
      <trkpt lat="45.54449" lon="6.70931">
        <ele>1528.6</ele>
        <time>2011-07-30T17:00:02Z</time>
      </trkpt>
      <trkpt lat="45.54458" lon="6.70934">
        <ele>1528.5</ele>
        <time>2011-07-30T17:00:08Z</time>
      </trkpt>
      <trkpt lat="45.54466" lon="6.70944">
        <ele>1530</ele>
        <time>2011-07-30T17:00:13Z</time>
      </trkpt>
      <trkpt lat="45.54473" lon="6.70951">
        <ele>1531.5</ele>
        <time>2011-07-30T17:00:17Z</time>
      </trkpt>
      <trkpt lat="45.54481" lon="6.70958">
        <ele>1532.9</ele>
        <time>2011-07-30T17:00:22Z</time>
      </trkpt>
      <trkpt lat="45.54491" lon="6.70961">
        <ele>1534.4</ele>
        <time>2011-07-30T17:00:28Z</time>
      </trkpt>
      <trkpt lat="45.54501" lon="6.70966">
        <ele>1535.8</ele>
        <time>2011-07-30T17:00:33Z</time>
      </trkpt>
      <trkpt lat="45.54509" lon="6.70974">
        <ele>1535.2</ele>
        <time>2011-07-30T17:00:39Z</time>
      </trkpt>
      <trkpt lat="45.54516" lon="6.70984">
        <ele>1534.6</ele>
        <time>2011-07-30T17:00:43Z</time>
      </trkpt>
      <trkpt lat="45.54523" lon="6.70994">
        <ele>1533.3</ele>
        <time>2011-07-30T17:00:46Z</time>
      </trkpt>
      <trkpt lat="45.54531" lon="6.71003">
        <ele>1531.9</ele>
        <time>2011-07-30T17:00:50Z</time>
      </trkpt>
      <trkpt lat="45.54541" lon="6.71004">
        <ele>1530.5</ele>
        <time>2011-07-30T17:00:55Z</time>
      </trkpt>
      <trkpt lat="45.54549" lon="6.70994">
        <ele>1529.2</ele>
        <time>2011-07-30T17:00:59Z</time>
      </trkpt>
      <trkpt lat="45.54556" lon="6.70983">
        <ele>1526.3</ele>
        <time>2011-07-30T17:01:03Z</time>
      </trkpt>
      <trkpt lat="45.54555" lon="6.70967">
        <ele>1523.4</ele>
        <time>2011-07-30T17:01:08Z</time>
      </trkpt>
      <trkpt lat="45.54557" lon="6.70953">
        <ele>1520.5</ele>
        <time>2011-07-30T17:01:13Z</time>
      </trkpt>
      <trkpt lat="45.54563" lon="6.70941">
        <ele>1517.5</ele>
        <time>2011-07-30T17:01:17Z</time>
      </trkpt>
      <trkpt lat="45.54573" lon="6.70937">
        <ele>1514.6</ele>
        <time>2011-07-30T17:01:22Z</time>
      </trkpt>
      <trkpt lat="45.54583" lon="6.70939">
        <ele>1512.4</ele>
        <time>2011-07-30T17:01:26Z</time>
      </trkpt>
      <trkpt lat="45.54593" lon="6.70942">
        <ele>1510.1</ele>
        <time>2011-07-30T17:01:31Z</time>
      </trkpt>
      <trkpt lat="45.54603" lon="6.70946">
        <ele>1509.5</ele>
        <time>2011-07-30T17:01:35Z</time>
      </trkpt>
      <trkpt lat="45.54612" lon="6.7095">
        <ele>1508.8</ele>
        <time>2011-07-30T17:01:39Z</time>
      </trkpt>
      <trkpt lat="45.54621" lon="6.70954">
        <ele>1508.2</ele>
        <time>2011-07-30T17:01:43Z</time>
      </trkpt>
      <trkpt lat="45.54631" lon="6.7096">
        <ele>1507.5</ele>
        <time>2011-07-30T17:01:48Z</time>
      </trkpt>
      <trkpt lat="45.5464" lon="6.70965">
        <ele>1506.9</ele>
        <time>2011-07-30T17:01:52Z</time>
      </trkpt>
      <trkpt lat="45.54648" lon="6.70971">
        <ele>1506.3</ele>
        <time>2011-07-30T17:01:56Z</time>
      </trkpt>
      <trkpt lat="45.54655" lon="6.7098">
        <ele>1505.6</ele>
        <time>2011-07-30T17:02:00Z</time>
      </trkpt>
      <trkpt lat="45.54662" lon="6.70991">
        <ele>1505.5</ele>
        <time>2011-07-30T17:02:04Z</time>
      </trkpt>
      <trkpt lat="45.54668" lon="6.71002">
        <ele>1505.3</ele>
        <time>2011-07-30T17:02:09Z</time>
      </trkpt>
      <trkpt lat="45.54671" lon="6.71016">
        <ele>1506.5</ele>
        <time>2011-07-30T17:02:16Z</time>
      </trkpt>
      <trkpt lat="45.54666" lon="6.71026">
        <ele>1507.8</ele>
        <time>2011-07-30T17:02:23Z</time>
      </trkpt>
      <trkpt lat="45.54663" lon="6.71039">
        <ele>1508.3</ele>
        <time>2011-07-30T17:02:31Z</time>
      </trkpt>
      <trkpt lat="45.54662" lon="6.71055">
        <ele>1508.7</ele>
        <time>2011-07-30T17:02:37Z</time>
      </trkpt>
      <trkpt lat="45.5467" lon="6.71063">
        <ele>1506.4</ele>
        <time>2011-07-30T17:02:45Z</time>
      </trkpt>
      <trkpt lat="45.54681" lon="6.71063">
        <ele>1504</ele>
        <time>2011-07-30T17:02:52Z</time>
      </trkpt>
      <trkpt lat="45.54691" lon="6.71061">
        <ele>1501.6</ele>
        <time>2011-07-30T17:02:58Z</time>
      </trkpt>
      <trkpt lat="45.54701" lon="6.71064">
        <ele>1499.3</ele>
        <time>2011-07-30T17:03:02Z</time>
      </trkpt>
      <trkpt lat="45.54709" lon="6.71071">
        <ele>1496.9</ele>
        <time>2011-07-30T17:03:05Z</time>
      </trkpt>
      <trkpt lat="45.54715" lon="6.71081">
        <ele>1494.1</ele>
        <time>2011-07-30T17:03:08Z</time>
      </trkpt>
      <trkpt lat="45.54721" lon="6.71094">
        <ele>1491.3</ele>
        <time>2011-07-30T17:03:12Z</time>
      </trkpt>
      <trkpt lat="45.54721" lon="6.71108">
        <ele>1488.5</ele>
        <time>2011-07-30T17:03:17Z</time>
      </trkpt>
      <trkpt lat="45.54719" lon="6.71121">
        <ele>1485.6</ele>
        <time>2011-07-30T17:03:22Z</time>
      </trkpt>
      <trkpt lat="45.54717" lon="6.71134">
        <ele>1482.8</ele>
        <time>2011-07-30T17:03:26Z</time>
      </trkpt>
      <trkpt lat="45.54716" lon="6.71149">
        <ele>1480</ele>
        <time>2011-07-30T17:03:31Z</time>
      </trkpt>
      <trkpt lat="45.54715" lon="6.71163">
        <ele>1479.9</ele>
        <time>2011-07-30T17:03:36Z</time>
      </trkpt>
      <trkpt lat="45.54717" lon="6.71176">
        <ele>1479.8</ele>
        <time>2011-07-30T17:03:41Z</time>
      </trkpt>
      <trkpt lat="45.54723" lon="6.71188">
        <ele>1479.7</ele>
        <time>2011-07-30T17:03:46Z</time>
      </trkpt>
      <trkpt lat="45.54728" lon="6.71199">
        <ele>1479.6</ele>
        <time>2011-07-30T17:03:50Z</time>
      </trkpt>
      <trkpt lat="45.54729" lon="6.71214">
        <ele>1479.5</ele>
        <time>2011-07-30T17:03:55Z</time>
      </trkpt>
      <trkpt lat="45.54727" lon="6.71228">
        <ele>1479.5</ele>
        <time>2011-07-30T17:04:02Z</time>
      </trkpt>
      <trkpt lat="45.54724" lon="6.7124">
        <ele>1480.9</ele>
        <time>2011-07-30T17:04:09Z</time>
      </trkpt>
      <trkpt lat="45.54721" lon="6.71255">
        <ele>1482.4</ele>
        <time>2011-07-30T17:04:14Z</time>
      </trkpt>
      <trkpt lat="45.54724" lon="6.71268">
        <ele>1483.8</ele>
        <time>2011-07-30T17:04:18Z</time>
      </trkpt>
      <trkpt lat="45.54724" lon="6.71282">
        <ele>1485.3</ele>
        <time>2011-07-30T17:04:23Z</time>
      </trkpt>
      <trkpt lat="45.54731" lon="6.71292">
        <ele>1486.7</ele>
        <time>2011-07-30T17:04:29Z</time>
      </trkpt>
      <trkpt lat="45.54736" lon="6.71302">
        <ele>1488.3</ele>
        <time>2011-07-30T17:04:43Z</time>
      </trkpt>
      <trkpt lat="45.54743" lon="6.71311">
        <ele>1489.8</ele>
        <time>2011-07-30T17:04:54Z</time>
      </trkpt>
      <trkpt lat="45.54751" lon="6.71317">
        <ele>1491.4</ele>
        <time>2011-07-30T17:05:03Z</time>
      </trkpt>
      <trkpt lat="45.54759" lon="6.71328">
        <ele>1490.6</ele>
        <time>2011-07-30T17:05:14Z</time>
      </trkpt>
      <trkpt lat="45.54766" lon="6.71338">
        <ele>1491.7</ele>
        <time>2011-07-30T17:05:18Z</time>
      </trkpt>
      <trkpt lat="45.54774" lon="6.71346">
        <ele>1492.8</ele>
        <time>2011-07-30T17:05:23Z</time>
      </trkpt>
      <trkpt lat="45.54782" lon="6.71353">
        <ele>1492.4</ele>
        <time>2011-07-30T17:05:31Z</time>
      </trkpt>
      <trkpt lat="45.5479" lon="6.71361">
        <ele>1491.9</ele>
        <time>2011-07-30T17:05:39Z</time>
      </trkpt>
      <trkpt lat="45.54798" lon="6.7137">
        <ele>1491.5</ele>
        <time>2011-07-30T17:05:48Z</time>
      </trkpt>
      <trkpt lat="45.54804" lon="6.7138">
        <ele>1491</ele>
        <time>2011-07-30T17:05:54Z</time>
      </trkpt>
      <trkpt lat="45.54809" lon="6.71391">
        <ele>1490.5</ele>
        <time>2011-07-30T17:05:58Z</time>
      </trkpt>
      <trkpt lat="45.54816" lon="6.71401">
        <ele>1491.4</ele>
        <time>2011-07-30T17:06:04Z</time>
      </trkpt>
      <trkpt lat="45.54822" lon="6.71411">
        <ele>1492.2</ele>
        <time>2011-07-30T17:06:10Z</time>
      </trkpt>
      <trkpt lat="45.54827" lon="6.71423">
        <ele>1493</ele>
        <time>2011-07-30T17:06:16Z</time>
      </trkpt>
      <trkpt lat="45.54829" lon="6.71436">
        <ele>1496.1</ele>
        <time>2011-07-30T17:06:21Z</time>
      </trkpt>
      <trkpt lat="45.5483" lon="6.7145">
        <ele>1497.4</ele>
        <time>2011-07-30T17:06:26Z</time>
      </trkpt>
      <trkpt lat="45.54833" lon="6.71463">
        <ele>1498.6</ele>
        <time>2011-07-30T17:06:32Z</time>
      </trkpt>
      <trkpt lat="45.54835" lon="6.71477">
        <ele>1499.9</ele>
        <time>2011-07-30T17:06:40Z</time>
      </trkpt>
      <trkpt lat="45.54841" lon="6.71489">
        <ele>1498.1</ele>
        <time>2011-07-30T17:06:47Z</time>
      </trkpt>
      <trkpt lat="45.54849" lon="6.71497">
        <ele>1498.6</ele>
        <time>2011-07-30T17:06:53Z</time>
      </trkpt>
      <trkpt lat="45.54856" lon="6.71507">
        <ele>1499.2</ele>
        <time>2011-07-30T17:06:58Z</time>
      </trkpt>
      <trkpt lat="45.54864" lon="6.71518">
        <ele>1499.7</ele>
        <time>2011-07-30T17:07:03Z</time>
      </trkpt>
      <trkpt lat="45.5487" lon="6.71528">
        <ele>1499</ele>
        <time>2011-07-30T17:07:08Z</time>
      </trkpt>
      <trkpt lat="45.54876" lon="6.71538">
        <ele>1498.3</ele>
        <time>2011-07-30T17:07:14Z</time>
      </trkpt>
      <trkpt lat="45.54883" lon="6.71548">
        <ele>1497.5</ele>
        <time>2011-07-30T17:07:21Z</time>
      </trkpt>
      <trkpt lat="45.54891" lon="6.71552">
        <ele>1496.8</ele>
        <time>2011-07-30T17:07:28Z</time>
      </trkpt>
      <trkpt lat="45.549" lon="6.71553">
        <ele>1496.1</ele>
        <time>2011-07-30T17:07:38Z</time>
      </trkpt>
      <trkpt lat="45.5491" lon="6.71559">
        <ele>1495.4</ele>
        <time>2011-07-30T17:07:47Z</time>
      </trkpt>
      <trkpt lat="45.54918" lon="6.71565">
        <ele>1494.6</ele>
        <time>2011-07-30T17:07:51Z</time>
      </trkpt>
      <trkpt lat="45.54926" lon="6.71574">
        <ele>1497</ele>
        <time>2011-07-30T17:07:54Z</time>
      </trkpt>
      <trkpt lat="45.54934" lon="6.71581">
        <ele>1498.8</ele>
        <time>2011-07-30T17:07:57Z</time>
      </trkpt>
      <trkpt lat="45.54941" lon="6.71588">
        <ele>1500.6</ele>
        <time>2011-07-30T17:08:01Z</time>
      </trkpt>
      <trkpt lat="45.54949" lon="6.71595">
        <ele>1502.5</ele>
        <time>2011-07-30T17:08:06Z</time>
      </trkpt>
      <trkpt lat="45.54954" lon="6.71606">
        <ele>1504.3</ele>
        <time>2011-07-30T17:08:13Z</time>
      </trkpt>
      <trkpt lat="45.54955" lon="6.7162">
        <ele>1503.4</ele>
        <time>2011-07-30T17:08:22Z</time>
      </trkpt>
      <trkpt lat="45.54957" lon="6.71634">
        <ele>1502.5</ele>
        <time>2011-07-30T17:08:30Z</time>
      </trkpt>
      <trkpt lat="45.54958" lon="6.71647">
        <ele>1501.5</ele>
        <time>2011-07-30T17:08:37Z</time>
      </trkpt>
      <trkpt lat="45.54959" lon="6.71662">
        <ele>1500.6</ele>
        <time>2011-07-30T17:08:44Z</time>
      </trkpt>
      <trkpt lat="45.54961" lon="6.71675">
        <ele>1500.4</ele>
        <time>2011-07-30T17:08:50Z</time>
      </trkpt>
      <trkpt lat="45.54967" lon="6.71687">
        <ele>1500.1</ele>
        <time>2011-07-30T17:08:57Z</time>
      </trkpt>
      <trkpt lat="45.54973" lon="6.71698">
        <ele>1499.8</ele>
        <time>2011-07-30T17:09:03Z</time>
      </trkpt>
      <trkpt lat="45.5498" lon="6.71709">
        <ele>1497.7</ele>
        <time>2011-07-30T17:09:10Z</time>
      </trkpt>
      <trkpt lat="45.54987" lon="6.71719">
        <ele>1495.6</ele>
        <time>2011-07-30T17:09:17Z</time>
      </trkpt>
      <trkpt lat="45.54992" lon="6.71731">
        <ele>1493.5</ele>
        <time>2011-07-30T17:09:25Z</time>
      </trkpt>
      <trkpt lat="45.54996" lon="6.71744">
        <ele>1492.1</ele>
        <time>2011-07-30T17:09:38Z</time>
      </trkpt>
      <trkpt lat="45.54996" lon="6.71757">
        <ele>1493.4</ele>
        <time>2011-07-30T17:09:50Z</time>
      </trkpt>
      <trkpt lat="45.54993" lon="6.7177">
        <ele>1494.6</ele>
        <time>2011-07-30T17:09:59Z</time>
      </trkpt>
      <trkpt lat="45.54994" lon="6.71784">
        <ele>1495.9</ele>
        <time>2011-07-30T17:10:05Z</time>
      </trkpt>
      <trkpt lat="45.54995" lon="6.71798">
        <ele>1497.2</ele>
        <time>2011-07-30T17:10:11Z</time>
      </trkpt>
      <trkpt lat="45.54998" lon="6.71812">
        <ele>1497.8</ele>
        <time>2011-07-30T17:10:18Z</time>
      </trkpt>
      <trkpt lat="45.55004" lon="6.71824">
        <ele>1498.5</ele>
        <time>2011-07-30T17:10:26Z</time>
      </trkpt>
      <trkpt lat="45.5501" lon="6.71833">
        <ele>1499.7</ele>
        <time>2011-07-30T17:10:32Z</time>
      </trkpt>
      <trkpt lat="45.55016" lon="6.71846">
        <ele>1501</ele>
        <time>2011-07-30T17:10:38Z</time>
      </trkpt>
      <trkpt lat="45.55021" lon="6.71858">
        <ele>1502.3</ele>
        <time>2011-07-30T17:10:43Z</time>
      </trkpt>
      <trkpt lat="45.55025" lon="6.71871">
        <ele>1503.5</ele>
        <time>2011-07-30T17:10:48Z</time>
      </trkpt>
      <trkpt lat="45.55028" lon="6.71883">
        <ele>1504.2</ele>
        <time>2011-07-30T17:10:54Z</time>
      </trkpt>
      <trkpt lat="45.55025" lon="6.71897">
        <ele>1504.8</ele>
        <time>2011-07-30T17:11:01Z</time>
      </trkpt>
      <trkpt lat="45.55026" lon="6.71911">
        <ele>1506.3</ele>
        <time>2011-07-30T17:11:06Z</time>
      </trkpt>
      <trkpt lat="45.55027" lon="6.71925">
        <ele>1507.7</ele>
        <time>2011-07-30T17:11:11Z</time>
      </trkpt>
      <trkpt lat="45.5503" lon="6.71937">
        <ele>1509.2</ele>
        <time>2011-07-30T17:11:17Z</time>
      </trkpt>
      <trkpt lat="45.55027" lon="6.71952">
        <ele>1510.6</ele>
        <time>2011-07-30T17:11:23Z</time>
      </trkpt>
      <trkpt lat="45.55024" lon="6.71964">
        <ele>1512.1</ele>
        <time>2011-07-30T17:11:27Z</time>
      </trkpt>
      <trkpt lat="45.5502" lon="6.71976">
        <ele>1512.9</ele>
        <time>2011-07-30T17:11:32Z</time>
      </trkpt>
      <trkpt lat="45.55019" lon="6.71989">
        <ele>1510.3</ele>
        <time>2011-07-30T17:11:37Z</time>
      </trkpt>
      <trkpt lat="45.55024" lon="6.72002">
        <ele>1508.7</ele>
        <time>2011-07-30T17:11:45Z</time>
      </trkpt>
      <trkpt lat="45.55031" lon="6.72009">
        <ele>1507.2</ele>
        <time>2011-07-30T17:11:52Z</time>
      </trkpt>
      <trkpt lat="45.55038" lon="6.72018">
        <ele>1505.6</ele>
        <time>2011-07-30T17:11:58Z</time>
      </trkpt>
      <trkpt lat="45.55045" lon="6.72029">
        <ele>1504.1</ele>
        <time>2011-07-30T17:12:03Z</time>
      </trkpt>
      <trkpt lat="45.55051" lon="6.72043">
        <ele>1501.7</ele>
        <time>2011-07-30T17:12:08Z</time>
      </trkpt>
      <trkpt lat="45.55058" lon="6.72053">
        <ele>1499.4</ele>
        <time>2011-07-30T17:12:12Z</time>
      </trkpt>
      <trkpt lat="45.55064" lon="6.72063">
        <ele>1497</ele>
        <time>2011-07-30T17:12:16Z</time>
      </trkpt>
      <trkpt lat="45.5507" lon="6.72073">
        <ele>1494.6</ele>
        <time>2011-07-30T17:12:21Z</time>
      </trkpt>
      <trkpt lat="45.55075" lon="6.72061">
        <ele>1492.3</ele>
        <time>2011-07-30T17:12:39Z</time>
      </trkpt>
      <trkpt lat="45.55081" lon="6.72051">
        <ele>1489.9</ele>
        <time>2011-07-30T17:12:44Z</time>
      </trkpt>
      <trkpt lat="45.5509" lon="6.72054">
        <ele>1491</ele>
        <time>2011-07-30T17:12:51Z</time>
      </trkpt>
      <trkpt lat="45.55096" lon="6.72065">
        <ele>1491</ele>
        <time>2011-07-30T17:12:58Z</time>
      </trkpt>
      <trkpt lat="45.55102" lon="6.72074">
        <ele>1491.5</ele>
        <time>2011-07-30T17:13:03Z</time>
      </trkpt>
      <trkpt lat="45.55108" lon="6.72089">
        <ele>1492.1</ele>
        <time>2011-07-30T17:13:07Z</time>
      </trkpt>
      <trkpt lat="45.55113" lon="6.721">
        <ele>1492.6</ele>
        <time>2011-07-30T17:13:11Z</time>
      </trkpt>
      <trkpt lat="45.55117" lon="6.72113">
        <ele>1493.2</ele>
        <time>2011-07-30T17:13:16Z</time>
      </trkpt>
      <trkpt lat="45.55121" lon="6.72126">
        <ele>1490.5</ele>
        <time>2011-07-30T17:13:21Z</time>
      </trkpt>
      <trkpt lat="45.55121" lon="6.7214">
        <ele>1487.7</ele>
        <time>2011-07-30T17:13:26Z</time>
      </trkpt>
      <trkpt lat="45.55121" lon="6.72155">
        <ele>1485</ele>
        <time>2011-07-30T17:13:30Z</time>
      </trkpt>
      <trkpt lat="45.55122" lon="6.72168">
        <ele>1483.5</ele>
        <time>2011-07-30T17:13:35Z</time>
      </trkpt>
      <trkpt lat="45.55125" lon="6.72182">
        <ele>1481.9</ele>
        <time>2011-07-30T17:13:42Z</time>
      </trkpt>
      <trkpt lat="45.5513" lon="6.72192">
        <ele>1480.4</ele>
        <time>2011-07-30T17:13:49Z</time>
      </trkpt>
      <trkpt lat="45.55137" lon="6.72201">
        <ele>1478.8</ele>
        <time>2011-07-30T17:13:56Z</time>
      </trkpt>
      <trkpt lat="45.55145" lon="6.7221">
        <ele>1476.7</ele>
        <time>2011-07-30T17:14:01Z</time>
      </trkpt>
      <trkpt lat="45.55151" lon="6.72221">
        <ele>1474.6</ele>
        <time>2011-07-30T17:14:05Z</time>
      </trkpt>
      <trkpt lat="45.55156" lon="6.72236">
        <ele>1473.5</ele>
        <time>2011-07-30T17:14:09Z</time>
      </trkpt>
      <trkpt lat="45.55163" lon="6.72248">
        <ele>1472.3</ele>
        <time>2011-07-30T17:14:14Z</time>
      </trkpt>
      <trkpt lat="45.55171" lon="6.7226">
        <ele>1474.4</ele>
        <time>2011-07-30T17:14:19Z</time>
      </trkpt>
      <trkpt lat="45.55174" lon="6.72273">
        <ele>1476.5</ele>
        <time>2011-07-30T17:14:22Z</time>
      </trkpt>
      <trkpt lat="45.55177" lon="6.72285">
        <ele>1478.5</ele>
        <time>2011-07-30T17:14:26Z</time>
      </trkpt>
      <trkpt lat="45.55181" lon="6.72299">
        <ele>1479.5</ele>
        <time>2011-07-30T17:14:31Z</time>
      </trkpt>
      <trkpt lat="45.55187" lon="6.7231">
        <ele>1480.2</ele>
        <time>2011-07-30T17:14:37Z</time>
      </trkpt>
      <trkpt lat="45.55191" lon="6.72324">
        <ele>1480.9</ele>
        <time>2011-07-30T17:14:43Z</time>
      </trkpt>
      <trkpt lat="45.55194" lon="6.72336">
        <ele>1481.6</ele>
        <time>2011-07-30T17:14:48Z</time>
      </trkpt>
      <trkpt lat="45.55195" lon="6.7235">
        <ele>1482.4</ele>
        <time>2011-07-30T17:14:53Z</time>
      </trkpt>
      <trkpt lat="45.55197" lon="6.72365">
        <ele>1480</ele>
        <time>2011-07-30T17:14:58Z</time>
      </trkpt>
      <trkpt lat="45.552" lon="6.7238">
        <ele>1476.7</ele>
        <time>2011-07-30T17:15:03Z</time>
      </trkpt>
      <trkpt lat="45.55202" lon="6.72394">
        <ele>1473.5</ele>
        <time>2011-07-30T17:15:08Z</time>
      </trkpt>
      <trkpt lat="45.55205" lon="6.72409">
        <ele>1470.4</ele>
        <time>2011-07-30T17:15:13Z</time>
      </trkpt>
      <trkpt lat="45.55208" lon="6.72422">
        <ele>1467.2</ele>
        <time>2011-07-30T17:15:17Z</time>
      </trkpt>
      <trkpt lat="45.55212" lon="6.72436">
        <ele>1464</ele>
        <time>2011-07-30T17:15:21Z</time>
      </trkpt>
      <trkpt lat="45.55215" lon="6.7245">
        <ele>1460.8</ele>
        <time>2011-07-30T17:15:25Z</time>
      </trkpt>
      <trkpt lat="45.55215" lon="6.72465">
        <ele>1457.8</ele>
        <time>2011-07-30T17:15:30Z</time>
      </trkpt>
      <trkpt lat="45.55214" lon="6.72478">
        <ele>1454.6</ele>
        <time>2011-07-30T17:15:34Z</time>
      </trkpt>
      <trkpt lat="45.55213" lon="6.72491">
        <ele>1451.5</ele>
        <time>2011-07-30T17:15:38Z</time>
      </trkpt>
      <trkpt lat="45.55213" lon="6.72504">
        <ele>1448.3</ele>
        <time>2011-07-30T17:15:42Z</time>
      </trkpt>
      <trkpt lat="45.55215" lon="6.72518">
        <ele>1448.2</ele>
        <time>2011-07-30T17:15:47Z</time>
      </trkpt>
      <trkpt lat="45.5522" lon="6.72532">
        <ele>1448.1</ele>
        <time>2011-07-30T17:15:52Z</time>
      </trkpt>
      <trkpt lat="45.55224" lon="6.72545">
        <ele>1447.9</ele>
        <time>2011-07-30T17:15:57Z</time>
      </trkpt>
      <trkpt lat="45.55229" lon="6.72559">
        <ele>1447.7</ele>
        <time>2011-07-30T17:16:02Z</time>
      </trkpt>
      <trkpt lat="45.55234" lon="6.7257">
        <ele>1447.5</ele>
        <time>2011-07-30T17:16:06Z</time>
      </trkpt>
      <trkpt lat="45.55239" lon="6.72583">
        <ele>1447.4</ele>
        <time>2011-07-30T17:16:11Z</time>
      </trkpt>
      <trkpt lat="45.55244" lon="6.72596">
        <ele>1447.2</ele>
        <time>2011-07-30T17:16:16Z</time>
      </trkpt>
      <trkpt lat="45.55246" lon="6.72611">
        <ele>1447</ele>
        <time>2011-07-30T17:16:21Z</time>
      </trkpt>
      <trkpt lat="45.55255" lon="6.72604">
        <ele>1444.6</ele>
        <time>2011-07-30T17:16:27Z</time>
      </trkpt>
      <trkpt lat="45.55262" lon="6.72593">
        <ele>1442.3</ele>
        <time>2011-07-30T17:16:32Z</time>
      </trkpt>
      <trkpt lat="45.5527" lon="6.72582">
        <ele>1439.9</ele>
        <time>2011-07-30T17:16:38Z</time>
      </trkpt>
      <trkpt lat="45.5528" lon="6.72584">
        <ele>1437.5</ele>
        <time>2011-07-30T17:16:45Z</time>
      </trkpt>
      <trkpt lat="45.55289" lon="6.72591">
        <ele>1435.2</ele>
        <time>2011-07-30T17:16:51Z</time>
      </trkpt>
      <trkpt lat="45.55298" lon="6.72599">
        <ele>1432.8</ele>
        <time>2011-07-30T17:16:56Z</time>
      </trkpt>
      <trkpt lat="45.55308" lon="6.72605">
        <ele>1430.4</ele>
        <time>2011-07-30T17:17:00Z</time>
      </trkpt>
      <trkpt lat="45.55317" lon="6.72612">
        <ele>1427.9</ele>
        <time>2011-07-30T17:17:05Z</time>
      </trkpt>
      <trkpt lat="45.55326" lon="6.72617">
        <ele>1425.5</ele>
        <time>2011-07-30T17:17:12Z</time>
      </trkpt>
      <trkpt lat="45.55337" lon="6.72621">
        <ele>1423</ele>
        <time>2011-07-30T17:17:18Z</time>
      </trkpt>
      <trkpt lat="45.55346" lon="6.72624">
        <ele>1420.5</ele>
        <time>2011-07-30T17:17:23Z</time>
      </trkpt>
      <trkpt lat="45.55354" lon="6.72633">
        <ele>1420.5</ele>
        <time>2011-07-30T17:17:33Z</time>
      </trkpt>
      <trkpt lat="45.55356" lon="6.72646">
        <ele>1418.3</ele>
        <time>2011-07-30T17:17:37Z</time>
      </trkpt>
      <trkpt lat="45.55357" lon="6.72659">
        <ele>1416.1</ele>
        <time>2011-07-30T17:17:41Z</time>
      </trkpt>
      <trkpt lat="45.55359" lon="6.72673">
        <ele>1413</ele>
        <time>2011-07-30T17:17:46Z</time>
      </trkpt>
      <trkpt lat="45.55361" lon="6.72687">
        <ele>1409.9</ele>
        <time>2011-07-30T17:17:50Z</time>
      </trkpt>
      <trkpt lat="45.55369" lon="6.72696">
        <ele>1406.8</ele>
        <time>2011-07-30T17:17:55Z</time>
      </trkpt>
      <trkpt lat="45.55378" lon="6.72699">
        <ele>1403.8</ele>
        <time>2011-07-30T17:18:03Z</time>
      </trkpt>
      <trkpt lat="45.55383" lon="6.72713">
        <ele>1400.8</ele>
        <time>2011-07-30T17:18:09Z</time>
      </trkpt>
      <trkpt lat="45.55385" lon="6.72726">
        <ele>1397.8</ele>
        <time>2011-07-30T17:18:14Z</time>
      </trkpt>
      <trkpt lat="45.5539" lon="6.72739">
        <ele>1394.8</ele>
        <time>2011-07-30T17:18:20Z</time>
      </trkpt>
      <trkpt lat="45.55399" lon="6.72745">
        <ele>1391.5</ele>
        <time>2011-07-30T17:18:27Z</time>
      </trkpt>
      <trkpt lat="45.55405" lon="6.72756">
        <ele>1388.1</ele>
        <time>2011-07-30T17:18:33Z</time>
      </trkpt>
      <trkpt lat="45.55412" lon="6.72767">
        <ele>1386.8</ele>
        <time>2011-07-30T17:18:40Z</time>
      </trkpt>
      <trkpt lat="45.55414" lon="6.7278">
        <ele>1385.5</ele>
        <time>2011-07-30T17:18:45Z</time>
      </trkpt>
      <trkpt lat="45.55413" lon="6.72794">
        <ele>1385.2</ele>
        <time>2011-07-30T17:18:51Z</time>
      </trkpt>
      <trkpt lat="45.55412" lon="6.7281">
        <ele>1384.8</ele>
        <time>2011-07-30T17:18:57Z</time>
      </trkpt>
      <trkpt lat="45.55411" lon="6.72825">
        <ele>1384.7</ele>
        <time>2011-07-30T17:19:02Z</time>
      </trkpt>
      <trkpt lat="45.55412" lon="6.72839">
        <ele>1384.6</ele>
        <time>2011-07-30T17:19:07Z</time>
      </trkpt>
      <trkpt lat="45.55413" lon="6.72853">
        <ele>1384.5</ele>
        <time>2011-07-30T17:19:12Z</time>
      </trkpt>
      <trkpt lat="45.55414" lon="6.72866">
        <ele>1384.5</ele>
        <time>2011-07-30T17:19:17Z</time>
      </trkpt>
      <trkpt lat="45.55416" lon="6.72879">
        <ele>1384.4</ele>
        <time>2011-07-30T17:19:22Z</time>
      </trkpt>
      <trkpt lat="45.55416" lon="6.72894">
        <ele>1384.6</ele>
        <time>2011-07-30T17:19:28Z</time>
      </trkpt>
      <trkpt lat="45.55418" lon="6.72908">
        <ele>1384.9</ele>
        <time>2011-07-30T17:19:34Z</time>
      </trkpt>
      <trkpt lat="45.55426" lon="6.72916">
        <ele>1385.2</ele>
        <time>2011-07-30T17:19:40Z</time>
      </trkpt>
      <trkpt lat="45.55435" lon="6.7292">
        <ele>1384.5</ele>
        <time>2011-07-30T17:19:46Z</time>
      </trkpt>
      <trkpt lat="45.55442" lon="6.72929">
        <ele>1383.7</ele>
        <time>2011-07-30T17:19:52Z</time>
      </trkpt>
      <trkpt lat="45.55448" lon="6.7294">
        <ele>1383</ele>
        <time>2011-07-30T17:19:57Z</time>
      </trkpt>
      <trkpt lat="45.55454" lon="6.72952">
        <ele>1382</ele>
        <time>2011-07-30T17:20:02Z</time>
      </trkpt>
      <trkpt lat="45.55461" lon="6.72962">
        <ele>1381</ele>
        <time>2011-07-30T17:20:07Z</time>
      </trkpt>
      <trkpt lat="45.55469" lon="6.7297">
        <ele>1380</ele>
        <time>2011-07-30T17:20:12Z</time>
      </trkpt>
      <trkpt lat="45.55478" lon="6.72977">
        <ele>1379</ele>
        <time>2011-07-30T17:20:17Z</time>
      </trkpt>
      <trkpt lat="45.55487" lon="6.7298">
        <ele>1378</ele>
        <time>2011-07-30T17:20:22Z</time>
      </trkpt>
      <trkpt lat="45.55498" lon="6.72979">
        <ele>1377</ele>
        <time>2011-07-30T17:20:28Z</time>
      </trkpt>
      <trkpt lat="45.55507" lon="6.72979">
        <ele>1375</ele>
        <time>2011-07-30T17:20:33Z</time>
      </trkpt>
      <trkpt lat="45.55517" lon="6.72983">
        <ele>1373</ele>
        <time>2011-07-30T17:20:38Z</time>
      </trkpt>
      <trkpt lat="45.55526" lon="6.72988">
        <ele>1372</ele>
        <time>2011-07-30T17:20:43Z</time>
      </trkpt>
      <trkpt lat="45.55537" lon="6.72991">
        <ele>1371</ele>
        <time>2011-07-30T17:20:49Z</time>
      </trkpt>
      <trkpt lat="45.55546" lon="6.72994">
        <ele>1370</ele>
        <time>2011-07-30T17:20:54Z</time>
      </trkpt>
      <trkpt lat="45.55557" lon="6.72997">
        <ele>1369</ele>
        <time>2011-07-30T17:20:59Z</time>
      </trkpt>
      <trkpt lat="45.55568" lon="6.73001">
        <ele>1368</ele>
        <time>2011-07-30T17:21:04Z</time>
      </trkpt>
      <trkpt lat="45.55578" lon="6.72997">
        <ele>1367</ele>
        <time>2011-07-30T17:21:21Z</time>
      </trkpt>
      <trkpt lat="45.5559" lon="6.73003">
        <ele>1366.4</ele>
        <time>2011-07-30T17:21:25Z</time>
      </trkpt>
      <trkpt lat="45.55599" lon="6.73011">
        <ele>1365.7</ele>
        <time>2011-07-30T17:21:28Z</time>
      </trkpt>
      <trkpt lat="45.55608" lon="6.73021">
        <ele>1365.1</ele>
        <time>2011-07-30T17:21:32Z</time>
      </trkpt>
      <trkpt lat="45.55613" lon="6.73033">
        <ele>1365.5</ele>
        <time>2011-07-30T17:21:37Z</time>
      </trkpt>
      <trkpt lat="45.55615" lon="6.73046">
        <ele>1365.8</ele>
        <time>2011-07-30T17:21:42Z</time>
      </trkpt>
      <trkpt lat="45.55616" lon="6.73059">
        <ele>1366.2</ele>
        <time>2011-07-30T17:21:47Z</time>
      </trkpt>
      <trkpt lat="45.55616" lon="6.73073">
        <ele>1366.8</ele>
        <time>2011-07-30T17:21:52Z</time>
      </trkpt>
      <trkpt lat="45.55614" lon="6.73088">
        <ele>1367.5</ele>
        <time>2011-07-30T17:21:57Z</time>
      </trkpt>
      <trkpt lat="45.55611" lon="6.73101">
        <ele>1368.1</ele>
        <time>2011-07-30T17:22:01Z</time>
      </trkpt>
      <trkpt lat="45.55608" lon="6.73115">
        <ele>1368.7</ele>
        <time>2011-07-30T17:22:06Z</time>
      </trkpt>
      <trkpt lat="45.55607" lon="6.73129">
        <ele>1369.4</ele>
        <time>2011-07-30T17:22:11Z</time>
      </trkpt>
      <trkpt lat="45.55605" lon="6.73144">
        <ele>1369.6</ele>
        <time>2011-07-30T17:22:16Z</time>
      </trkpt>
      <trkpt lat="45.55604" lon="6.73156">
        <ele>1370.3</ele>
        <time>2011-07-30T17:22:21Z</time>
      </trkpt>
      <trkpt lat="45.55603" lon="6.73169">
        <ele>1370.9</ele>
        <time>2011-07-30T17:22:26Z</time>
      </trkpt>
      <trkpt lat="45.55602" lon="6.73183">
        <ele>1371.5</ele>
        <time>2011-07-30T17:22:31Z</time>
      </trkpt>
      <trkpt lat="45.55602" lon="6.73198">
        <ele>1372.2</ele>
        <time>2011-07-30T17:22:36Z</time>
      </trkpt>
      <trkpt lat="45.55603" lon="6.73214">
        <ele>1372.8</ele>
        <time>2011-07-30T17:22:41Z</time>
      </trkpt>
      <trkpt lat="45.55605" lon="6.73228">
        <ele>1373.2</ele>
        <time>2011-07-30T17:22:46Z</time>
      </trkpt>
      <trkpt lat="45.55609" lon="6.7324">
        <ele>1373.6</ele>
        <time>2011-07-30T17:22:50Z</time>
      </trkpt>
      <trkpt lat="45.55613" lon="6.73254">
        <ele>1374.1</ele>
        <time>2011-07-30T17:22:55Z</time>
      </trkpt>
      <trkpt lat="45.55617" lon="6.73268">
        <ele>1370.9</ele>
        <time>2011-07-30T17:23:00Z</time>
      </trkpt>
      <trkpt lat="45.55621" lon="6.73281">
        <ele>1367.7</ele>
        <time>2011-07-30T17:23:05Z</time>
      </trkpt>
      <trkpt lat="45.55624" lon="6.73294">
        <ele>1364.5</ele>
        <time>2011-07-30T17:23:10Z</time>
      </trkpt>
      <trkpt lat="45.55626" lon="6.73307">
        <ele>1361</ele>
        <time>2011-07-30T17:23:15Z</time>
      </trkpt>
      <trkpt lat="45.55628" lon="6.7332">
        <ele>1357.1</ele>
        <time>2011-07-30T17:23:20Z</time>
      </trkpt>
      <trkpt lat="45.55631" lon="6.73334">
        <ele>1353.2</ele>
        <time>2011-07-30T17:23:26Z</time>
      </trkpt>
      <trkpt lat="45.55634" lon="6.73348">
        <ele>1349.3</ele>
        <time>2011-07-30T17:23:31Z</time>
      </trkpt>
      <trkpt lat="45.55638" lon="6.73361">
        <ele>1345.4</ele>
        <time>2011-07-30T17:23:36Z</time>
      </trkpt>
      <trkpt lat="45.5564" lon="6.73375">
        <ele>1341.5</ele>
        <time>2011-07-30T17:23:41Z</time>
      </trkpt>
      <trkpt lat="45.55642" lon="6.73389">
        <ele>1337.5</ele>
        <time>2011-07-30T17:23:46Z</time>
      </trkpt>
      <trkpt lat="45.55644" lon="6.73403">
        <ele>1332.7</ele>
        <time>2011-07-30T17:23:52Z</time>
      </trkpt>
      <trkpt lat="45.55643" lon="6.73416">
        <ele>1331.6</ele>
        <time>2011-07-30T17:23:57Z</time>
      </trkpt>
      <trkpt lat="45.55643" lon="6.73431">
        <ele>1330.5</ele>
        <time>2011-07-30T17:24:03Z</time>
      </trkpt>
      <trkpt lat="45.55643" lon="6.73446">
        <ele>1329.5</ele>
        <time>2011-07-30T17:24:09Z</time>
      </trkpt>
      <trkpt lat="45.55644" lon="6.7346">
        <ele>1328.4</ele>
        <time>2011-07-30T17:24:14Z</time>
      </trkpt>
      <trkpt lat="45.55644" lon="6.73475">
        <ele>1327</ele>
        <time>2011-07-30T17:24:19Z</time>
      </trkpt>
      <trkpt lat="45.55644" lon="6.73489">
        <ele>1325.6</ele>
        <time>2011-07-30T17:24:24Z</time>
      </trkpt>
      <trkpt lat="45.55642" lon="6.73502">
        <ele>1324.3</ele>
        <time>2011-07-30T17:24:29Z</time>
      </trkpt>
      <trkpt lat="45.5564" lon="6.73517">
        <ele>1322.9</ele>
        <time>2011-07-30T17:24:34Z</time>
      </trkpt>
      <trkpt lat="45.5564" lon="6.73531">
        <ele>1321.5</ele>
        <time>2011-07-30T17:24:38Z</time>
      </trkpt>
      <trkpt lat="45.55638" lon="6.73546">
        <ele>1322.9</ele>
        <time>2011-07-30T17:24:42Z</time>
      </trkpt>
      <trkpt lat="45.55637" lon="6.73559">
        <ele>1323.2</ele>
        <time>2011-07-30T17:24:46Z</time>
      </trkpt>
      <trkpt lat="45.55635" lon="6.73572">
        <ele>1323.5</ele>
        <time>2011-07-30T17:24:50Z</time>
      </trkpt>
      <trkpt lat="45.55632" lon="6.73587">
        <ele>1323.7</ele>
        <time>2011-07-30T17:24:55Z</time>
      </trkpt>
      <trkpt lat="45.5563" lon="6.73602">
        <ele>1324</ele>
        <time>2011-07-30T17:25:00Z</time>
      </trkpt>
      <trkpt lat="45.55627" lon="6.73615">
        <ele>1321.6</ele>
        <time>2011-07-30T17:25:05Z</time>
      </trkpt>
      <trkpt lat="45.55623" lon="6.73628">
        <ele>1319.9</ele>
        <time>2011-07-30T17:25:11Z</time>
      </trkpt>
      <trkpt lat="45.55619" lon="6.73642">
        <ele>1318.2</ele>
        <time>2011-07-30T17:25:17Z</time>
      </trkpt>
      <trkpt lat="45.55615" lon="6.73655">
        <ele>1318.2</ele>
        <time>2011-07-30T17:25:22Z</time>
      </trkpt>
      <trkpt lat="45.55625" lon="6.73655">
        <ele>1318.2</ele>
        <time>2011-07-30T17:25:29Z</time>
      </trkpt>
      <trkpt lat="45.55632" lon="6.73646">
        <ele>1318.2</ele>
        <time>2011-07-30T17:25:33Z</time>
      </trkpt>
      <trkpt lat="45.55641" lon="6.73637">
        <ele>1315.5</ele>
        <time>2011-07-30T17:25:38Z</time>
      </trkpt>
      <trkpt lat="45.55651" lon="6.73631">
        <ele>1314.5</ele>
        <time>2011-07-30T17:25:44Z</time>
      </trkpt>
      <trkpt lat="45.5566" lon="6.73624">
        <ele>1313.6</ele>
        <time>2011-07-30T17:25:49Z</time>
      </trkpt>
      <trkpt lat="45.55668" lon="6.73616">
        <ele>1309.5</ele>
        <time>2011-07-30T17:25:54Z</time>
      </trkpt>
      <trkpt lat="45.55677" lon="6.73611">
        <ele>1305.3</ele>
        <time>2011-07-30T17:26:00Z</time>
      </trkpt>
      <trkpt lat="45.55687" lon="6.73608">
        <ele>1303.7</ele>
        <time>2011-07-30T17:26:06Z</time>
      </trkpt>
      <trkpt lat="45.55696" lon="6.73605">
        <ele>1302.2</ele>
        <time>2011-07-30T17:26:12Z</time>
      </trkpt>
      <trkpt lat="45.55706" lon="6.73601">
        <ele>1300.6</ele>
        <time>2011-07-30T17:26:19Z</time>
      </trkpt>
      <trkpt lat="45.55713" lon="6.73593">
        <ele>1298.8</ele>
        <time>2011-07-30T17:26:30Z</time>
      </trkpt>
      <trkpt lat="45.5572" lon="6.73584">
        <ele>1297</ele>
        <time>2011-07-30T17:26:37Z</time>
      </trkpt>
      <trkpt lat="45.55735" lon="6.73558">
        <ele>1291.6</ele>
        <time>2011-07-30T17:26:53Z</time>
      </trkpt>
      <trkpt lat="45.55746" lon="6.73552">
        <ele>1286.3</ele>
        <time>2011-07-30T17:26:57Z</time>
      </trkpt>
      <trkpt lat="45.55755" lon="6.7355">
        <ele>1280.9</ele>
        <time>2011-07-30T17:27:01Z</time>
      </trkpt>
      <trkpt lat="45.55765" lon="6.73541">
        <ele>1275.5</ele>
        <time>2011-07-30T17:27:07Z</time>
      </trkpt>
      <trkpt lat="45.55775" lon="6.73538">
        <ele>1273.5</ele>
        <time>2011-07-30T17:27:12Z</time>
      </trkpt>
      <trkpt lat="45.55799" lon="6.73524">
        <ele>1271.4</ele>
        <time>2011-07-30T17:27:23Z</time>
      </trkpt>
      <trkpt lat="45.55808" lon="6.73518">
        <ele>1269.3</ele>
        <time>2011-07-30T17:27:28Z</time>
      </trkpt>
      <trkpt lat="45.55817" lon="6.73515">
        <ele>1267.2</ele>
        <time>2011-07-30T17:27:33Z</time>
      </trkpt>
      <trkpt lat="45.55826" lon="6.7351">
        <ele>1265.1</ele>
        <time>2011-07-30T17:27:38Z</time>
      </trkpt>
      <trkpt lat="45.55833" lon="6.735">
        <ele>1258.5</ele>
        <time>2011-07-30T17:27:42Z</time>
      </trkpt>
      <trkpt lat="45.55845" lon="6.735">
        <ele>1251.8</ele>
        <time>2011-07-30T17:27:46Z</time>
      </trkpt>
      <trkpt lat="45.55855" lon="6.73504">
        <ele>1248.7</ele>
        <time>2011-07-30T17:27:49Z</time>
      </trkpt>
      <trkpt lat="45.55864" lon="6.73504">
        <ele>1245.6</ele>
        <time>2011-07-30T17:27:53Z</time>
      </trkpt>
      <trkpt lat="45.55873" lon="6.73501">
        <ele>1242.5</ele>
        <time>2011-07-30T17:27:58Z</time>
      </trkpt>
      <trkpt lat="45.55881" lon="6.73494">
        <ele>1239.5</ele>
        <time>2011-07-30T17:28:04Z</time>
      </trkpt>
      <trkpt lat="45.55891" lon="6.73498">
        <ele>1236.4</ele>
        <time>2011-07-30T17:28:11Z</time>
      </trkpt>
      <trkpt lat="45.559" lon="6.73496">
        <ele>1233.3</ele>
        <time>2011-07-30T17:28:18Z</time>
      </trkpt>
      <trkpt lat="45.5591" lon="6.73492">
        <ele>1229.9</ele>
        <time>2011-07-30T17:28:26Z</time>
      </trkpt>
      <trkpt lat="45.55906" lon="6.73505">
        <ele>1226.5</ele>
        <time>2011-07-30T17:28:48Z</time>
      </trkpt>
      <trkpt lat="45.55905" lon="6.73519">
        <ele>1223.2</ele>
        <time>2011-07-30T17:28:55Z</time>
      </trkpt>
      <trkpt lat="45.5591" lon="6.73531">
        <ele>1222.9</ele>
        <time>2011-07-30T17:29:01Z</time>
      </trkpt>
      <trkpt lat="45.55919" lon="6.73539">
        <ele>1222.6</ele>
        <time>2011-07-30T17:29:07Z</time>
      </trkpt>
      <trkpt lat="45.55929" lon="6.73545">
        <ele>1221.5</ele>
        <time>2011-07-30T17:29:13Z</time>
      </trkpt>
      <trkpt lat="45.55937" lon="6.73553">
        <ele>1220.3</ele>
        <time>2011-07-30T17:29:18Z</time>
      </trkpt>
      <trkpt lat="45.55946" lon="6.73559">
        <ele>1219.1</ele>
        <time>2011-07-30T17:29:24Z</time>
      </trkpt>
      <trkpt lat="45.55953" lon="6.73567">
        <ele>1217.9</ele>
        <time>2011-07-30T17:29:30Z</time>
      </trkpt>
      <trkpt lat="45.55959" lon="6.73576">
        <ele>1216.7</ele>
        <time>2011-07-30T17:29:37Z</time>
      </trkpt>
      <trkpt lat="45.55969" lon="6.73583">
        <ele>1215.5</ele>
        <time>2011-07-30T17:29:45Z</time>
      </trkpt>
      <trkpt lat="45.55978" lon="6.73588">
        <ele>1214.2</ele>
        <time>2011-07-30T17:29:51Z</time>
      </trkpt>
      <trkpt lat="45.55986" lon="6.73594">
        <ele>1212.8</ele>
        <time>2011-07-30T17:29:56Z</time>
      </trkpt>
      <trkpt lat="45.55993" lon="6.73604">
        <ele>1211.5</ele>
        <time>2011-07-30T17:30:01Z</time>
      </trkpt>
      <trkpt lat="45.55997" lon="6.73616">
        <ele>1210.1</ele>
        <time>2011-07-30T17:30:06Z</time>
      </trkpt>
      <trkpt lat="45.56005" lon="6.7362">
        <ele>1208.7</ele>
        <time>2011-07-30T17:30:14Z</time>
      </trkpt>
      <trkpt lat="45.56002" lon="6.73634">
        <ele>1206.7</ele>
        <time>2011-07-30T17:30:19Z</time>
      </trkpt>
      <trkpt lat="45.56009" lon="6.73645">
        <ele>1204.8</ele>
        <time>2011-07-30T17:30:25Z</time>
      </trkpt>
      <trkpt lat="45.56018" lon="6.73638">
        <ele>1204.8</ele>
        <time>2011-07-30T17:30:30Z</time>
      </trkpt>
      <trkpt lat="45.56032" lon="6.7363">
        <ele>1204.8</ele>
        <time>2011-07-30T17:30:38Z</time>
      </trkpt>
      <trkpt lat="45.56041" lon="6.73634">
        <ele>1204.8</ele>
        <time>2011-07-30T17:30:43Z</time>
      </trkpt>
      <trkpt lat="45.56051" lon="6.73631">
        <ele>1204.8</ele>
        <time>2011-07-30T17:30:48Z</time>
      </trkpt>
      <trkpt lat="45.56051" lon="6.73618">
        <ele>1205.3</ele>
        <time>2011-07-30T17:31:00Z</time>
      </trkpt>
      <trkpt lat="45.56044" lon="6.73611">
        <ele>1205.7</ele>
        <time>2011-07-30T17:31:03Z</time>
      </trkpt>
      <trkpt lat="45.56033" lon="6.736">
        <ele>1205.9</ele>
        <time>2011-07-30T17:31:07Z</time>
      </trkpt>
      <trkpt lat="45.56024" lon="6.73592">
        <ele>1206.1</ele>
        <time>2011-07-30T17:31:13Z</time>
      </trkpt>
      <trkpt lat="45.56026" lon="6.73573">
        <ele>1206.3</ele>
        <time>2011-07-30T17:31:32Z</time>
      </trkpt>
      <trkpt lat="45.56039" lon="6.73575">
        <ele>1208</ele>
        <time>2011-07-30T17:32:14Z</time>
      </trkpt>
      <trkpt lat="45.56032" lon="6.73562">
        <ele>1209.6</ele>
        <time>2011-07-30T17:32:30Z</time>
      </trkpt>
      <trkpt lat="45.56014" lon="6.73527">
        <ele>1207.1</ele>
        <time>2011-07-30T17:32:45Z</time>
      </trkpt>
      <trkpt lat="45.56015" lon="6.73496">
        <ele>1206.6</ele>
        <time>2011-07-30T17:32:57Z</time>
      </trkpt>
      <trkpt lat="45.56024" lon="6.73492">
        <ele>1206.2</ele>
        <time>2011-07-30T17:33:02Z</time>
      </trkpt>
      <trkpt lat="45.56032" lon="6.73482">
        <ele>1205.7</ele>
        <time>2011-07-30T17:33:06Z</time>
      </trkpt>
      <trkpt lat="45.56038" lon="6.7347">
        <ele>1204.8</ele>
        <time>2011-07-30T17:33:11Z</time>
      </trkpt>
      <trkpt lat="45.56049" lon="6.73433">
        <ele>1203.9</ele>
        <time>2011-07-30T17:33:24Z</time>
      </trkpt>
      <trkpt lat="45.5603" lon="6.73396">
        <ele>1203.3</ele>
        <time>2011-07-30T17:33:35Z</time>
      </trkpt>
      <trkpt lat="45.56018" lon="6.73387">
        <ele>1202.6</ele>
        <time>2011-07-30T17:33:37Z</time>
      </trkpt>
      <trkpt lat="45.5601" lon="6.73379">
        <ele>1202</ele>
        <time>2011-07-30T17:33:39Z</time>
      </trkpt>
      <trkpt lat="45.56006" lon="6.73366">
        <ele>1201.4</ele>
        <time>2011-07-30T17:33:43Z</time>
      </trkpt>
      <trkpt lat="45.56004" lon="6.73353">
        <ele>1200.2</ele>
        <time>2011-07-30T17:33:46Z</time>
      </trkpt>
      <trkpt lat="45.56003" lon="6.73338">
        <ele>1201.3</ele>
        <time>2011-07-30T17:33:50Z</time>
      </trkpt>
      <trkpt lat="45.56" lon="6.73325">
        <ele>1200.3</ele>
        <time>2011-07-30T17:33:55Z</time>
      </trkpt>
      <trkpt lat="45.55995" lon="6.73314">
        <ele>1199.3</ele>
        <time>2011-07-30T17:34:00Z</time>
      </trkpt>
      <trkpt lat="45.5599" lon="6.73303">
        <ele>1198.3</ele>
        <time>2011-07-30T17:34:05Z</time>
      </trkpt>
      <trkpt lat="45.55986" lon="6.73291">
        <ele>1197</ele>
        <time>2011-07-30T17:34:10Z</time>
      </trkpt>
      <trkpt lat="45.55983" lon="6.73279">
        <ele>1195.7</ele>
        <time>2011-07-30T17:34:16Z</time>
      </trkpt>
      <trkpt lat="45.55982" lon="6.73251">
        <ele>1194.5</ele>
        <time>2011-07-30T17:34:30Z</time>
      </trkpt>
      <trkpt lat="45.55979" lon="6.73238">
        <ele>1193.2</ele>
        <time>2011-07-30T17:34:35Z</time>
      </trkpt>
      <trkpt lat="45.55983" lon="6.73221">
        <ele>1191.9</ele>
        <time>2011-07-30T17:34:50Z</time>
      </trkpt>
      <trkpt lat="45.55979" lon="6.73207">
        <ele>1189.4</ele>
        <time>2011-07-30T17:34:55Z</time>
      </trkpt>
      <trkpt lat="45.55977" lon="6.73192">
        <ele>1187.4</ele>
        <time>2011-07-30T17:35:00Z</time>
      </trkpt>
      <trkpt lat="45.55978" lon="6.73178">
        <ele>1185.4</ele>
        <time>2011-07-30T17:35:08Z</time>
      </trkpt>
      <trkpt lat="45.55974" lon="6.73164">
        <ele>1183.4</ele>
        <time>2011-07-30T17:35:14Z</time>
      </trkpt>
      <trkpt lat="45.55973" lon="6.73146">
        <ele>1181.4</ele>
        <time>2011-07-30T17:35:20Z</time>
      </trkpt>
      <trkpt lat="45.55972" lon="6.73132">
        <ele>1179.4</ele>
        <time>2011-07-30T17:35:26Z</time>
      </trkpt>
      <trkpt lat="45.55973" lon="6.73118">
        <ele>1178.1</ele>
        <time>2011-07-30T17:35:33Z</time>
      </trkpt>
      <trkpt lat="45.55977" lon="6.73104">
        <ele>1176.3</ele>
        <time>2011-07-30T17:35:38Z</time>
      </trkpt>
      <trkpt lat="45.55979" lon="6.73089">
        <ele>1174.5</ele>
        <time>2011-07-30T17:35:42Z</time>
      </trkpt>
      <trkpt lat="45.55986" lon="6.7308">
        <ele>1172.6</ele>
        <time>2011-07-30T17:35:47Z</time>
      </trkpt>
      <trkpt lat="45.5599" lon="6.73067">
        <ele>1170.8</ele>
        <time>2011-07-30T17:35:53Z</time>
      </trkpt>
      <trkpt lat="45.55993" lon="6.73054">
        <ele>1170.3</ele>
        <time>2011-07-30T17:35:58Z</time>
      </trkpt>
      <trkpt lat="45.55999" lon="6.73041">
        <ele>1169.7</ele>
        <time>2011-07-30T17:36:03Z</time>
      </trkpt>
      <trkpt lat="45.56004" lon="6.7303">
        <ele>1169.2</ele>
        <time>2011-07-30T17:36:07Z</time>
      </trkpt>
      <trkpt lat="45.5601" lon="6.7302">
        <ele>1163.2</ele>
        <time>2011-07-30T17:36:11Z</time>
      </trkpt>
      <trkpt lat="45.56014" lon="6.73008">
        <ele>1157.2</ele>
        <time>2011-07-30T17:36:14Z</time>
      </trkpt>
      <trkpt lat="45.5602" lon="6.72997">
        <ele>1156.1</ele>
        <time>2011-07-30T17:36:18Z</time>
      </trkpt>
      <trkpt lat="45.56029" lon="6.72988">
        <ele>1155</ele>
        <time>2011-07-30T17:36:23Z</time>
      </trkpt>
      <trkpt lat="45.56041" lon="6.72978">
        <ele>1154.5</ele>
        <time>2011-07-30T17:36:31Z</time>
      </trkpt>
      <trkpt lat="45.56047" lon="6.72968">
        <ele>1153.1</ele>
        <time>2011-07-30T17:36:37Z</time>
      </trkpt>
      <trkpt lat="45.56048" lon="6.72955">
        <ele>1151.7</ele>
        <time>2011-07-30T17:36:44Z</time>
      </trkpt>
      <trkpt lat="45.56044" lon="6.72933">
        <ele>1149.6</ele>
        <time>2011-07-30T17:36:51Z</time>
      </trkpt>
      <trkpt lat="45.56039" lon="6.72919">
        <ele>1147.5</ele>
        <time>2011-07-30T17:36:56Z</time>
      </trkpt>
      <trkpt lat="45.56022" lon="6.72886">
        <ele>1145.5</ele>
        <time>2011-07-30T17:37:08Z</time>
      </trkpt>
      <trkpt lat="45.56023" lon="6.72847">
        <ele>1143.4</ele>
        <time>2011-07-30T17:37:23Z</time>
      </trkpt>
      <trkpt lat="45.5602" lon="6.72805">
        <ele>1146.7</ele>
        <time>2011-07-30T17:37:39Z</time>
      </trkpt>
      <trkpt lat="45.56012" lon="6.72792">
        <ele>1150.1</ele>
        <time>2011-07-30T17:37:42Z</time>
      </trkpt>
      <trkpt lat="45.56006" lon="6.72782">
        <ele>1147.5</ele>
        <time>2011-07-30T17:37:45Z</time>
      </trkpt>
      <trkpt lat="45.56002" lon="6.72771">
        <ele>1145</ele>
        <time>2011-07-30T17:37:49Z</time>
      </trkpt>
      <trkpt lat="45.55996" lon="6.72758">
        <ele>1142</ele>
        <time>2011-07-30T17:37:56Z</time>
      </trkpt>
      <trkpt lat="45.5599" lon="6.72742">
        <ele>1139.8</ele>
        <time>2011-07-30T17:38:03Z</time>
      </trkpt>
      <trkpt lat="45.55982" lon="6.72732">
        <ele>1137.6</ele>
        <time>2011-07-30T17:38:07Z</time>
      </trkpt>
      <trkpt lat="45.55967" lon="6.72698">
        <ele>1137.7</ele>
        <time>2011-07-30T17:38:22Z</time>
      </trkpt>
      <trkpt lat="45.55967" lon="6.7266">
        <ele>1137.8</ele>
        <time>2011-07-30T17:38:45Z</time>
      </trkpt>
      <trkpt lat="45.55979" lon="6.72625">
        <ele>1137.9</ele>
        <time>2011-07-30T17:39:02Z</time>
      </trkpt>
      <trkpt lat="45.55981" lon="6.72584">
        <ele>1137.2</ele>
        <time>2011-07-30T17:39:15Z</time>
      </trkpt>
      <trkpt lat="45.55971" lon="6.72547">
        <ele>1136.5</ele>
        <time>2011-07-30T17:39:25Z</time>
      </trkpt>
      <trkpt lat="45.5596" lon="6.72511">
        <ele>1135.7</ele>
        <time>2011-07-30T17:39:37Z</time>
      </trkpt>
      <trkpt lat="45.55949" lon="6.72476">
        <ele>1136</ele>
        <time>2011-07-30T17:39:46Z</time>
      </trkpt>
      <trkpt lat="45.55942" lon="6.72467">
        <ele>1136.3</ele>
        <time>2011-07-30T17:39:48Z</time>
      </trkpt>
      <trkpt lat="45.55934" lon="6.72457">
        <ele>1136.2</ele>
        <time>2011-07-30T17:39:51Z</time>
      </trkpt>
      <trkpt lat="45.55921" lon="6.72453">
        <ele>1136.1</ele>
        <time>2011-07-30T17:39:55Z</time>
      </trkpt>
      <trkpt lat="45.55912" lon="6.72424">
        <ele>1138.9</ele>
        <time>2011-07-30T17:40:14Z</time>
      </trkpt>
      <trkpt lat="45.55917" lon="6.72414">
        <ele>1140.2</ele>
        <time>2011-07-30T17:40:23Z</time>
      </trkpt>
      <trkpt lat="45.55898" lon="6.72381">
        <ele>1141.5</ele>
        <time>2011-07-30T17:40:35Z</time>
      </trkpt>
      <trkpt lat="45.55889" lon="6.72375">
        <ele>1141.3</ele>
        <time>2011-07-30T17:40:38Z</time>
      </trkpt>
      <trkpt lat="45.55878" lon="6.72363">
        <ele>1141.9</ele>
        <time>2011-07-30T17:40:46Z</time>
      </trkpt>
      <trkpt lat="45.5587" lon="6.72355">
        <ele>1142.5</ele>
        <time>2011-07-30T17:40:55Z</time>
      </trkpt>
      <trkpt lat="45.55848" lon="6.7233">
        <ele>1143.2</ele>
        <time>2011-07-30T17:41:30Z</time>
      </trkpt>
      <trkpt lat="45.55825" lon="6.72308">
        <ele>1142.5</ele>
        <time>2011-07-30T17:41:48Z</time>
      </trkpt>
      <trkpt lat="45.5582" lon="6.72271">
        <ele>1145.2</ele>
        <time>2011-07-30T17:42:15Z</time>
      </trkpt>
      <trkpt lat="45.55815" lon="6.72259">
        <ele>1148.7</ele>
        <time>2011-07-30T17:42:20Z</time>
      </trkpt>
      <trkpt lat="45.55804" lon="6.72246">
        <ele>1152.3</ele>
        <time>2011-07-30T17:42:33Z</time>
      </trkpt>
      <trkpt lat="45.55798" lon="6.72237">
        <ele>1152.9</ele>
        <time>2011-07-30T17:42:40Z</time>
      </trkpt>
      <trkpt lat="45.55794" lon="6.72198">
        <ele>1153.5</ele>
        <time>2011-07-30T17:42:58Z</time>
      </trkpt>
      <trkpt lat="45.5579" lon="6.72179">
        <ele>1154.2</ele>
        <time>2011-07-30T17:43:05Z</time>
      </trkpt>
      <trkpt lat="45.55786" lon="6.72167">
        <ele>1156.3</ele>
        <time>2011-07-30T17:43:11Z</time>
      </trkpt>
      <trkpt lat="45.55783" lon="6.72154">
        <ele>1157.2</ele>
        <time>2011-07-30T17:43:19Z</time>
      </trkpt>
      <trkpt lat="45.55766" lon="6.72153">
        <ele>1158.1</ele>
        <time>2011-07-30T17:43:42Z</time>
      </trkpt>
      <trkpt lat="45.55757" lon="6.72154">
        <ele>1159</ele>
        <time>2011-07-30T17:43:54Z</time>
      </trkpt>
      <trkpt lat="45.55746" lon="6.72153">
        <ele>1161.3</ele>
        <time>2011-07-30T17:44:08Z</time>
      </trkpt>
      <trkpt lat="45.55737" lon="6.72143">
        <ele>1163.2</ele>
        <time>2011-07-30T17:44:23Z</time>
      </trkpt>
      <trkpt lat="45.5573" lon="6.72132">
        <ele>1165.1</ele>
        <time>2011-07-30T17:44:29Z</time>
      </trkpt>
      <trkpt lat="45.55722" lon="6.72123">
        <ele>1167</ele>
        <time>2011-07-30T17:44:33Z</time>
      </trkpt>
      <trkpt lat="45.55714" lon="6.72112">
        <ele>1167.5</ele>
        <time>2011-07-30T17:44:37Z</time>
      </trkpt>
      <trkpt lat="45.55711" lon="6.721">
        <ele>1167.9</ele>
        <time>2011-07-30T17:44:43Z</time>
      </trkpt>
      <trkpt lat="45.55706" lon="6.72088">
        <ele>1168.4</ele>
        <time>2011-07-30T17:44:49Z</time>
      </trkpt>
      <trkpt lat="45.55698" lon="6.72071">
        <ele>1168.8</ele>
        <time>2011-07-30T17:44:56Z</time>
      </trkpt>
      <trkpt lat="45.5569" lon="6.72062">
        <ele>1170.5</ele>
        <time>2011-07-30T17:45:04Z</time>
      </trkpt>
      <trkpt lat="45.55688" lon="6.72047">
        <ele>1172.1</ele>
        <time>2011-07-30T17:45:11Z</time>
      </trkpt>
      <trkpt lat="45.55687" lon="6.72034">
        <ele>1173.7</ele>
        <time>2011-07-30T17:45:17Z</time>
      </trkpt>
      <trkpt lat="45.55685" lon="6.72021">
        <ele>1175.4</ele>
        <time>2011-07-30T17:45:18Z</time>
      </trkpt>
      <trkpt lat="45.55685" lon="6.72008">
        <ele>1173.1</ele>
        <time>2011-07-30T17:45:22Z</time>
      </trkpt>
      <trkpt lat="45.55684" lon="6.71992">
        <ele>1170.8</ele>
        <time>2011-07-30T17:45:34Z</time>
      </trkpt>
      <trkpt lat="45.55675" lon="6.71983">
        <ele>1162.2</ele>
        <time>2011-07-30T17:45:41Z</time>
      </trkpt>
      <trkpt lat="45.55666" lon="6.71987">
        <ele>1155</ele>
        <time>2011-07-30T17:45:43Z</time>
      </trkpt>
      <trkpt lat="45.55668" lon="6.71973">
        <ele>1154.3</ele>
        <time>2011-07-30T17:45:57Z</time>
      </trkpt>
      <trkpt lat="45.55683" lon="6.71939">
        <ele>1153.9</ele>
        <time>2011-07-30T17:46:06Z</time>
      </trkpt>
      <trkpt lat="45.55699" lon="6.71908">
        <ele>1153.5</ele>
        <time>2011-07-30T17:46:22Z</time>
      </trkpt>
      <trkpt lat="45.55717" lon="6.71879">
        <ele>1153.2</ele>
        <time>2011-07-30T17:46:40Z</time>
      </trkpt>
      <trkpt lat="45.5572" lon="6.71838">
        <ele>1152.8</ele>
        <time>2011-07-30T17:46:52Z</time>
      </trkpt>
      <trkpt lat="45.55696" lon="6.7182">
        <ele>1153.1</ele>
        <time>2011-07-30T17:47:13Z</time>
      </trkpt>
      <trkpt lat="45.55701" lon="6.7178">
        <ele>1153.4</ele>
        <time>2011-07-30T17:47:38Z</time>
      </trkpt>
      <trkpt lat="45.55703" lon="6.71761">
        <ele>1149.7</ele>
        <time>2011-07-30T17:47:41Z</time>
      </trkpt>
      <trkpt lat="45.55704" lon="6.71747">
        <ele>1146.1</ele>
        <time>2011-07-30T17:47:43Z</time>
      </trkpt>
      <trkpt lat="45.55702" lon="6.71731">
        <ele>1148.8</ele>
        <time>2011-07-30T17:47:46Z</time>
      </trkpt>
      <trkpt lat="45.55705" lon="6.71718">
        <ele>1151.5</ele>
        <time>2011-07-30T17:47:51Z</time>
      </trkpt>
      <trkpt lat="45.55709" lon="6.71706">
        <ele>1149.5</ele>
        <time>2011-07-30T17:48:00Z</time>
      </trkpt>
      <trkpt lat="45.55719" lon="6.71704">
        <ele>1147</ele>
        <time>2011-07-30T17:48:12Z</time>
      </trkpt>
      <trkpt lat="45.55724" lon="6.71692">
        <ele>1140.5</ele>
        <time>2011-07-30T17:48:27Z</time>
      </trkpt>
      <trkpt lat="45.55739" lon="6.71658">
        <ele>1133.9</ele>
        <time>2011-07-30T17:48:43Z</time>
      </trkpt>
      <trkpt lat="45.55758" lon="6.7163">
        <ele>1127.4</ele>
        <time>2011-07-30T17:48:55Z</time>
      </trkpt>
      <trkpt lat="45.55773" lon="6.71596">
        <ele>1119.3</ele>
        <time>2011-07-30T17:49:11Z</time>
      </trkpt>
      <trkpt lat="45.55786" lon="6.71562">
        <ele>1111.2</ele>
        <time>2011-07-30T17:49:22Z</time>
      </trkpt>
      <trkpt lat="45.55805" lon="6.71533">
        <ele>1107.8</ele>
        <time>2011-07-30T17:49:33Z</time>
      </trkpt>
      <trkpt lat="45.55828" lon="6.71509">
        <ele>1104.5</ele>
        <time>2011-07-30T17:49:45Z</time>
      </trkpt>
      <trkpt lat="45.55807" lon="6.71539">
        <ele>1101.1</ele>
        <time>2011-07-30T17:50:12Z</time>
      </trkpt>
      <trkpt lat="45.55801" lon="6.71552">
        <ele>1098.6</ele>
        <time>2011-07-30T17:50:16Z</time>
      </trkpt>
      <trkpt lat="45.55796" lon="6.71565">
        <ele>1094.5</ele>
        <time>2011-07-30T17:50:20Z</time>
      </trkpt>
      <trkpt lat="45.55805" lon="6.7157">
        <ele>1090.5</ele>
        <time>2011-07-30T17:50:29Z</time>
      </trkpt>
      <trkpt lat="45.55814" lon="6.71561">
        <ele>1090.5</ele>
        <time>2011-07-30T17:50:34Z</time>
      </trkpt>
      <trkpt lat="45.55816" lon="6.71548">
        <ele>1090.5</ele>
        <time>2011-07-30T17:50:38Z</time>
      </trkpt>
      <trkpt lat="45.55823" lon="6.71539">
        <ele>1090.5</ele>
        <time>2011-07-30T17:50:42Z</time>
      </trkpt>
      <trkpt lat="45.5583" lon="6.71529">
        <ele>1091.4</ele>
        <time>2011-07-30T17:50:46Z</time>
      </trkpt>
      <trkpt lat="45.55839" lon="6.71522">
        <ele>1091.3</ele>
        <time>2011-07-30T17:50:50Z</time>
      </trkpt>
      <trkpt lat="45.55839" lon="6.71507">
        <ele>1091.2</ele>
        <time>2011-07-30T17:50:55Z</time>
      </trkpt>
      <trkpt lat="45.55832" lon="6.71494">
        <ele>1091.1</ele>
        <time>2011-07-30T17:50:59Z</time>
      </trkpt>
      <trkpt lat="45.55828" lon="6.71483">
        <ele>1091</ele>
        <time>2011-07-30T17:51:04Z</time>
      </trkpt>
      <trkpt lat="45.55831" lon="6.71469">
        <ele>1088</ele>
        <time>2011-07-30T17:51:10Z</time>
      </trkpt>
      <trkpt lat="45.55835" lon="6.71457">
        <ele>1085</ele>
        <time>2011-07-30T17:51:16Z</time>
      </trkpt>
      <trkpt lat="45.55842" lon="6.71449">
        <ele>1082</ele>
        <time>2011-07-30T17:51:23Z</time>
      </trkpt>
      <trkpt lat="45.55859" lon="6.71418">
        <ele>1079</ele>
        <time>2011-07-30T17:51:36Z</time>
      </trkpt>
      <trkpt lat="45.55861" lon="6.71404">
        <ele>1076</ele>
        <time>2011-07-30T17:51:41Z</time>
      </trkpt>
      <trkpt lat="45.5585" lon="6.71367">
        <ele>1068.8</ele>
        <time>2011-07-30T17:51:58Z</time>
      </trkpt>
      <trkpt lat="45.55841" lon="6.71358">
        <ele>1062.8</ele>
        <time>2011-07-30T17:52:01Z</time>
      </trkpt>
      <trkpt lat="45.55851" lon="6.7136">
        <ele>1057.8</ele>
        <time>2011-07-30T17:52:17Z</time>
      </trkpt>
      <trkpt lat="45.55862" lon="6.71364">
        <ele>1052.8</ele>
        <time>2011-07-30T17:52:22Z</time>
      </trkpt>
      <trkpt lat="45.5587" lon="6.71369">
        <ele>1047.8</ele>
        <time>2011-07-30T17:52:26Z</time>
      </trkpt>
      <trkpt lat="45.5588" lon="6.71375">
        <ele>1042.8</ele>
        <time>2011-07-30T17:52:30Z</time>
      </trkpt>
      <trkpt lat="45.55889" lon="6.7138">
        <ele>1039.8</ele>
        <time>2011-07-30T17:52:34Z</time>
      </trkpt>
      <trkpt lat="45.559" lon="6.71386">
        <ele>1036.8</ele>
        <time>2011-07-30T17:52:38Z</time>
      </trkpt>
      <trkpt lat="45.55908" lon="6.71395">
        <ele>1029.2</ele>
        <time>2011-07-30T17:52:41Z</time>
      </trkpt>
      <trkpt lat="45.55917" lon="6.71401">
        <ele>1026.2</ele>
        <time>2011-07-30T17:52:44Z</time>
      </trkpt>
      <trkpt lat="45.55927" lon="6.71408">
        <ele>1023.9</ele>
        <time>2011-07-30T17:52:48Z</time>
      </trkpt>
      <trkpt lat="45.55938" lon="6.71414">
        <ele>1025.8</ele>
        <time>2011-07-30T17:52:52Z</time>
      </trkpt>
      <trkpt lat="45.55947" lon="6.71417">
        <ele>1026.2</ele>
        <time>2011-07-30T17:52:55Z</time>
      </trkpt>
      <trkpt lat="45.55967" lon="6.71446">
        <ele>1026.5</ele>
        <time>2011-07-30T17:53:08Z</time>
      </trkpt>
      <trkpt lat="45.5596" lon="6.7146">
        <ele>1026.9</ele>
        <time>2011-07-30T17:53:10Z</time>
      </trkpt>
      <trkpt lat="45.55941" lon="6.7149">
        <ele>1027.3</ele>
        <time>2011-07-30T17:53:15Z</time>
      </trkpt>
      <trkpt lat="45.55921" lon="6.7152">
        <ele>1027.6</ele>
        <time>2011-07-30T17:53:22Z</time>
      </trkpt>
      <trkpt lat="45.55911" lon="6.71559">
        <ele>1028</ele>
        <time>2011-07-30T17:53:33Z</time>
      </trkpt>
      <trkpt lat="45.55912" lon="6.71587">
        <ele>1028.4</ele>
        <time>2011-07-30T17:53:40Z</time>
      </trkpt>
      <trkpt lat="45.55912" lon="6.71601">
        <ele>1029.1</ele>
        <time>2011-07-30T17:53:44Z</time>
      </trkpt>
      <trkpt lat="45.55916" lon="6.71622">
        <ele>1025.2</ele>
        <time>2011-07-30T17:53:51Z</time>
      </trkpt>
      <trkpt lat="45.55925" lon="6.71624">
        <ele>1020.5</ele>
        <time>2011-07-30T17:53:56Z</time>
      </trkpt>
      <trkpt lat="45.55946" lon="6.71598">
        <ele>1015.9</ele>
        <time>2011-07-30T17:54:09Z</time>
      </trkpt>
      <trkpt lat="45.55958" lon="6.7156">
        <ele>1010.9</ele>
        <time>2011-07-30T17:54:23Z</time>
      </trkpt>
      <trkpt lat="45.55967" lon="6.71536">
        <ele>1001.9</ele>
        <time>2011-07-30T17:54:29Z</time>
      </trkpt>
      <trkpt lat="45.55975" lon="6.71498">
        <ele>992.9</ele>
        <time>2011-07-30T17:54:37Z</time>
      </trkpt>
      <trkpt lat="45.55993" lon="6.71468">
        <ele>983.9</ele>
        <time>2011-07-30T17:54:48Z</time>
      </trkpt>
      <trkpt lat="45.56003" lon="6.71466">
        <ele>974.4</ele>
        <time>2011-07-30T17:54:52Z</time>
      </trkpt>
      <trkpt lat="45.56029" lon="6.71452">
        <ele>964.8</ele>
        <time>2011-07-30T17:54:59Z</time>
      </trkpt>
      <trkpt lat="45.56069" lon="6.71418">
        <ele>952.7</ele>
        <time>2011-07-30T17:55:11Z</time>
      </trkpt>
      <trkpt lat="45.56078" lon="6.7141">
        <ele>944.9</ele>
        <time>2011-07-30T17:55:14Z</time>
      </trkpt>
      <trkpt lat="45.56097" lon="6.71381">
        <ele>939.6</ele>
        <time>2011-07-30T17:55:25Z</time>
      </trkpt>
      <trkpt lat="45.56117" lon="6.71324">
        <ele>934.4</ele>
        <time>2011-07-30T17:55:41Z</time>
      </trkpt>
      <trkpt lat="45.56125" lon="6.71307">
        <ele>929.1</ele>
        <time>2011-07-30T17:55:47Z</time>
      </trkpt>
      <trkpt lat="45.56152" lon="6.71315">
        <ele>924.5</ele>
        <time>2011-07-30T17:56:08Z</time>
      </trkpt>
      <trkpt lat="45.56152" lon="6.71341">
        <ele>924.5</ele>
        <time>2011-07-30T17:56:23Z</time>
      </trkpt>
      <trkpt lat="45.5612" lon="6.71335">
        <ele>924.5</ele>
        <time>2011-07-30T17:56:26Z</time>
      </trkpt>
      <trkpt lat="45.561" lon="6.71331">
        <ele>924.5</ele>
        <time>2011-07-30T17:56:28Z</time>
      </trkpt>
      <trkpt lat="45.56087" lon="6.71329">
        <ele>925.1</ele>
        <time>2011-07-30T17:56:30Z</time>
      </trkpt>
      <trkpt lat="45.56068" lon="6.71346">
        <ele>926.4</ele>
        <time>2011-07-30T17:56:39Z</time>
      </trkpt>
      <trkpt lat="45.5607" lon="6.71387">
        <ele>930.2</ele>
        <time>2011-07-30T17:56:52Z</time>
      </trkpt>
      <trkpt lat="45.56076" lon="6.71426">
        <ele>934</ele>
        <time>2011-07-30T17:57:03Z</time>
      </trkpt>
      <trkpt lat="45.56072" lon="6.71438">
        <ele>935.3</ele>
        <time>2011-07-30T17:57:06Z</time>
      </trkpt>
      <trkpt lat="45.56066" lon="6.7146">
        <ele>936.5</ele>
        <time>2011-07-30T17:57:12Z</time>
      </trkpt>
      <trkpt lat="45.56069" lon="6.71476">
        <ele>937.8</ele>
        <time>2011-07-30T17:57:16Z</time>
      </trkpt>
      <trkpt lat="45.56076" lon="6.71498">
        <ele>939.1</ele>
        <time>2011-07-30T17:57:22Z</time>
      </trkpt>
      <trkpt lat="45.56084" lon="6.7151">
        <ele>935.5</ele>
        <time>2011-07-30T17:57:26Z</time>
      </trkpt>
      <trkpt lat="45.56091" lon="6.7152">
        <ele>932</ele>
        <time>2011-07-30T17:57:29Z</time>
      </trkpt>
      <trkpt lat="45.561" lon="6.71528">
        <ele>932.5</ele>
        <time>2011-07-30T17:57:32Z</time>
      </trkpt>
      <trkpt lat="45.56109" lon="6.71534">
        <ele>932.9</ele>
        <time>2011-07-30T17:57:35Z</time>
      </trkpt>
      <trkpt lat="45.56119" lon="6.71542">
        <ele>932.6</ele>
        <time>2011-07-30T17:57:39Z</time>
      </trkpt>
      <trkpt lat="45.56143" lon="6.71563">
        <ele>931</ele>
        <time>2011-07-30T17:57:50Z</time>
      </trkpt>
      <trkpt lat="45.56149" lon="6.71595">
        <ele>933.1</ele>
        <time>2011-07-30T17:57:59Z</time>
      </trkpt>
      <trkpt lat="45.56109" lon="6.71612">
        <ele>935.2</ele>
        <time>2011-07-30T17:58:01Z</time>
      </trkpt>
      <trkpt lat="45.56089" lon="6.71619">
        <ele>937.3</ele>
        <time>2011-07-30T17:58:02Z</time>
      </trkpt>
      <trkpt lat="45.56074" lon="6.71625">
        <ele>939.4</ele>
        <time>2011-07-30T17:58:03Z</time>
      </trkpt>
      <trkpt lat="45.56053" lon="6.71635">
        <ele>941.5</ele>
        <time>2011-07-30T17:58:05Z</time>
      </trkpt>
      <trkpt lat="45.56042" lon="6.71642">
        <ele>947.8</ele>
        <time>2011-07-30T17:58:07Z</time>
      </trkpt>
      <trkpt lat="45.56033" lon="6.71645">
        <ele>954.2</ele>
        <time>2011-07-30T17:58:10Z</time>
      </trkpt>
      <trkpt lat="45.56024" lon="6.71654">
        <ele>955.8</ele>
        <time>2011-07-30T17:58:14Z</time>
      </trkpt>
      <trkpt lat="45.5602" lon="6.71668">
        <ele>957.5</ele>
        <time>2011-07-30T17:58:18Z</time>
      </trkpt>
      <trkpt lat="45.56018" lon="6.71683">
        <ele>959.1</ele>
        <time>2011-07-30T17:58:22Z</time>
      </trkpt>
      <trkpt lat="45.56014" lon="6.71696">
        <ele>962.1</ele>
        <time>2011-07-30T17:58:26Z</time>
      </trkpt>
      <trkpt lat="45.56011" lon="6.71718">
        <ele>958.6</ele>
        <time>2011-07-30T17:58:32Z</time>
      </trkpt>
      <trkpt lat="45.5601" lon="6.71732">
        <ele>957</ele>
        <time>2011-07-30T17:58:36Z</time>
      </trkpt>
      <trkpt lat="45.56004" lon="6.71743">
        <ele>955.4</ele>
        <time>2011-07-30T17:58:40Z</time>
      </trkpt>
      <trkpt lat="45.56003" lon="6.71759">
        <ele>951.5</ele>
        <time>2011-07-30T17:58:45Z</time>
      </trkpt>
      <trkpt lat="45.56022" lon="6.71788">
        <ele>947.7</ele>
        <time>2011-07-30T17:58:55Z</time>
      </trkpt>
      <trkpt lat="45.5605" lon="6.718">
        <ele>943.9</ele>
        <time>2011-07-30T17:59:03Z</time>
      </trkpt>
      <trkpt lat="45.56078" lon="6.71814">
        <ele>937.9</ele>
        <time>2011-07-30T17:59:08Z</time>
      </trkpt>
      <trkpt lat="45.56104" lon="6.7183">
        <ele>932.6</ele>
        <time>2011-07-30T17:59:13Z</time>
      </trkpt>
      <trkpt lat="45.56132" lon="6.71839">
        <ele>927.4</ele>
        <time>2011-07-30T17:59:18Z</time>
      </trkpt>
      <trkpt lat="45.5616" lon="6.7185">
        <ele>920.3</ele>
        <time>2011-07-30T17:59:24Z</time>
      </trkpt>
      <trkpt lat="45.56187" lon="6.71863">
        <ele>913.2</ele>
        <time>2011-07-30T17:59:31Z</time>
      </trkpt>
      <trkpt lat="45.56216" lon="6.71864">
        <ele>907.5</ele>
        <time>2011-07-30T17:59:39Z</time>
      </trkpt>
      <trkpt lat="45.56244" lon="6.7186">
        <ele>900.1</ele>
        <time>2011-07-30T17:59:48Z</time>
      </trkpt>
      <trkpt lat="45.56271" lon="6.71867">
        <ele>892.6</ele>
        <time>2011-07-30T17:59:57Z</time>
      </trkpt>
      <trkpt lat="45.563" lon="6.71858">
        <ele>885.7</ele>
        <time>2011-07-30T18:00:07Z</time>
      </trkpt>
      <trkpt lat="45.56327" lon="6.71847">
        <ele>880.5</ele>
        <time>2011-07-30T18:00:25Z</time>
      </trkpt>
      <trkpt lat="45.56332" lon="6.71797">
        <ele>874.9</ele>
        <time>2011-07-30T18:00:33Z</time>
      </trkpt>
      <trkpt lat="45.56331" lon="6.71758">
        <ele>871.5</ele>
        <time>2011-07-30T18:00:44Z</time>
      </trkpt>
      <trkpt lat="45.56325" lon="6.71743">
        <ele>868.5</ele>
        <time>2011-07-30T18:00:49Z</time>
      </trkpt>
      <trkpt lat="45.56298" lon="6.71715">
        <ele>865.6</ele>
        <time>2011-07-30T18:01:05Z</time>
      </trkpt>
      <trkpt lat="45.5626" lon="6.71676">
        <ele>864.5</ele>
        <time>2011-07-30T18:01:23Z</time>
      </trkpt>
      <trkpt lat="45.56244" lon="6.71614">
        <ele>866.4</ele>
        <time>2011-07-30T18:01:45Z</time>
      </trkpt>
      <trkpt lat="45.5624" lon="6.71547">
        <ele>869.5</ele>
        <time>2011-07-30T18:01:58Z</time>
      </trkpt>
      <trkpt lat="45.56241" lon="6.71531">
        <ele>872.7</ele>
        <time>2011-07-30T18:02:03Z</time>
      </trkpt>
      <trkpt lat="45.56237" lon="6.71492">
        <ele>875.9</ele>
        <time>2011-07-30T18:02:19Z</time>
      </trkpt>
      <trkpt lat="45.56223" lon="6.71458">
        <ele>880</ele>
        <time>2011-07-30T18:02:38Z</time>
      </trkpt>
      <trkpt lat="45.56202" lon="6.71435">
        <ele>882.4</ele>
        <time>2011-07-30T18:02:59Z</time>
      </trkpt>
      <trkpt lat="45.562" lon="6.71392">
        <ele>887.7</ele>
        <time>2011-07-30T18:03:19Z</time>
      </trkpt>
      <trkpt lat="45.56177" lon="6.71367">
        <ele>892.5</ele>
        <time>2011-07-30T18:03:42Z</time>
      </trkpt>
      <trkpt lat="45.56162" lon="6.71328">
        <ele>896.6</ele>
        <time>2011-07-30T18:03:57Z</time>
      </trkpt>
      <trkpt lat="45.56152" lon="6.7129">
        <ele>900.8</ele>
        <time>2011-07-30T18:04:17Z</time>
      </trkpt>
      <trkpt lat="45.56134" lon="6.71259">
        <ele>904.4</ele>
        <time>2011-07-30T18:04:30Z</time>
      </trkpt>
      <trkpt lat="45.56124" lon="6.71222">
        <ele>907.2</ele>
        <time>2011-07-30T18:04:47Z</time>
      </trkpt>
      <trkpt lat="45.56127" lon="6.7118">
        <ele>910</ele>
        <time>2011-07-30T18:05:06Z</time>
      </trkpt>
      <trkpt lat="45.5612" lon="6.71161">
        <ele>912.8</ele>
        <time>2011-07-30T18:05:12Z</time>
      </trkpt>
      <trkpt lat="45.56095" lon="6.71142">
        <ele>915.2</ele>
        <time>2011-07-30T18:05:22Z</time>
      </trkpt>
      <trkpt lat="45.5607" lon="6.71122">
        <ele>921.6</ele>
        <time>2011-07-30T18:05:32Z</time>
      </trkpt>
      <trkpt lat="45.56043" lon="6.71104">
        <ele>924.7</ele>
        <time>2011-07-30T18:05:41Z</time>
      </trkpt>
      <trkpt lat="45.56015" lon="6.71086">
        <ele>925.3</ele>
        <time>2011-07-30T18:05:47Z</time>
      </trkpt>
      <trkpt lat="45.55992" lon="6.7106">
        <ele>924.1</ele>
        <time>2011-07-30T18:05:52Z</time>
      </trkpt>
      <trkpt lat="45.55966" lon="6.71037">
        <ele>922.9</ele>
        <time>2011-07-30T18:05:58Z</time>
      </trkpt>
      <trkpt lat="45.55958" lon="6.71028">
        <ele>921.7</ele>
        <time>2011-07-30T18:06:04Z</time>
      </trkpt>
      <trkpt lat="45.55987" lon="6.71017">
        <ele>918.1</ele>
        <time>2011-07-30T18:06:20Z</time>
      </trkpt>
      <trkpt lat="45.56015" lon="6.71021">
        <ele>912.1</ele>
        <time>2011-07-30T18:06:26Z</time>
      </trkpt>
      <trkpt lat="45.56064" lon="6.71028">
        <ele>906.1</ele>
        <time>2011-07-30T18:06:35Z</time>
      </trkpt>
      <trkpt lat="45.56076" lon="6.71029">
        <ele>900.5</ele>
        <time>2011-07-30T18:06:38Z</time>
      </trkpt>
      <trkpt lat="45.56104" lon="6.71028">
        <ele>895.5</ele>
        <time>2011-07-30T18:06:45Z</time>
      </trkpt>
      <trkpt lat="45.56133" lon="6.71029">
        <ele>887</ele>
        <time>2011-07-30T18:06:52Z</time>
      </trkpt>
      <trkpt lat="45.5616" lon="6.71021">
        <ele>882.2</ele>
        <time>2011-07-30T18:07:03Z</time>
      </trkpt>
      <trkpt lat="45.56167" lon="6.70976">
        <ele>877.4</ele>
        <time>2011-07-30T18:07:20Z</time>
      </trkpt>
      <trkpt lat="45.56168" lon="6.70963">
        <ele>874.9</ele>
        <time>2011-07-30T18:07:24Z</time>
      </trkpt>
      <trkpt lat="45.56165" lon="6.70924">
        <ele>872.5</ele>
        <time>2011-07-30T18:07:34Z</time>
      </trkpt>
      <trkpt lat="45.56155" lon="6.70888">
        <ele>867.6</ele>
        <time>2011-07-30T18:07:44Z</time>
      </trkpt>
      <trkpt lat="45.56181" lon="6.7088">
        <ele>868.5</ele>
        <time>2011-07-30T18:07:59Z</time>
      </trkpt>
      <trkpt lat="45.56205" lon="6.70863">
        <ele>869.3</ele>
        <time>2011-07-30T18:08:14Z</time>
      </trkpt>
      <trkpt lat="45.56205" lon="6.70849">
        <ele>870.1</ele>
        <time>2011-07-30T18:08:19Z</time>
      </trkpt>
      <trkpt lat="45.56209" lon="6.70809">
        <ele>870.5</ele>
        <time>2011-07-30T18:08:27Z</time>
      </trkpt>
      <trkpt lat="45.56212" lon="6.70769">
        <ele>871</ele>
        <time>2011-07-30T18:08:40Z</time>
      </trkpt>
      <trkpt lat="45.56188" lon="6.70746">
        <ele>871.5</ele>
        <time>2011-07-30T18:08:49Z</time>
      </trkpt>
      <trkpt lat="45.56174" lon="6.70736">
        <ele>871.6</ele>
        <time>2011-07-30T18:08:55Z</time>
      </trkpt>
      <trkpt lat="45.56165" lon="6.70732">
        <ele>871.8</ele>
        <time>2011-07-30T18:08:59Z</time>
      </trkpt>
      <trkpt lat="45.56163" lon="6.70692">
        <ele>871.4</ele>
        <time>2011-07-30T18:09:28Z</time>
      </trkpt>
      <trkpt lat="45.56173" lon="6.70654">
        <ele>870.9</ele>
        <time>2011-07-30T18:09:42Z</time>
      </trkpt>
      <trkpt lat="45.5619" lon="6.70623">
        <ele>871.8</ele>
        <time>2011-07-30T18:10:07Z</time>
      </trkpt>
      <trkpt lat="45.56172" lon="6.70592">
        <ele>870.3</ele>
        <time>2011-07-30T18:10:30Z</time>
      </trkpt>
      <trkpt lat="45.56154" lon="6.70561">
        <ele>868.7</ele>
        <time>2011-07-30T18:10:41Z</time>
      </trkpt>
      <trkpt lat="45.56131" lon="6.70541">
        <ele>867.2</ele>
        <time>2011-07-30T18:10:53Z</time>
      </trkpt>
      <trkpt lat="45.56135" lon="6.705">
        <ele>868.9</ele>
        <time>2011-07-30T18:11:25Z</time>
      </trkpt>
      <trkpt lat="45.5614" lon="6.7046">
        <ele>870.6</ele>
        <time>2011-07-30T18:11:49Z</time>
      </trkpt>
      <trkpt lat="45.56145" lon="6.70443">
        <ele>872.4</ele>
        <time>2011-07-30T18:12:05Z</time>
      </trkpt>
      <trkpt lat="45.5615" lon="6.70431">
        <ele>872.7</ele>
        <time>2011-07-30T18:12:11Z</time>
      </trkpt>
      <trkpt lat="45.56149" lon="6.70392">
        <ele>873.1</ele>
        <time>2011-07-30T18:12:34Z</time>
      </trkpt>
      <trkpt lat="45.56127" lon="6.70368">
        <ele>874.1</ele>
        <time>2011-07-30T18:12:43Z</time>
      </trkpt>
      <trkpt lat="45.56114" lon="6.70333">
        <ele>875.1</ele>
        <time>2011-07-30T18:13:08Z</time>
      </trkpt>
      <trkpt lat="45.56109" lon="6.70314">
        <ele>877.1</ele>
        <time>2011-07-30T18:13:14Z</time>
      </trkpt>
      <trkpt lat="45.56091" lon="6.7028">
        <ele>879.1</ele>
        <time>2011-07-30T18:13:24Z</time>
      </trkpt>
      <trkpt lat="45.56067" lon="6.70261">
        <ele>881.1</ele>
        <time>2011-07-30T18:13:31Z</time>
      </trkpt>
      <trkpt lat="45.56053" lon="6.70236">
        <ele>883</ele>
        <time>2011-07-30T18:13:46Z</time>
      </trkpt>
      <trkpt lat="45.56064" lon="6.70231">
        <ele>881.5</ele>
        <time>2011-07-30T18:13:54Z</time>
      </trkpt>
      <trkpt lat="45.56077" lon="6.7023">
        <ele>880.1</ele>
        <time>2011-07-30T18:13:59Z</time>
      </trkpt>
      <trkpt lat="45.56086" lon="6.7023">
        <ele>878.5</ele>
        <time>2011-07-30T18:14:04Z</time>
      </trkpt>
      <trkpt lat="45.56091" lon="6.70218">
        <ele>878.2</ele>
        <time>2011-07-30T18:14:11Z</time>
      </trkpt>
      <trkpt lat="45.56094" lon="6.70206">
        <ele>877.2</ele>
        <time>2011-07-30T18:14:18Z</time>
      </trkpt>
      <trkpt lat="45.56112" lon="6.70172">
        <ele>876.2</ele>
        <time>2011-07-30T18:14:38Z</time>
      </trkpt>
      <trkpt lat="45.56104" lon="6.70134">
        <ele>874.5</ele>
        <time>2011-07-30T18:15:00Z</time>
      </trkpt>
      <trkpt lat="45.56105" lon="6.7011">
        <ele>872.7</ele>
        <time>2011-07-30T18:15:10Z</time>
      </trkpt>
      <trkpt lat="45.5611" lon="6.7007">
        <ele>870.5</ele>
        <time>2011-07-30T18:15:24Z</time>
      </trkpt>
      <trkpt lat="45.56117" lon="6.70026">
        <ele>868.2</ele>
        <time>2011-07-30T18:15:43Z</time>
      </trkpt>
      <trkpt lat="45.56118" lon="6.69986">
        <ele>865.2</ele>
        <time>2011-07-30T18:15:59Z</time>
      </trkpt>
      <trkpt lat="45.56117" lon="6.69946">
        <ele>862.2</ele>
        <time>2011-07-30T18:16:19Z</time>
      </trkpt>
      <trkpt lat="45.56115" lon="6.69906">
        <ele>859.2</ele>
        <time>2011-07-30T18:16:46Z</time>
      </trkpt>
      <trkpt lat="45.56099" lon="6.69844">
        <ele>856.4</ele>
        <time>2011-07-30T18:17:11Z</time>
      </trkpt>
      <trkpt lat="45.56096" lon="6.69817">
        <ele>853.5</ele>
        <time>2011-07-30T18:17:18Z</time>
      </trkpt>
      <trkpt lat="45.56085" lon="6.69783">
        <ele>851.5</ele>
        <time>2011-07-30T18:17:34Z</time>
      </trkpt>
      <trkpt lat="45.56081" lon="6.6977">
        <ele>849</ele>
        <time>2011-07-30T18:17:43Z</time>
      </trkpt>
      <trkpt lat="45.56076" lon="6.69757">
        <ele>847.3</ele>
        <time>2011-07-30T18:17:50Z</time>
      </trkpt>
      <trkpt lat="45.56073" lon="6.69745">
        <ele>850.8</ele>
        <time>2011-07-30T18:17:54Z</time>
      </trkpt>
      <trkpt lat="45.56068" lon="6.69734">
        <ele>854.9</ele>
        <time>2011-07-30T18:17:59Z</time>
      </trkpt>
      <trkpt lat="45.56059" lon="6.69724">
        <ele>859</ele>
        <time>2011-07-30T18:18:04Z</time>
      </trkpt>
      <trkpt lat="45.56053" lon="6.69714">
        <ele>863.9</ele>
        <time>2011-07-30T18:18:08Z</time>
      </trkpt>
      <trkpt lat="45.56048" lon="6.69702">
        <ele>868.8</ele>
        <time>2011-07-30T18:18:13Z</time>
      </trkpt>
      <trkpt lat="45.56034" lon="6.69692">
        <ele>868.8</ele>
        <time>2011-07-30T18:18:20Z</time>
      </trkpt>
      <trkpt lat="45.56025" lon="6.69686">
        <ele>868.8</ele>
        <time>2011-07-30T18:18:25Z</time>
      </trkpt>
      <trkpt lat="45.56029" lon="6.69673">
        <ele>868.8</ele>
        <time>2011-07-30T18:18:39Z</time>
      </trkpt>
      <trkpt lat="45.56036" lon="6.69664">
        <ele>868.4</ele>
        <time>2011-07-30T18:18:47Z</time>
      </trkpt>
      <trkpt lat="45.56045" lon="6.69658">
        <ele>868.3</ele>
        <time>2011-07-30T18:18:58Z</time>
      </trkpt>
      <trkpt lat="45.56058" lon="6.69617">
        <ele>867.8</ele>
        <time>2011-07-30T18:19:19Z</time>
      </trkpt>
      <trkpt lat="45.56074" lon="6.69584">
        <ele>862.1</ele>
        <time>2011-07-30T18:19:35Z</time>
      </trkpt>
      <trkpt lat="45.5608" lon="6.69545">
        <ele>856.4</ele>
        <time>2011-07-30T18:19:53Z</time>
      </trkpt>
      <trkpt lat="45.56087" lon="6.69504">
        <ele>850.6</ele>
        <time>2011-07-30T18:20:10Z</time>
      </trkpt>
      <trkpt lat="45.56083" lon="6.69464">
        <ele>844.2</ele>
        <time>2011-07-30T18:20:27Z</time>
      </trkpt>
      <trkpt lat="45.56079" lon="6.69453">
        <ele>837.7</ele>
        <time>2011-07-30T18:20:33Z</time>
      </trkpt>
      <trkpt lat="45.56078" lon="6.69435">
        <ele>836.2</ele>
        <time>2011-07-30T18:20:41Z</time>
      </trkpt>
      <trkpt lat="45.56081" lon="6.69422">
        <ele>833.9</ele>
        <time>2011-07-30T18:20:49Z</time>
      </trkpt>
      <trkpt lat="45.56093" lon="6.69386">
        <ele>835.4</ele>
        <time>2011-07-30T18:21:07Z</time>
      </trkpt>
      <trkpt lat="45.56094" lon="6.69344">
        <ele>837.3</ele>
        <time>2011-07-30T18:21:19Z</time>
      </trkpt>
      <trkpt lat="45.56081" lon="6.69325">
        <ele>837.8</ele>
        <time>2011-07-30T18:21:25Z</time>
      </trkpt>
      <trkpt lat="45.56072" lon="6.69316">
        <ele>838.7</ele>
        <time>2011-07-30T18:21:30Z</time>
      </trkpt>
      <trkpt lat="45.56056" lon="6.6928">
        <ele>838.7</ele>
        <time>2011-07-30T18:21:52Z</time>
      </trkpt>
      <trkpt lat="45.56041" lon="6.69248">
        <ele>838.7</ele>
        <time>2011-07-30T18:22:07Z</time>
      </trkpt>
      <trkpt lat="45.56017" lon="6.69224">
        <ele>837.6</ele>
        <time>2011-07-30T18:22:23Z</time>
      </trkpt>
      <trkpt lat="45.56001" lon="6.69193">
        <ele>837.3</ele>
        <time>2011-07-30T18:22:34Z</time>
      </trkpt>
      <trkpt lat="45.55989" lon="6.69156">
        <ele>836.9</ele>
        <time>2011-07-30T18:22:41Z</time>
      </trkpt>
      <trkpt lat="45.55979" lon="6.69119">
        <ele>836.5</ele>
        <time>2011-07-30T18:22:49Z</time>
      </trkpt>
      <trkpt lat="45.55987" lon="6.69079">
        <ele>835.5</ele>
        <time>2011-07-30T18:23:16Z</time>
      </trkpt>
      <trkpt lat="45.55995" lon="6.6904">
        <ele>834.8</ele>
        <time>2011-07-30T18:23:33Z</time>
      </trkpt>
      <trkpt lat="45.55997" lon="6.69025">
        <ele>834.2</ele>
        <time>2011-07-30T18:23:38Z</time>
      </trkpt>
      <trkpt lat="45.56" lon="6.69009">
        <ele>834.9</ele>
        <time>2011-07-30T18:23:52Z</time>
      </trkpt>
      <trkpt lat="45.55995" lon="6.6897">
        <ele>833.5</ele>
        <time>2011-07-30T18:24:09Z</time>
      </trkpt>
      <trkpt lat="45.55976" lon="6.68955">
        <ele>833.1</ele>
        <time>2011-07-30T18:24:18Z</time>
      </trkpt>
      <trkpt lat="45.55951" lon="6.6894">
        <ele>833.7</ele>
        <time>2011-07-30T18:24:23Z</time>
      </trkpt>
      <trkpt lat="45.55926" lon="6.68918">
        <ele>835.5</ele>
        <time>2011-07-30T18:24:30Z</time>
      </trkpt>
      <trkpt lat="45.55914" lon="6.68902">
        <ele>837.2</ele>
        <time>2011-07-30T18:24:36Z</time>
      </trkpt>
      <trkpt lat="45.55901" lon="6.68866">
        <ele>838.9</ele>
        <time>2011-07-30T18:24:53Z</time>
      </trkpt>
      <trkpt lat="45.55884" lon="6.68831">
        <ele>837.7</ele>
        <time>2011-07-30T18:25:10Z</time>
      </trkpt>
      <trkpt lat="45.55872" lon="6.68797">
        <ele>838</ele>
        <time>2011-07-30T18:25:30Z</time>
      </trkpt>
      <trkpt lat="45.55862" lon="6.68778">
        <ele>838.8</ele>
        <time>2011-07-30T18:25:38Z</time>
      </trkpt>
      <trkpt lat="45.55858" lon="6.68767">
        <ele>832.9</ele>
        <time>2011-07-30T18:25:44Z</time>
      </trkpt>
      <trkpt lat="45.5584" lon="6.68737">
        <ele>827</ele>
        <time>2011-07-30T18:26:08Z</time>
      </trkpt>
      <trkpt lat="45.55825" lon="6.68704">
        <ele>823.1</ele>
        <time>2011-07-30T18:26:25Z</time>
      </trkpt>
      <trkpt lat="45.55808" lon="6.68671">
        <ele>819.2</ele>
        <time>2011-07-30T18:26:38Z</time>
      </trkpt>
      <trkpt lat="45.55792" lon="6.68638">
        <ele>814.2</ele>
        <time>2011-07-30T18:26:56Z</time>
      </trkpt>
      <trkpt lat="45.55795" lon="6.68595">
        <ele>808.7</ele>
        <time>2011-07-30T18:27:15Z</time>
      </trkpt>
      <trkpt lat="45.55799" lon="6.68581">
        <ele>803.3</ele>
        <time>2011-07-30T18:27:21Z</time>
      </trkpt>
      <trkpt lat="45.55807" lon="6.68542">
        <ele>797.8</ele>
        <time>2011-07-30T18:27:31Z</time>
      </trkpt>
      <trkpt lat="45.55819" lon="6.68505">
        <ele>795.3</ele>
        <time>2011-07-30T18:27:44Z</time>
      </trkpt>
      <trkpt lat="45.55834" lon="6.68472">
        <ele>792.7</ele>
        <time>2011-07-30T18:28:00Z</time>
      </trkpt>
      <trkpt lat="45.55835" lon="6.68458">
        <ele>784.3</ele>
        <time>2011-07-30T18:28:07Z</time>
      </trkpt>
      <trkpt lat="45.55827" lon="6.6845">
        <ele>782.5</ele>
        <time>2011-07-30T18:28:11Z</time>
      </trkpt>
      <trkpt lat="45.55819" lon="6.68443">
        <ele>780.8</ele>
        <time>2011-07-30T18:28:21Z</time>
      </trkpt>
      <trkpt lat="45.55844" lon="6.6846">
        <ele>778.4</ele>
        <time>2011-07-30T18:29:14Z</time>
      </trkpt>
      <trkpt lat="45.55871" lon="6.68452">
        <ele>775.9</ele>
        <time>2011-07-30T18:29:34Z</time>
      </trkpt>
      <trkpt lat="45.55881" lon="6.68446">
        <ele>773.5</ele>
        <time>2011-07-30T18:29:38Z</time>
      </trkpt>
      <trkpt lat="45.55909" lon="6.6844">
        <ele>771.5</ele>
        <time>2011-07-30T18:29:49Z</time>
      </trkpt>
      <trkpt lat="45.55937" lon="6.68441">
        <ele>769.5</ele>
        <time>2011-07-30T18:29:59Z</time>
      </trkpt>
      <trkpt lat="45.55965" lon="6.68438">
        <ele>767.5</ele>
        <time>2011-07-30T18:30:10Z</time>
      </trkpt>
      <trkpt lat="45.55993" lon="6.68443">
        <ele>765.5</ele>
        <time>2011-07-30T18:30:26Z</time>
      </trkpt>
      <trkpt lat="45.56005" lon="6.68445">
        <ele>762.8</ele>
        <time>2011-07-30T18:30:37Z</time>
      </trkpt>
      <trkpt lat="45.56008" lon="6.68431">
        <ele>761.4</ele>
        <time>2011-07-30T18:30:46Z</time>
      </trkpt>
      <trkpt lat="45.56004" lon="6.68417">
        <ele>759.9</ele>
        <time>2011-07-30T18:30:49Z</time>
      </trkpt>
      <trkpt lat="45.56005" lon="6.68404">
        <ele>758.2</ele>
        <time>2011-07-30T18:30:52Z</time>
      </trkpt>
      <trkpt lat="45.56003" lon="6.68391">
        <ele>757.3</ele>
        <time>2011-07-30T18:30:59Z</time>
      </trkpt>
      <trkpt lat="45.55991" lon="6.68378">
        <ele>756.4</ele>
        <time>2011-07-30T18:31:06Z</time>
      </trkpt>
      <trkpt lat="45.55985" lon="6.68365">
        <ele>755.5</ele>
        <time>2011-07-30T18:31:12Z</time>
      </trkpt>
      <trkpt lat="45.55984" lon="6.68324">
        <ele>754.4</ele>
        <time>2011-07-30T18:31:29Z</time>
      </trkpt>
      <trkpt lat="45.55976" lon="6.68287">
        <ele>753.3</ele>
        <time>2011-07-30T18:31:47Z</time>
      </trkpt>
      <trkpt lat="45.55986" lon="6.68273">
        <ele>752.2</ele>
        <time>2011-07-30T18:31:53Z</time>
      </trkpt>
      <trkpt lat="45.55996" lon="6.68266">
        <ele>751.1</ele>
        <time>2011-07-30T18:31:57Z</time>
      </trkpt>
      <trkpt lat="45.56013" lon="6.68234">
        <ele>749.5</ele>
        <time>2011-07-30T18:32:14Z</time>
      </trkpt>
      <trkpt lat="45.56017" lon="6.68211">
        <ele>747.8</ele>
        <time>2011-07-30T18:32:21Z</time>
      </trkpt>
      <trkpt lat="45.56022" lon="6.68197">
        <ele>746.2</ele>
        <time>2011-07-30T18:32:27Z</time>
      </trkpt>
      <trkpt lat="45.5603" lon="6.68188">
        <ele>744.8</ele>
        <time>2011-07-30T18:32:33Z</time>
      </trkpt>
      <trkpt lat="45.56043" lon="6.68152">
        <ele>743</ele>
        <time>2011-07-30T18:33:00Z</time>
      </trkpt>
      <trkpt lat="45.56057" lon="6.68132">
        <ele>741.2</ele>
        <time>2011-07-30T18:33:06Z</time>
      </trkpt>
      <trkpt lat="45.56064" lon="6.68123">
        <ele>739.4</ele>
        <time>2011-07-30T18:33:11Z</time>
      </trkpt>
      <trkpt lat="45.56077" lon="6.68088">
        <ele>737.7</ele>
        <time>2011-07-30T18:33:23Z</time>
      </trkpt>
      <trkpt lat="45.56085" lon="6.68055">
        <ele>736.1</ele>
        <time>2011-07-30T18:33:31Z</time>
      </trkpt>
      <trkpt lat="45.5609" lon="6.68041">
        <ele>734.5</ele>
        <time>2011-07-30T18:33:34Z</time>
      </trkpt>
      <trkpt lat="45.56098" lon="6.68031">
        <ele>731.5</ele>
        <time>2011-07-30T18:33:36Z</time>
      </trkpt>
      <trkpt lat="45.56107" lon="6.68023">
        <ele>729.5</ele>
        <time>2011-07-30T18:33:39Z</time>
      </trkpt>
      <trkpt lat="45.56114" lon="6.68007">
        <ele>727.5</ele>
        <time>2011-07-30T18:33:51Z</time>
      </trkpt>
      <trkpt lat="45.56121" lon="6.67997">
        <ele>724.5</ele>
        <time>2011-07-30T18:34:00Z</time>
      </trkpt>
      <trkpt lat="45.56126" lon="6.67982">
        <ele>721.6</ele>
        <time>2011-07-30T18:34:06Z</time>
      </trkpt>
      <trkpt lat="45.5613" lon="6.67968">
        <ele>719.2</ele>
        <time>2011-07-30T18:34:13Z</time>
      </trkpt>
      <trkpt lat="45.5615" lon="6.6794">
        <ele>716.2</ele>
        <time>2011-07-30T18:34:29Z</time>
      </trkpt>
      <trkpt lat="45.56152" lon="6.67898">
        <ele>713.2</ele>
        <time>2011-07-30T18:34:48Z</time>
      </trkpt>
      <trkpt lat="45.56165" lon="6.67865">
        <ele>710.2</ele>
        <time>2011-07-30T18:34:56Z</time>
      </trkpt>
      <trkpt lat="45.56173" lon="6.67856">
        <ele>706.5</ele>
        <time>2011-07-30T18:35:00Z</time>
      </trkpt>
      <trkpt lat="45.56172" lon="6.67816">
        <ele>704</ele>
        <time>2011-07-30T18:35:18Z</time>
      </trkpt>
      <trkpt lat="45.56175" lon="6.67796">
        <ele>702.9</ele>
        <time>2011-07-30T18:35:29Z</time>
      </trkpt>
      <trkpt lat="45.56168" lon="6.67756">
        <ele>702</ele>
        <time>2011-07-30T18:35:38Z</time>
      </trkpt>
      <trkpt lat="45.56154" lon="6.67722">
        <ele>700.1</ele>
        <time>2011-07-30T18:35:51Z</time>
      </trkpt>
      <trkpt lat="45.56135" lon="6.67691">
        <ele>700.6</ele>
        <time>2011-07-30T18:36:02Z</time>
      </trkpt>
      <trkpt lat="45.5611" lon="6.67674">
        <ele>701.2</ele>
        <time>2011-07-30T18:36:13Z</time>
      </trkpt>
      <trkpt lat="45.56082" lon="6.67665">
        <ele>701.7</ele>
        <time>2011-07-30T18:36:30Z</time>
      </trkpt>
      <trkpt lat="45.56071" lon="6.67654">
        <ele>702.8</ele>
        <time>2011-07-30T18:36:37Z</time>
      </trkpt>
      <trkpt lat="45.56055" lon="6.6762">
        <ele>704.2</ele>
        <time>2011-07-30T18:36:49Z</time>
      </trkpt>
      <trkpt lat="45.56029" lon="6.676">
        <ele>705.5</ele>
        <time>2011-07-30T18:37:02Z</time>
      </trkpt>
      <trkpt lat="45.56016" lon="6.67587">
        <ele>707</ele>
        <time>2011-07-30T18:37:08Z</time>
      </trkpt>
      <trkpt lat="45.55994" lon="6.67561">
        <ele>707.2</ele>
        <time>2011-07-30T18:37:19Z</time>
      </trkpt>
      <trkpt lat="45.55983" lon="6.67546">
        <ele>707.4</ele>
        <time>2011-07-30T18:37:25Z</time>
      </trkpt>
      <trkpt lat="45.5596" lon="6.67524">
        <ele>707.5</ele>
        <time>2011-07-30T18:37:36Z</time>
      </trkpt>
      <trkpt lat="45.55941" lon="6.67495">
        <ele>708.7</ele>
        <time>2011-07-30T18:37:48Z</time>
      </trkpt>
      <trkpt lat="45.55944" lon="6.67456">
        <ele>708</ele>
        <time>2011-07-30T18:37:56Z</time>
      </trkpt>
      <trkpt lat="45.55942" lon="6.67421">
        <ele>707.3</ele>
        <time>2011-07-30T18:38:10Z</time>
      </trkpt>
      <trkpt lat="45.55944" lon="6.67407">
        <ele>706.5</ele>
        <time>2011-07-30T18:38:16Z</time>
      </trkpt>
      <trkpt lat="45.55947" lon="6.67394">
        <ele>705.8</ele>
        <time>2011-07-30T18:38:23Z</time>
      </trkpt>
      <trkpt lat="45.5595" lon="6.6738">
        <ele>704.5</ele>
        <time>2011-07-30T18:38:31Z</time>
      </trkpt>
      <trkpt lat="45.55953" lon="6.67366">
        <ele>703.1</ele>
        <time>2011-07-30T18:38:34Z</time>
      </trkpt>
      <trkpt lat="45.55954" lon="6.67346">
        <ele>702.4</ele>
        <time>2011-07-30T18:38:40Z</time>
      </trkpt>
      <trkpt lat="45.55947" lon="6.6733">
        <ele>701.6</ele>
        <time>2011-07-30T18:38:48Z</time>
      </trkpt>
      <trkpt lat="45.55953" lon="6.67308">
        <ele>699.2</ele>
        <time>2011-07-30T18:38:56Z</time>
      </trkpt>
      <trkpt lat="45.55956" lon="6.67291">
        <ele>696.7</ele>
        <time>2011-07-30T18:39:05Z</time>
      </trkpt>
      <trkpt lat="45.55958" lon="6.67275">
        <ele>694.1</ele>
        <time>2011-07-30T18:39:13Z</time>
      </trkpt>
      <trkpt lat="45.5596" lon="6.67257">
        <ele>691.8</ele>
        <time>2011-07-30T18:39:16Z</time>
      </trkpt>
      <trkpt lat="45.55961" lon="6.67236">
        <ele>689.5</ele>
        <time>2011-07-30T18:39:18Z</time>
      </trkpt>
      <trkpt lat="45.55972" lon="6.67198">
        <ele>687.5</ele>
        <time>2011-07-30T18:39:33Z</time>
      </trkpt>
      <trkpt lat="45.55985" lon="6.67162">
        <ele>685.5</ele>
        <time>2011-07-30T18:39:45Z</time>
      </trkpt>
      <trkpt lat="45.55981" lon="6.67124">
        <ele>683.9</ele>
        <time>2011-07-30T18:39:57Z</time>
      </trkpt>
      <trkpt lat="45.55978" lon="6.67111">
        <ele>682.3</ele>
        <time>2011-07-30T18:40:03Z</time>
      </trkpt>
      <trkpt lat="45.55969" lon="6.67075">
        <ele>680.3</ele>
        <time>2011-07-30T18:40:24Z</time>
      </trkpt>
      <trkpt lat="45.5596" lon="6.6704">
        <ele>678.3</ele>
        <time>2011-07-30T18:40:39Z</time>
      </trkpt>
      <trkpt lat="45.55954" lon="6.67026">
        <ele>678</ele>
        <time>2011-07-30T18:40:44Z</time>
      </trkpt>
      <trkpt lat="45.55949" lon="6.67012">
        <ele>677.5</ele>
        <time>2011-07-30T18:40:50Z</time>
      </trkpt>
      <trkpt lat="45.55945" lon="6.66998">
        <ele>677.1</ele>
        <time>2011-07-30T18:40:58Z</time>
      </trkpt>
      <trkpt lat="45.55929" lon="6.66966">
        <ele>676.4</ele>
        <time>2011-07-30T18:41:10Z</time>
      </trkpt>
      <trkpt lat="45.55913" lon="6.66932">
        <ele>675.6</ele>
        <time>2011-07-30T18:41:25Z</time>
      </trkpt>
      <trkpt lat="45.55896" lon="6.66896">
        <ele>674.6</ele>
        <time>2011-07-30T18:41:38Z</time>
      </trkpt>
      <trkpt lat="45.5588" lon="6.66862">
        <ele>673.3</ele>
        <time>2011-07-30T18:41:48Z</time>
      </trkpt>
      <trkpt lat="45.55878" lon="6.66821">
        <ele>671.9</ele>
        <time>2011-07-30T18:42:01Z</time>
      </trkpt>
      <trkpt lat="45.5588" lon="6.66781">
        <ele>670.5</ele>
        <time>2011-07-30T18:42:18Z</time>
      </trkpt>
      <trkpt lat="45.55866" lon="6.66744">
        <ele>670.1</ele>
        <time>2011-07-30T18:42:31Z</time>
      </trkpt>
      <trkpt lat="45.55853" lon="6.66723">
        <ele>669.2</ele>
        <time>2011-07-30T18:42:37Z</time>
      </trkpt>
      <trkpt lat="45.55847" lon="6.66713">
        <ele>668.3</ele>
        <time>2011-07-30T18:42:43Z</time>
      </trkpt>
      <trkpt lat="45.55823" lon="6.66681">
        <ele>667.5</ele>
        <time>2011-07-30T18:43:07Z</time>
      </trkpt>
      <trkpt lat="45.55803" lon="6.66654">
        <ele>666.6</ele>
        <time>2011-07-30T18:43:23Z</time>
      </trkpt>
      <trkpt lat="45.55792" lon="6.66629">
        <ele>666.2</ele>
        <time>2011-07-30T18:43:33Z</time>
      </trkpt>
      <trkpt lat="45.55777" lon="6.66597">
        <ele>666.4</ele>
        <time>2011-07-30T18:43:51Z</time>
      </trkpt>
      <trkpt lat="45.55765" lon="6.66572">
        <ele>666</ele>
        <time>2011-07-30T18:44:02Z</time>
      </trkpt>
      <trkpt lat="45.55745" lon="6.66539">
        <ele>666</ele>
        <time>2011-07-30T18:44:10Z</time>
      </trkpt>
      <trkpt lat="45.55737" lon="6.66527">
        <ele>666</ele>
        <time>2011-07-30T18:44:14Z</time>
      </trkpt>
      <trkpt lat="45.55718" lon="6.66499">
        <ele>665.6</ele>
        <time>2011-07-30T18:44:28Z</time>
      </trkpt>
      <trkpt lat="45.5571" lon="6.66481">
        <ele>664.7</ele>
        <time>2011-07-30T18:44:36Z</time>
      </trkpt>
      <trkpt lat="45.55695" lon="6.66447">
        <ele>664.3</ele>
        <time>2011-07-30T18:44:46Z</time>
      </trkpt>
      <trkpt lat="45.55687" lon="6.66426">
        <ele>663.9</ele>
        <time>2011-07-30T18:44:54Z</time>
      </trkpt>
      <trkpt lat="45.55682" lon="6.66415">
        <ele>663.7</ele>
        <time>2011-07-30T18:45:02Z</time>
      </trkpt>
      <trkpt lat="45.55676" lon="6.66377">
        <ele>663.5</ele>
        <time>2011-07-30T18:45:23Z</time>
      </trkpt>
      <trkpt lat="45.55673" lon="6.66337">
        <ele>663.7</ele>
        <time>2011-07-30T18:45:39Z</time>
      </trkpt>
      <trkpt lat="45.55672" lon="6.66322">
        <ele>663.3</ele>
        <time>2011-07-30T18:45:44Z</time>
      </trkpt>
      <trkpt lat="45.55674" lon="6.66279">
        <ele>663.4</ele>
        <time>2011-07-30T18:46:01Z</time>
      </trkpt>
      <trkpt lat="45.55669" lon="6.66237">
        <ele>663.5</ele>
        <time>2011-07-30T18:46:14Z</time>
      </trkpt>
      <trkpt lat="45.55664" lon="6.66222">
        <ele>663.5</ele>
        <time>2011-07-30T18:46:19Z</time>
      </trkpt>
      <trkpt lat="45.55654" lon="6.66198">
        <ele>664.5</ele>
        <time>2011-07-30T18:46:21Z</time>
      </trkpt>
      <trkpt lat="45.55652" lon="6.66186">
        <ele>665.4</ele>
        <time>2011-07-30T18:46:26Z</time>
      </trkpt>
      <trkpt lat="45.55651" lon="6.66173">
        <ele>666.3</ele>
        <time>2011-07-30T18:46:31Z</time>
      </trkpt>
      <trkpt lat="45.55648" lon="6.66158">
        <ele>667.1</ele>
        <time>2011-07-30T18:46:36Z</time>
      </trkpt>
      <trkpt lat="45.55649" lon="6.66144">
        <ele>667.9</ele>
        <time>2011-07-30T18:46:41Z</time>
      </trkpt>
      <trkpt lat="45.55648" lon="6.66131">
        <ele>668.7</ele>
        <time>2011-07-30T18:46:46Z</time>
      </trkpt>
      <trkpt lat="45.55648" lon="6.66116">
        <ele>669.4</ele>
        <time>2011-07-30T18:46:53Z</time>
      </trkpt>
      <trkpt lat="45.55645" lon="6.66102">
        <ele>670</ele>
        <time>2011-07-30T18:46:59Z</time>
      </trkpt>
      <trkpt lat="45.55644" lon="6.66089">
        <ele>670.6</ele>
        <time>2011-07-30T18:47:04Z</time>
      </trkpt>
      <trkpt lat="45.55642" lon="6.66075">
        <ele>671.3</ele>
        <time>2011-07-30T18:47:10Z</time>
      </trkpt>
      <trkpt lat="45.55649" lon="6.66055">
        <ele>671.9</ele>
        <time>2011-07-30T18:47:12Z</time>
      </trkpt>
      <trkpt lat="45.55654" lon="6.66044">
        <ele>672.1</ele>
        <time>2011-07-30T18:47:15Z</time>
      </trkpt>
      <trkpt lat="45.5565" lon="6.66033">
        <ele>672.3</ele>
        <time>2011-07-30T18:47:23Z</time>
      </trkpt>
      <trkpt lat="45.55642" lon="6.66025">
        <ele>672.8</ele>
        <time>2011-07-30T18:47:32Z</time>
      </trkpt>
      <trkpt lat="45.55637" lon="6.66014">
        <ele>673.4</ele>
        <time>2011-07-30T18:47:40Z</time>
      </trkpt>
      <trkpt lat="45.55634" lon="6.66001">
        <ele>673.9</ele>
        <time>2011-07-30T18:47:48Z</time>
      </trkpt>
      <trkpt lat="45.55636" lon="6.65988">
        <ele>674.5</ele>
        <time>2011-07-30T18:47:58Z</time>
      </trkpt>
      <trkpt lat="45.55631" lon="6.65977">
        <ele>674.8</ele>
        <time>2011-07-30T18:48:06Z</time>
      </trkpt>
      <trkpt lat="45.55632" lon="6.65964">
        <ele>673.5</ele>
        <time>2011-07-30T18:48:11Z</time>
      </trkpt>
      <trkpt lat="45.55631" lon="6.6595">
        <ele>674</ele>
        <time>2011-07-30T18:48:16Z</time>
      </trkpt>
      <trkpt lat="45.55634" lon="6.65937">
        <ele>674.5</ele>
        <time>2011-07-30T18:48:21Z</time>
      </trkpt>
      <trkpt lat="45.55634" lon="6.65924">
        <ele>674.9</ele>
        <time>2011-07-30T18:48:27Z</time>
      </trkpt>
      <trkpt lat="45.55632" lon="6.6591">
        <ele>675.4</ele>
        <time>2011-07-30T18:48:35Z</time>
      </trkpt>
      <trkpt lat="45.55628" lon="6.65897">
        <ele>676</ele>
        <time>2011-07-30T18:48:43Z</time>
      </trkpt>
      <trkpt lat="45.5563" lon="6.65883">
        <ele>676.3</ele>
        <time>2011-07-30T18:48:50Z</time>
      </trkpt>
      <trkpt lat="45.55644" lon="6.65854">
        <ele>675.8</ele>
        <time>2011-07-30T18:49:08Z</time>
      </trkpt>
      <trkpt lat="45.55647" lon="6.65842">
        <ele>675.4</ele>
        <time>2011-07-30T18:49:16Z</time>
      </trkpt>
      <trkpt lat="45.55667" lon="6.65812">
        <ele>674.9</ele>
        <time>2011-07-30T18:49:33Z</time>
      </trkpt>
      <trkpt lat="45.55695" lon="6.65761">
        <ele>674.5</ele>
        <time>2011-07-30T18:49:57Z</time>
      </trkpt>
      <trkpt lat="45.5569" lon="6.65739">
        <ele>675.6</ele>
        <time>2011-07-30T18:50:05Z</time>
      </trkpt>
      <trkpt lat="45.55673" lon="6.65705">
        <ele>676.2</ele>
        <time>2011-07-30T18:50:15Z</time>
      </trkpt>
      <trkpt lat="45.55669" lon="6.65686">
        <ele>676.5</ele>
        <time>2011-07-30T18:50:24Z</time>
      </trkpt>
      <trkpt lat="45.55676" lon="6.65678">
        <ele>676.7</ele>
        <time>2011-07-30T18:50:49Z</time>
      </trkpt>
      <trkpt lat="45.55693" lon="6.65647">
        <ele>677</ele>
        <time>2011-07-30T18:51:03Z</time>
      </trkpt>
      <trkpt lat="45.55706" lon="6.65613">
        <ele>677.2</ele>
        <time>2011-07-30T18:51:18Z</time>
      </trkpt>
      <trkpt lat="45.55722" lon="6.65581">
        <ele>677.4</ele>
        <time>2011-07-30T18:51:30Z</time>
      </trkpt>
      <trkpt lat="45.55722" lon="6.6554">
        <ele>678.3</ele>
        <time>2011-07-30T18:51:44Z</time>
      </trkpt>
      <trkpt lat="45.55731" lon="6.65502">
        <ele>679.5</ele>
        <time>2011-07-30T18:51:56Z</time>
      </trkpt>
      <trkpt lat="45.55732" lon="6.65462">
        <ele>680.6</ele>
        <time>2011-07-30T18:52:12Z</time>
      </trkpt>
      <trkpt lat="45.55737" lon="6.65423">
        <ele>681.8</ele>
        <time>2011-07-30T18:52:27Z</time>
      </trkpt>
      <trkpt lat="45.55737" lon="6.65393">
        <ele>682.8</ele>
        <time>2011-07-30T18:52:41Z</time>
      </trkpt>
      <trkpt lat="45.55734" lon="6.6538">
        <ele>682.7</ele>
        <time>2011-07-30T18:52:47Z</time>
      </trkpt>
      <trkpt lat="45.55729" lon="6.65369">
        <ele>683.1</ele>
        <time>2011-07-30T18:52:52Z</time>
      </trkpt>
      <trkpt lat="45.55721" lon="6.65359">
        <ele>684.2</ele>
        <time>2011-07-30T18:52:57Z</time>
      </trkpt>
      <trkpt lat="45.55716" lon="6.65348">
        <ele>685.5</ele>
        <time>2011-07-30T18:53:03Z</time>
      </trkpt>
      <trkpt lat="45.55704" lon="6.6532">
        <ele>686.8</ele>
        <time>2011-07-30T18:53:19Z</time>
      </trkpt>
      <trkpt lat="45.55697" lon="6.65311">
        <ele>687.2</ele>
        <time>2011-07-30T18:53:26Z</time>
      </trkpt>
      <trkpt lat="45.55689" lon="6.65273">
        <ele>687.6</ele>
        <time>2011-07-30T18:53:48Z</time>
      </trkpt>
      <trkpt lat="45.55729" lon="6.65238">
        <ele>687.8</ele>
        <time>2011-07-30T18:54:04Z</time>
      </trkpt>
      <trkpt lat="45.55738" lon="6.65199">
        <ele>687.8</ele>
        <time>2011-07-30T18:54:15Z</time>
      </trkpt>
      <trkpt lat="45.5572" lon="6.65167">
        <ele>687.8</ele>
        <time>2011-07-30T18:54:20Z</time>
      </trkpt>
      <trkpt lat="45.55702" lon="6.65137">
        <ele>688</ele>
        <time>2011-07-30T18:54:27Z</time>
      </trkpt>
      <trkpt lat="45.55685" lon="6.65107">
        <ele>688.2</ele>
        <time>2011-07-30T18:54:38Z</time>
      </trkpt>
      <trkpt lat="45.55691" lon="6.65069">
        <ele>688.2</ele>
        <time>2011-07-30T18:54:52Z</time>
      </trkpt>
      <trkpt lat="45.55681" lon="6.65046">
        <ele>686.7</ele>
        <time>2011-07-30T18:55:07Z</time>
      </trkpt>
      <trkpt lat="45.55669" lon="6.65046">
        <ele>685</ele>
        <time>2011-07-30T18:55:10Z</time>
      </trkpt>
      <trkpt lat="45.5565" lon="6.65046">
        <ele>683.3</ele>
        <time>2011-07-30T18:55:15Z</time>
      </trkpt>
      <trkpt lat="45.55638" lon="6.6505">
        <ele>682.5</ele>
        <time>2011-07-30T18:55:19Z</time>
      </trkpt>
      <trkpt lat="45.55646" lon="6.65012">
        <ele>681.5</ele>
        <time>2011-07-30T18:55:36Z</time>
      </trkpt>
      <trkpt lat="45.55628" lon="6.64983">
        <ele>680.6</ele>
        <time>2011-07-30T18:55:43Z</time>
      </trkpt>
      <trkpt lat="45.556" lon="6.64987">
        <ele>679.9</ele>
        <time>2011-07-30T18:55:54Z</time>
      </trkpt>
      <trkpt lat="45.55591" lon="6.64991">
        <ele>679.3</ele>
        <time>2011-07-30T18:55:58Z</time>
      </trkpt>
      <trkpt lat="45.55583" lon="6.65">
        <ele>678.6</ele>
        <time>2011-07-30T18:56:03Z</time>
      </trkpt>
      <trkpt lat="45.55579" lon="6.65013">
        <ele>678</ele>
        <time>2011-07-30T18:56:07Z</time>
      </trkpt>
      <trkpt lat="45.55574" lon="6.65028">
        <ele>677.4</ele>
        <time>2011-07-30T18:56:11Z</time>
      </trkpt>
      <trkpt lat="45.55571" lon="6.65041">
        <ele>677.5</ele>
        <time>2011-07-30T18:56:15Z</time>
      </trkpt>
      <trkpt lat="45.5557" lon="6.65055">
        <ele>677.5</ele>
        <time>2011-07-30T18:56:19Z</time>
      </trkpt>
      <trkpt lat="45.55571" lon="6.6507">
        <ele>677.6</ele>
        <time>2011-07-30T18:56:24Z</time>
      </trkpt>
      <trkpt lat="45.55572" lon="6.65084">
        <ele>677.6</ele>
        <time>2011-07-30T18:56:29Z</time>
      </trkpt>
      <trkpt lat="45.55572" lon="6.65097">
        <ele>677.7</ele>
        <time>2011-07-30T18:56:38Z</time>
      </trkpt>
      <trkpt lat="45.55571" lon="6.65098">
        <ele>677.8</ele>
        <time>2011-07-30T18:56:52Z</time>
      </trkpt>
    </trkseg>
  </trk>
</gpx>